<?xml version="1.0" encoding="utf-8"?>
<gpx xmlns:xsi="http://www.w3.org/2001/XMLSchema-instance" xmlns:xsd="http://www.w3.org/2001/XMLSchema" version="1.1" creator="Shapelink.com" xmlns="http://www.topografix.com/GPX/1/1" xmlns:gpxtpx="http://www.garmin.com/xmlschemas/TrackPointExtension/v1">
  <metadata>
    <name>Löpning 11.67 km, 2018-01-03</name>
    <desc></desc>
    <author><name>Bengt-Åke Forslund</name></author> 
    <time>2018-01-03T12:37:44Z</time>
  </metadata>
  <trk>
    <name>Löpning 11.67 km, 2018-01-03</name>
    <trkseg>
      <trkpt lat="62.635867448691" lon="17.967736888708">
        <ele>82.6</ele>
        <time>2018-01-03T12:37:44Z</time>
      </trkpt>
      <trkpt lat="62.635954201356" lon="17.968061016781">
        <ele>81.4</ele>
        <time>2018-01-03T12:37:57Z</time>
      </trkpt>
      <trkpt lat="62.635958979039" lon="17.968080965703">
        <ele>81.6</ele>
        <time>2018-01-03T12:37:58Z</time>
      </trkpt>
      <trkpt lat="62.63596476255" lon="17.968101920453">
        <ele>81.8</ele>
        <time>2018-01-03T12:37:59Z</time>
      </trkpt>
      <trkpt lat="62.635972725355" lon="17.968134442225">
        <ele>81.8</ele>
        <time>2018-01-03T12:38:00Z</time>
      </trkpt>
      <trkpt lat="62.635979682332" lon="17.968160677572">
        <ele>81.8</ele>
        <time>2018-01-03T12:38:01Z</time>
      </trkpt>
      <trkpt lat="62.635986471671" lon="17.968194288991">
        <ele>81.8</ele>
        <time>2018-01-03T12:38:02Z</time>
      </trkpt>
      <trkpt lat="62.635991333173" lon="17.968214405551">
        <ele>81.8</ele>
        <time>2018-01-03T12:38:03Z</time>
      </trkpt>
      <trkpt lat="62.635997954874" lon="17.968246592047">
        <ele>81.8</ele>
        <time>2018-01-03T12:38:04Z</time>
      </trkpt>
      <trkpt lat="62.636004744213" lon="17.968281041656">
        <ele>81.8</ele>
        <time>2018-01-03T12:38:05Z</time>
      </trkpt>
      <trkpt lat="62.636008683706" lon="17.968294620334">
        <ele>82</ele>
        <time>2018-01-03T12:38:06Z</time>
      </trkpt>
      <trkpt lat="62.636015137769" lon="17.968327728839">
        <ele>82</ele>
        <time>2018-01-03T12:38:07Z</time>
      </trkpt>
      <trkpt lat="62.636019496357" lon="17.968345414648">
        <ele>82</ele>
        <time>2018-01-03T12:38:08Z</time>
      </trkpt>
      <trkpt lat="62.63602427404" lon="17.968367710502">
        <ele>82</ele>
        <time>2018-01-03T12:38:09Z</time>
      </trkpt>
      <trkpt lat="62.636027878257" lon="17.968381121542">
        <ele>82</ele>
        <time>2018-01-03T12:38:10Z</time>
      </trkpt>
      <trkpt lat="62.636040702564" lon="17.968400819007">
        <ele>82.2</ele>
        <time>2018-01-03T12:38:11Z</time>
      </trkpt>
      <trkpt lat="62.636051263758" lon="17.968430071838">
        <ele>82.2</ele>
        <time>2018-01-03T12:38:12Z</time>
      </trkpt>
      <trkpt lat="62.636064842436" lon="17.968445913629">
        <ele>82.4</ele>
        <time>2018-01-03T12:38:13Z</time>
      </trkpt>
      <trkpt lat="62.636083953168" lon="17.968463347981">
        <ele>82.4</ele>
        <time>2018-01-03T12:38:14Z</time>
      </trkpt>
      <trkpt lat="62.6361030639" lon="17.968481788161">
        <ele>82.6</ele>
        <time>2018-01-03T12:38:15Z</time>
      </trkpt>
      <trkpt lat="62.63612150408" lon="17.968503916377">
        <ele>82.6</ele>
        <time>2018-01-03T12:38:16Z</time>
      </trkpt>
      <trkpt lat="62.636133490197" lon="17.968515231942">
        <ele>82.6</ele>
        <time>2018-01-03T12:38:17Z</time>
      </trkpt>
      <trkpt lat="62.636152768567" lon="17.968531660466">
        <ele>82.6</ele>
        <time>2018-01-03T12:38:18Z</time>
      </trkpt>
      <trkpt lat="62.636170873471" lon="17.968539287995">
        <ele>82.6</ele>
        <time>2018-01-03T12:38:19Z</time>
      </trkpt>
      <trkpt lat="62.636190570936" lon="17.96855060356">
        <ele>82.6</ele>
        <time>2018-01-03T12:38:20Z</time>
      </trkpt>
      <trkpt lat="62.636212280057" lon="17.968563260229">
        <ele>82.6</ele>
        <time>2018-01-03T12:38:21Z</time>
      </trkpt>
      <trkpt lat="62.63623465973" lon="17.96857658745">
        <ele>82.8</ele>
        <time>2018-01-03T12:38:22Z</time>
      </trkpt>
      <trkpt lat="62.636258715783" lon="17.968590166128">
        <ele>82.8</ele>
        <time>2018-01-03T12:38:23Z</time>
      </trkpt>
      <trkpt lat="62.636283190931" lon="17.968607013747">
        <ele>82.8</ele>
        <time>2018-01-03T12:38:24Z</time>
      </trkpt>
      <trkpt lat="62.636310599744" lon="17.968627130307">
        <ele>82.8</ele>
        <time>2018-01-03T12:38:25Z</time>
      </trkpt>
      <trkpt lat="62.636332979417" lon="17.968651605455">
        <ele>82.8</ele>
        <time>2018-01-03T12:38:26Z</time>
      </trkpt>
      <trkpt lat="62.636355023814" lon="17.968676164422">
        <ele>82.8</ele>
        <time>2018-01-03T12:38:27Z</time>
      </trkpt>
      <trkpt lat="62.63637547565" lon="17.968711116945">
        <ele>82.8</ele>
        <time>2018-01-03T12:38:28Z</time>
      </trkpt>
      <trkpt lat="62.636394670201" lon="17.968742968165">
        <ele>82.8</ele>
        <time>2018-01-03T12:38:29Z</time>
      </trkpt>
      <trkpt lat="62.636414200028" lon="17.968786470226">
        <ele>83</ele>
        <time>2018-01-03T12:38:30Z</time>
      </trkpt>
      <trkpt lat="62.636432891665" lon="17.968827122441">
        <ele>82.8</ele>
        <time>2018-01-03T12:38:31Z</time>
      </trkpt>
      <trkpt lat="62.636446637981" lon="17.968860482403">
        <ele>82.8</ele>
        <time>2018-01-03T12:38:32Z</time>
      </trkpt>
      <trkpt lat="62.636462898867" lon="17.968906415215">
        <ele>82.8</ele>
        <time>2018-01-03T12:38:33Z</time>
      </trkpt>
      <trkpt lat="62.636476561364" lon="17.96893868553">
        <ele>82.8</ele>
        <time>2018-01-03T12:38:34Z</time>
      </trkpt>
      <trkpt lat="62.636493995716" lon="17.968986378541">
        <ele>82.6</ele>
        <time>2018-01-03T12:38:35Z</time>
      </trkpt>
      <trkpt lat="62.636510591878" lon="17.969022253073">
        <ele>82.8</ele>
        <time>2018-01-03T12:38:36Z</time>
      </trkpt>
      <trkpt lat="62.636524170556" lon="17.969072712111">
        <ele>82.8</ele>
        <time>2018-01-03T12:38:37Z</time>
      </trkpt>
      <trkpt lat="62.636538000691" lon="17.969107077901">
        <ele>82.6</ele>
        <time>2018-01-03T12:38:38Z</time>
      </trkpt>
      <trkpt lat="62.636552249921" lon="17.96914571846">
        <ele>82.8</ele>
        <time>2018-01-03T12:38:39Z</time>
      </trkpt>
      <trkpt lat="62.636565241866" lon="17.9691842752">
        <ele>82.8</ele>
        <time>2018-01-03T12:38:40Z</time>
      </trkpt>
      <trkpt lat="62.636578485268" lon="17.969234818057">
        <ele>82.8</ele>
        <time>2018-01-03T12:38:41Z</time>
      </trkpt>
      <trkpt lat="62.636591896308" lon="17.96928401981">
        <ele>82.8</ele>
        <time>2018-01-03T12:38:42Z</time>
      </trkpt>
      <trkpt lat="62.636606061719" lon="17.969336322866">
        <ele>82.8</ele>
        <time>2018-01-03T12:38:43Z</time>
      </trkpt>
      <trkpt lat="62.63662022713" lon="17.969377645633">
        <ele>83</ele>
        <time>2018-01-03T12:38:44Z</time>
      </trkpt>
      <trkpt lat="62.636634392541" lon="17.969436905666">
        <ele>83</ele>
        <time>2018-01-03T12:38:45Z</time>
      </trkpt>
      <trkpt lat="62.63664956378" lon="17.969483006116">
        <ele>83</ele>
        <time>2018-01-03T12:38:46Z</time>
      </trkpt>
      <trkpt lat="62.636661382259" lon="17.96953296224">
        <ele>83</ele>
        <time>2018-01-03T12:38:47Z</time>
      </trkpt>
      <trkpt lat="62.636672697824" lon="17.969582499269">
        <ele>83</ele>
        <time>2018-01-03T12:38:48Z</time>
      </trkpt>
      <trkpt lat="62.63668225319" lon="17.96962097219">
        <ele>83.2</ele>
        <time>2018-01-03T12:38:49Z</time>
      </trkpt>
      <trkpt lat="62.636693317298" lon="17.9696704254">
        <ele>83</ele>
        <time>2018-01-03T12:38:50Z</time>
      </trkpt>
      <trkpt lat="62.636702705026" lon="17.969703366267">
        <ele>83.2</ele>
        <time>2018-01-03T12:38:51Z</time>
      </trkpt>
      <trkpt lat="62.636712176573" lon="17.969748796165">
        <ele>83.2</ele>
        <time>2018-01-03T12:38:52Z</time>
      </trkpt>
      <trkpt lat="62.636722234853" lon="17.969783078136">
        <ele>83.2</ele>
        <time>2018-01-03T12:38:53Z</time>
      </trkpt>
      <trkpt lat="62.636733047504" lon="17.969829430043">
        <ele>83.2</ele>
        <time>2018-01-03T12:38:54Z</time>
      </trkpt>
      <trkpt lat="62.636746877639" lon="17.969868322059">
        <ele>83.4</ele>
        <time>2018-01-03T12:38:55Z</time>
      </trkpt>
      <trkpt lat="62.636760288679" lon="17.969914673966">
        <ele>83.4</ele>
        <time>2018-01-03T12:38:56Z</time>
      </trkpt>
      <trkpt lat="62.636776298108" lon="17.969956415828">
        <ele>83.4</ele>
        <time>2018-01-03T12:38:57Z</time>
      </trkpt>
      <trkpt lat="62.636791720804" lon="17.96999312855">
        <ele>83.6</ele>
        <time>2018-01-03T12:38:58Z</time>
      </trkpt>
      <trkpt lat="62.636807311138" lon="17.970025566503">
        <ele>83.6</ele>
        <time>2018-01-03T12:38:59Z</time>
      </trkpt>
      <trkpt lat="62.636826086594" lon="17.970059513198">
        <ele>83.6</ele>
        <time>2018-01-03T12:39:00Z</time>
      </trkpt>
      <trkpt lat="62.636844778231" lon="17.970097147929">
        <ele>83.6</ele>
        <time>2018-01-03T12:39:01Z</time>
      </trkpt>
      <trkpt lat="62.636860955298" lon="17.970119359964">
        <ele>83.6</ele>
        <time>2018-01-03T12:39:02Z</time>
      </trkpt>
      <trkpt lat="62.636884927532" lon="17.970153558116">
        <ele>83.6</ele>
        <time>2018-01-03T12:39:03Z</time>
      </trkpt>
      <trkpt lat="62.636902194246" lon="17.970174931961">
        <ele>83.6</ele>
        <time>2018-01-03T12:39:04Z</time>
      </trkpt>
      <trkpt lat="62.636927088489" lon="17.970199574747">
        <ele>83.6</ele>
        <time>2018-01-03T12:39:05Z</time>
      </trkpt>
      <trkpt lat="62.636958939709" lon="17.970224217533">
        <ele>83.6</ele>
        <time>2018-01-03T12:39:06Z</time>
      </trkpt>
      <trkpt lat="62.636987102893" lon="17.97024290917">
        <ele>83.6</ele>
        <time>2018-01-03T12:39:07Z</time>
      </trkpt>
      <trkpt lat="62.637016439543" lon="17.970251710165">
        <ele>83.4</ele>
        <time>2018-01-03T12:39:08Z</time>
      </trkpt>
      <trkpt lat="62.637047871668" lon="17.970257745133">
        <ele>83.6</ele>
        <time>2018-01-03T12:39:09Z</time>
      </trkpt>
      <trkpt lat="62.63708626077" lon="17.9702571584">
        <ele>83.4</ele>
        <time>2018-01-03T12:39:10Z</time>
      </trkpt>
      <trkpt lat="62.637119620732" lon="17.970249698509">
        <ele>83.2</ele>
        <time>2018-01-03T12:39:11Z</time>
      </trkpt>
      <trkpt lat="62.637158177472" lon="17.970235197822">
        <ele>83</ele>
        <time>2018-01-03T12:39:12Z</time>
      </trkpt>
      <trkpt lat="62.637195812203" lon="17.970215667995">
        <ele>83</ele>
        <time>2018-01-03T12:39:13Z</time>
      </trkpt>
      <trkpt lat="62.637233111658" lon="17.970196724901">
        <ele>82.6</ele>
        <time>2018-01-03T12:39:14Z</time>
      </trkpt>
      <trkpt lat="62.637275775529" lon="17.970173423219">
        <ele>82.4</ele>
        <time>2018-01-03T12:39:15Z</time>
      </trkpt>
      <trkpt lat="62.637319529047" lon="17.970149786261">
        <ele>82.2</ele>
        <time>2018-01-03T12:39:16Z</time>
      </trkpt>
      <trkpt lat="62.637357918149" lon="17.970130507891">
        <ele>82</ele>
        <time>2018-01-03T12:39:17Z</time>
      </trkpt>
      <trkpt lat="62.637404018599" lon="17.970109050227">
        <ele>81.8</ele>
        <time>2018-01-03T12:39:18Z</time>
      </trkpt>
      <trkpt lat="62.637445257547" lon="17.970096477377">
        <ele>81.6</ele>
        <time>2018-01-03T12:39:19Z</time>
      </trkpt>
      <trkpt lat="62.637488089056" lon="17.970093795169">
        <ele>81.4</ele>
        <time>2018-01-03T12:39:20Z</time>
      </trkpt>
      <trkpt lat="62.637532848402" lon="17.970107290028">
        <ele>81.2</ele>
        <time>2018-01-03T12:39:21Z</time>
      </trkpt>
      <trkpt lat="62.63757241097" lon="17.970135956126">
        <ele>81.2</ele>
        <time>2018-01-03T12:39:22Z</time>
      </trkpt>
      <trkpt lat="62.637604848923" lon="17.970176273065">
        <ele>81</ele>
        <time>2018-01-03T12:39:23Z</time>
      </trkpt>
      <trkpt lat="62.637636700143" lon="17.970226648284">
        <ele>81</ele>
        <time>2018-01-03T12:39:24Z</time>
      </trkpt>
      <trkpt lat="62.637662684033" lon="17.970282807014">
        <ele>80.8</ele>
        <time>2018-01-03T12:39:25Z</time>
      </trkpt>
      <trkpt lat="62.637686320991" lon="17.9703409774">
        <ele>80.8</ele>
        <time>2018-01-03T12:39:26Z</time>
      </trkpt>
      <trkpt lat="62.637707527198" lon="17.970393196637">
        <ele>80.8</ele>
        <time>2018-01-03T12:39:27Z</time>
      </trkpt>
      <trkpt lat="62.637727979034" lon="17.970462347312">
        <ele>80.8</ele>
        <time>2018-01-03T12:39:28Z</time>
      </trkpt>
      <trkpt lat="62.637741641531" lon="17.970507441934">
        <ele>80.8</ele>
        <time>2018-01-03T12:39:29Z</time>
      </trkpt>
      <trkpt lat="62.637759075883" lon="17.970575000048">
        <ele>80.8</ele>
        <time>2018-01-03T12:39:30Z</time>
      </trkpt>
      <trkpt lat="62.637773744208" lon="17.970629817674">
        <ele>80.8</ele>
        <time>2018-01-03T12:39:31Z</time>
      </trkpt>
      <trkpt lat="62.637786819972" lon="17.970671391898">
        <ele>80.6</ele>
        <time>2018-01-03T12:39:32Z</time>
      </trkpt>
      <trkpt lat="62.637800314831" lon="17.970728807913">
        <ele>80.6</ele>
        <time>2018-01-03T12:39:33Z</time>
      </trkpt>
      <trkpt lat="62.637811630396" lon="17.97076929249">
        <ele>80.8</ele>
        <time>2018-01-03T12:39:34Z</time>
      </trkpt>
      <trkpt lat="62.637821856314" lon="17.970820254442">
        <ele>80.8</ele>
        <time>2018-01-03T12:39:35Z</time>
      </trkpt>
      <trkpt lat="62.637832166051" lon="17.970878760104">
        <ele>81</ele>
        <time>2018-01-03T12:39:36Z</time>
      </trkpt>
      <trkpt lat="62.637839625942" lon="17.970929554418">
        <ele>81</ele>
        <time>2018-01-03T12:39:37Z</time>
      </trkpt>
      <trkpt lat="62.637848846032" lon="17.970984036768">
        <ele>81.2</ele>
        <time>2018-01-03T12:39:38Z</time>
      </trkpt>
      <trkpt lat="62.637857647027" lon="17.971034244349">
        <ele>81</ele>
        <time>2018-01-03T12:39:39Z</time>
      </trkpt>
      <trkpt lat="62.637869800782" lon="17.971085541577">
        <ele>81.2</ele>
        <time>2018-01-03T12:39:40Z</time>
      </trkpt>
      <trkpt lat="62.637879523786" lon="17.971137928452">
        <ele>81.2</ele>
        <time>2018-01-03T12:39:41Z</time>
      </trkpt>
      <trkpt lat="62.637890001161" lon="17.97120263672">
        <ele>81.4</ele>
        <time>2018-01-03T12:39:42Z</time>
      </trkpt>
      <trkpt lat="62.637898802156" lon="17.971248066618">
        <ele>81.4</ele>
        <time>2018-01-03T12:39:43Z</time>
      </trkpt>
      <trkpt lat="62.637908189884" lon="17.971310427954">
        <ele>81.2</ele>
        <time>2018-01-03T12:39:44Z</time>
      </trkpt>
      <trkpt lat="62.637916823241" lon="17.971360132621">
        <ele>81.4</ele>
        <time>2018-01-03T12:39:45Z</time>
      </trkpt>
      <trkpt lat="62.637925456598" lon="17.971409082917">
        <ele>81.2</ele>
        <time>2018-01-03T12:39:46Z</time>
      </trkpt>
      <trkpt lat="62.637933754679" lon="17.971453926082">
        <ele>81.2</ele>
        <time>2018-01-03T12:39:47Z</time>
      </trkpt>
      <trkpt lat="62.637943896778" lon="17.971496087039">
        <ele>81.2</ele>
        <time>2018-01-03T12:39:48Z</time>
      </trkpt>
      <trkpt lat="62.637949428832" lon="17.971548306276">
        <ele>81.4</ele>
        <time>2018-01-03T12:39:49Z</time>
      </trkpt>
      <trkpt lat="62.637955296162" lon="17.971583761713">
        <ele>81.6</ele>
        <time>2018-01-03T12:39:50Z</time>
      </trkpt>
      <trkpt lat="62.637961666406" lon="17.97164268647">
        <ele>81.6</ele>
        <time>2018-01-03T12:39:51Z</time>
      </trkpt>
      <trkpt lat="62.637970299763" lon="17.97168794873">
        <ele>81.8</ele>
        <time>2018-01-03T12:39:52Z</time>
      </trkpt>
      <trkpt lat="62.637975915636" lon="17.971740167967">
        <ele>82</ele>
        <time>2018-01-03T12:39:53Z</time>
      </trkpt>
      <trkpt lat="62.637982956432" lon="17.971795404688">
        <ele>82</ele>
        <time>2018-01-03T12:39:54Z</time>
      </trkpt>
      <trkpt lat="62.637987650296" lon="17.971850976685">
        <ele>82</ele>
        <time>2018-01-03T12:39:55Z</time>
      </trkpt>
      <trkpt lat="62.637992092703" lon="17.971912164555">
        <ele>82.2</ele>
        <time>2018-01-03T12:39:56Z</time>
      </trkpt>
      <trkpt lat="62.63799485873" lon="17.971957929729">
        <ele>82.2</ele>
        <time>2018-01-03T12:39:57Z</time>
      </trkpt>
      <trkpt lat="62.637995864558" lon="17.97201651921">
        <ele>82.2</ele>
        <time>2018-01-03T12:39:58Z</time>
      </trkpt>
      <trkpt lat="62.637996954205" lon="17.97205423776">
        <ele>82.2</ele>
        <time>2018-01-03T12:39:59Z</time>
      </trkpt>
      <trkpt lat="62.637996451291" lon="17.972123556073">
        <ele>82.2</ele>
        <time>2018-01-03T12:40:00Z</time>
      </trkpt>
      <trkpt lat="62.638002067164" lon="17.97217326074">
        <ele>82.2</ele>
        <time>2018-01-03T12:40:01Z</time>
      </trkpt>
      <trkpt lat="62.63800156425" lon="17.972233526601">
        <ele>82.2</ele>
        <time>2018-01-03T12:40:02Z</time>
      </trkpt>
      <trkpt lat="62.638003743544" lon="17.972287170761">
        <ele>82.4</ele>
        <time>2018-01-03T12:40:03Z</time>
      </trkpt>
      <trkpt lat="62.638006258114" lon="17.97232916408">
        <ele>82.4</ele>
        <time>2018-01-03T12:40:04Z</time>
      </trkpt>
      <trkpt lat="62.638008772684" lon="17.97237274996">
        <ele>82.4</ele>
        <time>2018-01-03T12:40:05Z</time>
      </trkpt>
      <trkpt lat="62.638011538711" lon="17.97241465946">
        <ele>82.4</ele>
        <time>2018-01-03T12:40:06Z</time>
      </trkpt>
      <trkpt lat="62.638013718005" lon="17.972456233684">
        <ele>82.6</ele>
        <time>2018-01-03T12:40:07Z</time>
      </trkpt>
      <trkpt lat="62.638016819308" lon="17.972513398242">
        <ele>82.6</ele>
        <time>2018-01-03T12:40:08Z</time>
      </trkpt>
      <trkpt lat="62.638021596991" lon="17.972553212267">
        <ele>82.6</ele>
        <time>2018-01-03T12:40:09Z</time>
      </trkpt>
      <trkpt lat="62.638026626131" lon="17.972595959957">
        <ele>82.8</ele>
        <time>2018-01-03T12:40:10Z</time>
      </trkpt>
      <trkpt lat="62.638028051054" lon="17.972657566922">
        <ele>82.8</ele>
        <time>2018-01-03T12:40:11Z</time>
      </trkpt>
      <trkpt lat="62.638032074366" lon="17.972709618521">
        <ele>82.8</ele>
        <time>2018-01-03T12:40:12Z</time>
      </trkpt>
      <trkpt lat="62.638036432954" lon="17.972746750338">
        <ele>83</ele>
        <time>2018-01-03T12:40:13Z</time>
      </trkpt>
      <trkpt lat="62.638037522601" lon="17.972801484145">
        <ele>83</ele>
        <time>2018-01-03T12:40:14Z</time>
      </trkpt>
      <trkpt lat="62.638039198981" lon="17.972856134133">
        <ele>83.2</ele>
        <time>2018-01-03T12:40:15Z</time>
      </trkpt>
      <trkpt lat="62.638042719379" lon="17.972891170475">
        <ele>83.4</ele>
        <time>2018-01-03T12:40:16Z</time>
      </trkpt>
      <trkpt lat="62.638041881189" lon="17.972932744699">
        <ele>83.2</ele>
        <time>2018-01-03T12:40:17Z</time>
      </trkpt>
      <trkpt lat="62.638042132646" lon="17.972994603121">
        <ele>83.4</ele>
        <time>2018-01-03T12:40:18Z</time>
      </trkpt>
      <trkpt lat="62.638043641388" lon="17.973030477653">
        <ele>83.4</ele>
        <time>2018-01-03T12:40:19Z</time>
      </trkpt>
      <trkpt lat="62.638044898673" lon="17.973072890067">
        <ele>83.4</ele>
        <time>2018-01-03T12:40:20Z</time>
      </trkpt>
      <trkpt lat="62.638043222293" lon="17.973124774028">
        <ele>83.6</ele>
        <time>2018-01-03T12:40:21Z</time>
      </trkpt>
      <trkpt lat="62.638043892845" lon="17.973173975781">
        <ele>83.6</ele>
        <time>2018-01-03T12:40:22Z</time>
      </trkpt>
      <trkpt lat="62.638045401587" lon="17.97321261634">
        <ele>83.8</ele>
        <time>2018-01-03T12:40:23Z</time>
      </trkpt>
      <trkpt lat="62.638046155958" lon="17.973249999614">
        <ele>84</ele>
        <time>2018-01-03T12:40:24Z</time>
      </trkpt>
      <trkpt lat="62.638044060483" lon="17.973291825295">
        <ele>84</ele>
        <time>2018-01-03T12:40:25Z</time>
      </trkpt>
      <trkpt lat="62.638042970836" lon="17.973333483338">
        <ele>84.4</ele>
        <time>2018-01-03T12:40:26Z</time>
      </trkpt>
      <trkpt lat="62.638041965008" lon="17.973381176349">
        <ele>84.6</ele>
        <time>2018-01-03T12:40:27Z</time>
      </trkpt>
      <trkpt lat="62.638041210637" lon="17.973427025342">
        <ele>84.8</ele>
        <time>2018-01-03T12:40:28Z</time>
      </trkpt>
      <trkpt lat="62.638040875361" lon="17.973458960381">
        <ele>84.8</ele>
        <time>2018-01-03T12:40:29Z</time>
      </trkpt>
      <trkpt lat="62.638038612248" lon="17.973519812975">
        <ele>85</ele>
        <time>2018-01-03T12:40:30Z</time>
      </trkpt>
      <trkpt lat="62.638037438782" lon="17.973559710819">
        <ele>85</ele>
        <time>2018-01-03T12:40:31Z</time>
      </trkpt>
      <trkpt lat="62.638035678583" lon="17.973610337495">
        <ele>85</ele>
        <time>2018-01-03T12:40:32Z</time>
      </trkpt>
      <trkpt lat="62.638035594764" lon="17.973657024678">
        <ele>85</ele>
        <time>2018-01-03T12:40:33Z</time>
      </trkpt>
      <trkpt lat="62.638035008031" lon="17.973718715462">
        <ele>85</ele>
        <time>2018-01-03T12:40:34Z</time>
      </trkpt>
      <trkpt lat="62.638039031343" lon="17.973768084853">
        <ele>85.2</ele>
        <time>2018-01-03T12:40:35Z</time>
      </trkpt>
      <trkpt lat="62.638041713551" lon="17.973831452017">
        <ele>85.2</ele>
        <time>2018-01-03T12:40:36Z</time>
      </trkpt>
      <trkpt lat="62.638045401587" lon="17.9738865211">
        <ele>85.2</ele>
        <time>2018-01-03T12:40:37Z</time>
      </trkpt>
      <trkpt lat="62.6380476647" lon="17.973946200228">
        <ele>85.4</ele>
        <time>2018-01-03T12:40:38Z</time>
      </trkpt>
      <trkpt lat="62.638049760175" lon="17.973999592931">
        <ele>85.4</ele>
        <time>2018-01-03T12:40:39Z</time>
      </trkpt>
      <trkpt lat="62.638053867306" lon="17.974058685326">
        <ele>85.2</ele>
        <time>2018-01-03T12:40:40Z</time>
      </trkpt>
      <trkpt lat="62.638057639161" lon="17.97411199421">
        <ele>85.2</ele>
        <time>2018-01-03T12:40:41Z</time>
      </trkpt>
      <trkpt lat="62.638060489007" lon="17.974162201791">
        <ele>85.4</ele>
        <time>2018-01-03T12:40:42Z</time>
      </trkpt>
      <trkpt lat="62.638063003577" lon="17.974225066041">
        <ele>85.4</ele>
        <time>2018-01-03T12:40:43Z</time>
      </trkpt>
      <trkpt lat="62.638065601966" lon="17.974272591414">
        <ele>85.4</ele>
        <time>2018-01-03T12:40:44Z</time>
      </trkpt>
      <trkpt lat="62.638069038545" lon="17.974339311338">
        <ele>85.4</ele>
        <time>2018-01-03T12:40:45Z</time>
      </trkpt>
      <trkpt lat="62.63807029583" lon="17.974388345453">
        <ele>85.4</ele>
        <time>2018-01-03T12:40:46Z</time>
      </trkpt>
      <trkpt lat="62.638070379649" lon="17.974450958246">
        <ele>85.4</ele>
        <time>2018-01-03T12:40:47Z</time>
      </trkpt>
      <trkpt lat="62.638073397133" lon="17.974507200795">
        <ele>85.4</ele>
        <time>2018-01-03T12:40:48Z</time>
      </trkpt>
      <trkpt lat="62.63806861945" lon="17.97456964595">
        <ele>85.4</ele>
        <time>2018-01-03T12:40:49Z</time>
      </trkpt>
      <trkpt lat="62.638068451812" lon="17.974628738345">
        <ele>85.4</ele>
        <time>2018-01-03T12:40:50Z</time>
      </trkpt>
      <trkpt lat="62.638060489007" lon="17.974692692242">
        <ele>85.4</ele>
        <time>2018-01-03T12:40:51Z</time>
      </trkpt>
      <trkpt lat="62.638053783487" lon="17.974748012782">
        <ele>85.2</ele>
        <time>2018-01-03T12:40:52Z</time>
      </trkpt>
      <trkpt lat="62.638043054655" lon="17.974793610318">
        <ele>85.4</ele>
        <time>2018-01-03T12:40:53Z</time>
      </trkpt>
      <trkpt lat="62.638028973063" lon="17.974845829555">
        <ele>85.4</ele>
        <time>2018-01-03T12:40:54Z</time>
      </trkpt>
      <trkpt lat="62.638017657498" lon="17.974880698259">
        <ele>85.4</ele>
        <time>2018-01-03T12:40:55Z</time>
      </trkpt>
      <trkpt lat="62.638001648069" lon="17.974923110673">
        <ele>85.4</ele>
        <time>2018-01-03T12:40:56Z</time>
      </trkpt>
      <trkpt lat="62.637988656124" lon="17.97495186059">
        <ele>85.6</ele>
        <time>2018-01-03T12:40:57Z</time>
      </trkpt>
      <trkpt lat="62.637972898152" lon="17.974976251919">
        <ele>85.6</ele>
        <time>2018-01-03T12:40:58Z</time>
      </trkpt>
      <trkpt lat="62.637962253139" lon="17.974998631592">
        <ele>85.8</ele>
        <time>2018-01-03T12:40:59Z</time>
      </trkpt>
      <trkpt lat="62.637945070244" lon="17.975026627138">
        <ele>85.8</ele>
        <time>2018-01-03T12:41:00Z</time>
      </trkpt>
      <trkpt lat="62.637929982824" lon="17.975052778666">
        <ele>86</ele>
        <time>2018-01-03T12:41:01Z</time>
      </trkpt>
      <trkpt lat="62.637914643947" lon="17.975080271298">
        <ele>86</ele>
        <time>2018-01-03T12:41:02Z</time>
      </trkpt>
      <trkpt lat="62.637898802156" lon="17.975108266844">
        <ele>86.2</ele>
        <time>2018-01-03T12:41:03Z</time>
      </trkpt>
      <trkpt lat="62.637885642573" lon="17.975134083096">
        <ele>86.2</ele>
        <time>2018-01-03T12:41:04Z</time>
      </trkpt>
      <trkpt lat="62.637870890429" lon="17.975158390606">
        <ele>86.2</ele>
        <time>2018-01-03T12:41:05Z</time>
      </trkpt>
      <trkpt lat="62.637854964819" lon="17.975189655093">
        <ele>86.4</ele>
        <time>2018-01-03T12:41:06Z</time>
      </trkpt>
      <trkpt lat="62.637836105544" lon="17.975222428322">
        <ele>86.6</ele>
        <time>2018-01-03T12:41:07Z</time>
      </trkpt>
      <trkpt lat="62.637818755011" lon="17.97525612356">
        <ele>86.8</ele>
        <time>2018-01-03T12:41:08Z</time>
      </trkpt>
      <trkpt lat="62.637805008695" lon="17.975280514889">
        <ele>86.8</ele>
        <time>2018-01-03T12:41:09Z</time>
      </trkpt>
      <trkpt lat="62.637789669818" lon="17.975307504607">
        <ele>87</ele>
        <time>2018-01-03T12:41:10Z</time>
      </trkpt>
      <trkpt lat="62.637773744208" lon="17.97534329532">
        <ele>87</ele>
        <time>2018-01-03T12:41:11Z</time>
      </trkpt>
      <trkpt lat="62.637760416987" lon="17.975364082432">
        <ele>87.2</ele>
        <time>2018-01-03T12:41:12Z</time>
      </trkpt>
      <trkpt lat="62.637749604336" lon="17.9753868812">
        <ele>87.2</ele>
        <time>2018-01-03T12:41:13Z</time>
      </trkpt>
      <trkpt lat="62.637738707866" lon="17.975405824294">
        <ele>87.2</ele>
        <time>2018-01-03T12:41:14Z</time>
      </trkpt>
      <trkpt lat="62.637724458636" lon="17.975428958338">
        <ele>87.4</ele>
        <time>2018-01-03T12:41:15Z</time>
      </trkpt>
      <trkpt lat="62.637710796139" lon="17.975448739622">
        <ele>87.4</ele>
        <time>2018-01-03T12:41:16Z</time>
      </trkpt>
      <trkpt lat="62.637703084791" lon="17.975457037703">
        <ele>87.6</ele>
        <time>2018-01-03T12:41:17Z</time>
      </trkpt>
      <trkpt lat="62.637693277968" lon="17.975468017992">
        <ele>87.8</ele>
        <time>2018-01-03T12:41:18Z</time>
      </trkpt>
      <trkpt lat="62.63768389024" lon="17.975482015765">
        <ele>87.8</ele>
        <time>2018-01-03T12:41:19Z</time>
      </trkpt>
      <trkpt lat="62.637666874983" lon="17.97549500771">
        <ele>88</ele>
        <time>2018-01-03T12:41:20Z</time>
      </trkpt>
      <trkpt lat="62.637650278821" lon="17.975505736542">
        <ele>88.2</ele>
        <time>2018-01-03T12:41:21Z</time>
      </trkpt>
      <trkpt lat="62.637636197229" lon="17.975516046279">
        <ele>88.4</ele>
        <time>2018-01-03T12:41:22Z</time>
      </trkpt>
      <trkpt lat="62.637619768705" lon="17.975528367672">
        <ele>88.6</ele>
        <time>2018-01-03T12:41:23Z</time>
      </trkpt>
      <trkpt lat="62.6375950421" lon="17.975545131472">
        <ele>88.8</ele>
        <time>2018-01-03T12:41:24Z</time>
      </trkpt>
      <trkpt lat="62.637578781214" lon="17.975559129245">
        <ele>89.2</ele>
        <time>2018-01-03T12:41:25Z</time>
      </trkpt>
      <trkpt lat="62.637563945251" lon="17.975569858077">
        <ele>89.2</ele>
        <time>2018-01-03T12:41:26Z</time>
      </trkpt>
      <trkpt lat="62.637545672709" lon="17.975580167814">
        <ele>89.2</ele>
        <time>2018-01-03T12:41:27Z</time>
      </trkpt>
      <trkpt lat="62.6375279869" lon="17.975589387904">
        <ele>89.4</ele>
        <time>2018-01-03T12:41:28Z</time>
      </trkpt>
      <trkpt lat="62.637513402394" lon="17.975595506691">
        <ele>89.6</ele>
        <time>2018-01-03T12:41:29Z</time>
      </trkpt>
      <trkpt lat="62.637495548947" lon="17.975601876935">
        <ele>89.6</ele>
        <time>2018-01-03T12:41:30Z</time>
      </trkpt>
      <trkpt lat="62.637478030776" lon="17.97561235431">
        <ele>89.8</ele>
        <time>2018-01-03T12:41:31Z</time>
      </trkpt>
      <trkpt lat="62.637461434614" lon="17.97562073621">
        <ele>90</ele>
        <time>2018-01-03T12:41:32Z</time>
      </trkpt>
      <trkpt lat="62.637447101565" lon="17.975625932988">
        <ele>90.2</ele>
        <time>2018-01-03T12:41:33Z</time>
      </trkpt>
      <trkpt lat="62.637434863991" lon="17.975633392879">
        <ele>90.2</ele>
        <time>2018-01-03T12:41:34Z</time>
      </trkpt>
      <trkpt lat="62.637422542598" lon="17.975637919105">
        <ele>90.4</ele>
        <time>2018-01-03T12:41:35Z</time>
      </trkpt>
      <trkpt lat="62.637409969748" lon="17.975650575774">
        <ele>90.6</ele>
        <time>2018-01-03T12:41:36Z</time>
      </trkpt>
      <trkpt lat="62.637388931179" lon="17.975664238271">
        <ele>90.6</ele>
        <time>2018-01-03T12:41:37Z</time>
      </trkpt>
      <trkpt lat="62.637368479343" lon="17.975683265184">
        <ele>90.8</ele>
        <time>2018-01-03T12:41:38Z</time>
      </trkpt>
      <trkpt lat="62.637356828502" lon="17.975694329292">
        <ele>90.8</ele>
        <time>2018-01-03T12:41:39Z</time>
      </trkpt>
      <trkpt lat="62.637340735254" lon="17.975715786956">
        <ele>91</ele>
        <time>2018-01-03T12:41:40Z</time>
      </trkpt>
      <trkpt lat="62.637326569843" lon="17.975729868548">
        <ele>91</ele>
        <time>2018-01-03T12:41:41Z</time>
      </trkpt>
      <trkpt lat="62.637313074984" lon="17.975741016475">
        <ele>91</ele>
        <time>2018-01-03T12:41:42Z</time>
      </trkpt>
      <trkpt lat="62.637299580125" lon="17.975754762791">
        <ele>91.2</ele>
        <time>2018-01-03T12:41:43Z</time>
      </trkpt>
      <trkpt lat="62.637284744162" lon="17.975774627894">
        <ele>91.4</ele>
        <time>2018-01-03T12:41:44Z</time>
      </trkpt>
      <trkpt lat="62.637271333122" lon="17.975793906264">
        <ele>91.6</ele>
        <time>2018-01-03T12:41:45Z</time>
      </trkpt>
      <trkpt lat="62.637256078064" lon="17.975819554878">
        <ele>91.8</ele>
        <time>2018-01-03T12:41:46Z</time>
      </trkpt>
      <trkpt lat="62.637247360888" lon="17.975835815764">
        <ele>92</ele>
        <time>2018-01-03T12:41:47Z</time>
      </trkpt>
      <trkpt lat="62.637234201305" lon="17.975864481862">
        <ele>92.2</ele>
        <time>2018-01-03T12:41:48Z</time>
      </trkpt>
      <trkpt lat="62.637223640111" lon="17.975890298114">
        <ele>92.4</ele>
        <time>2018-01-03T12:41:49Z</time>
      </trkpt>
      <trkpt lat="62.637215425849" lon="17.97591661728">
        <ele>92.4</ele>
        <time>2018-01-03T12:41:50Z</time>
      </trkpt>
      <trkpt lat="62.637209893795" lon="17.975939416048">
        <ele>92.6</ele>
        <time>2018-01-03T12:41:51Z</time>
      </trkpt>
      <trkpt lat="62.637199751696" lon="17.975967327775">
        <ele>92.8</ele>
        <time>2018-01-03T12:41:52Z</time>
      </trkpt>
      <trkpt lat="62.637190950701" lon="17.975995742416">
        <ele>93</ele>
        <time>2018-01-03T12:41:53Z</time>
      </trkpt>
      <trkpt lat="62.637179383679" lon="17.976030192025">
        <ele>93</ele>
        <time>2018-01-03T12:41:54Z</time>
      </trkpt>
      <trkpt lat="62.637173264892" lon="17.976063551987">
        <ele>93.2</ele>
        <time>2018-01-03T12:41:55Z</time>
      </trkpt>
      <trkpt lat="62.637164380078" lon="17.976102024908">
        <ele>93.2</ele>
        <time>2018-01-03T12:41:56Z</time>
      </trkpt>
      <trkpt lat="62.63715163959" lon="17.976158518914">
        <ele>93.4</ele>
        <time>2018-01-03T12:41:57Z</time>
      </trkpt>
      <trkpt lat="62.637144850251" lon="17.976194812541">
        <ele>93.4</ele>
        <time>2018-01-03T12:41:58Z</time>
      </trkpt>
      <trkpt lat="62.637137557998" lon="17.97622926215">
        <ele>93.4</ele>
        <time>2018-01-03T12:41:59Z</time>
      </trkpt>
      <trkpt lat="62.637125320424" lon="17.976280643197">
        <ele>93.4</ele>
        <time>2018-01-03T12:42:00Z</time>
      </trkpt>
      <trkpt lat="62.637116687067" lon="17.976330431683">
        <ele>93.6</ele>
        <time>2018-01-03T12:42:01Z</time>
      </trkpt>
      <trkpt lat="62.637114340135" lon="17.976359516876">
        <ele>93.6</ele>
        <time>2018-01-03T12:42:02Z</time>
      </trkpt>
      <trkpt lat="62.637103276027" lon="17.97641534033">
        <ele>93.8</ele>
        <time>2018-01-03T12:42:03Z</time>
      </trkpt>
      <trkpt lat="62.637096570507" lon="17.976464458264">
        <ele>93.8</ele>
        <time>2018-01-03T12:42:04Z</time>
      </trkpt>
      <trkpt lat="62.63709464267" lon="17.976496141846">
        <ele>94</ele>
        <time>2018-01-03T12:42:05Z</time>
      </trkpt>
      <trkpt lat="62.637084835847" lon="17.97655364168">
        <ele>94.2</ele>
        <time>2018-01-03T12:42:06Z</time>
      </trkpt>
      <trkpt lat="62.637084500571" lon="17.976593204248">
        <ele>94.2</ele>
        <time>2018-01-03T12:42:07Z</time>
      </trkpt>
      <trkpt lat="62.637080225802" lon="17.976642657458">
        <ele>94.2</ele>
        <time>2018-01-03T12:42:08Z</time>
      </trkpt>
      <trkpt lat="62.637083494743" lon="17.976687165347">
        <ele>94.4</ele>
        <time>2018-01-03T12:42:09Z</time>
      </trkpt>
      <trkpt lat="62.637078130327" lon="17.976747766484">
        <ele>94.6</ele>
        <time>2018-01-03T12:42:10Z</time>
      </trkpt>
      <trkpt lat="62.637080812535" lon="17.976799398988">
        <ele>94.6</ele>
        <time>2018-01-03T12:42:11Z</time>
      </trkpt>
      <trkpt lat="62.637080644897" lon="17.976849941845">
        <ele>94.6</ele>
        <time>2018-01-03T12:42:12Z</time>
      </trkpt>
      <trkpt lat="62.637081734544" lon="17.976907441679">
        <ele>94.6</ele>
        <time>2018-01-03T12:42:13Z</time>
      </trkpt>
      <trkpt lat="62.637083075648" lon="17.976947423342">
        <ele>94.6</ele>
        <time>2018-01-03T12:42:14Z</time>
      </trkpt>
      <trkpt lat="62.637084332933" lon="17.977005677547">
        <ele>95</ele>
        <time>2018-01-03T12:42:15Z</time>
      </trkpt>
      <trkpt lat="62.637084500571" lon="17.97705404111">
        <ele>95</ele>
        <time>2018-01-03T12:42:16Z</time>
      </trkpt>
      <trkpt lat="62.637087015141" lon="17.977096956438">
        <ele>95</ele>
        <time>2018-01-03T12:42:17Z</time>
      </trkpt>
      <trkpt lat="62.637088356245" lon="17.977164430733">
        <ele>95.2</ele>
        <time>2018-01-03T12:42:18Z</time>
      </trkpt>
      <trkpt lat="62.637090200263" lon="17.977202736016">
        <ele>95</ele>
        <time>2018-01-03T12:42:19Z</time>
      </trkpt>
      <trkpt lat="62.637083494743" lon="17.977273982166">
        <ele>95.2</ele>
        <time>2018-01-03T12:42:20Z</time>
      </trkpt>
      <trkpt lat="62.637080309621" lon="17.977320250254">
        <ele>94.8</ele>
        <time>2018-01-03T12:42:21Z</time>
      </trkpt>
      <trkpt lat="62.637067233857" lon="17.97737674426">
        <ele>94.8</ele>
        <time>2018-01-03T12:42:22Z</time>
      </trkpt>
      <trkpt lat="62.637063042907" lon="17.977412115878">
        <ele>94.8</ele>
        <time>2018-01-03T12:42:23Z</time>
      </trkpt>
      <trkpt lat="62.637050721514" lon="17.977462323459">
        <ele>94.8</ele>
        <time>2018-01-03T12:42:24Z</time>
      </trkpt>
      <trkpt lat="62.637035298818" lon="17.977519739474">
        <ele>94.8</ele>
        <time>2018-01-03T12:42:25Z</time>
      </trkpt>
      <trkpt lat="62.637029012393" lon="17.977554105264">
        <ele>94.8</ele>
        <time>2018-01-03T12:42:26Z</time>
      </trkpt>
      <trkpt lat="62.637013086783" lon="17.977604648121">
        <ele>94.8</ele>
        <time>2018-01-03T12:42:27Z</time>
      </trkpt>
      <trkpt lat="62.637003531417" lon="17.977646725259">
        <ele>94.8</ele>
        <time>2018-01-03T12:42:28Z</time>
      </trkpt>
      <trkpt lat="62.636994646603" lon="17.977683437981">
        <ele>94.8</ele>
        <time>2018-01-03T12:42:29Z</time>
      </trkpt>
      <trkpt lat="62.636981403201" lon="17.97774890062">
        <ele>94.8</ele>
        <time>2018-01-03T12:42:30Z</time>
      </trkpt>
      <trkpt lat="62.636976793156" lon="17.977780668021">
        <ele>94.8</ele>
        <time>2018-01-03T12:42:31Z</time>
      </trkpt>
      <trkpt lat="62.636965645229" lon="17.977835904742">
        <ele>94.8</ele>
        <time>2018-01-03T12:42:32Z</time>
      </trkpt>
      <trkpt lat="62.636958269157" lon="17.977887872522">
        <ele>94.8</ele>
        <time>2018-01-03T12:42:33Z</time>
      </trkpt>
      <trkpt lat="62.636955084035" lon="17.977921232484">
        <ele>94.8</ele>
        <time>2018-01-03T12:42:34Z</time>
      </trkpt>
      <trkpt lat="62.636948127058" lon="17.977970769513">
        <ele>94.8</ele>
        <time>2018-01-03T12:42:35Z</time>
      </trkpt>
      <trkpt lat="62.636938655511" lon="17.978037992351">
        <ele>95</ele>
        <time>2018-01-03T12:42:36Z</time>
      </trkpt>
      <trkpt lat="62.636930944163" lon="17.97809255852">
        <ele>95</ele>
        <time>2018-01-03T12:42:37Z</time>
      </trkpt>
      <trkpt lat="62.636923316634" lon="17.978140670626">
        <ele>94.8</ele>
        <time>2018-01-03T12:42:38Z</time>
      </trkpt>
      <trkpt lat="62.636915437648" lon="17.9781948177">
        <ele>95</ele>
        <time>2018-01-03T12:42:39Z</time>
      </trkpt>
      <trkpt lat="62.636906469015" lon="17.978242175435">
        <ele>95.2</ele>
        <time>2018-01-03T12:42:40Z</time>
      </trkpt>
      <trkpt lat="62.636896410735" lon="17.978290455179">
        <ele>95.2</ele>
        <time>2018-01-03T12:42:41Z</time>
      </trkpt>
      <trkpt lat="62.63688760974" lon="17.978328257548">
        <ele>95.2</ele>
        <time>2018-01-03T12:42:42Z</time>
      </trkpt>
      <trkpt lat="62.636878724926" lon="17.978358097112">
        <ele>95.2</ele>
        <time>2018-01-03T12:42:43Z</time>
      </trkpt>
      <trkpt lat="62.636867660818" lon="17.978411657453">
        <ele>95.2</ele>
        <time>2018-01-03T12:42:44Z</time>
      </trkpt>
      <trkpt lat="62.636847711896" lon="17.978468151459">
        <ele>95.4</ele>
        <time>2018-01-03T12:42:45Z</time>
      </trkpt>
      <trkpt lat="62.636832540657" lon="17.978504612724">
        <ele>95.4</ele>
        <time>2018-01-03T12:42:46Z</time>
      </trkpt>
      <trkpt lat="62.63682223092" lon="17.978535039021">
        <ele>95.4</ele>
        <time>2018-01-03T12:42:47Z</time>
      </trkpt>
      <trkpt lat="62.63679959979" lon="17.978586839163">
        <ele>95.4</ele>
        <time>2018-01-03T12:42:48Z</time>
      </trkpt>
      <trkpt lat="62.636782668352" lon="17.978627156102">
        <ele>95.4</ele>
        <time>2018-01-03T12:42:49Z</time>
      </trkpt>
      <trkpt lat="62.636772190977" lon="17.97865079306">
        <ele>95.6</ele>
        <time>2018-01-03T12:42:50Z</time>
      </trkpt>
      <trkpt lat="62.636755091901" lon="17.978677782778">
        <ele>95.4</ele>
        <time>2018-01-03T12:42:51Z</time>
      </trkpt>
      <trkpt lat="62.636732293133" lon="17.978708209075">
        <ele>95.6</ele>
        <time>2018-01-03T12:42:52Z</time>
      </trkpt>
      <trkpt lat="62.636714523505" lon="17.978726733074">
        <ele>95.8</ele>
        <time>2018-01-03T12:42:53Z</time>
      </trkpt>
      <trkpt lat="62.636701447741" lon="17.978742910141">
        <ele>96</ele>
        <time>2018-01-03T12:42:54Z</time>
      </trkpt>
      <trkpt lat="62.63667387129" lon="17.978760009217">
        <ele>95.8</ele>
        <time>2018-01-03T12:42:55Z</time>
      </trkpt>
      <trkpt lat="62.636649396142" lon="17.978765038357">
        <ele>96</ele>
        <time>2018-01-03T12:42:56Z</time>
      </trkpt>
      <trkpt lat="62.636636571835" lon="17.978768055841">
        <ele>96</ele>
        <time>2018-01-03T12:42:57Z</time>
      </trkpt>
      <trkpt lat="62.636617796379" lon="17.978776689198">
        <ele>96</ele>
        <time>2018-01-03T12:42:58Z</time>
      </trkpt>
      <trkpt lat="62.636599104742" lon="17.978775096637">
        <ele>96.2</ele>
        <time>2018-01-03T12:42:59Z</time>
      </trkpt>
      <trkpt lat="62.636575970698" lon="17.978771576239">
        <ele>96.2</ele>
        <time>2018-01-03T12:43:00Z</time>
      </trkpt>
      <trkpt lat="62.636558703984" lon="17.978769229307">
        <ele>96.4</ele>
        <time>2018-01-03T12:43:01Z</time>
      </trkpt>
      <trkpt lat="62.636543868021" lon="17.978771827696">
        <ele>96.6</ele>
        <time>2018-01-03T12:43:02Z</time>
      </trkpt>
      <trkpt lat="62.636519476692" lon="17.978765876547">
        <ele>96.8</ele>
        <time>2018-01-03T12:43:03Z</time>
      </trkpt>
      <trkpt lat="62.636501455607" lon="17.978763278158">
        <ele>96.8</ele>
        <time>2018-01-03T12:43:04Z</time>
      </trkpt>
      <trkpt lat="62.636484859445" lon="17.978757829923">
        <ele>96.8</ele>
        <time>2018-01-03T12:43:05Z</time>
      </trkpt>
      <trkpt lat="62.636470610215" lon="17.978752800783">
        <ele>97</ele>
        <time>2018-01-03T12:43:06Z</time>
      </trkpt>
      <trkpt lat="62.636455606614" lon="17.978755818267">
        <ele>97.2</ele>
        <time>2018-01-03T12:43:07Z</time>
      </trkpt>
      <trkpt lat="62.636436914977" lon="17.978753638973">
        <ele>97.2</ele>
        <time>2018-01-03T12:43:08Z</time>
      </trkpt>
      <trkpt lat="62.636418642435" lon="17.978761015045">
        <ele>97.4</ele>
        <time>2018-01-03T12:43:09Z</time>
      </trkpt>
      <trkpt lat="62.63639978316" lon="17.978759925398">
        <ele>97.4</ele>
        <time>2018-01-03T12:43:10Z</time>
      </trkpt>
      <trkpt lat="62.636381845894" lon="17.978761266502">
        <ele>97.6</ele>
        <time>2018-01-03T12:43:11Z</time>
      </trkpt>
      <trkpt lat="62.636366842293" lon="17.978765122176">
        <ele>97.8</ele>
        <time>2018-01-03T12:43:12Z</time>
      </trkpt>
      <trkpt lat="62.636349659398" lon="17.978778700854">
        <ele>98</ele>
        <time>2018-01-03T12:43:13Z</time>
      </trkpt>
      <trkpt lat="62.636335913082" lon="17.978780125777">
        <ele>98.2</ele>
        <time>2018-01-03T12:43:14Z</time>
      </trkpt>
      <trkpt lat="62.636319065463" lon="17.978784987279">
        <ele>98.2</ele>
        <time>2018-01-03T12:43:15Z</time>
      </trkpt>
      <trkpt lat="62.636308923364" lon="17.97879160898">
        <ele>98.4</ele>
        <time>2018-01-03T12:43:16Z</time>
      </trkpt>
      <trkpt lat="62.636300206188" lon="17.97879663812">
        <ele>98.6</ele>
        <time>2018-01-03T12:43:17Z</time>
      </trkpt>
      <trkpt lat="62.636286376053" lon="17.978804936201">
        <ele>98.8</ele>
        <time>2018-01-03T12:43:18Z</time>
      </trkpt>
      <trkpt lat="62.636274306117" lon="17.978812060816">
        <ele>99</ele>
        <time>2018-01-03T12:43:19Z</time>
      </trkpt>
      <trkpt lat="62.636256704127" lon="17.978832512652">
        <ele>99</ele>
        <time>2018-01-03T12:43:20Z</time>
      </trkpt>
      <trkpt lat="62.636246562028" lon="17.978841229828">
        <ele>99.4</ele>
        <time>2018-01-03T12:43:21Z</time>
      </trkpt>
      <trkpt lat="62.636228708581" lon="17.978857658352">
        <ele>99.6</ele>
        <time>2018-01-03T12:43:22Z</time>
      </trkpt>
      <trkpt lat="62.636217476835" lon="17.978873081048">
        <ele>99.8</ele>
        <time>2018-01-03T12:43:23Z</time>
      </trkpt>
      <trkpt lat="62.636203143786" lon="17.978901579508">
        <ele>99.8</ele>
        <time>2018-01-03T12:43:24Z</time>
      </trkpt>
      <trkpt lat="62.636190151841" lon="17.978918510946">
        <ele>100.2</ele>
        <time>2018-01-03T12:43:25Z</time>
      </trkpt>
      <trkpt lat="62.636181183208" lon="17.978929323597">
        <ele>100.2</ele>
        <time>2018-01-03T12:43:26Z</time>
      </trkpt>
      <trkpt lat="62.636172968946" lon="17.978939381877">
        <ele>100.2</ele>
        <time>2018-01-03T12:43:27Z</time>
      </trkpt>
      <trkpt lat="62.636165509055" lon="17.978947931415">
        <ele>100.4</ele>
        <time>2018-01-03T12:43:28Z</time>
      </trkpt>
      <trkpt lat="62.636158887354" lon="17.978959163161">
        <ele>100.6</ele>
        <time>2018-01-03T12:43:29Z</time>
      </trkpt>
      <trkpt lat="62.636149583445" lon="17.978978273893">
        <ele>100.8</ele>
        <time>2018-01-03T12:43:30Z</time>
      </trkpt>
      <trkpt lat="62.63614078245" lon="17.978991684933">
        <ele>100.8</ele>
        <time>2018-01-03T12:43:31Z</time>
      </trkpt>
      <trkpt lat="62.636130640351" lon="17.97901037657">
        <ele>101</ele>
        <time>2018-01-03T12:43:32Z</time>
      </trkpt>
      <trkpt lat="62.636122090813" lon="17.979024793438">
        <ele>101.4</ele>
        <time>2018-01-03T12:43:33Z</time>
      </trkpt>
      <trkpt lat="62.636113289818" lon="17.979038707392">
        <ele>101.6</ele>
        <time>2018-01-03T12:43:34Z</time>
      </trkpt>
      <trkpt lat="62.636104656461" lon="17.979055806468">
        <ele>101.8</ele>
        <time>2018-01-03T12:43:35Z</time>
      </trkpt>
      <trkpt lat="62.636096777475" lon="17.979077264132">
        <ele>102.2</ele>
        <time>2018-01-03T12:43:36Z</time>
      </trkpt>
      <trkpt lat="62.63608546191" lon="17.979096793959">
        <ele>102.6</ele>
        <time>2018-01-03T12:43:37Z</time>
      </trkpt>
      <trkpt lat="62.636076325639" lon="17.979118922175">
        <ele>102.8</ele>
        <time>2018-01-03T12:43:38Z</time>
      </trkpt>
      <trkpt lat="62.636066099721" lon="17.979150857214">
        <ele>103.2</ele>
        <time>2018-01-03T12:43:39Z</time>
      </trkpt>
      <trkpt lat="62.636056711993" lon="17.97918723466">
        <ele>103.4</ele>
        <time>2018-01-03T12:43:40Z</time>
      </trkpt>
      <trkpt lat="62.636048330093" lon="17.979221013717">
        <ele>103.6</ele>
        <time>2018-01-03T12:43:41Z</time>
      </trkpt>
      <trkpt lat="62.636034499958" lon="17.979262839398">
        <ele>103.6</ele>
        <time>2018-01-03T12:43:42Z</time>
      </trkpt>
      <trkpt lat="62.636021927108" lon="17.979301815233">
        <ele>103.6</ele>
        <time>2018-01-03T12:43:43Z</time>
      </trkpt>
      <trkpt lat="62.63601756852" lon="17.97935822542">
        <ele>103.6</ele>
        <time>2018-01-03T12:43:45Z</time>
      </trkpt>
      <trkpt lat="62.636017065606" lon="17.979387142975">
        <ele>103.8</ele>
        <time>2018-01-03T12:43:46Z</time>
      </trkpt>
      <trkpt lat="62.636011617371" lon="17.979424023335">
        <ele>103.8</ele>
        <time>2018-01-03T12:43:47Z</time>
      </trkpt>
      <trkpt lat="62.636000720901" lon="17.979494347476">
        <ele>103.8</ele>
        <time>2018-01-03T12:43:48Z</time>
      </trkpt>
      <trkpt lat="62.635996529951" lon="17.979560983581">
        <ele>104</ele>
        <time>2018-01-03T12:43:49Z</time>
      </trkpt>
      <trkpt lat="62.635990327345" lon="17.979668942453">
        <ele>104</ele>
        <time>2018-01-03T12:43:50Z</time>
      </trkpt>
      <trkpt lat="62.635983873282" lon="17.979794335677">
        <ele>103.8</ele>
        <time>2018-01-03T12:43:51Z</time>
      </trkpt>
      <trkpt lat="62.635980520522" lon="17.97993322376">
        <ele>103.6</ele>
        <time>2018-01-03T12:43:52Z</time>
      </trkpt>
      <trkpt lat="62.635983873282" lon="17.980068339988">
        <ele>103.2</ele>
        <time>2018-01-03T12:43:53Z</time>
      </trkpt>
      <trkpt lat="62.635995188847" lon="17.980196080144">
        <ele>102.2</ele>
        <time>2018-01-03T12:43:54Z</time>
      </trkpt>
      <trkpt lat="62.636007677878" lon="17.980341673747">
        <ele>101.2</ele>
        <time>2018-01-03T12:43:55Z</time>
      </trkpt>
      <trkpt lat="62.636026453334" lon="17.980474610681">
        <ele>100</ele>
        <time>2018-01-03T12:43:56Z</time>
      </trkpt>
      <trkpt lat="62.636045983161" lon="17.980605703597">
        <ele>99</ele>
        <time>2018-01-03T12:43:57Z</time>
      </trkpt>
      <trkpt lat="62.63606618354" lon="17.980725397129">
        <ele>98</ele>
        <time>2018-01-03T12:43:58Z</time>
      </trkpt>
      <trkpt lat="62.636083701711" lon="17.980830338517">
        <ele>97.6</ele>
        <time>2018-01-03T12:43:59Z</time>
      </trkpt>
      <trkpt lat="62.63610641666" lon="17.980965790021">
        <ele>97.2</ele>
        <time>2018-01-03T12:44:00Z</time>
      </trkpt>
      <trkpt lat="62.636121755537" lon="17.981081376422">
        <ele>97</ele>
        <time>2018-01-03T12:44:01Z</time>
      </trkpt>
      <trkpt lat="62.636138686975" lon="17.981200818497">
        <ele>96.8</ele>
        <time>2018-01-03T12:44:02Z</time>
      </trkpt>
      <trkpt lat="62.636153774395" lon="17.981319422382">
        <ele>96.6</ele>
        <time>2018-01-03T12:44:03Z</time>
      </trkpt>
      <trkpt lat="62.636163581218" lon="17.981409527807">
        <ele>96.4</ele>
        <time>2018-01-03T12:44:04Z</time>
      </trkpt>
      <trkpt lat="62.636175483516" lon="17.981511116435">
        <ele>96.2</ele>
        <time>2018-01-03T12:44:05Z</time>
      </trkpt>
      <trkpt lat="62.636183781597" lon="17.981614968176">
        <ele>96.2</ele>
        <time>2018-01-03T12:44:06Z</time>
      </trkpt>
      <trkpt lat="62.636193504601" lon="17.981704905963">
        <ele>96</ele>
        <time>2018-01-03T12:44:07Z</time>
      </trkpt>
      <trkpt lat="62.636198449922" lon="17.981793586465">
        <ele>95.8</ele>
        <time>2018-01-03T12:44:08Z</time>
      </trkpt>
      <trkpt lat="62.636210771315" lon="17.981873382153">
        <ele>95.8</ele>
        <time>2018-01-03T12:44:09Z</time>
      </trkpt>
      <trkpt lat="62.636221667785" lon="17.981968768175">
        <ele>96</ele>
        <time>2018-01-03T12:44:10Z</time>
      </trkpt>
      <trkpt lat="62.636229714409" lon="17.982047222759">
        <ele>96</ele>
        <time>2018-01-03T12:44:11Z</time>
      </trkpt>
      <trkpt lat="62.636239102137" lon="17.982121989307">
        <ele>96.2</ele>
        <time>2018-01-03T12:44:12Z</time>
      </trkpt>
      <trkpt lat="62.636249328055" lon="17.982209999257">
        <ele>96.6</ele>
        <time>2018-01-03T12:44:13Z</time>
      </trkpt>
      <trkpt lat="62.636255446842" lon="17.982278311742">
        <ele>96.6</ele>
        <time>2018-01-03T12:44:14Z</time>
      </trkpt>
      <trkpt lat="62.63625477629" lon="17.982366405511">
        <ele>96.8</ele>
        <time>2018-01-03T12:44:15Z</time>
      </trkpt>
      <trkpt lat="62.636251339711" lon="17.982437651661">
        <ele>97</ele>
        <time>2018-01-03T12:44:16Z</time>
      </trkpt>
      <trkpt lat="62.636256704127" lon="17.982487859242">
        <ele>97</ele>
        <time>2018-01-03T12:44:17Z</time>
      </trkpt>
      <trkpt lat="62.6362539381" lon="17.982581485065">
        <ele>96.8</ele>
        <time>2018-01-03T12:44:18Z</time>
      </trkpt>
      <trkpt lat="62.636255111566" lon="17.982632279379">
        <ele>96.8</ele>
        <time>2018-01-03T12:44:19Z</time>
      </trkpt>
      <trkpt lat="62.63625309991" lon="17.982715511646">
        <ele>97</ele>
        <time>2018-01-03T12:44:20Z</time>
      </trkpt>
      <trkpt lat="62.636246729666" lon="17.982791954574">
        <ele>97</ele>
        <time>2018-01-03T12:44:21Z</time>
      </trkpt>
      <trkpt lat="62.636250250064" lon="17.982842497431">
        <ele>97</ele>
        <time>2018-01-03T12:44:22Z</time>
      </trkpt>
      <trkpt lat="62.63624890896" lon="17.982916425789">
        <ele>97</ele>
        <time>2018-01-03T12:44:23Z</time>
      </trkpt>
      <trkpt lat="62.636247400218" lon="17.982966130456">
        <ele>97.2</ele>
        <time>2018-01-03T12:44:24Z</time>
      </trkpt>
      <trkpt lat="62.636246562028" lon="17.983028407973">
        <ele>97.2</ele>
        <time>2018-01-03T12:44:25Z</time>
      </trkpt>
      <trkpt lat="62.636250836797" lon="17.983088841472">
        <ele>97.2</ele>
        <time>2018-01-03T12:44:26Z</time>
      </trkpt>
      <trkpt lat="62.636258464326" lon="17.983146341306">
        <ele>97.2</ele>
        <time>2018-01-03T12:44:27Z</time>
      </trkpt>
      <trkpt lat="62.636261649448" lon="17.983248851943">
        <ele>97.2</ele>
        <time>2018-01-03T12:44:28Z</time>
      </trkpt>
      <trkpt lat="62.636267432959" lon="17.983309285442">
        <ele>97.2</ele>
        <time>2018-01-03T12:44:29Z</time>
      </trkpt>
      <trkpt lat="62.636266678588" lon="17.98336980276">
        <ele>97.2</ele>
        <time>2018-01-03T12:44:30Z</time>
      </trkpt>
      <trkpt lat="62.636265253665" lon="17.983420429436">
        <ele>97.2</ele>
        <time>2018-01-03T12:44:31Z</time>
      </trkpt>
      <trkpt lat="62.636260727439" lon="17.983475666157">
        <ele>97.2</ele>
        <time>2018-01-03T12:44:32Z</time>
      </trkpt>
      <trkpt lat="62.636255865937" lon="17.983514725811">
        <ele>97.2</ele>
        <time>2018-01-03T12:44:33Z</time>
      </trkpt>
      <trkpt lat="62.636251004435" lon="17.983558982243">
        <ele>97.2</ele>
        <time>2018-01-03T12:44:34Z</time>
      </trkpt>
      <trkpt lat="62.636245220924" lon="17.983612542584">
        <ele>97.4</ele>
        <time>2018-01-03T12:44:35Z</time>
      </trkpt>
      <trkpt lat="62.636241197612" lon="17.983655877007">
        <ele>97.6</ele>
        <time>2018-01-03T12:44:36Z</time>
      </trkpt>
      <trkpt lat="62.636233067169" lon="17.983701558362">
        <ele>97.6</ele>
        <time>2018-01-03T12:44:37Z</time>
      </trkpt>
      <trkpt lat="62.636223260346" lon="17.983751346848">
        <ele>97.8</ele>
        <time>2018-01-03T12:44:38Z</time>
      </trkpt>
      <trkpt lat="62.636214794627" lon="17.983796106194">
        <ele>98</ele>
        <time>2018-01-03T12:44:39Z</time>
      </trkpt>
      <trkpt lat="62.636207502374" lon="17.983835920219">
        <ele>98</ele>
        <time>2018-01-03T12:44:40Z</time>
      </trkpt>
      <trkpt lat="62.636195432438" lon="17.983892078949">
        <ele>98</ele>
        <time>2018-01-03T12:44:41Z</time>
      </trkpt>
      <trkpt lat="62.636188643099" lon="17.983938347037">
        <ele>98.2</ele>
        <time>2018-01-03T12:44:42Z</time>
      </trkpt>
      <trkpt lat="62.636182440493" lon="17.983986794419">
        <ele>98.2</ele>
        <time>2018-01-03T12:44:43Z</time>
      </trkpt>
      <trkpt lat="62.636172717489" lon="17.984036666724">
        <ele>98.2</ele>
        <time>2018-01-03T12:44:44Z</time>
      </trkpt>
      <trkpt lat="62.636168023625" lon="17.984078157129">
        <ele>98.4</ele>
        <time>2018-01-03T12:44:45Z</time>
      </trkpt>
      <trkpt lat="62.636162240114" lon="17.984129538176">
        <ele>98.4</ele>
        <time>2018-01-03T12:44:46Z</time>
      </trkpt>
      <trkpt lat="62.636156372784" lon="17.984190306951">
        <ele>98.6</ele>
        <time>2018-01-03T12:44:47Z</time>
      </trkpt>
      <trkpt lat="62.636154947861" lon="17.984233473736">
        <ele>98.4</ele>
        <time>2018-01-03T12:44:48Z</time>
      </trkpt>
      <trkpt lat="62.636153020024" lon="17.984292398493">
        <ele>98.6</ele>
        <time>2018-01-03T12:44:49Z</time>
      </trkpt>
      <trkpt lat="62.636150421635" lon="17.984336571106">
        <ele>98.6</ele>
        <time>2018-01-03T12:44:50Z</time>
      </trkpt>
      <trkpt lat="62.636145727771" lon="17.984390634361">
        <ele>98.6</ele>
        <time>2018-01-03T12:44:51Z</time>
      </trkpt>
      <trkpt lat="62.63614581159" lon="17.984442350684">
        <ele>98.8</ele>
        <time>2018-01-03T12:44:52Z</time>
      </trkpt>
      <trkpt lat="62.636145141038" lon="17.984499012328">
        <ele>98.8</ele>
        <time>2018-01-03T12:44:53Z</time>
      </trkpt>
      <trkpt lat="62.636145392495" lon="17.984551902117">
        <ele>99</ele>
        <time>2018-01-03T12:44:54Z</time>
      </trkpt>
      <trkpt lat="62.636140950088" lon="17.984600433318">
        <ele>99</ele>
        <time>2018-01-03T12:44:55Z</time>
      </trkpt>
      <trkpt lat="62.636138016423" lon="17.984651730546">
        <ele>99.2</ele>
        <time>2018-01-03T12:44:56Z</time>
      </trkpt>
      <trkpt lat="62.63613491512" lon="17.98469833391">
        <ele>99.2</ele>
        <time>2018-01-03T12:44:57Z</time>
      </trkpt>
      <trkpt lat="62.636135418034" lon="17.984741416876">
        <ele>99.4</ele>
        <time>2018-01-03T12:44:58Z</time>
      </trkpt>
      <trkpt lat="62.636135585672" lon="17.984788439335">
        <ele>99.4</ele>
        <time>2018-01-03T12:44:59Z</time>
      </trkpt>
      <trkpt lat="62.636134579844" lon="17.984829594464">
        <ele>99.4</ele>
        <time>2018-01-03T12:45:00Z</time>
      </trkpt>
      <trkpt lat="62.63613407693" lon="17.98487603019">
        <ele>99.6</ele>
        <time>2018-01-03T12:45:01Z</time>
      </trkpt>
      <trkpt lat="62.636133574016" lon="17.984924142296">
        <ele>99.6</ele>
        <time>2018-01-03T12:45:02Z</time>
      </trkpt>
      <trkpt lat="62.636132484369" lon="17.984963034312">
        <ele>99.6</ele>
        <time>2018-01-03T12:45:03Z</time>
      </trkpt>
      <trkpt lat="62.636131813817" lon="17.985004357079">
        <ele>99.8</ele>
        <time>2018-01-03T12:45:04Z</time>
      </trkpt>
      <trkpt lat="62.636127874324" lon="17.985078285437">
        <ele>99.8</ele>
        <time>2018-01-03T12:45:05Z</time>
      </trkpt>
      <trkpt lat="62.636127455229" lon="17.985122374231">
        <ele>99.8</ele>
        <time>2018-01-03T12:45:06Z</time>
      </trkpt>
      <trkpt lat="62.636125611211" lon="17.985178449142">
        <ele>99.8</ele>
        <time>2018-01-03T12:45:07Z</time>
      </trkpt>
      <trkpt lat="62.636126197944" lon="17.985221783565">
        <ele>99.8</ele>
        <time>2018-01-03T12:45:08Z</time>
      </trkpt>
      <trkpt lat="62.636125946487" lon="17.985272829336">
        <ele>100</ele>
        <time>2018-01-03T12:45:09Z</time>
      </trkpt>
      <trkpt lat="62.636121671718" lon="17.985325886763">
        <ele>100.2</ele>
        <time>2018-01-03T12:45:10Z</time>
      </trkpt>
      <trkpt lat="62.636120079157" lon="17.985371484299">
        <ele>100.2</ele>
        <time>2018-01-03T12:45:11Z</time>
      </trkpt>
      <trkpt lat="62.636119157148" lon="17.98542672102">
        <ele>100.2</ele>
        <time>2018-01-03T12:45:12Z</time>
      </trkpt>
      <trkpt lat="62.636117061673" lon="17.985475000764">
        <ele>100.2</ele>
        <time>2018-01-03T12:45:13Z</time>
      </trkpt>
      <trkpt lat="62.63611396037" lon="17.985522693775">
        <ele>100.4</ele>
        <time>2018-01-03T12:45:14Z</time>
      </trkpt>
      <trkpt lat="62.636107171031" lon="17.985577762858">
        <ele>100.4</ele>
        <time>2018-01-03T12:45:15Z</time>
      </trkpt>
      <trkpt lat="62.636102141891" lon="17.985618079797">
        <ele>100.6</ele>
        <time>2018-01-03T12:45:16Z</time>
      </trkpt>
      <trkpt lat="62.636093676172" lon="17.985669209387">
        <ele>100.6</ele>
        <time>2018-01-03T12:45:17Z</time>
      </trkpt>
      <trkpt lat="62.636082276788" lon="17.985717992045">
        <ele>100.6</ele>
        <time>2018-01-03T12:45:18Z</time>
      </trkpt>
      <trkpt lat="62.63607121268" lon="17.985763254305">
        <ele>100.6</ele>
        <time>2018-01-03T12:45:19Z</time>
      </trkpt>
      <trkpt lat="62.636060819124" lon="17.985796949543">
        <ele>100.6</ele>
        <time>2018-01-03T12:45:20Z</time>
      </trkpt>
      <trkpt lat="62.636046821351" lon="17.985833075532">
        <ele>100.8</ele>
        <time>2018-01-03T12:45:21Z</time>
      </trkpt>
      <trkpt lat="62.636029638456" lon="17.985861322535">
        <ele>100.8</ele>
        <time>2018-01-03T12:45:22Z</time>
      </trkpt>
      <trkpt lat="62.636013712846" lon="17.985892251746">
        <ele>101</ele>
        <time>2018-01-03T12:45:23Z</time>
      </trkpt>
      <trkpt lat="62.636000469444" lon="17.98592041493">
        <ele>101.2</ele>
        <time>2018-01-03T12:45:24Z</time>
      </trkpt>
      <trkpt lat="62.635984376196" lon="17.985944470983">
        <ele>101.2</ele>
        <time>2018-01-03T12:45:25Z</time>
      </trkpt>
      <trkpt lat="62.635966019835" lon="17.985967688846">
        <ele>101.4</ele>
        <time>2018-01-03T12:45:26Z</time>
      </trkpt>
      <trkpt lat="62.635952608795" lon="17.985983362999">
        <ele>101.4</ele>
        <time>2018-01-03T12:45:27Z</time>
      </trkpt>
      <trkpt lat="62.635937689013" lon="17.985995935849">
        <ele>101.4</ele>
        <time>2018-01-03T12:45:28Z</time>
      </trkpt>
      <trkpt lat="62.635914135874" lon="17.986009011613">
        <ele>101.4</ele>
        <time>2018-01-03T12:45:29Z</time>
      </trkpt>
      <trkpt lat="62.635896198608" lon="17.986021416825">
        <ele>101.6</ele>
        <time>2018-01-03T12:45:30Z</time>
      </trkpt>
      <trkpt lat="62.635874573306" lon="17.986030804553">
        <ele>101.6</ele>
        <time>2018-01-03T12:45:31Z</time>
      </trkpt>
      <trkpt lat="62.635851523081" lon="17.986048658">
        <ele>101.8</ele>
        <time>2018-01-03T12:45:32Z</time>
      </trkpt>
      <trkpt lat="62.635834088729" lon="17.986065589438">
        <ele>101.8</ele>
        <time>2018-01-03T12:45:33Z</time>
      </trkpt>
      <trkpt lat="62.635812798703" lon="17.986088974939">
        <ele>102</ele>
        <time>2018-01-03T12:45:34Z</time>
      </trkpt>
      <trkpt lat="62.635793101238" lon="17.986113617725">
        <ele>102</ele>
        <time>2018-01-03T12:45:35Z</time>
      </trkpt>
      <trkpt lat="62.635774241963" lon="17.986141194176">
        <ele>102</ele>
        <time>2018-01-03T12:45:36Z</time>
      </trkpt>
      <trkpt lat="62.635755969421" lon="17.986167345704">
        <ele>102.2</ele>
        <time>2018-01-03T12:45:37Z</time>
      </trkpt>
      <trkpt lat="62.635742474562" lon="17.986187294626">
        <ele>102.2</ele>
        <time>2018-01-03T12:45:38Z</time>
      </trkpt>
      <trkpt lat="62.635728309151" lon="17.986209758118">
        <ele>102.2</ele>
        <time>2018-01-03T12:45:39Z</time>
      </trkpt>
      <trkpt lat="62.635714898111" lon="17.986232892162">
        <ele>102.4</ele>
        <time>2018-01-03T12:45:40Z</time>
      </trkpt>
      <trkpt lat="62.635702660537" lon="17.986258037862">
        <ele>102.4</ele>
        <time>2018-01-03T12:45:41Z</time>
      </trkpt>
      <trkpt lat="62.635691344972" lon="17.986282345372">
        <ele>102.6</ele>
        <time>2018-01-03T12:45:42Z</time>
      </trkpt>
      <trkpt lat="62.635679107398" lon="17.986309083633">
        <ele>102.8</ele>
        <time>2018-01-03T12:45:43Z</time>
      </trkpt>
      <trkpt lat="62.6356672051" lon="17.986337582093">
        <ele>103</ele>
        <time>2018-01-03T12:45:44Z</time>
      </trkpt>
      <trkpt lat="62.635653626422" lon="17.986372702254">
        <ele>103.2</ele>
        <time>2018-01-03T12:45:45Z</time>
      </trkpt>
      <trkpt lat="62.635639293373" lon="17.986412097184">
        <ele>103.4</ele>
        <time>2018-01-03T12:45:46Z</time>
      </trkpt>
      <trkpt lat="62.635623703039" lon="17.986449229001">
        <ele>103.4</ele>
        <time>2018-01-03T12:45:47Z</time>
      </trkpt>
      <trkpt lat="62.63561104637" lon="17.986484852076">
        <ele>103.6</ele>
        <time>2018-01-03T12:45:48Z</time>
      </trkpt>
      <trkpt lat="62.635595875131" lon="17.986532712725">
        <ele>103.6</ele>
        <time>2018-01-03T12:45:49Z</time>
      </trkpt>
      <trkpt lat="62.635584559566" lon="17.986573616397">
        <ele>103.8</ele>
        <time>2018-01-03T12:45:50Z</time>
      </trkpt>
      <trkpt lat="62.635571986716" lon="17.986616783182">
        <ele>103.8</ele>
        <time>2018-01-03T12:45:51Z</time>
      </trkpt>
      <trkpt lat="62.635558408038" lon="17.986659866148">
        <ele>103.8</ele>
        <time>2018-01-03T12:45:52Z</time>
      </trkpt>
      <trkpt lat="62.635545248455" lon="17.986698590526">
        <ele>103.8</ele>
        <time>2018-01-03T12:45:53Z</time>
      </trkpt>
      <trkpt lat="62.635533849071" lon="17.986730525565">
        <ele>103.8</ele>
        <time>2018-01-03T12:45:54Z</time>
      </trkpt>
      <trkpt lat="62.635524377524" lon="17.986759191663">
        <ele>103.8</ele>
        <time>2018-01-03T12:45:55Z</time>
      </trkpt>
      <trkpt lat="62.635512642864" lon="17.9867946471">
        <ele>104</ele>
        <time>2018-01-03T12:45:56Z</time>
      </trkpt>
      <trkpt lat="62.63550208167" lon="17.986831443641">
        <ele>104.2</ele>
        <time>2018-01-03T12:45:57Z</time>
      </trkpt>
      <trkpt lat="62.635491101381" lon="17.986864468327">
        <ele>104.2</ele>
        <time>2018-01-03T12:45:58Z</time>
      </trkpt>
      <trkpt lat="62.635474002305" lon="17.98690947913">
        <ele>104.4</ele>
        <time>2018-01-03T12:45:59Z</time>
      </trkpt>
      <trkpt lat="62.635462770559" lon="17.986950634259">
        <ele>104.4</ele>
        <time>2018-01-03T12:46:00Z</time>
      </trkpt>
      <trkpt lat="62.635449443338" lon="17.986988855723">
        <ele>104.6</ele>
        <time>2018-01-03T12:46:01Z</time>
      </trkpt>
      <trkpt lat="62.635433936823" lon="17.987026490454">
        <ele>104.4</ele>
        <time>2018-01-03T12:46:02Z</time>
      </trkpt>
      <trkpt lat="62.635419771412" lon="17.987058425493">
        <ele>104.4</ele>
        <time>2018-01-03T12:46:03Z</time>
      </trkpt>
      <trkpt lat="62.63540652801" lon="17.987086001944">
        <ele>104.4</ele>
        <time>2018-01-03T12:46:04Z</time>
      </trkpt>
      <trkpt lat="62.635393871341" lon="17.987114248947">
        <ele>104.4</ele>
        <time>2018-01-03T12:46:05Z</time>
      </trkpt>
      <trkpt lat="62.635381466129" lon="17.987140149018">
        <ele>104.4</ele>
        <time>2018-01-03T12:46:06Z</time>
      </trkpt>
      <trkpt lat="62.635364786148" lon="17.987171078229">
        <ele>104.6</ele>
        <time>2018-01-03T12:46:07Z</time>
      </trkpt>
      <trkpt lat="62.635350117823" lon="17.987199409051">
        <ele>104.8</ele>
        <time>2018-01-03T12:46:08Z</time>
      </trkpt>
      <trkpt lat="62.635337712611" lon="17.987225560579">
        <ele>105</ele>
        <time>2018-01-03T12:46:09Z</time>
      </trkpt>
      <trkpt lat="62.635327067598" lon="17.987248275528">
        <ele>105</ele>
        <time>2018-01-03T12:46:10Z</time>
      </trkpt>
      <trkpt lat="62.635310555255" lon="17.987277276902">
        <ele>105</ele>
        <time>2018-01-03T12:46:11Z</time>
      </trkpt>
      <trkpt lat="62.635298736776" lon="17.987302506421">
        <ele>105</ele>
        <time>2018-01-03T12:46:12Z</time>
      </trkpt>
      <trkpt lat="62.635283565537" lon="17.987336536935">
        <ele>105.2</ele>
        <time>2018-01-03T12:46:13Z</time>
      </trkpt>
      <trkpt lat="62.635266047366" lon="17.987373249657">
        <ele>105.2</ele>
        <time>2018-01-03T12:46:14Z</time>
      </trkpt>
      <trkpt lat="62.635251630498" lon="17.987387498887">
        <ele>105.2</ele>
        <time>2018-01-03T12:46:15Z</time>
      </trkpt>
      <trkpt lat="62.635237884182" lon="17.987410381474">
        <ele>105.4</ele>
        <time>2018-01-03T12:46:16Z</time>
      </trkpt>
      <trkpt lat="62.635222712943" lon="17.987442903246">
        <ele>105.4</ele>
        <time>2018-01-03T12:46:17Z</time>
      </trkpt>
      <trkpt lat="62.635210894464" lon="17.987481543805">
        <ele>105.6</ele>
        <time>2018-01-03T12:46:18Z</time>
      </trkpt>
      <trkpt lat="62.635193795388" lon="17.987524123857">
        <ele>105.6</ele>
        <time>2018-01-03T12:46:19Z</time>
      </trkpt>
      <trkpt lat="62.635179462339" lon="17.987562932054">
        <ele>105.8</ele>
        <time>2018-01-03T12:46:20Z</time>
      </trkpt>
      <trkpt lat="62.635169906973" lon="17.987602913717">
        <ele>106</ele>
        <time>2018-01-03T12:46:21Z</time>
      </trkpt>
      <trkpt lat="62.635161860349" lon="17.987642392466">
        <ele>106.2</ele>
        <time>2018-01-03T12:46:22Z</time>
      </trkpt>
      <trkpt lat="62.635157417942" lon="17.987681703577">
        <ele>106.2</ele>
        <time>2018-01-03T12:46:23Z</time>
      </trkpt>
      <trkpt lat="62.635152724078" lon="17.987725038">
        <ele>106.4</ele>
        <time>2018-01-03T12:46:24Z</time>
      </trkpt>
      <trkpt lat="62.635147611119" lon="17.987763427102">
        <ele>106.4</ele>
        <time>2018-01-03T12:46:25Z</time>
      </trkpt>
      <trkpt lat="62.63514249816" lon="17.987803660222">
        <ele>106.4</ele>
        <time>2018-01-03T12:46:26Z</time>
      </trkpt>
      <trkpt lat="62.635140235047" lon="17.987837858374">
        <ele>106.6</ele>
        <time>2018-01-03T12:46:27Z</time>
      </trkpt>
      <trkpt lat="62.635135373545" lon="17.987877253304">
        <ele>106.8</ele>
        <time>2018-01-03T12:46:28Z</time>
      </trkpt>
      <trkpt lat="62.635125901998" lon="17.987932490025">
        <ele>107</ele>
        <time>2018-01-03T12:46:29Z</time>
      </trkpt>
      <trkpt lat="62.635120956677" lon="17.987974315706">
        <ele>107</ele>
        <time>2018-01-03T12:46:30Z</time>
      </trkpt>
      <trkpt lat="62.635114754071" lon="17.988018069224">
        <ele>107</ele>
        <time>2018-01-03T12:46:31Z</time>
      </trkpt>
      <trkpt lat="62.635105031067" lon="17.988066684244">
        <ele>107.2</ele>
        <time>2018-01-03T12:46:32Z</time>
      </trkpt>
      <trkpt lat="62.635096649167" lon="17.988106498269">
        <ele>107</ele>
        <time>2018-01-03T12:46:33Z</time>
      </trkpt>
      <trkpt lat="62.635084495412" lon="17.988147653398">
        <ele>107.2</ele>
        <time>2018-01-03T12:46:34Z</time>
      </trkpt>
      <trkpt lat="62.635067647793" lon="17.988184533758">
        <ele>107.2</ele>
        <time>2018-01-03T12:46:35Z</time>
      </trkpt>
      <trkpt lat="62.635052225097" lon="17.988213870408">
        <ele>107.2</ele>
        <time>2018-01-03T12:46:36Z</time>
      </trkpt>
      <trkpt lat="62.635038059686" lon="17.988236585357">
        <ele>107.2</ele>
        <time>2018-01-03T12:46:37Z</time>
      </trkpt>
      <trkpt lat="62.635023139904" lon="17.988260138496">
        <ele>107.2</ele>
        <time>2018-01-03T12:46:38Z</time>
      </trkpt>
      <trkpt lat="62.635008723036" lon="17.988282350531">
        <ele>107.4</ele>
        <time>2018-01-03T12:46:39Z</time>
      </trkpt>
      <trkpt lat="62.634995228177" lon="17.98829668358">
        <ele>107.4</ele>
        <time>2018-01-03T12:46:40Z</time>
      </trkpt>
      <trkpt lat="62.634978967291" lon="17.988310513715">
        <ele>107.8</ele>
        <time>2018-01-03T12:46:41Z</time>
      </trkpt>
      <trkpt lat="62.634958850731" lon="17.988328283343">
        <ele>107.8</ele>
        <time>2018-01-03T12:46:42Z</time>
      </trkpt>
      <trkpt lat="62.63493630342" lon="17.988345047143">
        <ele>107.8</ele>
        <time>2018-01-03T12:46:43Z</time>
      </trkpt>
      <trkpt lat="62.634915181032" lon="17.988360218382">
        <ele>108</ele>
        <time>2018-01-03T12:46:44Z</time>
      </trkpt>
      <trkpt lat="62.634900345069" lon="17.988369438472">
        <ele>108</ele>
        <time>2018-01-03T12:46:45Z</time>
      </trkpt>
      <trkpt lat="62.634885592925" lon="17.98837966439">
        <ele>108.2</ele>
        <time>2018-01-03T12:46:46Z</time>
      </trkpt>
      <trkpt lat="62.634865141089" lon="17.98839307543">
        <ele>108.2</ele>
        <time>2018-01-03T12:46:47Z</time>
      </trkpt>
      <trkpt lat="62.634850137488" lon="17.988406318832">
        <ele>108.2</ele>
        <time>2018-01-03T12:46:48Z</time>
      </trkpt>
      <trkpt lat="62.634828763643" lon="17.98842241208">
        <ele>108.4</ele>
        <time>2018-01-03T12:46:49Z</time>
      </trkpt>
      <trkpt lat="62.63481308949" lon="17.988433643826">
        <ele>108.4</ele>
        <time>2018-01-03T12:46:50Z</time>
      </trkpt>
      <trkpt lat="62.634800097545" lon="17.988441941907">
        <ele>108.6</ele>
        <time>2018-01-03T12:46:51Z</time>
      </trkpt>
      <trkpt lat="62.634784339573" lon="17.988447138685">
        <ele>108.6</ele>
        <time>2018-01-03T12:46:52Z</time>
      </trkpt>
      <trkpt lat="62.634766653764" lon="17.988454514757">
        <ele>108.8</ele>
        <time>2018-01-03T12:46:53Z</time>
      </trkpt>
      <trkpt lat="62.634749051774" lon="17.988461974648">
        <ele>108.8</ele>
        <time>2018-01-03T12:46:54Z</time>
      </trkpt>
      <trkpt lat="62.634730360137" lon="17.988474882774">
        <ele>108.8</ele>
        <time>2018-01-03T12:46:55Z</time>
      </trkpt>
      <trkpt lat="62.634713009604" lon="17.988484857235">
        <ele>108.8</ele>
        <time>2018-01-03T12:46:56Z</time>
      </trkpt>
      <trkpt lat="62.634697754546" lon="17.988495921343">
        <ele>108.8</ele>
        <time>2018-01-03T12:46:57Z</time>
      </trkpt>
      <trkpt lat="62.634680487832" lon="17.988508997107">
        <ele>109</ele>
        <time>2018-01-03T12:46:58Z</time>
      </trkpt>
      <trkpt lat="62.634656431779" lon="17.988527269649">
        <ele>109.2</ele>
        <time>2018-01-03T12:46:59Z</time>
      </trkpt>
      <trkpt lat="62.634638578332" lon="17.988541183603">
        <ele>109.2</ele>
        <time>2018-01-03T12:47:00Z</time>
      </trkpt>
      <trkpt lat="62.634624915835" lon="17.988549565503">
        <ele>109.4</ele>
        <time>2018-01-03T12:47:01Z</time>
      </trkpt>
      <trkpt lat="62.634611001881" lon="17.988559456145">
        <ele>109.6</ele>
        <time>2018-01-03T12:47:02Z</time>
      </trkpt>
      <trkpt lat="62.63459599828" lon="17.988569430606">
        <ele>109.6</ele>
        <time>2018-01-03T12:47:03Z</time>
      </trkpt>
      <trkpt lat="62.634580324127" lon="17.988580243257">
        <ele>109.8</ele>
        <time>2018-01-03T12:47:04Z</time>
      </trkpt>
      <trkpt lat="62.634564398517" lon="17.988594911582">
        <ele>109.8</ele>
        <time>2018-01-03T12:47:05Z</time>
      </trkpt>
      <trkpt lat="62.634548975821" lon="17.988609831364">
        <ele>110</ele>
        <time>2018-01-03T12:47:06Z</time>
      </trkpt>
      <trkpt lat="62.634532044383" lon="17.988626846621">
        <ele>110</ele>
        <time>2018-01-03T12:47:07Z</time>
      </trkpt>
      <trkpt lat="62.634510838176" lon="17.988657356737">
        <ele>110.2</ele>
        <time>2018-01-03T12:47:08Z</time>
      </trkpt>
      <trkpt lat="62.634489799607" lon="17.988689710871">
        <ele>110.2</ele>
        <time>2018-01-03T12:47:09Z</time>
      </trkpt>
      <trkpt lat="62.634473203445" lon="17.988716113856">
        <ele>110.4</ele>
        <time>2018-01-03T12:47:10Z</time>
      </trkpt>
      <trkpt lat="62.634453086885" lon="17.988745618144">
        <ele>110.4</ele>
        <time>2018-01-03T12:47:11Z</time>
      </trkpt>
      <trkpt lat="62.634436658361" lon="17.988770763844">
        <ele>110.4</ele>
        <time>2018-01-03T12:47:12Z</time>
      </trkpt>
      <trkpt lat="62.63442416933" lon="17.988796999191">
        <ele>110.6</ele>
        <time>2018-01-03T12:47:13Z</time>
      </trkpt>
      <trkpt lat="62.634412099394" lon="17.988828179859">
        <ele>110.6</ele>
        <time>2018-01-03T12:47:14Z</time>
      </trkpt>
      <trkpt lat="62.634395000318" lon="17.988867742427">
        <ele>110.8</ele>
        <time>2018-01-03T12:47:15Z</time>
      </trkpt>
      <trkpt lat="62.63437723069" lon="17.988908394642">
        <ele>110.8</ele>
        <time>2018-01-03T12:47:16Z</time>
      </trkpt>
      <trkpt lat="62.63436549603" lon="17.988933288885">
        <ele>111</ele>
        <time>2018-01-03T12:47:17Z</time>
      </trkpt>
      <trkpt lat="62.634350995343" lon="17.988963966639">
        <ele>111</ele>
        <time>2018-01-03T12:47:18Z</time>
      </trkpt>
      <trkpt lat="62.634337500484" lon="17.988995314945">
        <ele>111.4</ele>
        <time>2018-01-03T12:47:19Z</time>
      </trkpt>
      <trkpt lat="62.634320652865" lon="17.989027752898">
        <ele>111.4</ele>
        <time>2018-01-03T12:47:20Z</time>
      </trkpt>
      <trkpt lat="62.63430514635" lon="17.989057341005">
        <ele>111.6</ele>
        <time>2018-01-03T12:47:21Z</time>
      </trkpt>
      <trkpt lat="62.634285448885" lon="17.989093131718">
        <ele>111.8</ele>
        <time>2018-01-03T12:47:22Z</time>
      </trkpt>
      <trkpt lat="62.634263823583" lon="17.989124899119">
        <ele>112</ele>
        <time>2018-01-03T12:47:23Z</time>
      </trkpt>
      <trkpt lat="62.63424312029" lon="17.989151134466">
        <ele>111.8</ele>
        <time>2018-01-03T12:47:24Z</time>
      </trkpt>
      <trkpt lat="62.634227110861" lon="17.98917594489">
        <ele>111.8</ele>
        <time>2018-01-03T12:47:25Z</time>
      </trkpt>
      <trkpt lat="62.634206659025" lon="17.989207879929">
        <ele>111.8</ele>
        <time>2018-01-03T12:47:26Z</time>
      </trkpt>
      <trkpt lat="62.634188721759" lon="17.989230846335">
        <ele>111.8</ele>
        <time>2018-01-03T12:47:27Z</time>
      </trkpt>
      <trkpt lat="62.634170281579" lon="17.989254483293">
        <ele>111.8</ele>
        <time>2018-01-03T12:47:28Z</time>
      </trkpt>
      <trkpt lat="62.634146393164" lon="17.989283484667">
        <ele>111.8</ele>
        <time>2018-01-03T12:47:29Z</time>
      </trkpt>
      <trkpt lat="62.634126947156" lon="17.989301505752">
        <ele>111.8</ele>
        <time>2018-01-03T12:47:30Z</time>
      </trkpt>
      <trkpt lat="62.634114290487" lon="17.989318688647">
        <ele>111.6</ele>
        <time>2018-01-03T12:47:31Z</time>
      </trkpt>
      <trkpt lat="62.63410062799" lon="17.989332183506">
        <ele>111.6</ele>
        <time>2018-01-03T12:47:32Z</time>
      </trkpt>
      <trkpt lat="62.634084199466" lon="17.989347354745">
        <ele>112</ele>
        <time>2018-01-03T12:47:33Z</time>
      </trkpt>
      <trkpt lat="62.634067519485" lon="17.989369063866">
        <ele>112</ele>
        <time>2018-01-03T12:47:34Z</time>
      </trkpt>
      <trkpt lat="62.634049414581" lon="17.989393371376">
        <ele>112</ele>
        <time>2018-01-03T12:47:35Z</time>
      </trkpt>
      <trkpt lat="62.634033321333" lon="17.989410889547">
        <ele>112.2</ele>
        <time>2018-01-03T12:47:36Z</time>
      </trkpt>
      <trkpt lat="62.634017898637" lon="17.989426312243">
        <ele>112.4</ele>
        <time>2018-01-03T12:47:37Z</time>
      </trkpt>
      <trkpt lat="62.63400255976" lon="17.989441232025">
        <ele>112.2</ele>
        <time>2018-01-03T12:47:38Z</time>
      </trkpt>
      <trkpt lat="62.633986550331" lon="17.98945673854">
        <ele>112.2</ele>
        <time>2018-01-03T12:47:39Z</time>
      </trkpt>
      <trkpt lat="62.633970959997" lon="17.989474508168">
        <ele>112.4</ele>
        <time>2018-01-03T12:47:40Z</time>
      </trkpt>
      <trkpt lat="62.633949921428" lon="17.989497642212">
        <ele>112.6</ele>
        <time>2018-01-03T12:47:41Z</time>
      </trkpt>
      <trkpt lat="62.633933409085" lon="17.989513484003">
        <ele>112.4</ele>
        <time>2018-01-03T12:47:42Z</time>
      </trkpt>
      <trkpt lat="62.63391622619" lon="17.989526140672">
        <ele>112.4</ele>
        <time>2018-01-03T12:47:44Z</time>
      </trkpt>
      <trkpt lat="62.633888817377" lon="17.989559500634">
        <ele>112.6</ele>
        <time>2018-01-03T12:47:45Z</time>
      </trkpt>
      <trkpt lat="62.633872137396" lon="17.989580958298">
        <ele>112.8</ele>
        <time>2018-01-03T12:47:46Z</time>
      </trkpt>
      <trkpt lat="62.633852607569" lon="17.989605433446">
        <ele>112.8</ele>
        <time>2018-01-03T12:47:47Z</time>
      </trkpt>
      <trkpt lat="62.633833329199" lon="17.989640469788">
        <ele>113</ele>
        <time>2018-01-03T12:47:48Z</time>
      </trkpt>
      <trkpt lat="62.63381229063" lon="17.989673997388">
        <ele>113</ele>
        <time>2018-01-03T12:47:49Z</time>
      </trkpt>
      <trkpt lat="62.633792844622" lon="17.989707189712">
        <ele>113.2</ele>
        <time>2018-01-03T12:47:50Z</time>
      </trkpt>
      <trkpt lat="62.633773901528" lon="17.989746919918">
        <ele>113</ele>
        <time>2018-01-03T12:47:51Z</time>
      </trkpt>
      <trkpt lat="62.633755461348" lon="17.989787488314">
        <ele>113.2</ele>
        <time>2018-01-03T12:47:52Z</time>
      </trkpt>
      <trkpt lat="62.633738865186" lon="17.989838366447">
        <ele>113.2</ele>
        <time>2018-01-03T12:47:53Z</time>
      </trkpt>
      <trkpt lat="62.633722688119" lon="17.989887484381">
        <ele>113.2</ele>
        <time>2018-01-03T12:47:54Z</time>
      </trkpt>
      <trkpt lat="62.633704918491" lon="17.989935261211">
        <ele>113.2</ele>
        <time>2018-01-03T12:47:55Z</time>
      </trkpt>
      <trkpt lat="62.633693938202" lon="17.98996551987">
        <ele>113.2</ele>
        <time>2018-01-03T12:47:56Z</time>
      </trkpt>
      <trkpt lat="62.633675917117" lon="17.9900049148">
        <ele>113.4</ele>
        <time>2018-01-03T12:47:57Z</time>
      </trkpt>
      <trkpt lat="62.633664936828" lon="17.990038861495">
        <ele>113.2</ele>
        <time>2018-01-03T12:47:58Z</time>
      </trkpt>
      <trkpt lat="62.633645574639" lon="17.990081609185">
        <ele>113.2</ele>
        <time>2018-01-03T12:47:59Z</time>
      </trkpt>
      <trkpt lat="62.633628475563" lon="17.99013315787">
        <ele>113.2</ele>
        <time>2018-01-03T12:48:00Z</time>
      </trkpt>
      <trkpt lat="62.633611041211" lon="17.990171546972">
        <ele>113.4</ele>
        <time>2018-01-03T12:48:01Z</time>
      </trkpt>
      <trkpt lat="62.633590337918" lon="17.990205158391">
        <ele>113.4</ele>
        <time>2018-01-03T12:48:02Z</time>
      </trkpt>
      <trkpt lat="62.633571227186" lon="17.99022954972">
        <ele>113.6</ele>
        <time>2018-01-03T12:48:03Z</time>
      </trkpt>
      <trkpt lat="62.633556894137" lon="17.990243212217">
        <ele>113.6</ele>
        <time>2018-01-03T12:48:04Z</time>
      </trkpt>
      <trkpt lat="62.633534263007" lon="17.990262574406">
        <ele>113.6</ele>
        <time>2018-01-03T12:48:05Z</time>
      </trkpt>
      <trkpt lat="62.633509117307" lon="17.990286127545">
        <ele>114</ele>
        <time>2018-01-03T12:48:06Z</time>
      </trkpt>
      <trkpt lat="62.633487492005" lon="17.99030331044">
        <ele>114</ele>
        <time>2018-01-03T12:48:07Z</time>
      </trkpt>
      <trkpt lat="62.633462597762" lon="17.990318900774">
        <ele>114</ele>
        <time>2018-01-03T12:48:08Z</time>
      </trkpt>
      <trkpt lat="62.63343678151" lon="17.990339604067">
        <ele>114.2</ele>
        <time>2018-01-03T12:48:09Z</time>
      </trkpt>
      <trkpt lat="62.633414904751" lon="17.990350584356">
        <ele>114.4</ele>
        <time>2018-01-03T12:48:10Z</time>
      </trkpt>
      <trkpt lat="62.633398727684" lon="17.990361648464">
        <ele>114.2</ele>
        <time>2018-01-03T12:48:11Z</time>
      </trkpt>
      <trkpt lat="62.633364613351" lon="17.990381010653">
        <ele>114.4</ele>
        <time>2018-01-03T12:48:12Z</time>
      </trkpt>
      <trkpt lat="62.633340892574" lon="17.990403557964">
        <ele>114.4</ele>
        <time>2018-01-03T12:48:13Z</time>
      </trkpt>
      <trkpt lat="62.633311555924" lon="17.990421746687">
        <ele>114.4</ele>
        <time>2018-01-03T12:48:14Z</time>
      </trkpt>
      <trkpt lat="62.633286913138" lon="17.990446557111">
        <ele>114.4</ele>
        <time>2018-01-03T12:48:15Z</time>
      </trkpt>
      <trkpt lat="62.633260342515" lon="17.990471870449">
        <ele>114.4</ele>
        <time>2018-01-03T12:48:16Z</time>
      </trkpt>
      <trkpt lat="62.633238633394" lon="17.990505230411">
        <ele>114.2</ele>
        <time>2018-01-03T12:48:17Z</time>
      </trkpt>
      <trkpt lat="62.633208290916" lon="17.990551749956">
        <ele>114.2</ele>
        <time>2018-01-03T12:48:18Z</time>
      </trkpt>
      <trkpt lat="62.633184737777" lon="17.990600281157">
        <ele>114</ele>
        <time>2018-01-03T12:48:19Z</time>
      </trkpt>
      <trkpt lat="62.633164705036" lon="17.990647722711">
        <ele>114</ele>
        <time>2018-01-03T12:48:20Z</time>
      </trkpt>
      <trkpt lat="62.633140648983" lon="17.990696589188">
        <ele>114</ele>
        <time>2018-01-03T12:48:21Z</time>
      </trkpt>
      <trkpt lat="62.633124052821" lon="17.990745958579">
        <ele>114</ele>
        <time>2018-01-03T12:48:22Z</time>
      </trkpt>
      <trkpt lat="62.633107959573" lon="17.990788287174">
        <ele>114</ele>
        <time>2018-01-03T12:48:23Z</time>
      </trkpt>
      <trkpt lat="62.633088597384" lon="17.990842182791">
        <ele>114</ele>
        <time>2018-01-03T12:48:24Z</time>
      </trkpt>
      <trkpt lat="62.63307133067" lon="17.990890127259">
        <ele>113.8</ele>
        <time>2018-01-03T12:48:25Z</time>
      </trkpt>
      <trkpt lat="62.633056494707" lon="17.990945280161">
        <ele>114</ele>
        <time>2018-01-03T12:48:26Z</time>
      </trkpt>
      <trkpt lat="62.633044005676" lon="17.990995990656">
        <ele>114</ele>
        <time>2018-01-03T12:48:27Z</time>
      </trkpt>
      <trkpt lat="62.633026236048" lon="17.99105516687">
        <ele>114</ele>
        <time>2018-01-03T12:48:28Z</time>
      </trkpt>
      <trkpt lat="62.633019698166" lon="17.991096992551">
        <ele>114</ele>
        <time>2018-01-03T12:48:29Z</time>
      </trkpt>
      <trkpt lat="62.633000838891" lon="17.991157342231">
        <ele>114</ele>
        <time>2018-01-03T12:48:30Z</time>
      </trkpt>
      <trkpt lat="62.632988852774" lon="17.991214171513">
        <ele>114</ele>
        <time>2018-01-03T12:48:31Z</time>
      </trkpt>
      <trkpt lat="62.632969658223" lon="17.991263708542">
        <ele>114</ele>
        <time>2018-01-03T12:48:32Z</time>
      </trkpt>
      <trkpt lat="62.632950882767" lon="17.991315257227">
        <ele>114</ele>
        <time>2018-01-03T12:48:33Z</time>
      </trkpt>
      <trkpt lat="62.632935795347" lon="17.991349623017">
        <ele>114</ele>
        <time>2018-01-03T12:48:34Z</time>
      </trkpt>
      <trkpt lat="62.632916014063" lon="17.991395555829">
        <ele>114</ele>
        <time>2018-01-03T12:48:35Z</time>
      </trkpt>
      <trkpt lat="62.632897238607" lon="17.9914382197">
        <ele>113.8</ele>
        <time>2018-01-03T12:48:36Z</time>
      </trkpt>
      <trkpt lat="62.632877122047" lon="17.991487002358">
        <ele>114</ele>
        <time>2018-01-03T12:48:37Z</time>
      </trkpt>
      <trkpt lat="62.632863627188" lon="17.991524972365">
        <ele>113.8</ele>
        <time>2018-01-03T12:48:38Z</time>
      </trkpt>
      <trkpt lat="62.632844600275" lon="17.991577107783">
        <ele>113.8</ele>
        <time>2018-01-03T12:48:39Z</time>
      </trkpt>
      <trkpt lat="62.632828423208" lon="17.991622453862">
        <ele>113.8</ele>
        <time>2018-01-03T12:48:40Z</time>
      </trkpt>
      <trkpt lat="62.632811072675" lon="17.991660759145">
        <ele>113.8</ele>
        <time>2018-01-03T12:48:41Z</time>
      </trkpt>
      <trkpt lat="62.632786597527" lon="17.99172655706">
        <ele>113.8</ele>
        <time>2018-01-03T12:48:42Z</time>
      </trkpt>
      <trkpt lat="62.6327670677" lon="17.991768215103">
        <ele>113.8</ele>
        <time>2018-01-03T12:48:43Z</time>
      </trkpt>
      <trkpt lat="62.632756003592" lon="17.991825547299">
        <ele>113.8</ele>
        <time>2018-01-03T12:48:44Z</time>
      </trkpt>
      <trkpt lat="62.632744185113" lon="17.991873659405">
        <ele>113.8</ele>
        <time>2018-01-03T12:48:45Z</time>
      </trkpt>
      <trkpt lat="62.632739155973" lon="17.991924537538">
        <ele>114</ele>
        <time>2018-01-03T12:48:46Z</time>
      </trkpt>
      <trkpt lat="62.632745945312" lon="17.991962759002">
        <ele>114</ele>
        <time>2018-01-03T12:48:47Z</time>
      </trkpt>
      <trkpt lat="62.632757931429" lon="17.99200399795">
        <ele>114</ele>
        <time>2018-01-03T12:48:48Z</time>
      </trkpt>
      <trkpt lat="62.632772767392" lon="17.992024365967">
        <ele>114</ele>
        <time>2018-01-03T12:48:49Z</time>
      </trkpt>
      <trkpt lat="62.632789279735" lon="17.992053367341">
        <ele>114</ele>
        <time>2018-01-03T12:48:50Z</time>
      </trkpt>
      <trkpt lat="62.632805959716" lon="17.99207189134">
        <ele>114</ele>
        <time>2018-01-03T12:48:51Z</time>
      </trkpt>
      <trkpt lat="62.632823813163" lon="17.992082452534">
        <ele>114</ele>
        <time>2018-01-03T12:48:52Z</time>
      </trkpt>
      <trkpt lat="62.632841834248" lon="17.99208614057">
        <ele>114</ele>
        <time>2018-01-03T12:48:53Z</time>
      </trkpt>
      <trkpt lat="62.632857340763" lon="17.992087984588">
        <ele>114</ele>
        <time>2018-01-03T12:48:54Z</time>
      </trkpt>
      <trkpt lat="62.632880726264" lon="17.992097204678">
        <ele>114</ele>
        <time>2018-01-03T12:48:55Z</time>
      </trkpt>
      <trkpt lat="62.632900004634" lon="17.992102317637">
        <ele>114</ele>
        <time>2018-01-03T12:48:56Z</time>
      </trkpt>
      <trkpt lat="62.632919115366" lon="17.992111705365">
        <ele>114</ele>
        <time>2018-01-03T12:48:57Z</time>
      </trkpt>
      <trkpt lat="62.632941746496" lon="17.99212050636">
        <ele>114</ele>
        <time>2018-01-03T12:48:58Z</time>
      </trkpt>
      <trkpt lat="62.632957923563" lon="17.992127630975">
        <ele>114</ele>
        <time>2018-01-03T12:48:59Z</time>
      </trkpt>
      <trkpt lat="62.632985583833" lon="17.992141880205">
        <ele>114</ele>
        <time>2018-01-03T12:49:00Z</time>
      </trkpt>
      <trkpt lat="62.633005784212" lon="17.992146993164">
        <ele>114</ele>
        <time>2018-01-03T12:49:01Z</time>
      </trkpt>
      <trkpt lat="62.633034031215" lon="17.992158308729">
        <ele>114</ele>
        <time>2018-01-03T12:49:02Z</time>
      </trkpt>
      <trkpt lat="62.633056662345" lon="17.992172557959">
        <ele>114.2</ele>
        <time>2018-01-03T12:49:03Z</time>
      </trkpt>
      <trkpt lat="62.63308725628" lon="17.992193680347">
        <ele>114</ele>
        <time>2018-01-03T12:49:04Z</time>
      </trkpt>
      <trkpt lat="62.633109803591" lon="17.992206253197">
        <ele>114.2</ele>
        <time>2018-01-03T12:49:05Z</time>
      </trkpt>
      <trkpt lat="62.633102427519" lon="17.992196446374">
        <ele>114</ele>
        <time>2018-01-03T12:49:06Z</time>
      </trkpt>
      <trkpt lat="62.63314341501" lon="17.992221843531">
        <ele>114</ele>
        <time>2018-01-03T12:49:07Z</time>
      </trkpt>
      <trkpt lat="62.63317275166" lon="17.992240954263">
        <ele>114.2</ele>
        <time>2018-01-03T12:49:08Z</time>
      </trkpt>
      <trkpt lat="62.633200998663" lon="17.992247324507">
        <ele>114</ele>
        <time>2018-01-03T12:49:09Z</time>
      </trkpt>
      <trkpt lat="62.633227820743" lon="17.992255706407">
        <ele>114</ele>
        <time>2018-01-03T12:49:10Z</time>
      </trkpt>
      <trkpt lat="62.633255397194" lon="17.992263417755">
        <ele>113.8</ele>
        <time>2018-01-03T12:49:11Z</time>
      </trkpt>
      <trkpt lat="62.633289427708" lon="17.992272973121">
        <ele>113.6</ele>
        <time>2018-01-03T12:49:12Z</time>
      </trkpt>
      <trkpt lat="62.633323709679" lon="17.992281103564">
        <ele>113.4</ele>
        <time>2018-01-03T12:49:13Z</time>
      </trkpt>
      <trkpt lat="62.633359835668" lon="17.992292083853">
        <ele>113.2</ele>
        <time>2018-01-03T12:49:14Z</time>
      </trkpt>
      <trkpt lat="62.633398811503" lon="17.992312619508">
        <ele>112.8</ele>
        <time>2018-01-03T12:49:15Z</time>
      </trkpt>
      <trkpt lat="62.633437871157" lon="17.992333658077">
        <ele>112.6</ele>
        <time>2018-01-03T12:49:16Z</time>
      </trkpt>
      <trkpt lat="62.633470560567" lon="17.99236358146">
        <ele>112.4</ele>
        <time>2018-01-03T12:49:17Z</time>
      </trkpt>
      <trkpt lat="62.633504423443" lon="17.992403898399">
        <ele>112.2</ele>
        <time>2018-01-03T12:49:18Z</time>
      </trkpt>
      <trkpt lat="62.633533089541" lon="17.992448406288">
        <ele>112</ele>
        <time>2018-01-03T12:49:19Z</time>
      </trkpt>
      <trkpt lat="62.633564521666" lon="17.992503978285">
        <ele>112</ele>
        <time>2018-01-03T12:49:20Z</time>
      </trkpt>
      <trkpt lat="62.633594277411" lon="17.992557790083">
        <ele>112</ele>
        <time>2018-01-03T12:49:21Z</time>
      </trkpt>
      <trkpt lat="62.633623781699" lon="17.992618307401">
        <ele>112</ele>
        <time>2018-01-03T12:49:22Z</time>
      </trkpt>
      <trkpt lat="62.633651609607" lon="17.992669017896">
        <ele>112</ele>
        <time>2018-01-03T12:49:23Z</time>
      </trkpt>
      <trkpt lat="62.633681952085" lon="17.99272316497">
        <ele>112</ele>
        <time>2018-01-03T12:49:24Z</time>
      </trkpt>
      <trkpt lat="62.633713719486" lon="17.992785107211">
        <ele>112</ele>
        <time>2018-01-03T12:49:25Z</time>
      </trkpt>
      <trkpt lat="62.633746241258" lon="17.992843948149">
        <ele>111.8</ele>
        <time>2018-01-03T12:49:26Z</time>
      </trkpt>
      <trkpt lat="62.63377792484" lon="17.99290169944">
        <ele>111.6</ele>
        <time>2018-01-03T12:49:27Z</time>
      </trkpt>
      <trkpt lat="62.633808770232" lon="17.992946039691">
        <ele>111.4</ele>
        <time>2018-01-03T12:49:28Z</time>
      </trkpt>
      <trkpt lat="62.633835843769" lon="17.992989206476">
        <ele>111.2</ele>
        <time>2018-01-03T12:49:29Z</time>
      </trkpt>
      <trkpt lat="62.633869790464" lon="17.9930391626">
        <ele>111</ele>
        <time>2018-01-03T12:49:30Z</time>
      </trkpt>
      <trkpt lat="62.63389778601" lon="17.993074534218">
        <ele>110.8</ele>
        <time>2018-01-03T12:49:31Z</time>
      </trkpt>
      <trkpt lat="62.633926535927" lon="17.993108229456">
        <ele>110.4</ele>
        <time>2018-01-03T12:49:32Z</time>
      </trkpt>
      <trkpt lat="62.633949586152" lon="17.9931397454">
        <ele>110.2</ele>
        <time>2018-01-03T12:49:33Z</time>
      </trkpt>
      <trkpt lat="62.633972804015" lon="17.993169501145">
        <ele>110</ele>
        <time>2018-01-03T12:49:34Z</time>
      </trkpt>
      <trkpt lat="62.63399585424" lon="17.993193724836">
        <ele>109.8</ele>
        <time>2018-01-03T12:49:35Z</time>
      </trkpt>
      <trkpt lat="62.63402099994" lon="17.9932235644">
        <ele>109.4</ele>
        <time>2018-01-03T12:49:36Z</time>
      </trkpt>
      <trkpt lat="62.63404614564" lon="17.993257343457">
        <ele>109.2</ele>
        <time>2018-01-03T12:49:37Z</time>
      </trkpt>
      <trkpt lat="62.634072213349" lon="17.993291625428">
        <ele>109</ele>
        <time>2018-01-03T12:49:38Z</time>
      </trkpt>
      <trkpt lat="62.634102220551" lon="17.993326158856">
        <ele>108.8</ele>
        <time>2018-01-03T12:49:39Z</time>
      </trkpt>
      <trkpt lat="62.634137256893" lon="17.993362536302">
        <ele>108.4</ele>
        <time>2018-01-03T12:49:40Z</time>
      </trkpt>
      <trkpt lat="62.634166342086" lon="17.993384915975">
        <ele>108.2</ele>
        <time>2018-01-03T12:49:41Z</time>
      </trkpt>
      <trkpt lat="62.634195008184" lon="17.993401679775">
        <ele>108</ele>
        <time>2018-01-03T12:49:42Z</time>
      </trkpt>
      <trkpt lat="62.634220153884" lon="17.993418611213">
        <ele>107.8</ele>
        <time>2018-01-03T12:49:43Z</time>
      </trkpt>
      <trkpt lat="62.634247227421" lon="17.993433614814">
        <ele>107.6</ele>
        <time>2018-01-03T12:49:44Z</time>
      </trkpt>
      <trkpt lat="62.634278994822" lon="17.993450462433">
        <ele>107.4</ele>
        <time>2018-01-03T12:49:45Z</time>
      </trkpt>
      <trkpt lat="62.634312941517" lon="17.993465885129">
        <ele>107</ele>
        <time>2018-01-03T12:49:46Z</time>
      </trkpt>
      <trkpt lat="62.634346720574" lon="17.993482397472">
        <ele>106.8</ele>
        <time>2018-01-03T12:49:47Z</time>
      </trkpt>
      <trkpt lat="62.634380751088" lon="17.993495808512">
        <ele>106.4</ele>
        <time>2018-01-03T12:49:48Z</time>
      </trkpt>
      <trkpt lat="62.634417966724" lon="17.993512153217">
        <ele>106</ele>
        <time>2018-01-03T12:49:49Z</time>
      </trkpt>
      <trkpt lat="62.634458786577" lon="17.993534197614">
        <ele>105.6</ele>
        <time>2018-01-03T12:49:50Z</time>
      </trkpt>
      <trkpt lat="62.634497175679" lon="17.993552218699">
        <ele>105.2</ele>
        <time>2018-01-03T12:49:51Z</time>
      </trkpt>
      <trkpt lat="62.634533636944" lon="17.993570742698">
        <ele>104.6</ele>
        <time>2018-01-03T12:49:52Z</time>
      </trkpt>
      <trkpt lat="62.634566996906" lon="17.993585243385">
        <ele>104.2</ele>
        <time>2018-01-03T12:49:53Z</time>
      </trkpt>
      <trkpt lat="62.634602452343" lon="17.993596139855">
        <ele>103.8</ele>
        <time>2018-01-03T12:49:54Z</time>
      </trkpt>
      <trkpt lat="62.634644948576" lon="17.993610221447">
        <ele>103.4</ele>
        <time>2018-01-03T12:49:55Z</time>
      </trkpt>
      <trkpt lat="62.634687947723" lon="17.993623800125">
        <ele>103</ele>
        <time>2018-01-03T12:49:56Z</time>
      </trkpt>
      <trkpt lat="62.634729857223" lon="17.99363092474">
        <ele>102.8</ele>
        <time>2018-01-03T12:49:57Z</time>
      </trkpt>
      <trkpt lat="62.63477285637" lon="17.993637043527">
        <ele>102.4</ele>
        <time>2018-01-03T12:49:58Z</time>
      </trkpt>
      <trkpt lat="62.634807976531" lon="17.993643832866">
        <ele>102.2</ele>
        <time>2018-01-03T12:49:59Z</time>
      </trkpt>
      <trkpt lat="62.634856423913" lon="17.993650286929">
        <ele>101.8</ele>
        <time>2018-01-03T12:50:00Z</time>
      </trkpt>
      <trkpt lat="62.634898249594" lon="17.993660429028">
        <ele>101.6</ele>
        <time>2018-01-03T12:50:01Z</time>
      </trkpt>
      <trkpt lat="62.634937309248" lon="17.993672582783">
        <ele>101.2</ele>
        <time>2018-01-03T12:50:02Z</time>
      </trkpt>
      <trkpt lat="62.634967987002" lon="17.993685071814">
        <ele>101.2</ele>
        <time>2018-01-03T12:50:03Z</time>
      </trkpt>
      <trkpt lat="62.635001766059" lon="17.99369462718">
        <ele>101</ele>
        <time>2018-01-03T12:50:04Z</time>
      </trkpt>
      <trkpt lat="62.635035796573" lon="17.993706697116">
        <ele>100.8</ele>
        <time>2018-01-03T12:50:05Z</time>
      </trkpt>
      <trkpt lat="62.635079801548" lon="17.993723209459">
        <ele>100.6</ele>
        <time>2018-01-03T12:50:06Z</time>
      </trkpt>
      <trkpt lat="62.635125315265" lon="17.993736452861">
        <ele>100.4</ele>
        <time>2018-01-03T12:50:07Z</time>
      </trkpt>
      <trkpt lat="62.63516932024" lon="17.993747600788">
        <ele>100.2</ele>
        <time>2018-01-03T12:50:08Z</time>
      </trkpt>
      <trkpt lat="62.635216091242" lon="17.993761263285">
        <ele>99.8</ele>
        <time>2018-01-03T12:50:09Z</time>
      </trkpt>
      <trkpt lat="62.635268478117" lon="17.993771573022">
        <ele>99.6</ele>
        <time>2018-01-03T12:50:10Z</time>
      </trkpt>
      <trkpt lat="62.635310471436" lon="17.993777105076">
        <ele>99.2</ele>
        <time>2018-01-03T12:50:11Z</time>
      </trkpt>
      <trkpt lat="62.635355063144" lon="17.993784564967">
        <ele>99</ele>
        <time>2018-01-03T12:50:12Z</time>
      </trkpt>
      <trkpt lat="62.635394206617" lon="17.993792863048">
        <ele>98.6</ele>
        <time>2018-01-03T12:50:13Z</time>
      </trkpt>
      <trkpt lat="62.635439552696" lon="17.993799903844">
        <ele>98.4</ele>
        <time>2018-01-03T12:50:14Z</time>
      </trkpt>
      <trkpt lat="62.63549202339" lon="17.993805854993">
        <ele>98.2</ele>
        <time>2018-01-03T12:50:15Z</time>
      </trkpt>
      <trkpt lat="62.635545583731" lon="17.993812895789">
        <ele>98</ele>
        <time>2018-01-03T12:50:16Z</time>
      </trkpt>
      <trkpt lat="62.635595623674" lon="17.993824378992">
        <ele>97.8</ele>
        <time>2018-01-03T12:50:17Z</time>
      </trkpt>
      <trkpt lat="62.635644993065" lon="17.993835862195">
        <ele>97.8</ele>
        <time>2018-01-03T12:50:18Z</time>
      </trkpt>
      <trkpt lat="62.63570157089" lon="17.993856481669">
        <ele>97.6</ele>
        <time>2018-01-03T12:50:19Z</time>
      </trkpt>
      <trkpt lat="62.635755131231" lon="17.993875340944">
        <ele>97.2</ele>
        <time>2018-01-03T12:50:20Z</time>
      </trkpt>
      <trkpt lat="62.635804249165" lon="17.993890176907">
        <ele>96.8</ele>
        <time>2018-01-03T12:50:21Z</time>
      </trkpt>
      <trkpt lat="62.635854205289" lon="17.9938941164">
        <ele>96.4</ele>
        <time>2018-01-03T12:50:22Z</time>
      </trkpt>
      <trkpt lat="62.635902317395" lon="17.993887578518">
        <ele>96</ele>
        <time>2018-01-03T12:50:23Z</time>
      </trkpt>
      <trkpt lat="62.635953111709" lon="17.993870144166">
        <ele>95.8</ele>
        <time>2018-01-03T12:50:24Z</time>
      </trkpt>
      <trkpt lat="62.636010108629" lon="17.993839298774">
        <ele>95.6</ele>
        <time>2018-01-03T12:50:25Z</time>
      </trkpt>
      <trkpt lat="62.636070542128" lon="17.993800742034">
        <ele>95.6</ele>
        <time>2018-01-03T12:50:26Z</time>
      </trkpt>
      <trkpt lat="62.636125862668" lon="17.993762101475">
        <ele>95.4</ele>
        <time>2018-01-03T12:50:27Z</time>
      </trkpt>
      <trkpt lat="62.636175399697" lon="17.993716671577">
        <ele>95.2</ele>
        <time>2018-01-03T12:50:28Z</time>
      </trkpt>
      <trkpt lat="62.636220326681" lon="17.993673420973">
        <ele>95</ele>
        <time>2018-01-03T12:50:29Z</time>
      </trkpt>
      <trkpt lat="62.63627489285" lon="17.99360745542">
        <ele>94.6</ele>
        <time>2018-01-03T12:50:30Z</time>
      </trkpt>
      <trkpt lat="62.636320909481" lon="17.993543669161">
        <ele>94</ele>
        <time>2018-01-03T12:50:31Z</time>
      </trkpt>
      <trkpt lat="62.636363238076" lon="17.993486923698">
        <ele>93.6</ele>
        <time>2018-01-03T12:50:32Z</time>
      </trkpt>
      <trkpt lat="62.636402968282" lon="17.993433782452">
        <ele>93</ele>
        <time>2018-01-03T12:50:33Z</time>
      </trkpt>
      <trkpt lat="62.636452253854" lon="17.993373097496">
        <ele>92.6</ele>
        <time>2018-01-03T12:50:34Z</time>
      </trkpt>
      <trkpt lat="62.63650371872" lon="17.993310484703">
        <ele>92</ele>
        <time>2018-01-03T12:50:35Z</time>
      </trkpt>
      <trkpt lat="62.636560548002" lon="17.993242256037">
        <ele>91.6</ele>
        <time>2018-01-03T12:50:36Z</time>
      </trkpt>
      <trkpt lat="62.636618969845" lon="17.993175871389">
        <ele>91</ele>
        <time>2018-01-03T12:50:37Z</time>
      </trkpt>
      <trkpt lat="62.636673200738" lon="17.993102697402">
        <ele>90.4</ele>
        <time>2018-01-03T12:50:38Z</time>
      </trkpt>
      <trkpt lat="62.636716535161" lon="17.993028182311">
        <ele>89.6</ele>
        <time>2018-01-03T12:50:39Z</time>
      </trkpt>
      <trkpt lat="62.636756349186" lon="17.992940423818">
        <ele>89</ele>
        <time>2018-01-03T12:50:40Z</time>
      </trkpt>
      <trkpt lat="62.636781578705" lon="17.992864735261">
        <ele>88.6</ele>
        <time>2018-01-03T12:50:41Z</time>
      </trkpt>
      <trkpt lat="62.636810077165" lon="17.992765745022">
        <ele>88.2</ele>
        <time>2018-01-03T12:50:42Z</time>
      </trkpt>
      <trkpt lat="62.636827930612" lon="17.992677315977">
        <ele>88</ele>
        <time>2018-01-03T12:50:43Z</time>
      </trkpt>
      <trkpt lat="62.636840000548" lon="17.992602549429">
        <ele>88</ele>
        <time>2018-01-03T12:50:44Z</time>
      </trkpt>
      <trkpt lat="62.636852992493" lon="17.992528537252">
        <ele>88</ele>
        <time>2018-01-03T12:50:45Z</time>
      </trkpt>
      <trkpt lat="62.636864475696" lon="17.992441281673">
        <ele>88.2</ele>
        <time>2018-01-03T12:50:46Z</time>
      </trkpt>
      <trkpt lat="62.636866822628" lon="17.992364838745">
        <ele>88.2</ele>
        <time>2018-01-03T12:50:47Z</time>
      </trkpt>
      <trkpt lat="62.636870762121" lon="17.992291832396">
        <ele>88.4</ele>
        <time>2018-01-03T12:50:48Z</time>
      </trkpt>
      <trkpt lat="62.636875204528" lon="17.992210360328">
        <ele>88.4</ele>
        <time>2018-01-03T12:50:49Z</time>
      </trkpt>
      <trkpt lat="62.63688090422" lon="17.99213894654">
        <ele>88.6</ele>
        <time>2018-01-03T12:50:50Z</time>
      </trkpt>
      <trkpt lat="62.636892135966" lon="17.992086475846">
        <ele>88.6</ele>
        <time>2018-01-03T12:50:51Z</time>
      </trkpt>
      <trkpt lat="62.636904457359" lon="17.99203752555">
        <ele>88.6</ele>
        <time>2018-01-03T12:50:52Z</time>
      </trkpt>
      <trkpt lat="62.636918874227" lon="17.991982959381">
        <ele>88.6</ele>
        <time>2018-01-03T12:50:53Z</time>
      </trkpt>
      <trkpt lat="62.636932788181" lon="17.991931410696">
        <ele>88.8</ele>
        <time>2018-01-03T12:50:54Z</time>
      </trkpt>
      <trkpt lat="62.636953407655" lon="17.991864690772">
        <ele>88.8</ele>
        <time>2018-01-03T12:50:55Z</time>
      </trkpt>
      <trkpt lat="62.636972769844" lon="17.991793528441">
        <ele>89</ele>
        <time>2018-01-03T12:50:56Z</time>
      </trkpt>
      <trkpt lat="62.636989785101" lon="17.991734184589">
        <ele>89</ele>
        <time>2018-01-03T12:50:57Z</time>
      </trkpt>
      <trkpt lat="62.637010236937" lon="17.991680624248">
        <ele>89</ele>
        <time>2018-01-03T12:50:58Z</time>
      </trkpt>
      <trkpt lat="62.637024150891" lon="17.991638966205">
        <ele>89</ele>
        <time>2018-01-03T12:50:59Z</time>
      </trkpt>
      <trkpt lat="62.637039657406" lon="17.991591776108">
        <ele>89</ele>
        <time>2018-01-03T12:51:00Z</time>
      </trkpt>
      <trkpt lat="62.637063713459" lon="17.991532348437">
        <ele>89</ele>
        <time>2018-01-03T12:51:01Z</time>
      </trkpt>
      <trkpt lat="62.637081734544" lon="17.991476273526">
        <ele>89.2</ele>
        <time>2018-01-03T12:51:02Z</time>
      </trkpt>
      <trkpt lat="62.637099252715" lon="17.991429418705">
        <ele>89.4</ele>
        <time>2018-01-03T12:51:03Z</time>
      </trkpt>
      <trkpt lat="62.637119369275" lon="17.991377953839">
        <ele>89.4</ele>
        <time>2018-01-03T12:51:04Z</time>
      </trkpt>
      <trkpt lat="62.637133869962" lon="17.991331685751">
        <ele>89.4</ele>
        <time>2018-01-03T12:51:05Z</time>
      </trkpt>
      <trkpt lat="62.637155662902" lon="17.991266893664">
        <ele>89.6</ele>
        <time>2018-01-03T12:51:06Z</time>
      </trkpt>
      <trkpt lat="62.637175276548" lon="17.991209729106">
        <ele>89.6</ele>
        <time>2018-01-03T12:51:07Z</time>
      </trkpt>
      <trkpt lat="62.637200673705" lon="17.991142087173">
        <ele>89.4</ele>
        <time>2018-01-03T12:51:08Z</time>
      </trkpt>
      <trkpt lat="62.63722372393" lon="17.991077714181">
        <ele>89.4</ele>
        <time>2018-01-03T12:51:09Z</time>
      </trkpt>
      <trkpt lat="62.637246690336" lon="17.991004707832">
        <ele>89.4</ele>
        <time>2018-01-03T12:51:10Z</time>
      </trkpt>
      <trkpt lat="62.63726311886" lon="17.990943771419">
        <ele>89.4</ele>
        <time>2018-01-03T12:51:11Z</time>
      </trkpt>
      <trkpt lat="62.637282481049" lon="17.990867831405">
        <ele>89.2</ele>
        <time>2018-01-03T12:51:12Z</time>
      </trkpt>
      <trkpt lat="62.637290443854" lon="17.990811337399">
        <ele>89.2</ele>
        <time>2018-01-03T12:51:13Z</time>
      </trkpt>
      <trkpt lat="62.63729999922" lon="17.990758615248">
        <ele>89</ele>
        <time>2018-01-03T12:51:14Z</time>
      </trkpt>
      <trkpt lat="62.637311817699" lon="17.990672700773">
        <ele>89.2</ele>
        <time>2018-01-03T12:51:15Z</time>
      </trkpt>
      <trkpt lat="62.637319445228" lon="17.990599023872">
        <ele>89.2</ele>
        <time>2018-01-03T12:51:16Z</time>
      </trkpt>
      <trkpt lat="62.637331431345" lon="17.990510427189">
        <ele>89.2</ele>
        <time>2018-01-03T12:51:17Z</time>
      </trkpt>
      <trkpt lat="62.63734023234" lon="17.990415963176">
        <ele>89</ele>
        <time>2018-01-03T12:51:18Z</time>
      </trkpt>
      <trkpt lat="62.637349284792" lon="17.990331976538">
        <ele>89</ele>
        <time>2018-01-03T12:51:19Z</time>
      </trkpt>
      <trkpt lat="62.637361438547" lon="17.99024715171">
        <ele>88.8</ele>
        <time>2018-01-03T12:51:20Z</time>
      </trkpt>
      <trkpt lat="62.637369820447" lon="17.990175821741">
        <ele>88.8</ele>
        <time>2018-01-03T12:51:21Z</time>
      </trkpt>
      <trkpt lat="62.637378705261" lon="17.990102312478">
        <ele>88.6</ele>
        <time>2018-01-03T12:51:22Z</time>
      </trkpt>
      <trkpt lat="62.637385997514" lon="17.990062582272">
        <ele>88.6</ele>
        <time>2018-01-03T12:51:23Z</time>
      </trkpt>
      <trkpt lat="62.637402928952" lon="17.989985887887">
        <ele>88.6</ele>
        <time>2018-01-03T12:51:24Z</time>
      </trkpt>
      <trkpt lat="62.637420447123" lon="17.989921347257">
        <ele>88.8</ele>
        <time>2018-01-03T12:51:25Z</time>
      </trkpt>
      <trkpt lat="62.637434277258" lon="17.989877593739">
        <ele>89</ele>
        <time>2018-01-03T12:51:26Z</time>
      </trkpt>
      <trkpt lat="62.637456824569" lon="17.989821015914">
        <ele>89</ele>
        <time>2018-01-03T12:51:27Z</time>
      </trkpt>
      <trkpt lat="62.637474175102" lon="17.989775837473">
        <ele>89</ele>
        <time>2018-01-03T12:51:28Z</time>
      </trkpt>
      <trkpt lat="62.637493202015" lon="17.989737113095">
        <ele>89</ele>
        <time>2018-01-03T12:51:29Z</time>
      </trkpt>
      <trkpt lat="62.637519521181" lon="17.98968137346">
        <ele>89</ele>
        <time>2018-01-03T12:51:30Z</time>
      </trkpt>
      <trkpt lat="62.637541733216" lon="17.989627813119">
        <ele>89</ele>
        <time>2018-01-03T12:51:31Z</time>
      </trkpt>
      <trkpt lat="62.637564951079" lon="17.989566457611">
        <ele>88.8</ele>
        <time>2018-01-03T12:51:32Z</time>
      </trkpt>
      <trkpt lat="62.637586827838" lon="17.98950535356">
        <ele>88.6</ele>
        <time>2018-01-03T12:51:33Z</time>
      </trkpt>
      <trkpt lat="62.637611302986" lon="17.989444836242">
        <ele>88.2</ele>
        <time>2018-01-03T12:51:34Z</time>
      </trkpt>
      <trkpt lat="62.637635023763" lon="17.989383732191">
        <ele>87.8</ele>
        <time>2018-01-03T12:51:35Z</time>
      </trkpt>
      <trkpt lat="62.637659163635" lon="17.989313240412">
        <ele>87.4</ele>
        <time>2018-01-03T12:51:36Z</time>
      </trkpt>
      <trkpt lat="62.637688416466" lon="17.989235707837">
        <ele>87.2</ele>
        <time>2018-01-03T12:51:37Z</time>
      </trkpt>
      <trkpt lat="62.637719429496" lon="17.989148703715">
        <ele>87</ele>
        <time>2018-01-03T12:51:38Z</time>
      </trkpt>
      <trkpt lat="62.63774926906" lon="17.989068572751">
        <ele>86.8</ele>
        <time>2018-01-03T12:51:39Z</time>
      </trkpt>
      <trkpt lat="62.637780114452" lon="17.988975366023">
        <ele>87</ele>
        <time>2018-01-03T12:51:40Z</time>
      </trkpt>
      <trkpt lat="62.637796375338" lon="17.988899761285">
        <ele>86.8</ele>
        <time>2018-01-03T12:51:41Z</time>
      </trkpt>
      <trkpt lat="62.637811546577" lon="17.98881719957">
        <ele>86.6</ele>
        <time>2018-01-03T12:51:42Z</time>
      </trkpt>
      <trkpt lat="62.637817581545" lon="17.988759532098">
        <ele>86.6</ele>
        <time>2018-01-03T12:51:43Z</time>
      </trkpt>
      <trkpt lat="62.637828813291" lon="17.988699685332">
        <ele>86.6</ele>
        <time>2018-01-03T12:51:44Z</time>
      </trkpt>
      <trkpt lat="62.637842224331" lon="17.988626762802">
        <ele>86.6</ele>
        <time>2018-01-03T12:51:45Z</time>
      </trkpt>
      <trkpt lat="62.63785571919" lon="17.988553588815">
        <ele>86.6</ele>
        <time>2018-01-03T12:51:46Z</time>
      </trkpt>
      <trkpt lat="62.637870638972" lon="17.988478319353">
        <ele>86.8</ele>
        <time>2018-01-03T12:51:47Z</time>
      </trkpt>
      <trkpt lat="62.637885977849" lon="17.988400283864">
        <ele>86.6</ele>
        <time>2018-01-03T12:51:48Z</time>
      </trkpt>
      <trkpt lat="62.637900478536" lon="17.9883201529">
        <ele>86.4</ele>
        <time>2018-01-03T12:51:49Z</time>
      </trkpt>
      <trkpt lat="62.637914224852" lon="17.988240608669">
        <ele>86.4</ele>
        <time>2018-01-03T12:51:50Z</time>
      </trkpt>
      <trkpt lat="62.637926546245" lon="17.988165339207">
        <ele>86.2</ele>
        <time>2018-01-03T12:51:51Z</time>
      </trkpt>
      <trkpt lat="62.637938280905" lon="17.988092332858">
        <ele>86.2</ele>
        <time>2018-01-03T12:51:52Z</time>
      </trkpt>
      <trkpt lat="62.637951440488" lon="17.988012118075">
        <ele>86</ele>
        <time>2018-01-03T12:51:53Z</time>
      </trkpt>
      <trkpt lat="62.637969210116" lon="17.987911032361">
        <ele>85.8</ele>
        <time>2018-01-03T12:51:54Z</time>
      </trkpt>
      <trkpt lat="62.63799234416" lon="17.987807683534">
        <ele>85.4</ele>
        <time>2018-01-03T12:51:55Z</time>
      </trkpt>
      <trkpt lat="62.638012879815" lon="17.987709615304">
        <ele>85.2</ele>
        <time>2018-01-03T12:51:56Z</time>
      </trkpt>
      <trkpt lat="62.638032409642" lon="17.987621689173">
        <ele>84.6</ele>
        <time>2018-01-03T12:51:57Z</time>
      </trkpt>
      <trkpt lat="62.638051268917" lon="17.987543569865">
        <ele>84.4</ele>
        <time>2018-01-03T12:51:58Z</time>
      </trkpt>
      <trkpt lat="62.638067362165" lon="17.987474838285">
        <ele>84</ele>
        <time>2018-01-03T12:51:59Z</time>
      </trkpt>
      <trkpt lat="62.63808454506" lon="17.987390684009">
        <ele>83.6</ele>
        <time>2018-01-03T12:52:00Z</time>
      </trkpt>
      <trkpt lat="62.638101727955" lon="17.987315582185">
        <ele>83.4</ele>
        <time>2018-01-03T12:52:01Z</time>
      </trkpt>
      <trkpt lat="62.638121928334" lon="17.987236876144">
        <ele>83.6</ele>
        <time>2018-01-03T12:52:02Z</time>
      </trkpt>
      <trkpt lat="62.63814238017" lon="17.987151464583">
        <ele>83.4</ele>
        <time>2018-01-03T12:52:03Z</time>
      </trkpt>
      <trkpt lat="62.638161071807" lon="17.987071668895">
        <ele>83.2</ele>
        <time>2018-01-03T12:52:04Z</time>
      </trkpt>
      <trkpt lat="62.638177248874" lon="17.986984580954">
        <ele>83</ele>
        <time>2018-01-03T12:52:05Z</time>
      </trkpt>
      <trkpt lat="62.638190324638" lon="17.986883914335">
        <ele>82.8</ele>
        <time>2018-01-03T12:52:06Z</time>
      </trkpt>
      <trkpt lat="62.638194515588" lon="17.986787606304">
        <ele>82.6</ele>
        <time>2018-01-03T12:52:07Z</time>
      </trkpt>
      <trkpt lat="62.638195269959" lon="17.986691885006">
        <ele>82.2</ele>
        <time>2018-01-03T12:52:08Z</time>
      </trkpt>
      <trkpt lat="62.638192587751" lon="17.986617118458">
        <ele>82</ele>
        <time>2018-01-03T12:52:09Z</time>
      </trkpt>
      <trkpt lat="62.63818931881" lon="17.986530952526">
        <ele>82</ele>
        <time>2018-01-03T12:52:10Z</time>
      </trkpt>
      <trkpt lat="62.638183032385" lon="17.986456940349">
        <ele>82</ele>
        <time>2018-01-03T12:52:11Z</time>
      </trkpt>
      <trkpt lat="62.638182026557" lon="17.986374546272">
        <ele>82</ele>
        <time>2018-01-03T12:52:12Z</time>
      </trkpt>
      <trkpt lat="62.638179679625" lon="17.986309921823">
        <ele>81.8</ele>
        <time>2018-01-03T12:52:13Z</time>
      </trkpt>
      <trkpt lat="62.638181607462" lon="17.98623976532">
        <ele>81.8</ele>
        <time>2018-01-03T12:52:14Z</time>
      </trkpt>
      <trkpt lat="62.638177667969" lon="17.986174302681">
        <ele>82</ele>
        <time>2018-01-03T12:52:15Z</time>
      </trkpt>
      <trkpt lat="62.638180433996" lon="17.986113450087">
        <ele>82</ele>
        <time>2018-01-03T12:52:16Z</time>
      </trkpt>
      <trkpt lat="62.63818428967" lon="17.986055866434">
        <ele>82</ele>
        <time>2018-01-03T12:52:17Z</time>
      </trkpt>
      <trkpt lat="62.63819267157" lon="17.985976992755">
        <ele>82</ele>
        <time>2018-01-03T12:52:18Z</time>
      </trkpt>
      <trkpt lat="62.638198455081" lon="17.985926449898">
        <ele>82</ele>
        <time>2018-01-03T12:52:19Z</time>
      </trkpt>
      <trkpt lat="62.638206585524" lon="17.98587599086">
        <ele>81.8</ele>
        <time>2018-01-03T12:52:20Z</time>
      </trkpt>
      <trkpt lat="62.638219996564" lon="17.985832824075">
        <ele>81.8</ele>
        <time>2018-01-03T12:52:21Z</time>
      </trkpt>
      <trkpt lat="62.638236760364" lon="17.985793932059">
        <ele>81.8</ele>
        <time>2018-01-03T12:52:22Z</time>
      </trkpt>
      <trkpt lat="62.638249836128" lon="17.985765768875">
        <ele>81.6</ele>
        <time>2018-01-03T12:52:23Z</time>
      </trkpt>
      <trkpt lat="62.638261906064" lon="17.985736180768">
        <ele>81.6</ele>
        <time>2018-01-03T12:52:24Z</time>
      </trkpt>
      <trkpt lat="62.638273724543" lon="17.985711873258">
        <ele>81.6</ele>
        <time>2018-01-03T12:52:25Z</time>
      </trkpt>
      <trkpt lat="62.638285794479" lon="17.985689577404">
        <ele>81.6</ele>
        <time>2018-01-03T12:52:26Z</time>
      </trkpt>
      <trkpt lat="62.638295852759" lon="17.985666359541">
        <ele>81.6</ele>
        <time>2018-01-03T12:52:27Z</time>
      </trkpt>
      <trkpt lat="62.638305994858" lon="17.985645404791">
        <ele>81.6</ele>
        <time>2018-01-03T12:52:28Z</time>
      </trkpt>
      <trkpt lat="62.638312616559" lon="17.985630736466">
        <ele>81.6</ele>
        <time>2018-01-03T12:52:29Z</time>
      </trkpt>
      <trkpt lat="62.638322004287" lon="17.985610452268">
        <ele>81.6</ele>
        <time>2018-01-03T12:52:30Z</time>
      </trkpt>
      <trkpt lat="62.638329547997" lon="17.985593437011">
        <ele>81.6</ele>
        <time>2018-01-03T12:52:31Z</time>
      </trkpt>
      <trkpt lat="62.638337594621" lon="17.985580612704">
        <ele>81.6</ele>
        <time>2018-01-03T12:52:32Z</time>
      </trkpt>
      <trkpt lat="62.638343042856" lon="17.985566028198">
        <ele>81.6</ele>
        <time>2018-01-03T12:52:33Z</time>
      </trkpt>
      <trkpt lat="62.638347820539" lon="17.985550940778">
        <ele>81.6</ele>
        <time>2018-01-03T12:52:34Z</time>
      </trkpt>
      <trkpt lat="62.638352179127" lon="17.985533422607">
        <ele>81.6</ele>
        <time>2018-01-03T12:52:35Z</time>
      </trkpt>
      <trkpt lat="62.638353687869" lon="17.985514479513">
        <ele>81.6</ele>
        <time>2018-01-03T12:52:36Z</time>
      </trkpt>
      <trkpt lat="62.638356872991" lon="17.985493021849">
        <ele>81.8</ele>
        <time>2018-01-03T12:52:37Z</time>
      </trkpt>
      <trkpt lat="62.638359219923" lon="17.985476341868">
        <ele>81.8</ele>
        <time>2018-01-03T12:52:38Z</time>
      </trkpt>
      <trkpt lat="62.63836114776" lon="17.985459075154">
        <ele>81.8</ele>
        <time>2018-01-03T12:52:39Z</time>
      </trkpt>
      <trkpt lat="62.638364835796" lon="17.985440551155">
        <ele>81.8</ele>
        <time>2018-01-03T12:52:40Z</time>
      </trkpt>
      <trkpt lat="62.638368523832" lon="17.985424038812">
        <ele>81.8</ele>
        <time>2018-01-03T12:52:41Z</time>
      </trkpt>
      <trkpt lat="62.638372714782" lon="17.98540660446">
        <ele>81.6</ele>
        <time>2018-01-03T12:52:42Z</time>
      </trkpt>
      <trkpt lat="62.638380342311" lon="17.985384979158">
        <ele>81.6</ele>
        <time>2018-01-03T12:52:43Z</time>
      </trkpt>
      <trkpt lat="62.638389394763" lon="17.985364527322">
        <ele>81.6</ele>
        <time>2018-01-03T12:52:44Z</time>
      </trkpt>
      <trkpt lat="62.638398950129" lon="17.985341560916">
        <ele>81.6</ele>
        <time>2018-01-03T12:52:45Z</time>
      </trkpt>
      <trkpt lat="62.638409427504" lon="17.985321528175">
        <ele>81.6</ele>
        <time>2018-01-03T12:52:46Z</time>
      </trkpt>
      <trkpt lat="62.638424431105" lon="17.985292107706">
        <ele>81.6</ele>
        <time>2018-01-03T12:52:47Z</time>
      </trkpt>
      <trkpt lat="62.638442536009" lon="17.985256652269">
        <ele>81.4</ele>
        <time>2018-01-03T12:52:48Z</time>
      </trkpt>
      <trkpt lat="62.638457958705" lon="17.985226980343">
        <ele>81.4</ele>
        <time>2018-01-03T12:52:49Z</time>
      </trkpt>
      <trkpt lat="62.638478829636" lon="17.985183981196">
        <ele>81.4</ele>
        <time>2018-01-03T12:52:50Z</time>
      </trkpt>
      <trkpt lat="62.638495677255" lon="17.985139473307">
        <ele>81.2</ele>
        <time>2018-01-03T12:52:51Z</time>
      </trkpt>
      <trkpt lat="62.638511686684" lon="17.985090523011">
        <ele>81.2</ele>
        <time>2018-01-03T12:52:52Z</time>
      </trkpt>
      <trkpt lat="62.638531467968" lon="17.98504869733">
        <ele>81</ele>
        <time>2018-01-03T12:52:53Z</time>
      </trkpt>
      <trkpt lat="62.638556110754" lon="17.985002429242">
        <ele>81</ele>
        <time>2018-01-03T12:52:54Z</time>
      </trkpt>
      <trkpt lat="62.638581675549" lon="17.984958675724">
        <ele>81</ele>
        <time>2018-01-03T12:52:55Z</time>
      </trkpt>
      <trkpt lat="62.638599612815" lon="17.984899918605">
        <ele>80.8</ele>
        <time>2018-01-03T12:52:56Z</time>
      </trkpt>
      <trkpt lat="62.638623668868" lon="17.984853566698">
        <ele>80.6</ele>
        <time>2018-01-03T12:52:57Z</time>
      </trkpt>
      <trkpt lat="62.638652083509" lon="17.984806125144">
        <ele>80.4</ele>
        <time>2018-01-03T12:52:58Z</time>
      </trkpt>
      <trkpt lat="62.638673038259" lon="17.984769328603">
        <ele>80.2</ele>
        <time>2018-01-03T12:52:59Z</time>
      </trkpt>
      <trkpt lat="62.638706398221" lon="17.984708643647">
        <ele>80</ele>
        <time>2018-01-03T12:53:00Z</time>
      </trkpt>
      <trkpt lat="62.63873414231" lon="17.984645276483">
        <ele>79.6</ele>
        <time>2018-01-03T12:53:01Z</time>
      </trkpt>
      <trkpt lat="62.63876096439" lon="17.984573946514">
        <ele>79.4</ele>
        <time>2018-01-03T12:53:02Z</time>
      </trkpt>
      <trkpt lat="62.638782841149" lon="17.984490965704">
        <ele>79.2</ele>
        <time>2018-01-03T12:53:03Z</time>
      </trkpt>
      <trkpt lat="62.638800443139" lon="17.984409745093">
        <ele>79</ele>
        <time>2018-01-03T12:53:04Z</time>
      </trkpt>
      <trkpt lat="62.638815027645" lon="17.98431863384">
        <ele>78.8</ele>
        <time>2018-01-03T12:53:05Z</time>
      </trkpt>
      <trkpt lat="62.638825337382" lon="17.984206651656">
        <ele>78.6</ele>
        <time>2018-01-03T12:53:06Z</time>
      </trkpt>
      <trkpt lat="62.63883053416" lon="17.984114283118">
        <ele>78.2</ele>
        <time>2018-01-03T12:53:07Z</time>
      </trkpt>
      <trkpt lat="62.63883304873" lon="17.98401856182">
        <ele>78</ele>
        <time>2018-01-03T12:53:08Z</time>
      </trkpt>
      <trkpt lat="62.638836066214" lon="17.983919487762">
        <ele>78</ele>
        <time>2018-01-03T12:53:09Z</time>
      </trkpt>
      <trkpt lat="62.638832545816" lon="17.983838015694">
        <ele>77.8</ele>
        <time>2018-01-03T12:53:10Z</time>
      </trkpt>
      <trkpt lat="62.638831623807" lon="17.98373609179">
        <ele>77.8</ele>
        <time>2018-01-03T12:53:11Z</time>
      </trkpt>
      <trkpt lat="62.638826762305" lon="17.983644058528">
        <ele>77.8</ele>
        <time>2018-01-03T12:53:12Z</time>
      </trkpt>
      <trkpt lat="62.638825588839" lon="17.983565771582">
        <ele>77.8</ele>
        <time>2018-01-03T12:53:13Z</time>
      </trkpt>
      <trkpt lat="62.638823325726" lon="17.983492346138">
        <ele>77.8</ele>
        <time>2018-01-03T12:53:14Z</time>
      </trkpt>
      <trkpt lat="62.63881460855" lon="17.983421602902">
        <ele>77.6</ele>
        <time>2018-01-03T12:53:15Z</time>
      </trkpt>
      <trkpt lat="62.638814189455" lon="17.983344824698">
        <ele>77.6</ele>
        <time>2018-01-03T12:53:16Z</time>
      </trkpt>
      <trkpt lat="62.638813015989" lon="17.983283050095">
        <ele>77.6</ele>
        <time>2018-01-03T12:53:17Z</time>
      </trkpt>
      <trkpt lat="62.638817206939" lon="17.983214486153">
        <ele>77.6</ele>
        <time>2018-01-03T12:53:18Z</time>
      </trkpt>
      <trkpt lat="62.638819134776" lon="17.983153214464">
        <ele>77.6</ele>
        <time>2018-01-03T12:53:19Z</time>
      </trkpt>
      <trkpt lat="62.638821984622" lon="17.9830982292">
        <ele>77.8</ele>
        <time>2018-01-03T12:53:20Z</time>
      </trkpt>
      <trkpt lat="62.638826091753" lon="17.983045758506">
        <ele>77.8</ele>
        <time>2018-01-03T12:53:21Z</time>
      </trkpt>
      <trkpt lat="62.638833467825" lon="17.982983816265">
        <ele>78</ele>
        <time>2018-01-03T12:53:22Z</time>
      </trkpt>
      <trkpt lat="62.638834641291" lon="17.982926903164">
        <ele>78</ele>
        <time>2018-01-03T12:53:23Z</time>
      </trkpt>
      <trkpt lat="62.638834976567" lon="17.982871750262">
        <ele>78</ele>
        <time>2018-01-03T12:53:24Z</time>
      </trkpt>
      <trkpt lat="62.638837155861" lon="17.982803018682">
        <ele>78</ele>
        <time>2018-01-03T12:53:25Z</time>
      </trkpt>
      <trkpt lat="62.638839670431" lon="17.982734706197">
        <ele>78</ele>
        <time>2018-01-03T12:53:26Z</time>
      </trkpt>
      <trkpt lat="62.638845118666" lon="17.982679050381">
        <ele>78</ele>
        <time>2018-01-03T12:53:27Z</time>
      </trkpt>
      <trkpt lat="62.638850063987" lon="17.982612498095">
        <ele>77.8</ele>
        <time>2018-01-03T12:53:28Z</time>
      </trkpt>
      <trkpt lat="62.638850231625" lon="17.982560362677">
        <ele>77.8</ele>
        <time>2018-01-03T12:53:29Z</time>
      </trkpt>
      <trkpt lat="62.638857020964" lon="17.982479393523">
        <ele>77.8</ele>
        <time>2018-01-03T12:53:30Z</time>
      </trkpt>
      <trkpt lat="62.638863055932" lon="17.982422061327">
        <ele>77.8</ele>
        <time>2018-01-03T12:53:31Z</time>
      </trkpt>
      <trkpt lat="62.638869677633" lon="17.982364142398">
        <ele>78</ele>
        <time>2018-01-03T12:53:32Z</time>
      </trkpt>
      <trkpt lat="62.638876886067" lon="17.982305050003">
        <ele>78</ele>
        <time>2018-01-03T12:53:33Z</time>
      </trkpt>
      <trkpt lat="62.638888704546" lon="17.982251238205">
        <ele>78</ele>
        <time>2018-01-03T12:53:34Z</time>
      </trkpt>
      <trkpt lat="62.638903791966" lon="17.982191726715">
        <ele>78.4</ele>
        <time>2018-01-03T12:53:35Z</time>
      </trkpt>
      <trkpt lat="62.638925165811" lon="17.982126096438">
        <ele>78.2</ele>
        <time>2018-01-03T12:53:36Z</time>
      </trkpt>
      <trkpt lat="62.638946707294" lon="17.982065830577">
        <ele>78.2</ele>
        <time>2018-01-03T12:53:37Z</time>
      </trkpt>
      <trkpt lat="62.638964141646" lon="17.98200355306">
        <ele>78.2</ele>
        <time>2018-01-03T12:53:38Z</time>
      </trkpt>
      <trkpt lat="62.638983839111" lon="17.981951333823">
        <ele>78.2</ele>
        <time>2018-01-03T12:53:39Z</time>
      </trkpt>
      <trkpt lat="62.639004374766" lon="17.98189626474">
        <ele>78</ele>
        <time>2018-01-03T12:53:40Z</time>
      </trkpt>
      <trkpt lat="62.639025161878" lon="17.981834993051">
        <ele>77.6</ele>
        <time>2018-01-03T12:53:41Z</time>
      </trkpt>
      <trkpt lat="62.639046954818" lon="17.981767602575">
        <ele>77.4</ele>
        <time>2018-01-03T12:53:42Z</time>
      </trkpt>
      <trkpt lat="62.639065394998" lon="17.981701972298">
        <ele>77.2</ele>
        <time>2018-01-03T12:53:43Z</time>
      </trkpt>
      <trkpt lat="62.639081823522" lon="17.981638269858">
        <ele>77.2</ele>
        <time>2018-01-03T12:53:44Z</time>
      </trkpt>
      <trkpt lat="62.639093139087" lon="17.98156517969">
        <ele>77</ele>
        <time>2018-01-03T12:53:45Z</time>
      </trkpt>
      <trkpt lat="62.639108897059" lon="17.981495777558">
        <ele>77</ele>
        <time>2018-01-03T12:53:46Z</time>
      </trkpt>
      <trkpt lat="62.639128259248" lon="17.981430985471">
        <ele>76.8</ele>
        <time>2018-01-03T12:53:47Z</time>
      </trkpt>
      <trkpt lat="62.63915323731" lon="17.981362924443">
        <ele>76.6</ele>
        <time>2018-01-03T12:53:48Z</time>
      </trkpt>
      <trkpt lat="62.639178718286" lon="17.981299808736">
        <ele>76.6</ele>
        <time>2018-01-03T12:53:49Z</time>
      </trkpt>
      <trkpt lat="62.639207971117" lon="17.981233759364">
        <ele>76.2</ele>
        <time>2018-01-03T12:53:50Z</time>
      </trkpt>
      <trkpt lat="62.639235212292" lon="17.981171649485">
        <ele>76</ele>
        <time>2018-01-03T12:53:51Z</time>
      </trkpt>
      <trkpt lat="62.639261950553" lon="17.981107611769">
        <ele>75.8</ele>
        <time>2018-01-03T12:53:52Z</time>
      </trkpt>
      <trkpt lat="62.63928734771" lon="17.981046004804">
        <ele>75.8</ele>
        <time>2018-01-03T12:53:53Z</time>
      </trkpt>
      <trkpt lat="62.639312744867" lon="17.980984816934">
        <ele>75.6</ele>
        <time>2018-01-03T12:53:54Z</time>
      </trkpt>
      <trkpt lat="62.639338644938" lon="17.980925053987">
        <ele>75.6</ele>
        <time>2018-01-03T12:53:55Z</time>
      </trkpt>
      <trkpt lat="62.639365383199" lon="17.980853304923">
        <ele>75.4</ele>
        <time>2018-01-03T12:53:56Z</time>
      </trkpt>
      <trkpt lat="62.639389690709" lon="17.980793039062">
        <ele>75.4</ele>
        <time>2018-01-03T12:53:57Z</time>
      </trkpt>
      <trkpt lat="62.639410226364" lon="17.980727660242">
        <ele>75.2</ele>
        <time>2018-01-03T12:53:58Z</time>
      </trkpt>
      <trkpt lat="62.639429085639" lon="17.980668819304">
        <ele>75.2</ele>
        <time>2018-01-03T12:53:59Z</time>
      </trkpt>
      <trkpt lat="62.639452303502" lon="17.98059455567">
        <ele>75</ele>
        <time>2018-01-03T12:54:00Z</time>
      </trkpt>
      <trkpt lat="62.639470324587" lon="17.980532110515">
        <ele>74.8</ele>
        <time>2018-01-03T12:54:01Z</time>
      </trkpt>
      <trkpt lat="62.639484154722" lon="17.980461786374">
        <ele>74.6</ele>
        <time>2018-01-03T12:54:02Z</time>
      </trkpt>
      <trkpt lat="62.639504019825" lon="17.980373105872">
        <ele>74.6</ele>
        <time>2018-01-03T12:54:03Z</time>
      </trkpt>
      <trkpt lat="62.639519023426" lon="17.980278390402">
        <ele>74.4</ele>
        <time>2018-01-03T12:54:04Z</time>
      </trkpt>
      <trkpt lat="62.63953293738" lon="17.980187614425">
        <ele>74.2</ele>
        <time>2018-01-03T12:54:05Z</time>
      </trkpt>
      <trkpt lat="62.639550874646" lon="17.980084517055">
        <ele>74</ele>
        <time>2018-01-03T12:54:06Z</time>
      </trkpt>
      <trkpt lat="62.639562944582" lon="17.979991729422">
        <ele>73.8</ele>
        <time>2018-01-03T12:54:07Z</time>
      </trkpt>
      <trkpt lat="62.639577193812" lon="17.979899779979">
        <ele>73.6</ele>
        <time>2018-01-03T12:54:08Z</time>
      </trkpt>
      <trkpt lat="62.639587335911" lon="17.979811518572">
        <ele>73.4</ele>
        <time>2018-01-03T12:54:09Z</time>
      </trkpt>
      <trkpt lat="62.639599573485" lon="17.979742367897">
        <ele>73.2</ele>
        <time>2018-01-03T12:54:10Z</time>
      </trkpt>
      <trkpt lat="62.639615834371" lon="17.979662320752">
        <ele>73.2</ele>
        <time>2018-01-03T12:54:11Z</time>
      </trkpt>
      <trkpt lat="62.639633603999" lon="17.979595181733">
        <ele>73</ele>
        <time>2018-01-03T12:54:12Z</time>
      </trkpt>
      <trkpt lat="62.639654810206" lon="17.979532736578">
        <ele>73</ele>
        <time>2018-01-03T12:54:13Z</time>
      </trkpt>
      <trkpt lat="62.639674340033" lon="17.979479343875">
        <ele>73.2</ele>
        <time>2018-01-03T12:54:14Z</time>
      </trkpt>
      <trkpt lat="62.639698982819" lon="17.979422598412">
        <ele>73.2</ele>
        <time>2018-01-03T12:54:15Z</time>
      </trkpt>
      <trkpt lat="62.639721865406" lon="17.979374486306">
        <ele>73.2</ele>
        <time>2018-01-03T12:54:16Z</time>
      </trkpt>
      <trkpt lat="62.639741059957" lon="17.979333834091">
        <ele>73.2</ele>
        <time>2018-01-03T12:54:17Z</time>
      </trkpt>
      <trkpt lat="62.639764194001" lon="17.979285470528">
        <ele>73</ele>
        <time>2018-01-03T12:54:18Z</time>
      </trkpt>
      <trkpt lat="62.639784729656" lon="17.97923836425">
        <ele>73</ele>
        <time>2018-01-03T12:54:19Z</time>
      </trkpt>
      <trkpt lat="62.639806774053" lon="17.97918807285">
        <ele>72.8</ele>
        <time>2018-01-03T12:54:20Z</time>
      </trkpt>
      <trkpt lat="62.639824292224" lon="17.979141301848">
        <ele>72.6</ele>
        <time>2018-01-03T12:54:21Z</time>
      </trkpt>
      <trkpt lat="62.63983887673" lon="17.979102409832">
        <ele>72.4</ele>
        <time>2018-01-03T12:54:22Z</time>
      </trkpt>
      <trkpt lat="62.639850359933" lon="17.979077264132">
        <ele>72.2</ele>
        <time>2018-01-03T12:54:23Z</time>
      </trkpt>
      <trkpt lat="62.639860921127" lon="17.979051196423">
        <ele>72</ele>
        <time>2018-01-03T12:54:24Z</time>
      </trkpt>
      <trkpt lat="62.639871985235" lon="17.979027810922">
        <ele>72</ele>
        <time>2018-01-03T12:54:25Z</time>
      </trkpt>
      <trkpt lat="62.639881121506" lon="17.979013226416">
        <ele>72</ele>
        <time>2018-01-03T12:54:26Z</time>
      </trkpt>
      <trkpt lat="62.639890173958" lon="17.978997971358">
        <ele>72</ele>
        <time>2018-01-03T12:54:27Z</time>
      </trkpt>
      <trkpt lat="62.63989838822" lon="17.978980537006">
        <ele>72.2</ele>
        <time>2018-01-03T12:54:28Z</time>
      </trkpt>
      <trkpt lat="62.639905848111" lon="17.978956313315">
        <ele>72.2</ele>
        <time>2018-01-03T12:54:29Z</time>
      </trkpt>
      <trkpt lat="62.639911883079" lon="17.978934268918">
        <ele>72.2</ele>
        <time>2018-01-03T12:54:30Z</time>
      </trkpt>
      <trkpt lat="62.639920600255" lon="17.978906021915">
        <ele>72.2</ele>
        <time>2018-01-03T12:54:31Z</time>
      </trkpt>
      <trkpt lat="62.639924120653" lon="17.978879116016">
        <ele>72.2</ele>
        <time>2018-01-03T12:54:32Z</time>
      </trkpt>
      <trkpt lat="62.639926970499" lon="17.978851288108">
        <ele>72.2</ele>
        <time>2018-01-03T12:54:33Z</time>
      </trkpt>
      <trkpt lat="62.639928227784" lon="17.978852126298">
        <ele>72.2</ele>
        <time>2018-01-03T12:54:34Z</time>
      </trkpt>
      <trkpt lat="62.639927976327" lon="17.978861430207">
        <ele>72.2</ele>
        <time>2018-01-03T12:54:35Z</time>
      </trkpt>
      <trkpt lat="62.639935352399" lon="17.978858496542">
        <ele>72</ele>
        <time>2018-01-03T12:54:36Z</time>
      </trkpt>
      <trkpt lat="62.640060577985" lon="17.978720195192">
        <ele>71.6</ele>
        <time>2018-01-03T12:54:43Z</time>
      </trkpt>
      <trkpt lat="62.640087400065" lon="17.978684404479">
        <ele>71.4</ele>
        <time>2018-01-03T12:54:44Z</time>
      </trkpt>
      <trkpt lat="62.640119754199" lon="17.978641992065">
        <ele>71.2</ele>
        <time>2018-01-03T12:54:45Z</time>
      </trkpt>
      <trkpt lat="62.640152611247" lon="17.978596897443">
        <ele>71</ele>
        <time>2018-01-03T12:54:46Z</time>
      </trkpt>
      <trkpt lat="62.640184043372" lon="17.978552389554">
        <ele>70.8</ele>
        <time>2018-01-03T12:54:47Z</time>
      </trkpt>
      <trkpt lat="62.640222097198" lon="17.97849824248">
        <ele>70.4</ele>
        <time>2018-01-03T12:54:48Z</time>
      </trkpt>
      <trkpt lat="62.640257301178" lon="17.978455075695">
        <ele>70</ele>
        <time>2018-01-03T12:54:49Z</time>
      </trkpt>
      <trkpt lat="62.640295438823" lon="17.978403024096">
        <ele>69.8</ele>
        <time>2018-01-03T12:54:50Z</time>
      </trkpt>
      <trkpt lat="62.640334666115" lon="17.978352816515">
        <ele>69.6</ele>
        <time>2018-01-03T12:54:51Z</time>
      </trkpt>
      <trkpt lat="62.640373977226" lon="17.978304704409">
        <ele>69.4</ele>
        <time>2018-01-03T12:54:52Z</time>
      </trkpt>
      <trkpt lat="62.640408678292" lon="17.978255586475">
        <ele>69.2</ele>
        <time>2018-01-03T12:54:53Z</time>
      </trkpt>
      <trkpt lat="62.640446396842" lon="17.978210324215">
        <ele>69</ele>
        <time>2018-01-03T12:54:54Z</time>
      </trkpt>
      <trkpt lat="62.640482271374" lon="17.978166403059">
        <ele>68.6</ele>
        <time>2018-01-03T12:54:55Z</time>
      </trkpt>
      <trkpt lat="62.640520828114" lon="17.978116698392">
        <ele>68.4</ele>
        <time>2018-01-03T12:54:56Z</time>
      </trkpt>
      <trkpt lat="62.640559887768" lon="17.978065568802">
        <ele>68.2</ele>
        <time>2018-01-03T12:54:57Z</time>
      </trkpt>
      <trkpt lat="62.64059827687" lon="17.978011757004">
        <ele>68</ele>
        <time>2018-01-03T12:54:58Z</time>
      </trkpt>
      <trkpt lat="62.640631133918" lon="17.977958783396">
        <ele>67.8</ele>
        <time>2018-01-03T12:54:59Z</time>
      </trkpt>
      <trkpt lat="62.640669439201" lon="17.977886615237">
        <ele>67.8</ele>
        <time>2018-01-03T12:55:00Z</time>
      </trkpt>
      <trkpt lat="62.640703385896" lon="17.977821320236">
        <ele>67.8</ele>
        <time>2018-01-03T12:55:01Z</time>
      </trkpt>
      <trkpt lat="62.640735656211" lon="17.977754516493">
        <ele>67.6</ele>
        <time>2018-01-03T12:55:02Z</time>
      </trkpt>
      <trkpt lat="62.640768680897" lon="17.977693244804">
        <ele>67.4</ele>
        <time>2018-01-03T12:55:03Z</time>
      </trkpt>
      <trkpt lat="62.640799777746" lon="17.977632643667">
        <ele>67.2</ele>
        <time>2018-01-03T12:55:04Z</time>
      </trkpt>
      <trkpt lat="62.640831126052" lon="17.977569779417">
        <ele>66.8</ele>
        <time>2018-01-03T12:55:05Z</time>
      </trkpt>
      <trkpt lat="62.640863815462" lon="17.977502891855">
        <ele>66.6</ele>
        <time>2018-01-03T12:55:06Z</time>
      </trkpt>
      <trkpt lat="62.640895750501" lon="17.977441787804">
        <ele>66.2</ele>
        <time>2018-01-03T12:55:07Z</time>
      </trkpt>
      <trkpt lat="62.640928104635" lon="17.977381941038">
        <ele>66</ele>
        <time>2018-01-03T12:55:08Z</time>
      </trkpt>
      <trkpt lat="62.640957106009" lon="17.977315221114">
        <ele>65.6</ele>
        <time>2018-01-03T12:55:09Z</time>
      </trkpt>
      <trkpt lat="62.64098719703" lon="17.977243136774">
        <ele>65.4</ele>
        <time>2018-01-03T12:55:10Z</time>
      </trkpt>
      <trkpt lat="62.641016282223" lon="17.977180104886">
        <ele>65.2</ele>
        <time>2018-01-03T12:55:11Z</time>
      </trkpt>
      <trkpt lat="62.641048301081" lon="17.977118330283">
        <ele>65</ele>
        <time>2018-01-03T12:55:12Z</time>
      </trkpt>
      <trkpt lat="62.641077553912" lon="17.977063512657">
        <ele>64.6</ele>
        <time>2018-01-03T12:55:13Z</time>
      </trkpt>
      <trkpt lat="62.641105465639" lon="17.977007605384">
        <ele>64.2</ele>
        <time>2018-01-03T12:55:14Z</time>
      </trkpt>
      <trkpt lat="62.641139160877" lon="17.976950524645">
        <ele>64</ele>
        <time>2018-01-03T12:55:15Z</time>
      </trkpt>
      <trkpt lat="62.641174029581" lon="17.97690316691">
        <ele>63.4</ele>
        <time>2018-01-03T12:55:16Z</time>
      </trkpt>
      <trkpt lat="62.641207641" lon="17.976875003726">
        <ele>63.2</ele>
        <time>2018-01-03T12:55:17Z</time>
      </trkpt>
      <trkpt lat="62.641255501649" lon="17.976846421447">
        <ele>63</ele>
        <time>2018-01-03T12:55:18Z</time>
      </trkpt>
      <trkpt lat="62.641298081701" lon="17.976826640163">
        <ele>62.8</ele>
        <time>2018-01-03T12:55:19Z</time>
      </trkpt>
      <trkpt lat="62.64134761873" lon="17.976807529431">
        <ele>62.6</ele>
        <time>2018-01-03T12:55:20Z</time>
      </trkpt>
      <trkpt lat="62.641396066112" lon="17.976788586337">
        <ele>62</ele>
        <time>2018-01-03T12:55:21Z</time>
      </trkpt>
      <trkpt lat="62.641443759123" lon="17.976763440637">
        <ele>61.8</ele>
        <time>2018-01-03T12:55:22Z</time>
      </trkpt>
      <trkpt lat="62.641488686107" lon="17.976735445091">
        <ele>61.4</ele>
        <time>2018-01-03T12:55:23Z</time>
      </trkpt>
      <trkpt lat="62.64153872605" lon="17.976697139808">
        <ele>61</ele>
        <time>2018-01-03T12:55:24Z</time>
      </trkpt>
      <trkpt lat="62.641590107097" lon="17.976654056842">
        <ele>60.4</ele>
        <time>2018-01-03T12:55:25Z</time>
      </trkpt>
      <trkpt lat="62.641637213375" lon="17.976608291668">
        <ele>59.8</ele>
        <time>2018-01-03T12:55:26Z</time>
      </trkpt>
      <trkpt lat="62.64168289473" lon="17.976557078259">
        <ele>59.2</ele>
        <time>2018-01-03T12:55:27Z</time>
      </trkpt>
      <trkpt lat="62.641728240809" lon="17.976507708868">
        <ele>58.6</ele>
        <time>2018-01-03T12:55:28Z</time>
      </trkpt>
      <trkpt lat="62.641767300463" lon="17.976464458264">
        <ele>57.8</ele>
        <time>2018-01-03T12:55:29Z</time>
      </trkpt>
      <trkpt lat="62.641815915483" lon="17.976410562647">
        <ele>57.4</ele>
        <time>2018-01-03T12:55:30Z</time>
      </trkpt>
      <trkpt lat="62.641857573526" lon="17.976352056985">
        <ele>57</ele>
        <time>2018-01-03T12:55:31Z</time>
      </trkpt>
      <trkpt lat="62.641892358411" lon="17.976302017042">
        <ele>56.4</ele>
        <time>2018-01-03T12:55:32Z</time>
      </trkpt>
      <trkpt lat="62.641932926807" lon="17.976243427561">
        <ele>56</ele>
        <time>2018-01-03T12:55:33Z</time>
      </trkpt>
      <trkpt lat="62.641967208778" lon="17.976191208324">
        <ele>55.6</ele>
        <time>2018-01-03T12:55:34Z</time>
      </trkpt>
      <trkpt lat="62.642000820197" lon="17.976133876128">
        <ele>55.2</ele>
        <time>2018-01-03T12:55:35Z</time>
      </trkpt>
      <trkpt lat="62.642036527091" lon="17.976074280819">
        <ele>54.6</ele>
        <time>2018-01-03T12:55:36Z</time>
      </trkpt>
      <trkpt lat="62.642070809062" lon="17.976012506216">
        <ele>54.2</ele>
        <time>2018-01-03T12:55:37Z</time>
      </trkpt>
      <trkpt lat="62.642106096861" lon="17.975951905079">
        <ele>54</ele>
        <time>2018-01-03T12:55:38Z</time>
      </trkpt>
      <trkpt lat="62.642140462651" lon="17.975899099109">
        <ele>53.8</ele>
        <time>2018-01-03T12:55:39Z</time>
      </trkpt>
      <trkpt lat="62.642176001907" lon="17.975848807709">
        <ele>53.6</ele>
        <time>2018-01-03T12:55:40Z</time>
      </trkpt>
      <trkpt lat="62.642211373525" lon="17.975801617612">
        <ele>53.2</ele>
        <time>2018-01-03T12:55:41Z</time>
      </trkpt>
      <trkpt lat="62.64225034936" lon="17.975755265705">
        <ele>53</ele>
        <time>2018-01-03T12:55:42Z</time>
      </trkpt>
      <trkpt lat="62.642289995747" lon="17.975712685653">
        <ele>52.4</ele>
        <time>2018-01-03T12:55:43Z</time>
      </trkpt>
      <trkpt lat="62.642330983238" lon="17.975658287122">
        <ele>52.2</ele>
        <time>2018-01-03T12:55:44Z</time>
      </trkpt>
      <trkpt lat="62.642375323489" lon="17.975582347108">
        <ele>51.8</ele>
        <time>2018-01-03T12:55:45Z</time>
      </trkpt>
      <trkpt lat="62.642413461134" lon="17.97549081676">
        <ele>51.6</ele>
        <time>2018-01-03T12:55:46Z</time>
      </trkpt>
      <trkpt lat="62.642440953766" lon="17.975405237561">
        <ele>51</ele>
        <time>2018-01-03T12:55:47Z</time>
      </trkpt>
      <trkpt lat="62.642476157746" lon="17.975302140191">
        <ele>50.4</ele>
        <time>2018-01-03T12:55:48Z</time>
      </trkpt>
      <trkpt lat="62.642503818016" lon="17.975211615671">
        <ele>49.8</ele>
        <time>2018-01-03T12:55:49Z</time>
      </trkpt>
      <trkpt lat="62.642534914865" lon="17.97510692574">
        <ele>49</ele>
        <time>2018-01-03T12:55:50Z</time>
      </trkpt>
      <trkpt lat="62.642567688094" lon="17.975007935501">
        <ele>48.4</ele>
        <time>2018-01-03T12:55:51Z</time>
      </trkpt>
      <trkpt lat="62.642608591766" lon="17.974887571417">
        <ele>48.4</ele>
        <time>2018-01-03T12:55:52Z</time>
      </trkpt>
      <trkpt lat="62.642594761631" lon="17.974924619415">
        <ele>48.2</ele>
        <time>2018-01-03T12:55:53Z</time>
      </trkpt>
      <trkpt lat="62.642651255637" lon="17.974738457416">
        <ele>48</ele>
        <time>2018-01-03T12:55:54Z</time>
      </trkpt>
      <trkpt lat="62.642690985843" lon="17.974590684519">
        <ele>47.8</ele>
        <time>2018-01-03T12:55:55Z</time>
      </trkpt>
      <trkpt lat="62.642725183995" lon="17.97446151944">
        <ele>47.4</ele>
        <time>2018-01-03T12:55:56Z</time>
      </trkpt>
      <trkpt lat="62.642736415741" lon="17.9743559075">
        <ele>47.2</ele>
        <time>2018-01-03T12:55:57Z</time>
      </trkpt>
      <trkpt lat="62.642746809297" lon="17.974249038275">
        <ele>47</ele>
        <time>2018-01-03T12:55:58Z</time>
      </trkpt>
      <trkpt lat="62.642775978309" lon="17.974151724416">
        <ele>47</ele>
        <time>2018-01-03T12:55:59Z</time>
      </trkpt>
      <trkpt lat="62.642798609439" lon="17.974020882957">
        <ele>47.2</ele>
        <time>2018-01-03T12:56:00Z</time>
      </trkpt>
      <trkpt lat="62.64280690752" lon="17.973907978764">
        <ele>47.2</ele>
        <time>2018-01-03T12:56:01Z</time>
      </trkpt>
      <trkpt lat="62.642813864497" lon="17.97379180563">
        <ele>47.2</ele>
        <time>2018-01-03T12:56:02Z</time>
      </trkpt>
      <trkpt lat="62.642824760967" lon="17.973669010795">
        <ele>47.2</ele>
        <time>2018-01-03T12:56:03Z</time>
      </trkpt>
      <trkpt lat="62.642829287193" lon="17.973564320864">
        <ele>47.2</ele>
        <time>2018-01-03T12:56:04Z</time>
      </trkpt>
      <trkpt lat="62.642825012424" lon="17.973454937069">
        <ele>47</ele>
        <time>2018-01-03T12:56:05Z</time>
      </trkpt>
      <trkpt lat="62.642838926378" lon="17.97334505036">
        <ele>46.8</ele>
        <time>2018-01-03T12:56:06Z</time>
      </trkpt>
      <trkpt lat="62.642835238342" lon="17.973233235814">
        <ele>46.6</ele>
        <time>2018-01-03T12:56:07Z</time>
      </trkpt>
      <trkpt lat="62.642844877527" lon="17.973130054625">
        <ele>46.2</ele>
        <time>2018-01-03T12:56:08Z</time>
      </trkpt>
      <trkpt lat="62.642836579446" lon="17.973040535933">
        <ele>46</ele>
        <time>2018-01-03T12:56:09Z</time>
      </trkpt>
      <trkpt lat="62.642824341872" lon="17.972960824064">
        <ele>45.8</ele>
        <time>2018-01-03T12:56:10Z</time>
      </trkpt>
      <trkpt lat="62.642814954144" lon="17.972902905135">
        <ele>45.6</ele>
        <time>2018-01-03T12:56:11Z</time>
      </trkpt>
      <trkpt lat="62.642803135665" lon="17.972819002316">
        <ele>45.8</ele>
        <time>2018-01-03T12:56:12Z</time>
      </trkpt>
      <trkpt lat="62.642789137892" lon="17.972746415062">
        <ele>46</ele>
        <time>2018-01-03T12:56:13Z</time>
      </trkpt>
      <trkpt lat="62.642771535902" lon="17.972704002648">
        <ele>45.8</ele>
        <time>2018-01-03T12:56:14Z</time>
      </trkpt>
      <trkpt lat="62.642760387975" lon="17.972647424823">
        <ele>46</ele>
        <time>2018-01-03T12:56:15Z</time>
      </trkpt>
      <trkpt lat="62.642746809297" lon="17.972579699071">
        <ele>46.2</ele>
        <time>2018-01-03T12:56:16Z</time>
      </trkpt>
      <trkpt lat="62.642732895343" lon="17.972525551997">
        <ele>46.4</ele>
        <time>2018-01-03T12:56:17Z</time>
      </trkpt>
      <trkpt lat="62.642718478475" lon="17.972460676091">
        <ele>46.4</ele>
        <time>2018-01-03T12:56:18Z</time>
      </trkpt>
      <trkpt lat="62.642702049951" lon="17.972389262303">
        <ele>46.6</ele>
        <time>2018-01-03T12:56:19Z</time>
      </trkpt>
      <trkpt lat="62.642684028866" lon="17.972319524895">
        <ele>46.8</ele>
        <time>2018-01-03T12:56:20Z</time>
      </trkpt>
      <trkpt lat="62.642670785464" lon="17.972274011178">
        <ele>46.8</ele>
        <time>2018-01-03T12:56:21Z</time>
      </trkpt>
      <trkpt lat="62.642657122967" lon="17.972200753372">
        <ele>47</ele>
        <time>2018-01-03T12:56:22Z</time>
      </trkpt>
      <trkpt lat="62.642643544289" lon="17.972133949629">
        <ele>47</ele>
        <time>2018-01-03T12:56:23Z</time>
      </trkpt>
      <trkpt lat="62.642630803801" lon="17.972092375405">
        <ele>47</ele>
        <time>2018-01-03T12:56:24Z</time>
      </trkpt>
      <trkpt lat="62.642615464924" lon="17.972001180333">
        <ele>46.8</ele>
        <time>2018-01-03T12:56:25Z</time>
      </trkpt>
      <trkpt lat="62.642602975893" lon="17.97195197858">
        <ele>47</ele>
        <time>2018-01-03T12:56:26Z</time>
      </trkpt>
      <trkpt lat="62.642593839622" lon="17.971887605588">
        <ele>47</ele>
        <time>2018-01-03T12:56:27Z</time>
      </trkpt>
      <trkpt lat="62.642591660328" lon="17.971830273392">
        <ele>47</ele>
        <time>2018-01-03T12:56:28Z</time>
      </trkpt>
      <trkpt lat="62.642597695296" lon="17.971783921485">
        <ele>47.2</ele>
        <time>2018-01-03T12:56:29Z</time>
      </trkpt>
      <trkpt lat="62.64261663839" lon="17.971744778012">
        <ele>47.2</ele>
        <time>2018-01-03T12:56:30Z</time>
      </trkpt>
      <trkpt lat="62.642640359167" lon="17.97173740194">
        <ele>47.2</ele>
        <time>2018-01-03T12:56:31Z</time>
      </trkpt>
      <trkpt lat="62.642670198731" lon="17.971750477704">
        <ele>47.4</ele>
        <time>2018-01-03T12:56:32Z</time>
      </trkpt>
      <trkpt lat="62.642707749643" lon="17.971802110208">
        <ele>47.2</ele>
        <time>2018-01-03T12:56:33Z</time>
      </trkpt>
      <trkpt lat="62.64272308852" lon="17.971861286422">
        <ele>47.2</ele>
        <time>2018-01-03T12:56:34Z</time>
      </trkpt>
      <trkpt lat="62.642741277243" lon="17.971927838708">
        <ele>47</ele>
        <time>2018-01-03T12:56:35Z</time>
      </trkpt>
      <trkpt lat="62.642760387975" lon="17.971968323285">
        <ele>46.8</ele>
        <time>2018-01-03T12:56:36Z</time>
      </trkpt>
      <trkpt lat="62.642782348553" lon="17.972043006014">
        <ele>46.6</ele>
        <time>2018-01-03T12:56:37Z</time>
      </trkpt>
      <trkpt lat="62.642797519792" lon="17.972112408146">
        <ele>46.4</ele>
        <time>2018-01-03T12:56:38Z</time>
      </trkpt>
      <trkpt lat="62.642814115954" lon="17.972158676234">
        <ele>46.2</ele>
        <time>2018-01-03T12:56:39Z</time>
      </trkpt>
      <trkpt lat="62.642833813419" lon="17.972248446383">
        <ele>46.2</ele>
        <time>2018-01-03T12:56:40Z</time>
      </trkpt>
      <trkpt lat="62.64285719892" lon="17.972325978958">
        <ele>46.2</ele>
        <time>2018-01-03T12:56:41Z</time>
      </trkpt>
      <trkpt lat="62.642869855589" lon="17.972403427714">
        <ele>46.2</ele>
        <time>2018-01-03T12:56:42Z</time>
      </trkpt>
      <trkpt lat="62.642884691552" lon="17.972485737972">
        <ele>46.2</ele>
        <time>2018-01-03T12:56:43Z</time>
      </trkpt>
      <trkpt lat="62.64289994661" lon="17.972533850078">
        <ele>46.2</ele>
        <time>2018-01-03T12:56:44Z</time>
      </trkpt>
      <trkpt lat="62.642918638247" lon="17.972628565548">
        <ele>46.2</ele>
        <time>2018-01-03T12:56:45Z</time>
      </trkpt>
      <trkpt lat="62.642936994608" lon="17.972719592982">
        <ele>46</ele>
        <time>2018-01-03T12:56:46Z</time>
      </trkpt>
      <trkpt lat="62.642941772291" lon="17.972807100018">
        <ele>46</ele>
        <time>2018-01-03T12:56:47Z</time>
      </trkpt>
      <trkpt lat="62.642949902734" lon="17.972910616483">
        <ele>46</ele>
        <time>2018-01-03T12:56:48Z</time>
      </trkpt>
      <trkpt lat="62.642958116996" lon="17.972978258416">
        <ele>46</ele>
        <time>2018-01-03T12:56:49Z</time>
      </trkpt>
      <trkpt lat="62.64296281086" lon="17.9730818587">
        <ele>45.8</ele>
        <time>2018-01-03T12:56:50Z</time>
      </trkpt>
      <trkpt lat="62.642971947131" lon="17.973164252777">
        <ele>45.4</ele>
        <time>2018-01-03T12:56:51Z</time>
      </trkpt>
      <trkpt lat="62.642977143909" lon="17.973265338491">
        <ele>45.2</ele>
        <time>2018-01-03T12:56:52Z</time>
      </trkpt>
      <trkpt lat="62.642988375655" lon="17.973352510251">
        <ele>45.2</ele>
        <time>2018-01-03T12:56:53Z</time>
      </trkpt>
      <trkpt lat="62.642998182478" lon="17.973432389758">
        <ele>45</ele>
        <time>2018-01-03T12:56:54Z</time>
      </trkpt>
      <trkpt lat="62.643005726188" lon="17.973536576775">
        <ele>44.6</ele>
        <time>2018-01-03T12:56:55Z</time>
      </trkpt>
      <trkpt lat="62.643013605174" lon="17.97359147822">
        <ele>44.8</ele>
        <time>2018-01-03T12:56:56Z</time>
      </trkpt>
      <trkpt lat="62.643019472504" lon="17.97370128111">
        <ele>44.8</ele>
        <time>2018-01-03T12:56:57Z</time>
      </trkpt>
      <trkpt lat="62.643011844975" lon="17.973758529487">
        <ele>44.6</ele>
        <time>2018-01-03T12:56:58Z</time>
      </trkpt>
      <trkpt lat="62.643020562151" lon="17.973831703474">
        <ele>44.6</ele>
        <time>2018-01-03T12:56:59Z</time>
      </trkpt>
      <trkpt lat="62.643019137228" lon="17.973943685658">
        <ele>44.4</ele>
        <time>2018-01-03T12:57:00Z</time>
      </trkpt>
      <trkpt lat="62.643015952106" lon="17.974025325364">
        <ele>44.4</ele>
        <time>2018-01-03T12:57:01Z</time>
      </trkpt>
      <trkpt lat="62.643015365373" lon="17.974102187387">
        <ele>44.4</ele>
        <time>2018-01-03T12:57:02Z</time>
      </trkpt>
      <trkpt lat="62.64300723493" lon="17.974198495418">
        <ele>44.4</ele>
        <time>2018-01-03T12:57:03Z</time>
      </trkpt>
      <trkpt lat="62.643012934622" lon="17.974279548391">
        <ele>44.4</ele>
        <time>2018-01-03T12:57:04Z</time>
      </trkpt>
      <trkpt lat="62.643004385084" lon="17.974360685183">
        <ele>44.6</ele>
        <time>2018-01-03T12:57:05Z</time>
      </trkpt>
      <trkpt lat="62.642999607401" lon="17.974446934934">
        <ele>44.6</ele>
        <time>2018-01-03T12:57:06Z</time>
      </trkpt>
      <trkpt lat="62.642995081175" lon="17.974506949338">
        <ele>44.6</ele>
        <time>2018-01-03T12:57:07Z</time>
      </trkpt>
      <trkpt lat="62.642986531637" lon="17.974606023396">
        <ele>44.6</ele>
        <time>2018-01-03T12:57:08Z</time>
      </trkpt>
      <trkpt lat="62.642985022895" lon="17.974671653673">
        <ele>44.6</ele>
        <time>2018-01-03T12:57:09Z</time>
      </trkpt>
      <trkpt lat="62.642983011239" lon="17.97473812214">
        <ele>44.4</ele>
        <time>2018-01-03T12:57:10Z</time>
      </trkpt>
      <trkpt lat="62.642984268524" lon="17.974812972507">
        <ele>44.2</ele>
        <time>2018-01-03T12:57:11Z</time>
      </trkpt>
      <trkpt lat="62.642981167221" lon="17.974884218657">
        <ele>44.4</ele>
        <time>2018-01-03T12:57:12Z</time>
      </trkpt>
      <trkpt lat="62.642976054262" lon="17.974993434814">
        <ele>44.2</ele>
        <time>2018-01-03T12:57:13Z</time>
      </trkpt>
      <trkpt lat="62.642972450045" lon="17.97507004538">
        <ele>44.2</ele>
        <time>2018-01-03T12:57:14Z</time>
      </trkpt>
      <trkpt lat="62.642972785321" lon="17.975140118064">
        <ele>44.2</ele>
        <time>2018-01-03T12:57:15Z</time>
      </trkpt>
      <trkpt lat="62.642963146136" lon="17.975214381698">
        <ele>44</ele>
        <time>2018-01-03T12:57:16Z</time>
      </trkpt>
      <trkpt lat="62.642959793376" lon="17.975274144645">
        <ele>44</ele>
        <time>2018-01-03T12:57:17Z</time>
      </trkpt>
      <trkpt lat="62.642939509178" lon="17.975363914794">
        <ele>44</ele>
        <time>2018-01-03T12:57:18Z</time>
      </trkpt>
      <trkpt lat="62.642928193613" lon="17.975413032728">
        <ele>44</ele>
        <time>2018-01-03T12:57:19Z</time>
      </trkpt>
      <trkpt lat="62.64292844507" lon="17.97546986201">
        <ele>44</ele>
        <time>2018-01-03T12:57:20Z</time>
      </trkpt>
      <trkpt lat="62.642911765089" lon="17.975522416523">
        <ele>44.2</ele>
        <time>2018-01-03T12:57:21Z</time>
      </trkpt>
      <trkpt lat="62.642900700981" lon="17.975583939669">
        <ele>44.2</ele>
        <time>2018-01-03T12:57:22Z</time>
      </trkpt>
      <trkpt lat="62.642893744004" lon="17.975629537205">
        <ele>44.4</ele>
        <time>2018-01-03T12:57:23Z</time>
      </trkpt>
      <trkpt lat="62.642885865018" lon="17.975691814722">
        <ele>44.6</ele>
        <time>2018-01-03T12:57:24Z</time>
      </trkpt>
      <trkpt lat="62.642873711263" lon="17.975773538247">
        <ele>44.6</ele>
        <time>2018-01-03T12:57:25Z</time>
      </trkpt>
      <trkpt lat="62.642869939408" lon="17.975835396669">
        <ele>44.8</ele>
        <time>2018-01-03T12:57:26Z</time>
      </trkpt>
      <trkpt lat="62.642867173381" lon="17.975907816285">
        <ele>44.8</ele>
        <time>2018-01-03T12:57:27Z</time>
      </trkpt>
      <trkpt lat="62.642865664639" lon="17.975975206761">
        <ele>45</ele>
        <time>2018-01-03T12:57:28Z</time>
      </trkpt>
      <trkpt lat="62.642858791481" lon="17.976057014105">
        <ele>44.8</ele>
        <time>2018-01-03T12:57:29Z</time>
      </trkpt>
      <trkpt lat="62.642851080133" lon="17.976138486173">
        <ele>44.8</ele>
        <time>2018-01-03T12:57:30Z</time>
      </trkpt>
      <trkpt lat="62.642853510884" lon="17.976193052342">
        <ele>45</ele>
        <time>2018-01-03T12:57:31Z</time>
      </trkpt>
      <trkpt lat="62.642843201147" lon="17.976274775867">
        <ele>45</ele>
        <time>2018-01-03T12:57:32Z</time>
      </trkpt>
      <trkpt lat="62.642843452604" lon="17.976342920714">
        <ele>45</ele>
        <time>2018-01-03T12:57:33Z</time>
      </trkpt>
      <trkpt lat="62.642840183663" lon="17.976410730285">
        <ele>45</ele>
        <time>2018-01-03T12:57:34Z</time>
      </trkpt>
      <trkpt lat="62.64284127331" lon="17.976492705267">
        <ele>45</ele>
        <time>2018-01-03T12:57:35Z</time>
      </trkpt>
      <trkpt lat="62.642847811192" lon="17.976561101571">
        <ele>44.8</ele>
        <time>2018-01-03T12:57:36Z</time>
      </trkpt>
      <trkpt lat="62.642836998541" lon="17.976651206996">
        <ele>44.8</ele>
        <time>2018-01-03T12:57:37Z</time>
      </trkpt>
      <trkpt lat="62.64283540598" lon="17.976729074847">
        <ele>44.8</ele>
        <time>2018-01-03T12:57:38Z</time>
      </trkpt>
      <trkpt lat="62.642823252225" lon="17.976778695695">
        <ele>44.8</ele>
        <time>2018-01-03T12:57:39Z</time>
      </trkpt>
      <trkpt lat="62.64280690752" lon="17.976863269066">
        <ele>45</ele>
        <time>2018-01-03T12:57:40Z</time>
      </trkpt>
      <trkpt lat="62.642802800389" lon="17.976928564067">
        <ele>45</ele>
        <time>2018-01-03T12:57:41Z</time>
      </trkpt>
      <trkpt lat="62.642791652462" lon="17.976984974254">
        <ele>45.2</ele>
        <time>2018-01-03T12:57:42Z</time>
      </trkpt>
      <trkpt lat="62.642787712969" lon="17.977052616187">
        <ele>45</ele>
        <time>2018-01-03T12:57:43Z</time>
      </trkpt>
      <trkpt lat="62.642784527847" lon="17.977098129904">
        <ele>45.2</ele>
        <time>2018-01-03T12:57:44Z</time>
      </trkpt>
      <trkpt lat="62.642771954997" lon="17.977180104886">
        <ele>45.2</ele>
        <time>2018-01-03T12:57:45Z</time>
      </trkpt>
      <trkpt lat="62.642764578925" lon="17.977236682711">
        <ele>45.4</ele>
        <time>2018-01-03T12:57:46Z</time>
      </trkpt>
      <trkpt lat="62.642760136518" lon="17.977281106781">
        <ele>45.4</ele>
        <time>2018-01-03T12:57:47Z</time>
      </trkpt>
      <trkpt lat="62.642746725478" lon="17.977355705691">
        <ele>45.4</ele>
        <time>2018-01-03T12:57:48Z</time>
      </trkpt>
      <trkpt lat="62.642744294727" lon="17.977405661815">
        <ele>45.4</ele>
        <time>2018-01-03T12:57:49Z</time>
      </trkpt>
      <trkpt lat="62.642725519271" lon="17.977470537721">
        <ele>45.6</ele>
        <time>2018-01-03T12:57:50Z</time>
      </trkpt>
      <trkpt lat="62.642705737987" lon="17.977522673139">
        <ele>45.8</ele>
        <time>2018-01-03T12:57:51Z</time>
      </trkpt>
      <trkpt lat="62.642697188449" lon="17.977564079725">
        <ele>45.8</ele>
        <time>2018-01-03T12:57:52Z</time>
      </trkpt>
      <trkpt lat="62.642684196504" lon="17.977595344212">
        <ele>46</ele>
        <time>2018-01-03T12:57:53Z</time>
      </trkpt>
      <trkpt lat="62.642673216215" lon="17.977624513224">
        <ele>46.2</ele>
        <time>2018-01-03T12:57:54Z</time>
      </trkpt>
      <trkpt lat="62.642658799347" lon="17.97765167058">
        <ele>46.4</ele>
        <time>2018-01-03T12:57:55Z</time>
      </trkpt>
      <trkpt lat="62.642647148506" lon="17.977675475176">
        <ele>46.6</ele>
        <time>2018-01-03T12:57:56Z</time>
      </trkpt>
      <trkpt lat="62.642629127421" lon="17.977695340279">
        <ele>46.8</ele>
        <time>2018-01-03T12:57:57Z</time>
      </trkpt>
      <trkpt lat="62.642605239006" lon="17.977723084368">
        <ele>47</ele>
        <time>2018-01-03T12:57:58Z</time>
      </trkpt>
      <trkpt lat="62.642586212093" lon="17.977746218412">
        <ele>47</ele>
        <time>2018-01-03T12:57:59Z</time>
      </trkpt>
      <trkpt lat="62.642563916239" lon="17.977771783207">
        <ele>47</ele>
        <time>2018-01-03T12:58:00Z</time>
      </trkpt>
      <trkpt lat="62.642545224602" lon="17.977798186192">
        <ele>47.2</ele>
        <time>2018-01-03T12:58:01Z</time>
      </trkpt>
      <trkpt lat="62.642539105815" lon="17.977817716019">
        <ele>47.4</ele>
        <time>2018-01-03T12:58:02Z</time>
      </trkpt>
      <trkpt lat="62.642515887952" lon="17.977854680198">
        <ele>47.4</ele>
        <time>2018-01-03T12:58:03Z</time>
      </trkpt>
      <trkpt lat="62.642494011193" lon="17.977883262477">
        <ele>47.4</ele>
        <time>2018-01-03T12:58:04Z</time>
      </trkpt>
      <trkpt lat="62.642485377836" lon="17.97791653862">
        <ele>47.6</ele>
        <time>2018-01-03T12:58:05Z</time>
      </trkpt>
      <trkpt lat="62.642458304299" lon="17.977962052337">
        <ele>47.6</ele>
        <time>2018-01-03T12:58:06Z</time>
      </trkpt>
      <trkpt lat="62.642442462508" lon="17.97797856468">
        <ele>47.6</ele>
        <time>2018-01-03T12:58:07Z</time>
      </trkpt>
      <trkpt lat="62.642425614889" lon="17.978009158615">
        <ele>47.8</ele>
        <time>2018-01-03T12:58:08Z</time>
      </trkpt>
      <trkpt lat="62.642412622944" lon="17.978038327627">
        <ele>47.8</ele>
        <time>2018-01-03T12:58:09Z</time>
      </trkpt>
      <trkpt lat="62.642398206076" lon="17.978069005381">
        <ele>48</ele>
        <time>2018-01-03T12:58:10Z</time>
      </trkpt>
      <trkpt lat="62.642391332918" lon="17.978091133597">
        <ele>48.2</ele>
        <time>2018-01-03T12:58:11Z</time>
      </trkpt>
      <trkpt lat="62.642378005697" lon="17.978119129143">
        <ele>48.2</ele>
        <time>2018-01-03T12:58:12Z</time>
      </trkpt>
      <trkpt lat="62.642368450331" lon="17.978143939567">
        <ele>48.4</ele>
        <time>2018-01-03T12:58:13Z</time>
      </trkpt>
      <trkpt lat="62.642357805318" lon="17.978170174914">
        <ele>48.6</ele>
        <time>2018-01-03T12:58:14Z</time>
      </trkpt>
      <trkpt lat="62.6423475794" lon="17.978193476596">
        <ele>48.8</ele>
        <time>2018-01-03T12:58:15Z</time>
      </trkpt>
      <trkpt lat="62.642336347654" lon="17.97822331616">
        <ele>49</ele>
        <time>2018-01-03T12:58:16Z</time>
      </trkpt>
      <trkpt lat="62.642330731781" lon="17.978255586475">
        <ele>49.2</ele>
        <time>2018-01-03T12:58:17Z</time>
      </trkpt>
      <trkpt lat="62.6423140518" lon="17.978311577567">
        <ele>49.6</ele>
        <time>2018-01-03T12:58:18Z</time>
      </trkpt>
      <trkpt lat="62.642305921357" lon="17.97834820647">
        <ele>49.8</ele>
        <time>2018-01-03T12:58:19Z</time>
      </trkpt>
      <trkpt lat="62.642296868905" lon="17.978384332459">
        <ele>50</ele>
        <time>2018-01-03T12:58:20Z</time>
      </trkpt>
      <trkpt lat="62.642281110933" lon="17.978429007986">
        <ele>50</ele>
        <time>2018-01-03T12:58:21Z</time>
      </trkpt>
      <trkpt lat="62.642271387929" lon="17.978471085124">
        <ele>50.2</ele>
        <time>2018-01-03T12:58:22Z</time>
      </trkpt>
      <trkpt lat="62.642252947749" lon="17.978509641864">
        <ele>50.4</ele>
        <time>2018-01-03T12:58:23Z</time>
      </trkpt>
      <trkpt lat="62.642244314392" lon="17.978527411492">
        <ele>50.2</ele>
        <time>2018-01-03T12:58:24Z</time>
      </trkpt>
      <trkpt lat="62.642233082646" lon="17.978544091473">
        <ele>50.2</ele>
        <time>2018-01-03T12:58:25Z</time>
      </trkpt>
      <trkpt lat="62.642220258339" lon="17.978566052051">
        <ele>50.4</ele>
        <time>2018-01-03T12:58:26Z</time>
      </trkpt>
      <trkpt lat="62.642207936946" lon="17.978595640158">
        <ele>50.4</ele>
        <time>2018-01-03T12:58:27Z</time>
      </trkpt>
      <trkpt lat="62.642199052132" lon="17.978615421442">
        <ele>50.4</ele>
        <time>2018-01-03T12:58:28Z</time>
      </trkpt>
      <trkpt lat="62.64218916149" lon="17.978643416988">
        <ele>50.4</ele>
        <time>2018-01-03T12:58:29Z</time>
      </trkpt>
      <trkpt lat="62.642174996079" lon="17.978664623195">
        <ele>50.4</ele>
        <time>2018-01-03T12:58:30Z</time>
      </trkpt>
      <trkpt lat="62.642161417401" lon="17.978678788606">
        <ele>50.6</ele>
        <time>2018-01-03T12:58:31Z</time>
      </trkpt>
      <trkpt lat="62.642153203139" lon="17.97869437894">
        <ele>50.8</ele>
        <time>2018-01-03T12:58:32Z</time>
      </trkpt>
      <trkpt lat="62.642132583665" lon="17.978701000641">
        <ele>50.8</ele>
        <time>2018-01-03T12:58:33Z</time>
      </trkpt>
      <trkpt lat="62.642114981675" lon="17.978714160224">
        <ele>51</ele>
        <time>2018-01-03T12:58:34Z</time>
      </trkpt>
      <trkpt lat="62.642101486816" lon="17.97871365731">
        <ele>51</ele>
        <time>2018-01-03T12:58:35Z</time>
      </trkpt>
      <trkpt lat="62.642079777695" lon="17.978713322034">
        <ele>51.2</ele>
        <time>2018-01-03T12:58:36Z</time>
      </trkpt>
      <trkpt lat="62.642064606456" lon="17.978724637599">
        <ele>51.2</ele>
        <time>2018-01-03T12:58:37Z</time>
      </trkpt>
      <trkpt lat="62.642044070801" lon="17.978740060295">
        <ele>51.4</ele>
        <time>2018-01-03T12:58:38Z</time>
      </trkpt>
      <trkpt lat="62.642032168503" lon="17.978744502702">
        <ele>51.4</ele>
        <time>2018-01-03T12:58:39Z</time>
      </trkpt>
      <trkpt lat="62.642022864594" lon="17.978744586521">
        <ele>51.8</ele>
        <time>2018-01-03T12:58:40Z</time>
      </trkpt>
      <trkpt lat="62.642014650332" lon="17.978744335064">
        <ele>52</ele>
        <time>2018-01-03T12:58:41Z</time>
      </trkpt>
      <trkpt lat="62.642002999491" lon="17.978742239589">
        <ele>52.4</ele>
        <time>2018-01-03T12:58:42Z</time>
      </trkpt>
      <trkpt lat="62.64197793761" lon="17.978743664512">
        <ele>52.8</ele>
        <time>2018-01-03T12:58:43Z</time>
      </trkpt>
      <trkpt lat="62.641968466063" lon="17.978744502702">
        <ele>52.8</ele>
        <time>2018-01-03T12:58:44Z</time>
      </trkpt>
      <trkpt lat="62.641955222661" lon="17.978763026701">
        <ele>53</ele>
        <time>2018-01-03T12:58:45Z</time>
      </trkpt>
      <trkpt lat="62.641947930408" lon="17.97878071251">
        <ele>53.2</ele>
        <time>2018-01-03T12:58:46Z</time>
      </trkpt>
      <trkpt lat="62.641935609015" lon="17.978787082754">
        <ele>53.2</ele>
        <time>2018-01-03T12:58:47Z</time>
      </trkpt>
      <trkpt lat="62.641919683405" lon="17.978788004763">
        <ele>53.2</ele>
        <time>2018-01-03T12:58:48Z</time>
      </trkpt>
      <trkpt lat="62.641906859098" lon="17.978797895405">
        <ele>53</ele>
        <time>2018-01-03T12:58:49Z</time>
      </trkpt>
      <trkpt lat="62.641894705343" lon="17.978804936201">
        <ele>53.2</ele>
        <time>2018-01-03T12:58:50Z</time>
      </trkpt>
      <trkpt lat="62.641887077814" lon="17.978807953685">
        <ele>53.2</ele>
        <time>2018-01-03T12:58:51Z</time>
      </trkpt>
      <trkpt lat="62.641875846068" lon="17.978819772164">
        <ele>53.4</ele>
        <time>2018-01-03T12:58:52Z</time>
      </trkpt>
      <trkpt lat="62.641867128892" lon="17.978828070245">
        <ele>53.6</ele>
        <time>2018-01-03T12:58:53Z</time>
      </trkpt>
      <trkpt lat="62.641854220766" lon="17.978834691946">
        <ele>53.6</ele>
        <time>2018-01-03T12:58:54Z</time>
      </trkpt>
      <trkpt lat="62.641836870233" lon="17.978834943403">
        <ele>53.6</ele>
        <time>2018-01-03T12:58:55Z</time>
      </trkpt>
      <trkpt lat="62.641824213564" lon="17.978837290335">
        <ele>54</ele>
        <time>2018-01-03T12:58:56Z</time>
      </trkpt>
      <trkpt lat="62.641811053981" lon="17.978835697774">
        <ele>54.2</ele>
        <time>2018-01-03T12:58:57Z</time>
      </trkpt>
      <trkpt lat="62.641796385656" lon="17.978839553448">
        <ele>54.4</ele>
        <time>2018-01-03T12:58:58Z</time>
      </trkpt>
      <trkpt lat="62.641784231901" lon="17.97884525314">
        <ele>54.8</ele>
        <time>2018-01-03T12:58:59Z</time>
      </trkpt>
      <trkpt lat="62.64177258106" lon="17.978846845701">
        <ele>55</ele>
        <time>2018-01-03T12:59:00Z</time>
      </trkpt>
      <trkpt lat="62.641759672934" lon="17.978847683891">
        <ele>55.2</ele>
        <time>2018-01-03T12:59:01Z</time>
      </trkpt>
      <trkpt lat="62.641749614654" lon="17.978852042479">
        <ele>55.2</ele>
        <time>2018-01-03T12:59:02Z</time>
      </trkpt>
      <trkpt lat="62.641740478383" lon="17.978851288108">
        <ele>55.4</ele>
        <time>2018-01-03T12:59:03Z</time>
      </trkpt>
      <trkpt lat="62.641729162818" lon="17.978854054135">
        <ele>55.4</ele>
        <time>2018-01-03T12:59:04Z</time>
      </trkpt>
      <trkpt lat="62.641721283832" lon="17.978854054135">
        <ele>55.4</ele>
        <time>2018-01-03T12:59:05Z</time>
      </trkpt>
      <trkpt lat="62.641707956611" lon="17.978861849302">
        <ele>55.6</ele>
        <time>2018-01-03T12:59:06Z</time>
      </trkpt>
      <trkpt lat="62.641694042657" lon="17.978853299764">
        <ele>55.8</ele>
        <time>2018-01-03T12:59:07Z</time>
      </trkpt>
      <trkpt lat="62.641683230006" lon="17.978847935348">
        <ele>56</ele>
        <time>2018-01-03T12:59:08Z</time>
      </trkpt>
      <trkpt lat="62.641673758459" lon="17.978846007511">
        <ele>56.2</ele>
        <time>2018-01-03T12:59:09Z</time>
      </trkpt>
      <trkpt lat="62.641663700179" lon="17.978847432434">
        <ele>56.4</ele>
        <time>2018-01-03T12:59:10Z</time>
      </trkpt>
      <trkpt lat="62.641646517284" lon="17.978849192633">
        <ele>56.4</ele>
        <time>2018-01-03T12:59:11Z</time>
      </trkpt>
      <trkpt lat="62.641633860615" lon="17.978847180977">
        <ele>56.6</ele>
        <time>2018-01-03T12:59:12Z</time>
      </trkpt>
      <trkpt lat="62.641618689376" lon="17.978844498769">
        <ele>56.8</ele>
        <time>2018-01-03T12:59:13Z</time>
      </trkpt>
      <trkpt lat="62.641609720743" lon="17.978838463801">
        <ele>57</ele>
        <time>2018-01-03T12:59:14Z</time>
      </trkpt>
      <trkpt lat="62.641594717142" lon="17.978838799077">
        <ele>57.2</ele>
        <time>2018-01-03T12:59:15Z</time>
      </trkpt>
      <trkpt lat="62.641579545903" lon="17.978832261195">
        <ele>57.2</ele>
        <time>2018-01-03T12:59:16Z</time>
      </trkpt>
      <trkpt lat="62.641565631949" lon="17.9788234602">
        <ele>57.4</ele>
        <time>2018-01-03T12:59:17Z</time>
      </trkpt>
      <trkpt lat="62.641553226737" lon="17.978822035277">
        <ele>57.6</ele>
        <time>2018-01-03T12:59:18Z</time>
      </trkpt>
      <trkpt lat="62.641539731878" lon="17.978819101612">
        <ele>58</ele>
        <time>2018-01-03T12:59:19Z</time>
      </trkpt>
      <trkpt lat="62.641526320838" lon="17.978811557902">
        <ele>58</ele>
        <time>2018-01-03T12:59:20Z</time>
      </trkpt>
      <trkpt lat="62.641514669997" lon="17.978816084128">
        <ele>58.2</ele>
        <time>2018-01-03T12:59:21Z</time>
      </trkpt>
      <trkpt lat="62.641503605889" lon="17.978818766336">
        <ele>58.4</ele>
        <time>2018-01-03T12:59:22Z</time>
      </trkpt>
      <trkpt lat="62.641487261184" lon="17.978824549847">
        <ele>58.6</ele>
        <time>2018-01-03T12:59:23Z</time>
      </trkpt>
      <trkpt lat="62.64147669999" lon="17.978819520707">
        <ele>58.6</ele>
        <time>2018-01-03T12:59:24Z</time>
      </trkpt>
      <trkpt lat="62.64146245076" lon="17.978816922318">
        <ele>58.8</ele>
        <time>2018-01-03T12:59:25Z</time>
      </trkpt>
      <trkpt lat="62.641440322544" lon="17.978811976997">
        <ele>59</ele>
        <time>2018-01-03T12:59:26Z</time>
      </trkpt>
      <trkpt lat="62.641426827685" lon="17.978802756907">
        <ele>59.2</ele>
        <time>2018-01-03T12:59:27Z</time>
      </trkpt>
      <trkpt lat="62.641416853224" lon="17.978799236509">
        <ele>59.2</ele>
        <time>2018-01-03T12:59:28Z</time>
      </trkpt>
      <trkpt lat="62.641405034745" lon="17.97879496174">
        <ele>59.4</ele>
        <time>2018-01-03T12:59:29Z</time>
      </trkpt>
      <trkpt lat="62.641388438583" lon="17.978784232908">
        <ele>59.4</ele>
        <time>2018-01-03T12:59:30Z</time>
      </trkpt>
      <trkpt lat="62.641374943724" lon="17.978772498248">
        <ele>59.4</ele>
        <time>2018-01-03T12:59:31Z</time>
      </trkpt>
      <trkpt lat="62.64136438253" lon="17.978760763588">
        <ele>59.6</ele>
        <time>2018-01-03T12:59:32Z</time>
      </trkpt>
      <trkpt lat="62.641349630386" lon="17.978759506303">
        <ele>59.6</ele>
        <time>2018-01-03T12:59:33Z</time>
      </trkpt>
      <trkpt lat="62.641336135527" lon="17.978757662285">
        <ele>59.6</ele>
        <time>2018-01-03T12:59:34Z</time>
      </trkpt>
      <trkpt lat="62.641323897953" lon="17.978757913742">
        <ele>59.6</ele>
        <time>2018-01-03T12:59:35Z</time>
      </trkpt>
      <trkpt lat="62.641302775565" lon="17.978763697253">
        <ele>59.8</ele>
        <time>2018-01-03T12:59:36Z</time>
      </trkpt>
      <trkpt lat="62.641291376181" lon="17.978760428312">
        <ele>59.8</ele>
        <time>2018-01-03T12:59:37Z</time>
      </trkpt>
      <trkpt lat="62.641276707856" lon="17.978761769416">
        <ele>60</ele>
        <time>2018-01-03T12:59:38Z</time>
      </trkpt>
      <trkpt lat="62.641264973196" lon="17.978767720565">
        <ele>60.2</ele>
        <time>2018-01-03T12:59:39Z</time>
      </trkpt>
      <trkpt lat="62.641252987079" lon="17.978767804384">
        <ele>60.6</ele>
        <time>2018-01-03T12:59:40Z</time>
      </trkpt>
      <trkpt lat="62.641241671514" lon="17.978764535443">
        <ele>60.8</ele>
        <time>2018-01-03T12:59:41Z</time>
      </trkpt>
      <trkpt lat="62.641227841379" lon="17.978764451624">
        <ele>61</ele>
        <time>2018-01-03T12:59:42Z</time>
      </trkpt>
      <trkpt lat="62.641208814466" lon="17.978767888203">
        <ele>61.2</ele>
        <time>2018-01-03T12:59:43Z</time>
      </trkpt>
      <trkpt lat="62.641198169453" lon="17.978781215424">
        <ele>61.4</ele>
        <time>2018-01-03T12:59:44Z</time>
      </trkpt>
      <trkpt lat="62.641178471988" lon="17.978784652003">
        <ele>61.4</ele>
        <time>2018-01-03T12:59:45Z</time>
      </trkpt>
      <trkpt lat="62.641156008496" lon="17.978786747478">
        <ele>61.6</ele>
        <time>2018-01-03T12:59:46Z</time>
      </trkpt>
      <trkpt lat="62.641139244696" lon="17.978787082754">
        <ele>61.6</ele>
        <time>2018-01-03T12:59:47Z</time>
      </trkpt>
      <trkpt lat="62.641124995466" lon="17.978792950084">
        <ele>61.6</ele>
        <time>2018-01-03T12:59:48Z</time>
      </trkpt>
      <trkpt lat="62.641108315485" lon="17.978794710283">
        <ele>61.8</ele>
        <time>2018-01-03T12:59:49Z</time>
      </trkpt>
      <trkpt lat="62.641087360735" lon="17.978803846554">
        <ele>61.8</ele>
        <time>2018-01-03T12:59:50Z</time>
      </trkpt>
      <trkpt lat="62.641069926383" lon="17.978809378608">
        <ele>61.8</ele>
        <time>2018-01-03T12:59:51Z</time>
      </trkpt>
      <trkpt lat="62.641050228918" lon="17.978808708056">
        <ele>61.8</ele>
        <time>2018-01-03T12:59:52Z</time>
      </trkpt>
      <trkpt lat="62.641032040195" lon="17.97882932753">
        <ele>62</ele>
        <time>2018-01-03T12:59:53Z</time>
      </trkpt>
      <trkpt lat="62.641016198404" lon="17.978863777139">
        <ele>62</ele>
        <time>2018-01-03T12:59:54Z</time>
      </trkpt>
      <trkpt lat="62.640999099328" lon="17.978875344161">
        <ele>62</ele>
        <time>2018-01-03T12:59:55Z</time>
      </trkpt>
      <trkpt lat="62.640988957229" lon="17.978924629733">
        <ele>62.2</ele>
        <time>2018-01-03T12:59:56Z</time>
      </trkpt>
      <trkpt lat="62.640977474026" lon="17.978969975812">
        <ele>62.4</ele>
        <time>2018-01-03T12:59:57Z</time>
      </trkpt>
      <trkpt lat="62.640963979167" lon="17.979019429022">
        <ele>62.8</ele>
        <time>2018-01-03T12:59:58Z</time>
      </trkpt>
      <trkpt lat="62.640961883692" lon="17.979049687681">
        <ele>63</ele>
        <time>2018-01-03T12:59:59Z</time>
      </trkpt>
      <trkpt lat="62.640948305014" lon="17.979124705686">
        <ele>63.2</ele>
        <time>2018-01-03T13:00:00Z</time>
      </trkpt>
      <trkpt lat="62.640956267819" lon="17.979163430064">
        <ele>63.2</ele>
        <time>2018-01-03T13:00:01Z</time>
      </trkpt>
      <trkpt lat="62.640957441285" lon="17.979232580739">
        <ele>63.4</ele>
        <time>2018-01-03T13:00:02Z</time>
      </trkpt>
      <trkpt lat="62.640961464597" lon="17.979283291234">
        <ele>63.4</ele>
        <time>2018-01-03T13:00:03Z</time>
      </trkpt>
      <trkpt lat="62.640954088525" lon="17.979335426652">
        <ele>63.4</ele>
        <time>2018-01-03T13:00:04Z</time>
      </trkpt>
      <trkpt lat="62.640948556471" lon="17.979397536531">
        <ele>63.4</ele>
        <time>2018-01-03T13:00:05Z</time>
      </trkpt>
      <trkpt lat="62.640951322498" lon="17.979438440203">
        <ele>63.4</ele>
        <time>2018-01-03T13:00:06Z</time>
      </trkpt>
      <trkpt lat="62.640944114064" lon="17.979504741032">
        <ele>63.4</ele>
        <time>2018-01-03T13:00:07Z</time>
      </trkpt>
      <trkpt lat="62.640931289757" lon="17.979558385192">
        <ele>63.4</ele>
        <time>2018-01-03T13:00:08Z</time>
      </trkpt>
      <trkpt lat="62.640929864834" lon="17.97959878595">
        <ele>63.6</ele>
        <time>2018-01-03T13:00:09Z</time>
      </trkpt>
      <trkpt lat="62.64092349459" lon="17.979653687395">
        <ele>63.6</ele>
        <time>2018-01-03T13:00:10Z</time>
      </trkpt>
      <trkpt lat="62.64092684735" lon="17.979696267447">
        <ele>63.6</ele>
        <time>2018-01-03T13:00:11Z</time>
      </trkpt>
      <trkpt lat="62.640918130174" lon="17.97975217472">
        <ele>63.6</ele>
        <time>2018-01-03T13:00:12Z</time>
      </trkpt>
      <trkpt lat="62.640912681939" lon="17.979803388129">
        <ele>63.6</ele>
        <time>2018-01-03T13:00:13Z</time>
      </trkpt>
      <trkpt lat="62.640910251188" lon="17.979839095023">
        <ele>63.6</ele>
        <time>2018-01-03T13:00:14Z</time>
      </trkpt>
      <trkpt lat="62.640904383858" lon="17.979909335345">
        <ele>63.6</ele>
        <time>2018-01-03T13:00:15Z</time>
      </trkpt>
      <trkpt lat="62.640906144057" lon="17.97995585489">
        <ele>63.6</ele>
        <time>2018-01-03T13:00:16Z</time>
      </trkpt>
      <trkpt lat="62.640905724962" lon="17.979999105494">
        <ele>63.6</ele>
        <time>2018-01-03T13:00:17Z</time>
      </trkpt>
      <trkpt lat="62.640902204564" lon="17.980068507626">
        <ele>63.8</ele>
        <time>2018-01-03T13:00:18Z</time>
      </trkpt>
      <trkpt lat="62.640904551496" lon="17.980106142357">
        <ele>63.8</ele>
        <time>2018-01-03T13:00:19Z</time>
      </trkpt>
      <trkpt lat="62.64090756898" lon="17.980172527005">
        <ele>63.8</ele>
        <time>2018-01-03T13:00:20Z</time>
      </trkpt>
      <trkpt lat="62.640908826265" lon="17.980218459817">
        <ele>63.8</ele>
        <time>2018-01-03T13:00:21Z</time>
      </trkpt>
      <trkpt lat="62.640910167369" lon="17.980270846692">
        <ele>63.8</ele>
        <time>2018-01-03T13:00:22Z</time>
      </trkpt>
      <trkpt lat="62.640914190681" lon="17.980331950743">
        <ele>63.8</ele>
        <time>2018-01-03T13:00:23Z</time>
      </trkpt>
      <trkpt lat="62.640918800726" lon="17.980387690378">
        <ele>63.8</ele>
        <time>2018-01-03T13:00:24Z</time>
      </trkpt>
      <trkpt lat="62.640921566753" lon="17.980456841053">
        <ele>63.6</ele>
        <time>2018-01-03T13:00:25Z</time>
      </trkpt>
      <trkpt lat="62.640924668056" lon="17.980524650624">
        <ele>63.4</ele>
        <time>2018-01-03T13:00:26Z</time>
      </trkpt>
      <trkpt lat="62.640928691368" lon="17.980581647544">
        <ele>63.4</ele>
        <time>2018-01-03T13:00:27Z</time>
      </trkpt>
      <trkpt lat="62.640932966137" lon="17.980646188174">
        <ele>63.2</ele>
        <time>2018-01-03T13:00:28Z</time>
      </trkpt>
      <trkpt lat="62.640938162915" lon="17.980704861474">
        <ele>63.2</ele>
        <time>2018-01-03T13:00:29Z</time>
      </trkpt>
      <trkpt lat="62.640951238679" lon="17.980779208927">
        <ele>63</ele>
        <time>2018-01-03T13:00:30Z</time>
      </trkpt>
      <trkpt lat="62.640963392434" lon="17.980849030154">
        <ele>63</ele>
        <time>2018-01-03T13:00:31Z</time>
      </trkpt>
      <trkpt lat="62.640981664976" lon="17.98092061158">
        <ele>62.8</ele>
        <time>2018-01-03T13:00:32Z</time>
      </trkpt>
      <trkpt lat="62.641003038821" lon="17.980994120843">
        <ele>62.8</ele>
        <time>2018-01-03T13:00:33Z</time>
      </trkpt>
      <trkpt lat="62.641023323019" lon="17.981065031717">
        <ele>62.6</ele>
        <time>2018-01-03T13:00:34Z</time>
      </trkpt>
      <trkpt lat="62.641046205606" lon="17.981143486301">
        <ele>62.6</ele>
        <time>2018-01-03T13:00:35Z</time>
      </trkpt>
      <trkpt lat="62.641067579451" lon="17.981240548703">
        <ele>62.4</ele>
        <time>2018-01-03T13:00:36Z</time>
      </trkpt>
      <trkpt lat="62.641080739034" lon="17.981346495919">
        <ele>62.2</ele>
        <time>2018-01-03T13:00:37Z</time>
      </trkpt>
      <trkpt lat="62.641077805369" lon="17.981463507243">
        <ele>62</ele>
        <time>2018-01-03T13:00:38Z</time>
      </trkpt>
      <trkpt lat="62.641075709894" lon="17.981545314587">
        <ele>62</ele>
        <time>2018-01-03T13:00:39Z</time>
      </trkpt>
      <trkpt lat="62.641069423469" lon="17.981649166328">
        <ele>61.6</ele>
        <time>2018-01-03T13:00:40Z</time>
      </trkpt>
      <trkpt lat="62.641072105677" lon="17.981755784096">
        <ele>61.4</ele>
        <time>2018-01-03T13:00:41Z</time>
      </trkpt>
      <trkpt lat="62.641073698238" lon="17.981843123494">
        <ele>61.2</ele>
        <time>2018-01-03T13:00:42Z</time>
      </trkpt>
      <trkpt lat="62.641075961351" lon="17.981923003001">
        <ele>61</ele>
        <time>2018-01-03T13:00:43Z</time>
      </trkpt>
      <trkpt lat="62.641080655215" lon="17.982002882508">
        <ele>61</ele>
        <time>2018-01-03T13:00:44Z</time>
      </trkpt>
      <trkpt lat="62.641080068482" lon="17.982093323209">
        <ele>60.8</ele>
        <time>2018-01-03T13:00:45Z</time>
      </trkpt>
      <trkpt lat="62.641082415414" lon="17.982175549648">
        <ele>60.8</ele>
        <time>2018-01-03T13:00:46Z</time>
      </trkpt>
      <trkpt lat="62.641088701839" lon="17.982255596793">
        <ele>60.6</ele>
        <time>2018-01-03T13:00:47Z</time>
      </trkpt>
      <trkpt lat="62.641095574997" lon="17.982329189875">
        <ele>60.6</ele>
        <time>2018-01-03T13:00:48Z</time>
      </trkpt>
      <trkpt lat="62.641109824227" lon="17.982406135717">
        <ele>60.6</ele>
        <time>2018-01-03T13:00:49Z</time>
      </trkpt>
      <trkpt lat="62.641124744009" lon="17.982485260853">
        <ele>60.4</ele>
        <time>2018-01-03T13:00:50Z</time>
      </trkpt>
      <trkpt lat="62.641140082886" lon="17.982569163672">
        <ele>60.4</ele>
        <time>2018-01-03T13:00:51Z</time>
      </trkpt>
      <trkpt lat="62.64115232046" lon="17.982647534437">
        <ele>60.2</ele>
        <time>2018-01-03T13:00:52Z</time>
      </trkpt>
      <trkpt lat="62.64115902598" lon="17.982737639862">
        <ele>59.8</ele>
        <time>2018-01-03T13:00:53Z</time>
      </trkpt>
      <trkpt lat="62.641164558034" lon="17.982825063079">
        <ele>59.4</ele>
        <time>2018-01-03T13:00:54Z</time>
      </trkpt>
      <trkpt lat="62.641175705961" lon="17.982908379165">
        <ele>59</ele>
        <time>2018-01-03T13:00:55Z</time>
      </trkpt>
      <trkpt lat="62.641186015698" lon="17.982986330835">
        <ele>59</ele>
        <time>2018-01-03T13:00:56Z</time>
      </trkpt>
      <trkpt lat="62.641194481417" lon="17.983071826215">
        <ele>59</ele>
        <time>2018-01-03T13:00:57Z</time>
      </trkpt>
      <trkpt lat="62.641204539697" lon="17.983156399586">
        <ele>59</ele>
        <time>2018-01-03T13:00:58Z</time>
      </trkpt>
      <trkpt lat="62.641208563009" lon="17.983223287148">
        <ele>59</ele>
        <time>2018-01-03T13:00:59Z</time>
      </trkpt>
      <trkpt lat="62.641223063696" lon="17.983315152772">
        <ele>59.2</ele>
        <time>2018-01-03T13:01:00Z</time>
      </trkpt>
      <trkpt lat="62.641241084781" lon="17.983411460803">
        <ele>59.2</ele>
        <time>2018-01-03T13:01:01Z</time>
      </trkpt>
      <trkpt lat="62.641253825269" lon="17.983511540689">
        <ele>59.2</ele>
        <time>2018-01-03T13:01:02Z</time>
      </trkpt>
      <trkpt lat="62.641262374807" lon="17.983616565896">
        <ele>59.2</ele>
        <time>2018-01-03T13:01:03Z</time>
      </trkpt>
      <trkpt lat="62.641265643748" lon="17.983730392098">
        <ele>58.8</ele>
        <time>2018-01-03T13:01:04Z</time>
      </trkpt>
      <trkpt lat="62.64126547611" lon="17.983846229956">
        <ele>58.6</ele>
        <time>2018-01-03T13:01:05Z</time>
      </trkpt>
      <trkpt lat="62.641263129178" lon="17.983947650946">
        <ele>58</ele>
        <time>2018-01-03T13:01:06Z</time>
      </trkpt>
      <trkpt lat="62.641259776418" lon="17.984044042796">
        <ele>57.6</ele>
        <time>2018-01-03T13:01:07Z</time>
      </trkpt>
      <trkpt lat="62.641256591296" lon="17.984133142393">
        <ele>57</ele>
        <time>2018-01-03T13:01:08Z</time>
      </trkpt>
      <trkpt lat="62.641254663459" lon="17.984225427112">
        <ele>56.6</ele>
        <time>2018-01-03T13:01:09Z</time>
      </trkpt>
      <trkpt lat="62.641253489993" lon="17.984305725714">
        <ele>56</ele>
        <time>2018-01-03T13:01:10Z</time>
      </trkpt>
      <trkpt lat="62.641252232708" lon="17.984386024316">
        <ele>56</ele>
        <time>2018-01-03T13:01:11Z</time>
      </trkpt>
      <trkpt lat="62.641251059242" lon="17.984466239099">
        <ele>56</ele>
        <time>2018-01-03T13:01:12Z</time>
      </trkpt>
      <trkpt lat="62.641252567984" lon="17.984557769447">
        <ele>55.6</ele>
        <time>2018-01-03T13:01:14Z</time>
      </trkpt>
      <trkpt lat="62.641249885776" lon="17.984598505481">
        <ele>55.6</ele>
        <time>2018-01-03T13:01:15Z</time>
      </trkpt>
      <trkpt lat="62.6412495505" lon="17.984646533768">
        <ele>55.4</ele>
        <time>2018-01-03T13:01:16Z</time>
      </trkpt>
      <trkpt lat="62.641249382862" lon="17.984690957838">
        <ele>55.4</ele>
        <time>2018-01-03T13:01:17Z</time>
      </trkpt>
      <trkpt lat="62.641249382862" lon="17.984733454071">
        <ele>55.4</ele>
        <time>2018-01-03T13:01:18Z</time>
      </trkpt>
      <trkpt lat="62.641247455025" lon="17.984779470702">
        <ele>55.4</ele>
        <time>2018-01-03T13:01:19Z</time>
      </trkpt>
      <trkpt lat="62.641245694826" lon="17.984820122917">
        <ele>55.4</ele>
        <time>2018-01-03T13:01:20Z</time>
      </trkpt>
      <trkpt lat="62.641242090609" lon="17.984860020761">
        <ele>55.4</ele>
        <time>2018-01-03T13:01:21Z</time>
      </trkpt>
      <trkpt lat="62.641238402573" lon="17.984897990768">
        <ele>55.4</ele>
        <time>2018-01-03T13:01:22Z</time>
      </trkpt>
      <trkpt lat="62.641234798356" lon="17.984937720974">
        <ele>55.4</ele>
        <time>2018-01-03T13:01:23Z</time>
      </trkpt>
      <trkpt lat="62.641229350121" lon="17.984976529171">
        <ele>55.4</ele>
        <time>2018-01-03T13:01:24Z</time>
      </trkpt>
      <trkpt lat="62.641226500275" lon="17.985005279088">
        <ele>55.2</ele>
        <time>2018-01-03T13:01:25Z</time>
      </trkpt>
      <trkpt lat="62.641225494447" lon="17.985021204698">
        <ele>55</ele>
        <time>2018-01-03T13:01:26Z</time>
      </trkpt>
      <trkpt lat="62.641225159171" lon="17.985031765892">
        <ele>55</ele>
        <time>2018-01-03T13:01:27Z</time>
      </trkpt>
      <trkpt lat="62.641224237162" lon="17.985040483068">
        <ele>55</ele>
        <time>2018-01-03T13:01:28Z</time>
      </trkpt>
      <trkpt lat="62.641222309325" lon="17.985054648479">
        <ele>55</ele>
        <time>2018-01-03T13:01:29Z</time>
      </trkpt>
      <trkpt lat="62.641220800583" lon="17.985068897709">
        <ele>55</ele>
        <time>2018-01-03T13:01:30Z</time>
      </trkpt>
      <trkpt lat="62.64121853747" lon="17.985082057292">
        <ele>55.2</ele>
        <time>2018-01-03T13:01:31Z</time>
      </trkpt>
      <trkpt lat="62.641218788927" lon="17.985094378685">
        <ele>55.2</ele>
        <time>2018-01-03T13:01:32Z</time>
      </trkpt>
      <trkpt lat="62.641218286013" lon="17.985099491644">
        <ele>55.2</ele>
        <time>2018-01-03T13:01:33Z</time>
      </trkpt>
      <trkpt lat="62.641219208022" lon="17.985111980675">
        <ele>55</ele>
        <time>2018-01-03T13:01:34Z</time>
      </trkpt>
      <trkpt lat="62.641220968221" lon="17.985116506901">
        <ele>55</ele>
        <time>2018-01-03T13:01:35Z</time>
      </trkpt>
      <trkpt lat="62.641217531642" lon="17.985109466105">
        <ele>55</ele>
        <time>2018-01-03T13:01:36Z</time>
      </trkpt>
      <trkpt lat="62.641174029581" lon="17.985538367928">
        <ele>54.6</ele>
        <time>2018-01-03T13:02:12Z</time>
      </trkpt>
      <trkpt lat="62.641165647681" lon="17.985571560252">
        <ele>54.6</ele>
        <time>2018-01-03T13:02:13Z</time>
      </trkpt>
      <trkpt lat="62.641157936333" lon="17.985616319598">
        <ele>54.6</ele>
        <time>2018-01-03T13:02:14Z</time>
      </trkpt>
      <trkpt lat="62.641151901365" lon="17.98565889965">
        <ele>54.4</ele>
        <time>2018-01-03T13:02:15Z</time>
      </trkpt>
      <trkpt lat="62.641144106198" lon="17.985704329548">
        <ele>54.4</ele>
        <time>2018-01-03T13:02:16Z</time>
      </trkpt>
      <trkpt lat="62.64113807123" lon="17.985749256532">
        <ele>54.4</ele>
        <time>2018-01-03T13:02:17Z</time>
      </trkpt>
      <trkpt lat="62.641131533348" lon="17.985786555987">
        <ele>54.4</ele>
        <time>2018-01-03T13:02:18Z</time>
      </trkpt>
      <trkpt lat="62.641121726525" lon="17.985827208202">
        <ele>54.2</ele>
        <time>2018-01-03T13:02:19Z</time>
      </trkpt>
      <trkpt lat="62.641108566942" lon="17.985867357503">
        <ele>54.2</ele>
        <time>2018-01-03T13:02:20Z</time>
      </trkpt>
      <trkpt lat="62.641093814798" lon="17.985913877048">
        <ele>54</ele>
        <time>2018-01-03T13:02:21Z</time>
      </trkpt>
      <trkpt lat="62.641081996319" lon="17.985962743525">
        <ele>54</ele>
        <time>2018-01-03T13:02:22Z</time>
      </trkpt>
      <trkpt lat="62.641073949695" lon="17.986012196735">
        <ele>54</ele>
        <time>2018-01-03T13:02:23Z</time>
      </trkpt>
      <trkpt lat="62.641063975234" lon="17.986073552243">
        <ele>54</ele>
        <time>2018-01-03T13:02:24Z</time>
      </trkpt>
      <trkpt lat="62.641056934438" lon="17.986131554991">
        <ele>54</ele>
        <time>2018-01-03T13:02:25Z</time>
      </trkpt>
      <trkpt lat="62.641048133443" lon="17.986187546083">
        <ele>54</ele>
        <time>2018-01-03T13:02:26Z</time>
      </trkpt>
      <trkpt lat="62.641038494258" lon="17.986248314858">
        <ele>54</ele>
        <time>2018-01-03T13:02:27Z</time>
      </trkpt>
      <trkpt lat="62.641032710747" lon="17.986307071977">
        <ele>54</ele>
        <time>2018-01-03T13:02:28Z</time>
      </trkpt>
      <trkpt lat="62.641024412666" lon="17.986391310072">
        <ele>54</ele>
        <time>2018-01-03T13:02:29Z</time>
      </trkpt>
      <trkpt lat="62.641018126241" lon="17.986460712204">
        <ele>54</ele>
        <time>2018-01-03T13:02:30Z</time>
      </trkpt>
      <trkpt lat="62.641010750169" lon="17.986535227295">
        <ele>54</ele>
        <time>2018-01-03T13:02:31Z</time>
      </trkpt>
      <trkpt lat="62.641000440432" lon="17.986616699363">
        <ele>54</ele>
        <time>2018-01-03T13:02:32Z</time>
      </trkpt>
      <trkpt lat="62.640993148179" lon="17.98667897688">
        <ele>54</ele>
        <time>2018-01-03T13:02:33Z</time>
      </trkpt>
      <trkpt lat="62.640985101555" lon="17.98674351751">
        <ele>54</ele>
        <time>2018-01-03T13:02:34Z</time>
      </trkpt>
      <trkpt lat="62.640979401863" lon="17.986816104764">
        <ele>54</ele>
        <time>2018-01-03T13:02:35Z</time>
      </trkpt>
      <trkpt lat="62.640972612524" lon="17.986885674534">
        <ele>54</ele>
        <time>2018-01-03T13:02:36Z</time>
      </trkpt>
      <trkpt lat="62.640966996651" lon="17.986966895145">
        <ele>54</ele>
        <time>2018-01-03T13:02:37Z</time>
      </trkpt>
      <trkpt lat="62.64096205133" lon="17.987032273965">
        <ele>53.8</ele>
        <time>2018-01-03T13:02:38Z</time>
      </trkpt>
      <trkpt lat="62.640956016362" lon="17.98710813016">
        <ele>53.8</ele>
        <time>2018-01-03T13:02:39Z</time>
      </trkpt>
      <trkpt lat="62.640949059385" lon="17.987181807061">
        <ele>53.6</ele>
        <time>2018-01-03T13:02:40Z</time>
      </trkpt>
      <trkpt lat="62.640940342209" lon="17.987265793699">
        <ele>53.6</ele>
        <time>2018-01-03T13:02:41Z</time>
      </trkpt>
      <trkpt lat="62.640931708852" lon="17.987345002654">
        <ele>53.6</ele>
        <time>2018-01-03T13:02:42Z</time>
      </trkpt>
      <trkpt lat="62.640924500418" lon="17.987418931012">
        <ele>53.6</ele>
        <time>2018-01-03T13:02:43Z</time>
      </trkpt>
      <trkpt lat="62.640918800726" lon="17.987506521867">
        <ele>53.6</ele>
        <time>2018-01-03T13:02:44Z</time>
      </trkpt>
      <trkpt lat="62.640910670283" lon="17.987566955366">
        <ele>53.6</ele>
        <time>2018-01-03T13:02:45Z</time>
      </trkpt>
      <trkpt lat="62.640901785469" lon="17.987634429661">
        <ele>53.6</ele>
        <time>2018-01-03T13:02:46Z</time>
      </trkpt>
      <trkpt lat="62.640891140456" lon="17.987710704951">
        <ele>53.4</ele>
        <time>2018-01-03T13:02:47Z</time>
      </trkpt>
      <trkpt lat="62.640876053036" lon="17.98778790225">
        <ele>53.4</ele>
        <time>2018-01-03T13:02:48Z</time>
      </trkpt>
      <trkpt lat="62.640859875969" lon="17.98786501573">
        <ele>53.2</ele>
        <time>2018-01-03T13:02:49Z</time>
      </trkpt>
      <trkpt lat="62.640842022522" lon="17.987936680975">
        <ele>53.2</ele>
        <time>2018-01-03T13:02:50Z</time>
      </trkpt>
      <trkpt lat="62.640826683645" lon="17.988020164699">
        <ele>53.2</ele>
        <time>2018-01-03T13:02:51Z</time>
      </trkpt>
      <trkpt lat="62.640813021148" lon="17.988102307319">
        <ele>53.2</ele>
        <time>2018-01-03T13:02:52Z</time>
      </trkpt>
      <trkpt lat="62.64081452989" lon="17.988107504097">
        <ele>53.2</ele>
        <time>2018-01-03T13:02:53Z</time>
      </trkpt>
      <trkpt lat="62.640778571539" lon="17.988242033592">
        <ele>53.2</ele>
        <time>2018-01-03T13:02:54Z</time>
      </trkpt>
      <trkpt lat="62.640758119703" lon="17.988307915326">
        <ele>53.4</ele>
        <time>2018-01-03T13:02:55Z</time>
      </trkpt>
      <trkpt lat="62.640736242944" lon="17.988370192843">
        <ele>53.4</ele>
        <time>2018-01-03T13:02:56Z</time>
      </trkpt>
      <trkpt lat="62.640718305678" lon="17.988426100116">
        <ele>53.2</ele>
        <time>2018-01-03T13:02:57Z</time>
      </trkpt>
      <trkpt lat="62.64070556519" lon="17.988474128403">
        <ele>53.2</ele>
        <time>2018-01-03T13:02:58Z</time>
      </trkpt>
      <trkpt lat="62.640674887436" lon="17.988519977396">
        <ele>53.2</ele>
        <time>2018-01-03T13:02:59Z</time>
      </trkpt>
      <trkpt lat="62.640654100324" lon="17.988562641267">
        <ele>53.2</ele>
        <time>2018-01-03T13:03:00Z</time>
      </trkpt>
      <trkpt lat="62.640634821954" lon="17.988598180523">
        <ele>53.2</ele>
        <time>2018-01-03T13:03:01Z</time>
      </trkpt>
      <trkpt lat="62.640618225792" lon="17.988625756974">
        <ele>53.6</ele>
        <time>2018-01-03T13:03:02Z</time>
      </trkpt>
      <trkpt lat="62.640598779784" lon="17.988654255434">
        <ele>53.6</ele>
        <time>2018-01-03T13:03:03Z</time>
      </trkpt>
      <trkpt lat="62.640577992672" lon="17.988693650364">
        <ele>53.6</ele>
        <time>2018-01-03T13:03:04Z</time>
      </trkpt>
      <trkpt lat="62.640560306863" lon="17.988731536552">
        <ele>53.8</ele>
        <time>2018-01-03T13:03:05Z</time>
      </trkpt>
      <trkpt lat="62.640541196131" lon="17.988773362233">
        <ele>54</ele>
        <time>2018-01-03T13:03:06Z</time>
      </trkpt>
      <trkpt lat="62.640527701272" lon="17.988814685">
        <ele>54.2</ele>
        <time>2018-01-03T13:03:07Z</time>
      </trkpt>
      <trkpt lat="62.640512865309" lon="17.988857516509">
        <ele>54</ele>
        <time>2018-01-03T13:03:08Z</time>
      </trkpt>
      <trkpt lat="62.640495682414" lon="17.988914932524">
        <ele>54.2</ele>
        <time>2018-01-03T13:03:09Z</time>
      </trkpt>
      <trkpt lat="62.640478834795" lon="17.988963212268">
        <ele>54.2</ele>
        <time>2018-01-03T13:03:10Z</time>
      </trkpt>
      <trkpt lat="62.640458885873" lon="17.989016856428">
        <ele>54.2</ele>
        <time>2018-01-03T13:03:11Z</time>
      </trkpt>
      <trkpt lat="62.640445139557" lon="17.989066142">
        <ele>54.4</ele>
        <time>2018-01-03T13:03:12Z</time>
      </trkpt>
      <trkpt lat="62.640427202291" lon="17.989116349581">
        <ele>54.4</ele>
        <time>2018-01-03T13:03:13Z</time>
      </trkpt>
      <trkpt lat="62.640404235885" lon="17.989167646809">
        <ele>54.6</ele>
        <time>2018-01-03T13:03:14Z</time>
      </trkpt>
      <trkpt lat="62.640389902836" lon="17.989208299024">
        <ele>54.8</ele>
        <time>2018-01-03T13:03:15Z</time>
      </trkpt>
      <trkpt lat="62.640371797932" lon="17.989250795257">
        <ele>54.8</ele>
        <time>2018-01-03T13:03:16Z</time>
      </trkpt>
      <trkpt lat="62.640352100467" lon="17.989310725842">
        <ele>54.8</ele>
        <time>2018-01-03T13:03:17Z</time>
      </trkpt>
      <trkpt lat="62.640331480993" lon="17.989358586491">
        <ele>55</ele>
        <time>2018-01-03T13:03:18Z</time>
      </trkpt>
      <trkpt lat="62.640313711365" lon="17.989401753276">
        <ele>55</ele>
        <time>2018-01-03T13:03:19Z</time>
      </trkpt>
      <trkpt lat="62.640294181538" lon="17.989441064387">
        <ele>55</ele>
        <time>2018-01-03T13:03:20Z</time>
      </trkpt>
      <trkpt lat="62.640272891512" lon="17.989483309163">
        <ele>55.2</ele>
        <time>2018-01-03T13:03:21Z</time>
      </trkpt>
      <trkpt lat="62.640258642282" lon="17.989519518971">
        <ele>55.2</ele>
        <time>2018-01-03T13:03:22Z</time>
      </trkpt>
      <trkpt lat="62.640244644509" lon="17.989562015204">
        <ele>55.4</ele>
        <time>2018-01-03T13:03:23Z</time>
      </trkpt>
      <trkpt lat="62.640231065831" lon="17.989617168106">
        <ele>55.6</ele>
        <time>2018-01-03T13:03:24Z</time>
      </trkpt>
      <trkpt lat="62.640224527949" lon="17.989676428139">
        <ele>55.6</ele>
        <time>2018-01-03T13:03:25Z</time>
      </trkpt>
      <trkpt lat="62.640215559316" lon="17.989730910489">
        <ele>56</ele>
        <time>2018-01-03T13:03:26Z</time>
      </trkpt>
      <trkpt lat="62.640204411389" lon="17.989784219373">
        <ele>56.2</ele>
        <time>2018-01-03T13:03:27Z</time>
      </trkpt>
      <trkpt lat="62.640198627878" lon="17.98982805671">
        <ele>56.2</ele>
        <time>2018-01-03T13:03:28Z</time>
      </trkpt>
      <trkpt lat="62.64019175472" lon="17.989887987295">
        <ele>56.2</ele>
        <time>2018-01-03T13:03:29Z</time>
      </trkpt>
      <trkpt lat="62.640179600965" lon="17.98994372693">
        <ele>56.2</ele>
        <time>2018-01-03T13:03:30Z</time>
      </trkpt>
      <trkpt lat="62.640166273744" lon="17.989997035814">
        <ele>56.4</ele>
        <time>2018-01-03T13:03:31Z</time>
      </trkpt>
      <trkpt lat="62.640151186324" lon="17.990047578671">
        <ele>56.4</ele>
        <time>2018-01-03T13:03:32Z</time>
      </trkpt>
      <trkpt lat="62.640135931266" lon="17.990096361329">
        <ele>56.4</ele>
        <time>2018-01-03T13:03:33Z</time>
      </trkpt>
      <trkpt lat="62.640122436407" lon="17.990141623589">
        <ele>56.6</ele>
        <time>2018-01-03T13:03:34Z</time>
      </trkpt>
      <trkpt lat="62.640108438634" lon="17.990184538917">
        <ele>56.4</ele>
        <time>2018-01-03T13:03:35Z</time>
      </trkpt>
      <trkpt lat="62.640093351214" lon="17.990224436761">
        <ele>56.8</ele>
        <time>2018-01-03T13:03:36Z</time>
      </trkpt>
      <trkpt lat="62.64007943726" lon="17.990259305465">
        <ele>56.8</ele>
        <time>2018-01-03T13:03:37Z</time>
      </trkpt>
      <trkpt lat="62.640062589641" lon="17.990301885517">
        <ele>57</ele>
        <time>2018-01-03T13:03:38Z</time>
      </trkpt>
      <trkpt lat="62.640047166945" lon="17.990344800845">
        <ele>57.2</ele>
        <time>2018-01-03T13:03:39Z</time>
      </trkpt>
      <trkpt lat="62.640030235507" lon="17.99038964401">
        <ele>57.4</ele>
        <time>2018-01-03T13:03:40Z</time>
      </trkpt>
      <trkpt lat="62.640011292413" lon="17.990437588478">
        <ele>57.6</ele>
        <time>2018-01-03T13:03:41Z</time>
      </trkpt>
      <trkpt lat="62.639988242188" lon="17.990486790231">
        <ele>57.6</ele>
        <time>2018-01-03T13:03:42Z</time>
      </trkpt>
      <trkpt lat="62.639968125628" lon="17.990536830174">
        <ele>57.8</ele>
        <time>2018-01-03T13:03:43Z</time>
      </trkpt>
      <trkpt lat="62.639947422335" lon="17.990584523185">
        <ele>58</ele>
        <time>2018-01-03T13:03:44Z</time>
      </trkpt>
      <trkpt lat="62.639928311603" lon="17.990629282531">
        <ele>57.8</ele>
        <time>2018-01-03T13:03:45Z</time>
      </trkpt>
      <trkpt lat="62.639914146192" lon="17.990671192031">
        <ele>58</ele>
        <time>2018-01-03T13:03:46Z</time>
      </trkpt>
      <trkpt lat="62.639898220582" lon="17.990720393784">
        <ele>58</ele>
        <time>2018-01-03T13:03:47Z</time>
      </trkpt>
      <trkpt lat="62.63988078623" lon="17.990765236949">
        <ele>58</ele>
        <time>2018-01-03T13:03:48Z</time>
      </trkpt>
      <trkpt lat="62.639865279715" lon="17.990802284947">
        <ele>58</ele>
        <time>2018-01-03T13:03:49Z</time>
      </trkpt>
      <trkpt lat="62.639850443752" lon="17.990830029036">
        <ele>58</ele>
        <time>2018-01-03T13:03:50Z</time>
      </trkpt>
      <trkpt lat="62.639834015228" lon="17.990862969903">
        <ele>58.2</ele>
        <time>2018-01-03T13:03:51Z</time>
      </trkpt>
      <trkpt lat="62.63982043655" lon="17.990897838607">
        <ele>58.2</ele>
        <time>2018-01-03T13:03:52Z</time>
      </trkpt>
      <trkpt lat="62.639801912551" lon="17.990932874949">
        <ele>58.4</ele>
        <time>2018-01-03T13:03:53Z</time>
      </trkpt>
      <trkpt lat="62.639785903122" lon="17.99098140615">
        <ele>58.4</ele>
        <time>2018-01-03T13:03:54Z</time>
      </trkpt>
      <trkpt lat="62.63977182153" lon="17.991025243487">
        <ele>58.6</ele>
        <time>2018-01-03T13:03:55Z</time>
      </trkpt>
      <trkpt lat="62.639756817929" lon="17.991077630362">
        <ele>58.8</ele>
        <time>2018-01-03T13:03:56Z</time>
      </trkpt>
      <trkpt lat="62.639742568699" lon="17.991137225671">
        <ele>59</ele>
        <time>2018-01-03T13:03:57Z</time>
      </trkpt>
      <trkpt lat="62.639734354437" lon="17.991181482103">
        <ele>59</ele>
        <time>2018-01-03T13:03:58Z</time>
      </trkpt>
      <trkpt lat="62.639726726908" lon="17.991240742136">
        <ele>59.2</ele>
        <time>2018-01-03T13:03:59Z</time>
      </trkpt>
      <trkpt lat="62.639719686112" lon="17.991293296649">
        <ele>59.4</ele>
        <time>2018-01-03T13:04:00Z</time>
      </trkpt>
      <trkpt lat="62.63971314823" lon="17.991334954692">
        <ele>59.6</ele>
        <time>2018-01-03T13:04:01Z</time>
      </trkpt>
      <trkpt lat="62.639709041099" lon="17.991379714038">
        <ele>59.6</ele>
        <time>2018-01-03T13:04:02Z</time>
      </trkpt>
      <trkpt lat="62.639705772158" lon="17.991422964642">
        <ele>59.6</ele>
        <time>2018-01-03T13:04:03Z</time>
      </trkpt>
      <trkpt lat="62.639699066638" lon="17.991466047608">
        <ele>59.6</ele>
        <time>2018-01-03T13:04:04Z</time>
      </trkpt>
      <trkpt lat="62.63969386986" lon="17.991515668456">
        <ele>59.8</ele>
        <time>2018-01-03T13:04:05Z</time>
      </trkpt>
      <trkpt lat="62.639688086349" lon="17.991559086698">
        <ele>60</ele>
        <time>2018-01-03T13:04:06Z</time>
      </trkpt>
      <trkpt lat="62.639683224847" lon="17.99159831399">
        <ele>60.2</ele>
        <time>2018-01-03T13:04:07Z</time>
      </trkpt>
      <trkpt lat="62.639676435508" lon="17.991649024485">
        <ele>60.2</ele>
        <time>2018-01-03T13:04:08Z</time>
      </trkpt>
      <trkpt lat="62.639672244558" lon="17.991701159903">
        <ele>60.4</ele>
        <time>2018-01-03T13:04:09Z</time>
      </trkpt>
      <trkpt lat="62.639668305065" lon="17.991743907593">
        <ele>60.4</ele>
        <time>2018-01-03T13:04:10Z</time>
      </trkpt>
      <trkpt lat="62.639660845174" lon="17.99180786149">
        <ele>60.4</ele>
        <time>2018-01-03T13:04:11Z</time>
      </trkpt>
      <trkpt lat="62.639651625084" lon="17.991865109867">
        <ele>60.6</ele>
        <time>2018-01-03T13:04:12Z</time>
      </trkpt>
      <trkpt lat="62.639642404994" lon="17.991918586389">
        <ele>60.6</ele>
        <time>2018-01-03T13:04:13Z</time>
      </trkpt>
      <trkpt lat="62.639631424705" lon="17.99197717587">
        <ele>60.8</ele>
        <time>2018-01-03T13:04:14Z</time>
      </trkpt>
      <trkpt lat="62.639620863511" lon="17.992033250781">
        <ele>60.8</ele>
        <time>2018-01-03T13:04:15Z</time>
      </trkpt>
      <trkpt lat="62.639611056688" lon="17.99208530238">
        <ele>61</ele>
        <time>2018-01-03T13:04:16Z</time>
      </trkpt>
      <trkpt lat="62.639598064743" lon="17.992139952368">
        <ele>61</ele>
        <time>2018-01-03T13:04:17Z</time>
      </trkpt>
      <trkpt lat="62.639586413902" lon="17.992194015623">
        <ele>61.2</ele>
        <time>2018-01-03T13:04:18Z</time>
      </trkpt>
      <trkpt lat="62.639575265975" lon="17.992248581792">
        <ele>61.2</ele>
        <time>2018-01-03T13:04:19Z</time>
      </trkpt>
      <trkpt lat="62.639561352021" lon="17.992300884848">
        <ele>61.2</ele>
        <time>2018-01-03T13:04:20Z</time>
      </trkpt>
      <trkpt lat="62.639548108619" lon="17.992357546492">
        <ele>61.4</ele>
        <time>2018-01-03T13:04:21Z</time>
      </trkpt>
      <trkpt lat="62.639540397271" lon="17.992400964734">
        <ele>61.4</ele>
        <time>2018-01-03T13:04:22Z</time>
      </trkpt>
      <trkpt lat="62.639530925724" lon="17.992450837039">
        <ele>61.2</ele>
        <time>2018-01-03T13:04:23Z</time>
      </trkpt>
      <trkpt lat="62.639520783625" lon="17.992510432348">
        <ele>61.2</ele>
        <time>2018-01-03T13:04:24Z</time>
      </trkpt>
      <trkpt lat="62.639515586847" lon="17.992559466463">
        <ele>61.2</ele>
        <time>2018-01-03T13:04:25Z</time>
      </trkpt>
      <trkpt lat="62.639511731173" lon="17.992615373736">
        <ele>61.4</ele>
        <time>2018-01-03T13:04:26Z</time>
      </trkpt>
      <trkpt lat="62.63951030625" lon="17.99266616805">
        <ele>61.4</ele>
        <time>2018-01-03T13:04:27Z</time>
      </trkpt>
      <trkpt lat="62.639510473888" lon="17.99271394488">
        <ele>61.6</ele>
        <time>2018-01-03T13:04:28Z</time>
      </trkpt>
      <trkpt lat="62.639514413381" lon="17.992776390035">
        <ele>61.6</ele>
        <time>2018-01-03T13:04:29Z</time>
      </trkpt>
      <trkpt lat="62.639519442521" lon="17.992831207661">
        <ele>61.8</ele>
        <time>2018-01-03T13:04:30Z</time>
      </trkpt>
      <trkpt lat="62.639524806937" lon="17.99289499392">
        <ele>61.8</ele>
        <time>2018-01-03T13:04:31Z</time>
      </trkpt>
      <trkpt lat="62.639530087534" lon="17.99295199084">
        <ele>61.8</ele>
        <time>2018-01-03T13:04:32Z</time>
      </trkpt>
      <trkpt lat="62.639532266828" lon="17.993012256701">
        <ele>61.8</ele>
        <time>2018-01-03T13:04:33Z</time>
      </trkpt>
      <trkpt lat="62.639533607932" lon="17.993074785675">
        <ele>61.8</ele>
        <time>2018-01-03T13:04:34Z</time>
      </trkpt>
      <trkpt lat="62.639539307624" lon="17.993133123699">
        <ele>61.8</ele>
        <time>2018-01-03T13:04:35Z</time>
      </trkpt>
      <trkpt lat="62.639537547425" lon="17.993191964637">
        <ele>61.8</ele>
        <time>2018-01-03T13:04:36Z</time>
      </trkpt>
      <trkpt lat="62.639533272656" lon="17.993244183874">
        <ele>61.8</ele>
        <time>2018-01-03T13:04:37Z</time>
      </trkpt>
      <trkpt lat="62.63952790824" lon="17.993295481102">
        <ele>61.8</ele>
        <time>2018-01-03T13:04:38Z</time>
      </trkpt>
      <trkpt lat="62.63952204091" lon="17.993349460538">
        <ele>61.8</ele>
        <time>2018-01-03T13:04:39Z</time>
      </trkpt>
      <trkpt lat="62.63952204091" lon="17.993403691431">
        <ele>62</ele>
        <time>2018-01-03T13:04:40Z</time>
      </trkpt>
      <trkpt lat="62.639519023426" lon="17.99347418321">
        <ele>62</ele>
        <time>2018-01-03T13:04:41Z</time>
      </trkpt>
      <trkpt lat="62.639510892983" lon="17.993538975297">
        <ele>62</ele>
        <time>2018-01-03T13:04:42Z</time>
      </trkpt>
      <trkpt lat="62.639500667065" lon="17.993592032724">
        <ele>62.2</ele>
        <time>2018-01-03T13:04:43Z</time>
      </trkpt>
      <trkpt lat="62.639484070903" lon="17.99365607044">
        <ele>62.2</ele>
        <time>2018-01-03T13:04:44Z</time>
      </trkpt>
      <trkpt lat="62.639469402578" lon="17.993714073188">
        <ele>62.2</ele>
        <time>2018-01-03T13:04:45Z</time>
      </trkpt>
      <trkpt lat="62.639459763393" lon="17.993768639357">
        <ele>62.4</ele>
        <time>2018-01-03T13:04:46Z</time>
      </trkpt>
      <trkpt lat="62.639430175286" lon="17.993809710667">
        <ele>62.4</ele>
        <time>2018-01-03T13:04:47Z</time>
      </trkpt>
      <trkpt lat="62.639415506961" lon="17.99384298681">
        <ele>62.4</ele>
        <time>2018-01-03T13:04:48Z</time>
      </trkpt>
      <trkpt lat="62.639398407885" lon="17.993877939333">
        <ele>62.6</ele>
        <time>2018-01-03T13:04:49Z</time>
      </trkpt>
      <trkpt lat="62.6393803868" lon="17.993915238788">
        <ele>62.6</ele>
        <time>2018-01-03T13:04:50Z</time>
      </trkpt>
      <trkpt lat="62.639364880285" lon="17.993947006189">
        <ele>62.6</ele>
        <time>2018-01-03T13:04:51Z</time>
      </trkpt>
      <trkpt lat="62.639349876684" lon="17.993974079726">
        <ele>62.6</ele>
        <time>2018-01-03T13:04:52Z</time>
      </trkpt>
      <trkpt lat="62.639331017409" lon="17.994004422204">
        <ele>62.8</ele>
        <time>2018-01-03T13:04:53Z</time>
      </trkpt>
      <trkpt lat="62.639314085971" lon="17.994036189605">
        <ele>62.8</ele>
        <time>2018-01-03T13:04:54Z</time>
      </trkpt>
      <trkpt lat="62.639297154533" lon="17.994071142128">
        <ele>62.8</ele>
        <time>2018-01-03T13:04:55Z</time>
      </trkpt>
      <trkpt lat="62.639280474552" lon="17.994105591737">
        <ele>62.8</ele>
        <time>2018-01-03T13:04:56Z</time>
      </trkpt>
      <trkpt lat="62.63926555477" lon="17.994138448785">
        <ele>63</ele>
        <time>2018-01-03T13:04:57Z</time>
      </trkpt>
      <trkpt lat="62.639252730463" lon="17.994170383824">
        <ele>63</ele>
        <time>2018-01-03T13:04:58Z</time>
      </trkpt>
      <trkpt lat="62.639236385758" lon="17.994208353831">
        <ele>63.2</ele>
        <time>2018-01-03T13:04:59Z</time>
      </trkpt>
      <trkpt lat="62.639226746573" lon="17.994235511187">
        <ele>63.4</ele>
        <time>2018-01-03T13:05:00Z</time>
      </trkpt>
      <trkpt lat="62.639217191207" lon="17.994272726823">
        <ele>63.8</ele>
        <time>2018-01-03T13:05:01Z</time>
      </trkpt>
      <trkpt lat="62.639204618357" lon="17.994319581644">
        <ele>64</ele>
        <time>2018-01-03T13:05:02Z</time>
      </trkpt>
      <trkpt lat="62.639192967516" lon="17.994359395669">
        <ele>64</ele>
        <time>2018-01-03T13:05:03Z</time>
      </trkpt>
      <trkpt lat="62.639179388838" lon="17.994398790599">
        <ele>64.4</ele>
        <time>2018-01-03T13:05:04Z</time>
      </trkpt>
      <trkpt lat="62.63916161921" lon="17.99445151275">
        <ele>64.4</ele>
        <time>2018-01-03T13:05:05Z</time>
      </trkpt>
      <trkpt lat="62.639148543446" lon="17.994491410594">
        <ele>64.4</ele>
        <time>2018-01-03T13:05:06Z</time>
      </trkpt>
      <trkpt lat="62.639136138234" lon="17.994525189651">
        <ele>64.6</ele>
        <time>2018-01-03T13:05:07Z</time>
      </trkpt>
      <trkpt lat="62.639119290615" lon="17.994567769703">
        <ele>64.6</ele>
        <time>2018-01-03T13:05:08Z</time>
      </trkpt>
      <trkpt lat="62.63910126953" lon="17.994611439402">
        <ele>64.8</ele>
        <time>2018-01-03T13:05:09Z</time>
      </trkpt>
      <trkpt lat="62.639086265929" lon="17.994648822676">
        <ele>64.8</ele>
        <time>2018-01-03T13:05:10Z</time>
      </trkpt>
      <trkpt lat="62.639067574292" lon="17.994697018601">
        <ele>65</ele>
        <time>2018-01-03T13:05:11Z</time>
      </trkpt>
      <trkpt lat="62.639052989786" lon="17.994736078255">
        <ele>65</ele>
        <time>2018-01-03T13:05:12Z</time>
      </trkpt>
      <trkpt lat="62.639040416936" lon="17.994766923647">
        <ele>65</ele>
        <time>2018-01-03T13:05:13Z</time>
      </trkpt>
      <trkpt lat="62.639019294548" lon="17.994806570034">
        <ele>65</ele>
        <time>2018-01-03T13:05:14Z</time>
      </trkpt>
      <trkpt lat="62.639000099997" lon="17.994840516729">
        <ele>65</ele>
        <time>2018-01-03T13:05:15Z</time>
      </trkpt>
      <trkpt lat="62.63898559931" lon="17.994869685741">
        <ele>65</ele>
        <time>2018-01-03T13:05:16Z</time>
      </trkpt>
      <trkpt lat="62.638968081139" lon="17.994908158662">
        <ele>65.2</ele>
        <time>2018-01-03T13:05:17Z</time>
      </trkpt>
      <trkpt lat="62.638952155529" lon="17.994945458117">
        <ele>65.2</ele>
        <time>2018-01-03T13:05:18Z</time>
      </trkpt>
      <trkpt lat="62.638936062281" lon="17.99498460159">
        <ele>65.2</ele>
        <time>2018-01-03T13:05:19Z</time>
      </trkpt>
      <trkpt lat="62.638920304309" lon="17.995015363163">
        <ele>65.2</ele>
        <time>2018-01-03T13:05:20Z</time>
      </trkpt>
      <trkpt lat="62.638905719803" lon="17.995043526347">
        <ele>65.4</ele>
        <time>2018-01-03T13:05:21Z</time>
      </trkpt>
      <trkpt lat="62.638893733686" lon="17.995068672047">
        <ele>65.6</ele>
        <time>2018-01-03T13:05:22Z</time>
      </trkpt>
      <trkpt lat="62.638876550791" lon="17.995110413909">
        <ele>65.6</ele>
        <time>2018-01-03T13:05:23Z</time>
      </trkpt>
      <trkpt lat="62.638858362068" lon="17.995149892658">
        <ele>65.8</ele>
        <time>2018-01-03T13:05:24Z</time>
      </trkpt>
      <trkpt lat="62.638844280476" lon="17.995177469109">
        <ele>66</ele>
        <time>2018-01-03T13:05:25Z</time>
      </trkpt>
      <trkpt lat="62.638831539988" lon="17.995202111895">
        <ele>66.2</ele>
        <time>2018-01-03T13:05:26Z</time>
      </trkpt>
      <trkpt lat="62.638811171971" lon="17.995234298391">
        <ele>66.2</ele>
        <time>2018-01-03T13:05:27Z</time>
      </trkpt>
      <trkpt lat="62.638792899429" lon="17.995267323077">
        <ele>66.4</ele>
        <time>2018-01-03T13:05:28Z</time>
      </trkpt>
      <trkpt lat="62.638773788697" lon="17.995307220921">
        <ele>66.4</ele>
        <time>2018-01-03T13:05:29Z</time>
      </trkpt>
      <trkpt lat="62.638754175051" lon="17.995337311942">
        <ele>66.6</ele>
        <time>2018-01-03T13:05:30Z</time>
      </trkpt>
      <trkpt lat="62.63873330412" lon="17.99537016899">
        <ele>66.8</ele>
        <time>2018-01-03T13:05:31Z</time>
      </trkpt>
      <trkpt lat="62.638720647451" lon="17.995399254183">
        <ele>66.8</ele>
        <time>2018-01-03T13:05:32Z</time>
      </trkpt>
      <trkpt lat="62.638707990782" lon="17.995428339376">
        <ele>66.8</ele>
        <time>2018-01-03T13:05:33Z</time>
      </trkpt>
      <trkpt lat="62.638692987181" lon="17.995462453709">
        <ele>66.8</ele>
        <time>2018-01-03T13:05:34Z</time>
      </trkpt>
      <trkpt lat="62.638676055743" lon="17.995504195571">
        <ele>66.8</ele>
        <time>2018-01-03T13:05:35Z</time>
      </trkpt>
      <trkpt lat="62.638659627219" lon="17.995546943261">
        <ele>66.8</ele>
        <time>2018-01-03T13:05:36Z</time>
      </trkpt>
      <trkpt lat="62.638645545627" lon="17.995581811965">
        <ele>66.8</ele>
        <time>2018-01-03T13:05:37Z</time>
      </trkpt>
      <trkpt lat="62.638628195094" lon="17.995617602678">
        <ele>66.8</ele>
        <time>2018-01-03T13:05:38Z</time>
      </trkpt>
      <trkpt lat="62.638608497629" lon="17.99565347721">
        <ele>66.8</ele>
        <time>2018-01-03T13:05:39Z</time>
      </trkpt>
      <trkpt lat="62.638591733829" lon="17.995685160792">
        <ele>67</ele>
        <time>2018-01-03T13:05:40Z</time>
      </trkpt>
      <trkpt lat="62.638571868726" lon="17.995726735016">
        <ele>67</ele>
        <time>2018-01-03T13:05:41Z</time>
      </trkpt>
      <trkpt lat="62.63854974051" lon="17.995768476878">
        <ele>67</ele>
        <time>2018-01-03T13:05:42Z</time>
      </trkpt>
      <trkpt lat="62.638531635606" lon="17.995806363066">
        <ele>67.2</ele>
        <time>2018-01-03T13:05:43Z</time>
      </trkpt>
      <trkpt lat="62.638512273417" lon="17.995851792964">
        <ele>67.4</ele>
        <time>2018-01-03T13:05:44Z</time>
      </trkpt>
      <trkpt lat="62.638491737762" lon="17.995895378844">
        <ele>67.4</ele>
        <time>2018-01-03T13:05:45Z</time>
      </trkpt>
      <trkpt lat="62.638477823808" lon="17.995920356906">
        <ele>67.6</ele>
        <time>2018-01-03T13:05:46Z</time>
      </trkpt>
      <trkpt lat="62.638461479103" lon="17.995947178986">
        <ele>67.6</ele>
        <time>2018-01-03T13:05:47Z</time>
      </trkpt>
      <trkpt lat="62.63844580495" lon="17.995976683274">
        <ele>67.8</ele>
        <time>2018-01-03T13:05:48Z</time>
      </trkpt>
      <trkpt lat="62.638433902652" lon="17.996006941933">
        <ele>68</ele>
        <time>2018-01-03T13:05:49Z</time>
      </trkpt>
      <trkpt lat="62.638419234327" lon="17.996040301895">
        <ele>68</ele>
        <time>2018-01-03T13:05:50Z</time>
      </trkpt>
      <trkpt lat="62.638401548518" lon="17.996080199739">
        <ele>68.2</ele>
        <time>2018-01-03T13:05:51Z</time>
      </trkpt>
      <trkpt lat="62.638389227125" lon="17.996106015991">
        <ele>68.2</ele>
        <time>2018-01-03T13:05:52Z</time>
      </trkpt>
      <trkpt lat="62.638371289859" lon="17.996146081473">
        <ele>68.4</ele>
        <time>2018-01-03T13:05:53Z</time>
      </trkpt>
      <trkpt lat="62.638353101136" lon="17.996188829163">
        <ele>68.6</ele>
        <time>2018-01-03T13:05:54Z</time>
      </trkpt>
      <trkpt lat="62.638335918241" lon="17.99622847555">
        <ele>68.8</ele>
        <time>2018-01-03T13:05:55Z</time>
      </trkpt>
      <trkpt lat="62.638318483889" lon="17.996269965955">
        <ele>68.8</ele>
        <time>2018-01-03T13:05:56Z</time>
      </trkpt>
      <trkpt lat="62.638303983202" lon="17.996300727528">
        <ele>68.8</ele>
        <time>2018-01-03T13:05:57Z</time>
      </trkpt>
      <trkpt lat="62.638288141411" lon="17.996332914024">
        <ele>69</ele>
        <time>2018-01-03T13:05:58Z</time>
      </trkpt>
      <trkpt lat="62.638268360127" lon="17.996373063325">
        <ele>69</ele>
        <time>2018-01-03T13:05:59Z</time>
      </trkpt>
      <trkpt lat="62.638250422861" lon="17.996412122979">
        <ele>69</ele>
        <time>2018-01-03T13:06:00Z</time>
      </trkpt>
      <trkpt lat="62.638233407604" lon="17.99644975771">
        <ele>69</ele>
        <time>2018-01-03T13:06:01Z</time>
      </trkpt>
      <trkpt lat="62.638220080383" lon="17.996480184007">
        <ele>69</ele>
        <time>2018-01-03T13:06:02Z</time>
      </trkpt>
      <trkpt lat="62.638206501705" lon="17.996509101562">
        <ele>69.2</ele>
        <time>2018-01-03T13:06:03Z</time>
      </trkpt>
      <trkpt lat="62.638188983534" lon="17.996543718809">
        <ele>69.2</ele>
        <time>2018-01-03T13:06:04Z</time>
      </trkpt>
      <trkpt lat="62.638173141743" lon="17.99657129526">
        <ele>69.2</ele>
        <time>2018-01-03T13:06:05Z</time>
      </trkpt>
      <trkpt lat="62.638156042667" lon="17.99660063191">
        <ele>69.2</ele>
        <time>2018-01-03T13:06:06Z</time>
      </trkpt>
      <trkpt lat="62.638141206704" lon="17.996634494786">
        <ele>69.2</ele>
        <time>2018-01-03T13:06:07Z</time>
      </trkpt>
      <trkpt lat="62.638124275266" lon="17.99667187806">
        <ele>69.4</ele>
        <time>2018-01-03T13:06:08Z</time>
      </trkpt>
      <trkpt lat="62.638106254181" lon="17.996708506963">
        <ele>69.6</ele>
        <time>2018-01-03T13:06:09Z</time>
      </trkpt>
      <trkpt lat="62.638093010779" lon="17.996729796989">
        <ele>69.8</ele>
        <time>2018-01-03T13:06:10Z</time>
      </trkpt>
      <trkpt lat="62.638078510092" lon="17.996749997368">
        <ele>70</ele>
        <time>2018-01-03T13:06:11Z</time>
      </trkpt>
      <trkpt lat="62.638059650817" lon="17.996774640154">
        <ele>70</ele>
        <time>2018-01-03T13:06:12Z</time>
      </trkpt>
      <trkpt lat="62.638047497062" lon="17.996790314307">
        <ele>70.2</ele>
        <time>2018-01-03T13:06:13Z</time>
      </trkpt>
      <trkpt lat="62.638031487633" lon="17.996805904641">
        <ele>70.4</ele>
        <time>2018-01-03T13:06:14Z</time>
      </trkpt>
      <trkpt lat="62.638011538711" lon="17.996821411156">
        <ele>70.6</ele>
        <time>2018-01-03T13:06:15Z</time>
      </trkpt>
      <trkpt lat="62.637995277825" lon="17.996842617363">
        <ele>70.6</ele>
        <time>2018-01-03T13:06:16Z</time>
      </trkpt>
      <trkpt lat="62.63797474217" lon="17.996871534918">
        <ele>70.8</ele>
        <time>2018-01-03T13:06:17Z</time>
      </trkpt>
      <trkpt lat="62.637954960886" lon="17.996897686446">
        <ele>70.8</ele>
        <time>2018-01-03T13:06:18Z</time>
      </trkpt>
      <trkpt lat="62.637936604525" lon="17.996924340888">
        <ele>71</ele>
        <time>2018-01-03T13:06:19Z</time>
      </trkpt>
      <trkpt lat="62.637919337811" lon="17.996955773013">
        <ele>71</ele>
        <time>2018-01-03T13:06:20Z</time>
      </trkpt>
      <trkpt lat="62.637904753305" lon="17.996992234278">
        <ele>71</ele>
        <time>2018-01-03T13:06:21Z</time>
      </trkpt>
      <trkpt lat="62.6378884086" lon="17.997026851525">
        <ele>71.2</ele>
        <time>2018-01-03T13:06:22Z</time>
      </trkpt>
      <trkpt lat="62.637869381687" lon="17.99706415098">
        <ele>71.2</ele>
        <time>2018-01-03T13:06:23Z</time>
      </trkpt>
      <trkpt lat="62.637855132457" lon="17.997094158182">
        <ele>71.2</ele>
        <time>2018-01-03T13:06:24Z</time>
      </trkpt>
      <trkpt lat="62.637837027553" lon="17.997133469293">
        <ele>71.2</ele>
        <time>2018-01-03T13:06:25Z</time>
      </trkpt>
      <trkpt lat="62.637817916821" lon="17.997175714069">
        <ele>71.4</ele>
        <time>2018-01-03T13:06:26Z</time>
      </trkpt>
      <trkpt lat="62.637797297347" lon="17.997219467587">
        <ele>71.6</ele>
        <time>2018-01-03T13:06:27Z</time>
      </trkpt>
      <trkpt lat="62.637778018977" lon="17.997263724019">
        <ele>71.6</ele>
        <time>2018-01-03T13:06:28Z</time>
      </trkpt>
      <trkpt lat="62.637758992064" lon="17.997320301844">
        <ele>71.6</ele>
        <time>2018-01-03T13:06:29Z</time>
      </trkpt>
      <trkpt lat="62.637740300427" lon="17.99737511947">
        <ele>71.6</ele>
        <time>2018-01-03T13:06:30Z</time>
      </trkpt>
      <trkpt lat="62.637725045369" lon="17.997423818309">
        <ele>71.8</ele>
        <time>2018-01-03T13:06:31Z</time>
      </trkpt>
      <trkpt lat="62.6377123887" lon="17.997466314542">
        <ele>71.6</ele>
        <time>2018-01-03T13:06:32Z</time>
      </trkpt>
      <trkpt lat="62.637700905497" lon="17.997512414992">
        <ele>71.6</ele>
        <time>2018-01-03T13:06:33Z</time>
      </trkpt>
      <trkpt lat="62.637690092846" lon="17.997563209306">
        <ele>71.8</ele>
        <time>2018-01-03T13:06:34Z</time>
      </trkpt>
      <trkpt lat="62.637675675978" lon="17.997617775475">
        <ele>71.8</ele>
        <time>2018-01-03T13:06:35Z</time>
      </trkpt>
      <trkpt lat="62.637660840015" lon="17.997676281137">
        <ele>71.8</ele>
        <time>2018-01-03T13:06:36Z</time>
      </trkpt>
      <trkpt lat="62.637649775907" lon="17.997721459578">
        <ele>72</ele>
        <time>2018-01-03T13:06:37Z</time>
      </trkpt>
      <trkpt lat="62.637636029591" lon="17.997771667159">
        <ele>72.2</ele>
        <time>2018-01-03T13:06:38Z</time>
      </trkpt>
      <trkpt lat="62.637628821157" lon="17.997831011011">
        <ele>72.2</ele>
        <time>2018-01-03T13:06:39Z</time>
      </trkpt>
      <trkpt lat="62.63761934961" lon="17.997878787841">
        <ele>72.2</ele>
        <time>2018-01-03T13:06:40Z</time>
      </trkpt>
      <trkpt lat="62.637602921086" lon="17.997928576327">
        <ele>72.2</ele>
        <time>2018-01-03T13:06:41Z</time>
      </trkpt>
      <trkpt lat="62.637585486734" lon="17.997968641809">
        <ele>72.2</ele>
        <time>2018-01-03T13:06:42Z</time>
      </trkpt>
      <trkpt lat="62.637563023242" lon="17.99800543835">
        <ele>72</ele>
        <time>2018-01-03T13:06:43Z</time>
      </trkpt>
      <trkpt lat="62.637536704076" lon="17.998058160501">
        <ele>72</ele>
        <time>2018-01-03T13:06:44Z</time>
      </trkpt>
      <trkpt lat="62.637520024095" lon="17.998094621766">
        <ele>72.2</ele>
        <time>2018-01-03T13:06:45Z</time>
      </trkpt>
      <trkpt lat="62.63749865025" lon="17.998127646452">
        <ele>72.2</ele>
        <time>2018-01-03T13:06:46Z</time>
      </trkpt>
      <trkpt lat="62.637473336912" lon="17.998172321979">
        <ele>72.2</ele>
        <time>2018-01-03T13:06:47Z</time>
      </trkpt>
      <trkpt lat="62.637454812913" lon="17.998203921742">
        <ele>72</ele>
        <time>2018-01-03T13:06:48Z</time>
      </trkpt>
      <trkpt lat="62.637434444896" lon="17.998228061614">
        <ele>72.2</ele>
        <time>2018-01-03T13:06:49Z</time>
      </trkpt>
      <trkpt lat="62.637410975576" lon="17.998259326101">
        <ele>72.4</ele>
        <time>2018-01-03T13:06:50Z</time>
      </trkpt>
      <trkpt lat="62.637392954491" lon="17.998294530081">
        <ele>72.4</ele>
        <time>2018-01-03T13:06:51Z</time>
      </trkpt>
      <trkpt lat="62.637374179035" lon="17.998329650242">
        <ele>72.6</ele>
        <time>2018-01-03T13:06:52Z</time>
      </trkpt>
      <trkpt lat="62.63735112881" lon="17.99838010928">
        <ele>72.8</ele>
        <time>2018-01-03T13:06:53Z</time>
      </trkpt>
      <trkpt lat="62.637332185716" lon="17.998427131739">
        <ele>72.8</ele>
        <time>2018-01-03T13:06:54Z</time>
      </trkpt>
      <trkpt lat="62.637315254278" lon="17.99847817751">
        <ele>73</ele>
        <time>2018-01-03T13:06:55Z</time>
      </trkpt>
      <trkpt lat="62.637299915401" lon="17.998528385091">
        <ele>73.2</ele>
        <time>2018-01-03T13:06:56Z</time>
      </trkpt>
      <trkpt lat="62.637278709194" lon="17.998581693975">
        <ele>73</ele>
        <time>2018-01-03T13:06:57Z</time>
      </trkpt>
      <trkpt lat="62.637255491331" lon="17.998635505773">
        <ele>73</ele>
        <time>2018-01-03T13:06:58Z</time>
      </trkpt>
      <trkpt lat="62.63722875307" lon="17.998693508521">
        <ele>73.2</ele>
        <time>2018-01-03T13:06:59Z</time>
      </trkpt>
      <trkpt lat="62.637205116112" lon="17.998732819632">
        <ele>73.2</ele>
        <time>2018-01-03T13:07:00Z</time>
      </trkpt>
      <trkpt lat="62.637184496638" lon="17.998760563721">
        <ele>73.2</ele>
        <time>2018-01-03T13:07:01Z</time>
      </trkpt>
      <trkpt lat="62.63715834511" lon="17.998795348606">
        <ele>73.2</ele>
        <time>2018-01-03T13:07:02Z</time>
      </trkpt>
      <trkpt lat="62.637137474179" lon="17.998820075211">
        <ele>73.2</ele>
        <time>2018-01-03T13:07:03Z</time>
      </trkpt>
      <trkpt lat="62.637117944352" lon="17.998844550359">
        <ele>73.2</ele>
        <time>2018-01-03T13:07:04Z</time>
      </trkpt>
      <trkpt lat="62.637096486688" lon="17.998875982484">
        <ele>73.2</ele>
        <time>2018-01-03T13:07:05Z</time>
      </trkpt>
      <trkpt lat="62.637078046508" lon="17.998912779025">
        <ele>73.4</ele>
        <time>2018-01-03T13:07:06Z</time>
      </trkpt>
      <trkpt lat="62.637060779794" lon="17.998938595277">
        <ele>73.4</ele>
        <time>2018-01-03T13:07:07Z</time>
      </trkpt>
      <trkpt lat="62.63704016032" lon="17.998972122877">
        <ele>73.4</ele>
        <time>2018-01-03T13:07:08Z</time>
      </trkpt>
      <trkpt lat="62.637022223054" lon="17.999011936902">
        <ele>73.4</ele>
        <time>2018-01-03T13:07:09Z</time>
      </trkpt>
      <trkpt lat="62.637006465082" lon="17.999039932448">
        <ele>73.6</ele>
        <time>2018-01-03T13:07:10Z</time>
      </trkpt>
      <trkpt lat="62.636984420685" lon="17.999072202763">
        <ele>73.6</ele>
        <time>2018-01-03T13:07:11Z</time>
      </trkpt>
      <trkpt lat="62.636965477591" lon="17.999104892173">
        <ele>73.8</ele>
        <time>2018-01-03T13:07:12Z</time>
      </trkpt>
      <trkpt lat="62.636951060723" lon="17.999131378977">
        <ele>74</ele>
        <time>2018-01-03T13:07:13Z</time>
      </trkpt>
      <trkpt lat="62.636935554208" lon="17.999156357039">
        <ele>74.2</ele>
        <time>2018-01-03T13:07:14Z</time>
      </trkpt>
      <trkpt lat="62.636913174535" lon="17.999188543535">
        <ele>74.6</ele>
        <time>2018-01-03T13:07:15Z</time>
      </trkpt>
      <trkpt lat="62.636897081287" lon="17.999217041995">
        <ele>74.8</ele>
        <time>2018-01-03T13:07:16Z</time>
      </trkpt>
      <trkpt lat="62.636873444329" lon="17.999251743061">
        <ele>75</ele>
        <time>2018-01-03T13:07:17Z</time>
      </trkpt>
      <trkpt lat="62.636853746864" lon="17.999281917901">
        <ele>75.2</ele>
        <time>2018-01-03T13:07:18Z</time>
      </trkpt>
      <trkpt lat="62.636834887589" lon="17.999311422189">
        <ele>75.4</ele>
        <time>2018-01-03T13:07:19Z</time>
      </trkpt>
      <trkpt lat="62.636814854848" lon="17.999340339744">
        <ele>75.4</ele>
        <time>2018-01-03T13:07:20Z</time>
      </trkpt>
      <trkpt lat="62.636796498487" lon="17.999373196792">
        <ele>75.6</ele>
        <time>2018-01-03T13:07:21Z</time>
      </trkpt>
      <trkpt lat="62.63678535056" lon="17.999405048012">
        <ele>75.6</ele>
        <time>2018-01-03T13:07:22Z</time>
      </trkpt>
      <trkpt lat="62.636768838217" lon="17.999421476536">
        <ele>75.6</ele>
        <time>2018-01-03T13:07:23Z</time>
      </trkpt>
      <trkpt lat="62.636735981169" lon="17.999490794849">
        <ele>75.6</ele>
        <time>2018-01-03T13:07:24Z</time>
      </trkpt>
      <trkpt lat="62.636719049731" lon="17.999541337706">
        <ele>75.6</ele>
        <time>2018-01-03T13:07:25Z</time>
      </trkpt>
      <trkpt lat="62.636707650347" lon="17.999589282174">
        <ele>75.8</ele>
        <time>2018-01-03T13:07:26Z</time>
      </trkpt>
      <trkpt lat="62.636691138004" lon="17.999647033465">
        <ele>75.8</ele>
        <time>2018-01-03T13:07:27Z</time>
      </trkpt>
      <trkpt lat="62.636675715308" lon="17.999696570494">
        <ele>75.8</ele>
        <time>2018-01-03T13:07:28Z</time>
      </trkpt>
      <trkpt lat="62.636655347291" lon="17.999758764192">
        <ele>75.6</ele>
        <time>2018-01-03T13:07:29Z</time>
      </trkpt>
      <trkpt lat="62.63663531455" lon="17.999819700605">
        <ele>75.6</ele>
        <time>2018-01-03T13:07:30Z</time>
      </trkpt>
      <trkpt lat="62.636620646225" lon="17.999869153815">
        <ele>75.6</ele>
        <time>2018-01-03T13:07:31Z</time>
      </trkpt>
      <trkpt lat="62.636601870769" lon="17.999928162391">
        <ele>75.6</ele>
        <time>2018-01-03T13:07:32Z</time>
      </trkpt>
      <trkpt lat="62.636589381738" lon="17.999972418823">
        <ele>75.6</ele>
        <time>2018-01-03T13:07:33Z</time>
      </trkpt>
      <trkpt lat="62.636572534119" lon="18.000025224793">
        <ele>75.8</ele>
        <time>2018-01-03T13:07:34Z</time>
      </trkpt>
      <trkpt lat="62.636554513034" lon="18.00008331136">
        <ele>75.8</ele>
        <time>2018-01-03T13:07:35Z</time>
      </trkpt>
      <trkpt lat="62.636537581596" lon="18.000137709891">
        <ele>75.8</ele>
        <time>2018-01-03T13:07:36Z</time>
      </trkpt>
      <trkpt lat="62.636519979606" lon="18.000197137562">
        <ele>75.8</ele>
        <time>2018-01-03T13:07:37Z</time>
      </trkpt>
      <trkpt lat="62.636506736204" lon="18.000243824745">
        <ele>75.8</ele>
        <time>2018-01-03T13:07:38Z</time>
      </trkpt>
      <trkpt lat="62.636488296024" lon="18.000306353719">
        <ele>75.8</ele>
        <time>2018-01-03T13:07:39Z</time>
      </trkpt>
      <trkpt lat="62.636474465889" lon="18.000361925716">
        <ele>75.8</ele>
        <time>2018-01-03T13:07:40Z</time>
      </trkpt>
      <trkpt lat="62.636455774252" lon="18.000426382527">
        <ele>76</ele>
        <time>2018-01-03T13:07:41Z</time>
      </trkpt>
      <trkpt lat="62.636436160606" lon="18.000483379447">
        <ele>76</ele>
        <time>2018-01-03T13:07:42Z</time>
      </trkpt>
      <trkpt lat="62.636419396806" lon="18.000527468241">
        <ele>76</ele>
        <time>2018-01-03T13:07:43Z</time>
      </trkpt>
      <trkpt lat="62.636401543359" lon="18.000576921451">
        <ele>76</ele>
        <time>2018-01-03T13:07:44Z</time>
      </trkpt>
      <trkpt lat="62.636386455939" lon="18.000633666914">
        <ele>76</ele>
        <time>2018-01-03T13:07:45Z</time>
      </trkpt>
      <trkpt lat="62.636366171741" lon="18.000689658006">
        <ele>76</ele>
        <time>2018-01-03T13:07:46Z</time>
      </trkpt>
      <trkpt lat="62.636343037697" lon="18.000752606075">
        <ele>76</ele>
        <time>2018-01-03T13:07:47Z</time>
      </trkpt>
      <trkpt lat="62.63631764054" lon="18.000813542488">
        <ele>76</ele>
        <time>2018-01-03T13:07:48Z</time>
      </trkpt>
      <trkpt lat="62.636290147908" lon="18.000876993471">
        <ele>76</ele>
        <time>2018-01-03T13:07:49Z</time>
      </trkpt>
      <trkpt lat="62.636264750751" lon="18.000930972907">
        <ele>76</ele>
        <time>2018-01-03T13:07:50Z</time>
      </trkpt>
      <trkpt lat="62.636244215096" lon="18.000985790533">
        <ele>76</ele>
        <time>2018-01-03T13:07:51Z</time>
      </trkpt>
      <trkpt lat="62.636228289486" lon="18.001038093589">
        <ele>76</ele>
        <time>2018-01-03T13:07:52Z</time>
      </trkpt>
      <trkpt lat="62.636208843478" lon="18.001098191812">
        <ele>76</ele>
        <time>2018-01-03T13:07:53Z</time>
      </trkpt>
      <trkpt lat="62.636190822393" lon="18.001150075773">
        <ele>76</ele>
        <time>2018-01-03T13:07:54Z</time>
      </trkpt>
      <trkpt lat="62.636171124928" lon="18.001196679137">
        <ele>76.2</ele>
        <time>2018-01-03T13:07:55Z</time>
      </trkpt>
      <trkpt lat="62.636151511282" lon="18.001249317469">
        <ele>76.2</ele>
        <time>2018-01-03T13:07:56Z</time>
      </trkpt>
      <trkpt lat="62.636131897636" lon="18.001303967457">
        <ele>76.2</ele>
        <time>2018-01-03T13:07:57Z</time>
      </trkpt>
      <trkpt lat="62.636112619266" lon="18.001361634929">
        <ele>76.2</ele>
        <time>2018-01-03T13:07:58Z</time>
      </trkpt>
      <trkpt lat="62.636091161602" lon="18.001421565514">
        <ele>76.2</ele>
        <time>2018-01-03T13:07:59Z</time>
      </trkpt>
      <trkpt lat="62.636068781929" lon="18.001469509982">
        <ele>76</ele>
        <time>2018-01-03T13:08:00Z</time>
      </trkpt>
      <trkpt lat="62.636046569894" lon="18.001521477762">
        <ele>76</ele>
        <time>2018-01-03T13:08:01Z</time>
      </trkpt>
      <trkpt lat="62.636027040067" lon="18.00156606947">
        <ele>76</ele>
        <time>2018-01-03T13:08:02Z</time>
      </trkpt>
      <trkpt lat="62.636004073661" lon="18.00162055182">
        <ele>76</ele>
        <time>2018-01-03T13:08:03Z</time>
      </trkpt>
      <trkpt lat="62.635983370368" lon="18.001674279799">
        <ele>76</ele>
        <time>2018-01-03T13:08:04Z</time>
      </trkpt>
      <trkpt lat="62.63595721884" lon="18.001734126565">
        <ele>76.2</ele>
        <time>2018-01-03T13:08:05Z</time>
      </trkpt>
      <trkpt lat="62.635931318769" lon="18.001794476245">
        <ele>76.2</ele>
        <time>2018-01-03T13:08:06Z</time>
      </trkpt>
      <trkpt lat="62.635907681811" lon="18.001843258903">
        <ele>76.4</ele>
        <time>2018-01-03T13:08:07Z</time>
      </trkpt>
      <trkpt lat="62.635885553595" lon="18.001891454828">
        <ele>76.4</ele>
        <time>2018-01-03T13:08:08Z</time>
      </trkpt>
      <trkpt lat="62.635865939949" lon="18.001953648526">
        <ele>76.4</ele>
        <time>2018-01-03T13:08:09Z</time>
      </trkpt>
      <trkpt lat="62.635845320475" lon="18.002009136704">
        <ele>76.4</ele>
        <time>2018-01-03T13:08:10Z</time>
      </trkpt>
      <trkpt lat="62.635819001309" lon="18.002068648194">
        <ele>76.4</ele>
        <time>2018-01-03T13:08:11Z</time>
      </trkpt>
      <trkpt lat="62.635797040731" lon="18.002118101404">
        <ele>76.4</ele>
        <time>2018-01-03T13:08:12Z</time>
      </trkpt>
      <trkpt lat="62.63577449342" lon="18.002176690885">
        <ele>76.4</ele>
        <time>2018-01-03T13:08:13Z</time>
      </trkpt>
      <trkpt lat="62.635754293041" lon="18.002236453832">
        <ele>76.4</ele>
        <time>2018-01-03T13:08:14Z</time>
      </trkpt>
      <trkpt lat="62.63573006935" lon="18.00231457314">
        <ele>76.4</ele>
        <time>2018-01-03T13:08:15Z</time>
      </trkpt>
      <trkpt lat="62.635714227559" lon="18.00238581929">
        <ele>76.4</ele>
        <time>2018-01-03T13:08:16Z</time>
      </trkpt>
      <trkpt lat="62.635700900338" lon="18.002466704625">
        <ele>76.2</ele>
        <time>2018-01-03T13:08:17Z</time>
      </trkpt>
      <trkpt lat="62.635687824574" lon="18.002551277996">
        <ele>76.2</ele>
        <time>2018-01-03T13:08:18Z</time>
      </trkpt>
      <trkpt lat="62.635671731326" lon="18.002656470841">
        <ele>76.2</ele>
        <time>2018-01-03T13:08:19Z</time>
      </trkpt>
      <trkpt lat="62.635653626422" lon="18.002768620663">
        <ele>76</ele>
        <time>2018-01-03T13:08:20Z</time>
      </trkpt>
      <trkpt lat="62.635630576197" lon="18.002871298938">
        <ele>75.6</ele>
        <time>2018-01-03T13:08:21Z</time>
      </trkpt>
      <trkpt lat="62.635604927583" lon="18.002965176218">
        <ele>75</ele>
        <time>2018-01-03T13:08:22Z</time>
      </trkpt>
      <trkpt lat="62.635576010028" lon="18.003057880032">
        <ele>74.4</ele>
        <time>2018-01-03T13:08:23Z</time>
      </trkpt>
      <trkpt lat="62.635549523224" lon="18.003137843358">
        <ele>73.4</ele>
        <time>2018-01-03T13:08:24Z</time>
      </trkpt>
      <trkpt lat="62.635524628981" lon="18.00321227463">
        <ele>73.2</ele>
        <time>2018-01-03T13:08:25Z</time>
      </trkpt>
      <trkpt lat="62.635501578756" lon="18.003297267096">
        <ele>73</ele>
        <time>2018-01-03T13:08:26Z</time>
      </trkpt>
      <trkpt lat="62.635478277074" lon="18.003385696141">
        <ele>72.8</ele>
        <time>2018-01-03T13:08:27Z</time>
      </trkpt>
      <trkpt lat="62.6354576576" lon="18.003468341675">
        <ele>72.8</ele>
        <time>2018-01-03T13:08:28Z</time>
      </trkpt>
      <trkpt lat="62.635435110289" lon="18.003569762665">
        <ele>72.8</ele>
        <time>2018-01-03T13:08:29Z</time>
      </trkpt>
      <trkpt lat="62.635412814435" lon="18.003671016017">
        <ele>72.6</ele>
        <time>2018-01-03T13:08:30Z</time>
      </trkpt>
      <trkpt lat="62.635391859685" lon="18.003767826962">
        <ele>72.4</ele>
        <time>2018-01-03T13:08:31Z</time>
      </trkpt>
      <trkpt lat="62.635370318202" lon="18.003863632079">
        <ele>72.2</ele>
        <time>2018-01-03T13:08:32Z</time>
      </trkpt>
      <trkpt lat="62.635353135307" lon="18.003947953993">
        <ele>72</ele>
        <time>2018-01-03T13:08:33Z</time>
      </trkpt>
      <trkpt lat="62.635330336539" lon="18.004041747454">
        <ele>71.8</ele>
        <time>2018-01-03T13:08:34Z</time>
      </trkpt>
      <trkpt lat="62.635314075653" lon="18.004128835395">
        <ele>72</ele>
        <time>2018-01-03T13:08:35Z</time>
      </trkpt>
      <trkpt lat="62.635293539998" lon="18.004207373798">
        <ele>72</ele>
        <time>2018-01-03T13:08:36Z</time>
      </trkpt>
      <trkpt lat="62.635273171981" lon="18.004283397631">
        <ele>72</ele>
        <time>2018-01-03T13:08:37Z</time>
      </trkpt>
      <trkpt lat="62.635252803964" lon="18.004349866098">
        <ele>72.2</ele>
        <time>2018-01-03T13:08:38Z</time>
      </trkpt>
      <trkpt lat="62.63522631716" lon="18.004425470836">
        <ele>72.6</ele>
        <time>2018-01-03T13:08:39Z</time>
      </trkpt>
      <trkpt lat="62.63519865689" lon="18.004488167448">
        <ele>72.8</ele>
        <time>2018-01-03T13:08:40Z</time>
      </trkpt>
      <trkpt lat="62.635164961652" lon="18.004551366974">
        <ele>72.6</ele>
        <time>2018-01-03T13:08:41Z</time>
      </trkpt>
      <trkpt lat="62.635134870631" lon="18.004609118265">
        <ele>72.6</ele>
        <time>2018-01-03T13:08:42Z</time>
      </trkpt>
      <trkpt lat="62.635112407139" lon="18.004658236199">
        <ele>72.4</ele>
        <time>2018-01-03T13:08:43Z</time>
      </trkpt>
      <trkpt lat="62.63508633943" lon="18.004711377445">
        <ele>72.2</ele>
        <time>2018-01-03T13:08:44Z</time>
      </trkpt>
      <trkpt lat="62.635055829314" lon="18.00476879346">
        <ele>72.2</ele>
        <time>2018-01-03T13:08:45Z</time>
      </trkpt>
      <trkpt lat="62.635033784917" lon="18.004812546978">
        <ele>72.2</ele>
        <time>2018-01-03T13:08:46Z</time>
      </trkpt>
      <trkpt lat="62.635005705552" lon="18.004872058468">
        <ele>72.4</ele>
        <time>2018-01-03T13:08:47Z</time>
      </trkpt>
      <trkpt lat="62.634981314223" lon="18.004924612981">
        <ele>72.4</ele>
        <time>2018-01-03T13:08:48Z</time>
      </trkpt>
      <trkpt lat="62.634954073048" lon="18.004983537738">
        <ele>72.6</ele>
        <time>2018-01-03T13:08:49Z</time>
      </trkpt>
      <trkpt lat="62.634931609556" lon="18.005041875762">
        <ele>72.8</ele>
        <time>2018-01-03T13:08:50Z</time>
      </trkpt>
      <trkpt lat="62.634908391693" lon="18.005100632881">
        <ele>73</ele>
        <time>2018-01-03T13:08:51Z</time>
      </trkpt>
      <trkpt lat="62.634889113323" lon="18.005149247901">
        <ele>72.8</ele>
        <time>2018-01-03T13:08:52Z</time>
      </trkpt>
      <trkpt lat="62.634867990935" lon="18.005201467138">
        <ele>72.8</ele>
        <time>2018-01-03T13:08:53Z</time>
      </trkpt>
      <trkpt lat="62.634840330665" lon="18.005257877325">
        <ele>73</ele>
        <time>2018-01-03T13:08:54Z</time>
      </trkpt>
      <trkpt lat="62.634812418938" lon="18.005306743802">
        <ele>72.8</ele>
        <time>2018-01-03T13:08:55Z</time>
      </trkpt>
      <trkpt lat="62.634786518867" lon="18.005338259746">
        <ele>72.8</ele>
        <time>2018-01-03T13:08:56Z</time>
      </trkpt>
      <trkpt lat="62.634755338199" lon="18.005364830369">
        <ele>73</ele>
        <time>2018-01-03T13:08:57Z</time>
      </trkpt>
      <trkpt lat="62.634729521947" lon="18.005390478983">
        <ele>73</ele>
        <time>2018-01-03T13:08:58Z</time>
      </trkpt>
      <trkpt lat="62.634702867505" lon="18.005414786493">
        <ele>73</ele>
        <time>2018-01-03T13:08:59Z</time>
      </trkpt>
      <trkpt lat="62.634675123416" lon="18.005445799523">
        <ele>73</ele>
        <time>2018-01-03T13:09:00Z</time>
      </trkpt>
      <trkpt lat="62.634652743743" lon="18.005474297983">
        <ele>73.2</ele>
        <time>2018-01-03T13:09:01Z</time>
      </trkpt>
      <trkpt lat="62.634633549192" lon="18.005499862778">
        <ele>73</ele>
        <time>2018-01-03T13:09:02Z</time>
      </trkpt>
      <trkpt lat="62.634614857555" lon="18.005531378722">
        <ele>73.2</ele>
        <time>2018-01-03T13:09:03Z</time>
      </trkpt>
      <trkpt lat="62.634599853954" lon="18.005565576874">
        <ele>73.2</ele>
        <time>2018-01-03T13:09:04Z</time>
      </trkpt>
      <trkpt lat="62.634580743222" lon="18.005608995116">
        <ele>73.4</ele>
        <time>2018-01-03T13:09:05Z</time>
      </trkpt>
      <trkpt lat="62.634564398517" lon="18.005656855765">
        <ele>73.6</ele>
        <time>2018-01-03T13:09:06Z</time>
      </trkpt>
      <trkpt lat="62.634550819839" lon="18.005692646478">
        <ele>73.8</ele>
        <time>2018-01-03T13:09:07Z</time>
      </trkpt>
      <trkpt lat="62.634533804582" lon="18.005729862114">
        <ele>73.8</ele>
        <time>2018-01-03T13:09:08Z</time>
      </trkpt>
      <trkpt lat="62.634519387714" lon="18.005771436338">
        <ele>73.8</ele>
        <time>2018-01-03T13:09:09Z</time>
      </trkpt>
      <trkpt lat="62.63450128281" lon="18.005813094381">
        <ele>74</ele>
        <time>2018-01-03T13:09:10Z</time>
      </trkpt>
      <trkpt lat="62.634479406051" lon="18.005862966686">
        <ele>74</ele>
        <time>2018-01-03T13:09:11Z</time>
      </trkpt>
      <trkpt lat="62.634458618939" lon="18.005909905326">
        <ele>74</ele>
        <time>2018-01-03T13:09:12Z</time>
      </trkpt>
      <trkpt lat="62.634437999465" lon="18.005957011604">
        <ele>74</ele>
        <time>2018-01-03T13:09:13Z</time>
      </trkpt>
      <trkpt lat="62.634419307828" lon="18.006003363511">
        <ele>74</ele>
        <time>2018-01-03T13:09:14Z</time>
      </trkpt>
      <trkpt lat="62.634394413585" lon="18.00605709149">
        <ele>74</ele>
        <time>2018-01-03T13:09:15Z</time>
      </trkpt>
      <trkpt lat="62.63437890707" lon="18.006105538872">
        <ele>74</ele>
        <time>2018-01-03T13:09:16Z</time>
      </trkpt>
      <trkpt lat="62.634353845189" lon="18.006165385638">
        <ele>74</ele>
        <time>2018-01-03T13:09:17Z</time>
      </trkpt>
      <trkpt lat="62.634330208231" lon="18.006216599047">
        <ele>74</ele>
        <time>2018-01-03T13:09:18Z</time>
      </trkpt>
      <trkpt lat="62.63430179359" lon="18.006273847424">
        <ele>74</ele>
        <time>2018-01-03T13:09:19Z</time>
      </trkpt>
      <trkpt lat="62.6342674278" lon="18.006345680307">
        <ele>74.2</ele>
        <time>2018-01-03T13:09:21Z</time>
      </trkpt>
      <trkpt lat="62.634248652344" lon="18.006387757445">
        <ele>74.2</ele>
        <time>2018-01-03T13:09:22Z</time>
      </trkpt>
      <trkpt lat="62.634223339006" lon="18.006438887035">
        <ele>74</ele>
        <time>2018-01-03T13:09:23Z</time>
      </trkpt>
      <trkpt lat="62.634201378428" lon="18.006495967774">
        <ele>74.2</ele>
        <time>2018-01-03T13:09:24Z</time>
      </trkpt>
      <trkpt lat="62.634171706502" lon="18.006558412929">
        <ele>74.2</ele>
        <time>2018-01-03T13:09:25Z</time>
      </trkpt>
      <trkpt lat="62.63414924301" lon="18.00662370793">
        <ele>74.2</ele>
        <time>2018-01-03T13:09:26Z</time>
      </trkpt>
      <trkpt lat="62.634125438414" lon="18.006680034298">
        <ele>74.2</ele>
        <time>2018-01-03T13:09:27Z</time>
      </trkpt>
      <trkpt lat="62.634100125076" lon="18.006743652919">
        <ele>74.2</ele>
        <time>2018-01-03T13:09:28Z</time>
      </trkpt>
      <trkpt lat="62.634081852534" lon="18.006788998998">
        <ele>74.2</ele>
        <time>2018-01-03T13:09:29Z</time>
      </trkpt>
      <trkpt lat="62.634055784825" lon="18.006853120533">
        <ele>74.2</ele>
        <time>2018-01-03T13:09:30Z</time>
      </trkpt>
      <trkpt lat="62.634036590274" lon="18.006907267607">
        <ele>74.2</ele>
        <time>2018-01-03T13:09:31Z</time>
      </trkpt>
      <trkpt lat="62.634015384067" lon="18.006968120201">
        <ele>74.2</ele>
        <time>2018-01-03T13:09:32Z</time>
      </trkpt>
      <trkpt lat="62.633996105697" lon="18.007029140433">
        <ele>74.2</ele>
        <time>2018-01-03T13:09:33Z</time>
      </trkpt>
      <trkpt lat="62.633975989137" lon="18.007085131525">
        <ele>74.2</ele>
        <time>2018-01-03T13:09:34Z</time>
      </trkpt>
      <trkpt lat="62.633954363835" lon="18.00714673849">
        <ele>74.2</ele>
        <time>2018-01-03T13:09:35Z</time>
      </trkpt>
      <trkpt lat="62.633933744361" lon="18.007203819229">
        <ele>74.4</ele>
        <time>2018-01-03T13:09:36Z</time>
      </trkpt>
      <trkpt lat="62.633911113231" lon="18.007260816149">
        <ele>74.2</ele>
        <time>2018-01-03T13:09:37Z</time>
      </trkpt>
      <trkpt lat="62.633890326119" lon="18.007326278788">
        <ele>74.2</ele>
        <time>2018-01-03T13:09:38Z</time>
      </trkpt>
      <trkpt lat="62.63386593479" lon="18.007375145265">
        <ele>74.2</ele>
        <time>2018-01-03T13:09:39Z</time>
      </trkpt>
      <trkpt lat="62.633836179045" lon="18.007418479688">
        <ele>74</ele>
        <time>2018-01-03T13:09:40Z</time>
      </trkpt>
      <trkpt lat="62.633809021689" lon="18.00743759042">
        <ele>74.2</ele>
        <time>2018-01-03T13:09:41Z</time>
      </trkpt>
      <trkpt lat="62.633775745546" lon="18.007442787198">
        <ele>74</ele>
        <time>2018-01-03T13:09:42Z</time>
      </trkpt>
      <trkpt lat="62.633748001457" lon="18.007439937352">
        <ele>74</ele>
        <time>2018-01-03T13:09:43Z</time>
      </trkpt>
      <trkpt lat="62.633716317875" lon="18.007416048937">
        <ele>74</ele>
        <time>2018-01-03T13:09:44Z</time>
      </trkpt>
      <trkpt lat="62.633685640121" lon="18.007401212974">
        <ele>74</ele>
        <time>2018-01-03T13:09:45Z</time>
      </trkpt>
      <trkpt lat="62.63366309281" lon="18.007374642351">
        <ele>74</ele>
        <time>2018-01-03T13:09:46Z</time>
      </trkpt>
      <trkpt lat="62.633640880775" lon="18.007353687601">
        <ele>74</ele>
        <time>2018-01-03T13:09:47Z</time>
      </trkpt>
      <trkpt lat="62.633616908541" lon="18.007326027331">
        <ele>74</ele>
        <time>2018-01-03T13:09:48Z</time>
      </trkpt>
      <trkpt lat="62.633596624343" lon="18.007299372889">
        <ele>74.2</ele>
        <time>2018-01-03T13:09:49Z</time>
      </trkpt>
      <trkpt lat="62.633577178335" lon="18.007278585777">
        <ele>74.4</ele>
        <time>2018-01-03T13:09:50Z</time>
      </trkpt>
      <trkpt lat="62.633560330716" lon="18.007262073434">
        <ele>74.6</ele>
        <time>2018-01-03T13:09:51Z</time>
      </trkpt>
      <trkpt lat="62.633542141993" lon="18.007251260783">
        <ele>74.8</ele>
        <time>2018-01-03T13:09:52Z</time>
      </trkpt>
      <trkpt lat="62.633517918302" lon="18.007232736784">
        <ele>75</ele>
        <time>2018-01-03T13:09:53Z</time>
      </trkpt>
      <trkpt lat="62.633492772602" lon="18.007217649364">
        <ele>75.2</ele>
        <time>2018-01-03T13:09:54Z</time>
      </trkpt>
      <trkpt lat="62.633468297454" lon="18.007208345455">
        <ele>75.4</ele>
        <time>2018-01-03T13:09:55Z</time>
      </trkpt>
      <trkpt lat="62.633439966632" lon="18.007184708497">
        <ele>75.6</ele>
        <time>2018-01-03T13:09:56Z</time>
      </trkpt>
      <trkpt lat="62.633419598615" lon="18.007165430127">
        <ele>75.6</ele>
        <time>2018-01-03T13:09:57Z</time>
      </trkpt>
      <trkpt lat="62.633402667177" lon="18.007145816481">
        <ele>75.6</ele>
        <time>2018-01-03T13:09:58Z</time>
      </trkpt>
      <trkpt lat="62.633385987196" lon="18.007120335505">
        <ele>75.6</ele>
        <time>2018-01-03T13:09:59Z</time>
      </trkpt>
      <trkpt lat="62.633364613351" lon="18.007078258367">
        <ele>75.6</ele>
        <time>2018-01-03T13:10:00Z</time>
      </trkpt>
      <trkpt lat="62.633344832067" lon="18.007038025247">
        <ele>75.8</ele>
        <time>2018-01-03T13:10:01Z</time>
      </trkpt>
      <trkpt lat="62.633327313896" lon="18.006984884001">
        <ele>75.8</ele>
        <time>2018-01-03T13:10:02Z</time>
      </trkpt>
      <trkpt lat="62.633314824865" lon="18.006944986157">
        <ele>75.8</ele>
        <time>2018-01-03T13:10:03Z</time>
      </trkpt>
      <trkpt lat="62.633300324178" lon="18.006897209327">
        <ele>75.8</ele>
        <time>2018-01-03T13:10:04Z</time>
      </trkpt>
      <trkpt lat="62.633289762984" lon="18.00684331371">
        <ele>75.8</ele>
        <time>2018-01-03T13:10:05Z</time>
      </trkpt>
      <trkpt lat="62.633282638369" lon="18.006793944319">
        <ele>76</ele>
        <time>2018-01-03T13:10:06Z</time>
      </trkpt>
      <trkpt lat="62.633277860686" lon="18.006757902149">
        <ele>76</ele>
        <time>2018-01-03T13:10:07Z</time>
      </trkpt>
      <trkpt lat="62.633274507926" lon="18.00671255607">
        <ele>76</ele>
        <time>2018-01-03T13:10:08Z</time>
      </trkpt>
      <trkpt lat="62.633274591745" lon="18.006665785068">
        <ele>76.4</ele>
        <time>2018-01-03T13:10:09Z</time>
      </trkpt>
      <trkpt lat="62.633273921193" lon="18.006609961614">
        <ele>76.4</ele>
        <time>2018-01-03T13:10:10Z</time>
      </trkpt>
      <trkpt lat="62.633273166822" lon="18.0065675492">
        <ele>76.6</ele>
        <time>2018-01-03T13:10:11Z</time>
      </trkpt>
      <trkpt lat="62.633271574261" lon="18.006521616388">
        <ele>76.8</ele>
        <time>2018-01-03T13:10:12Z</time>
      </trkpt>
      <trkpt lat="62.633270736071" lon="18.006484736028">
        <ele>77</ele>
        <time>2018-01-03T13:10:13Z</time>
      </trkpt>
      <trkpt lat="62.633269227329" lon="18.006452633351">
        <ele>76.8</ele>
        <time>2018-01-03T13:10:14Z</time>
      </trkpt>
      <trkpt lat="62.633268472958" lon="18.006422290873">
        <ele>77.2</ele>
        <time>2018-01-03T13:10:15Z</time>
      </trkpt>
      <trkpt lat="62.633267718587" lon="18.006383566495">
        <ele>77.2</ele>
        <time>2018-01-03T13:10:16Z</time>
      </trkpt>
      <trkpt lat="62.63326495256" lon="18.006340902624">
        <ele>77.4</ele>
        <time>2018-01-03T13:10:17Z</time>
      </trkpt>
      <trkpt lat="62.633264449646" lon="18.006289521577">
        <ele>77.4</ele>
        <time>2018-01-03T13:10:18Z</time>
      </trkpt>
      <trkpt lat="62.633262018895" lon="18.006256077796">
        <ele>77.6</ele>
        <time>2018-01-03T13:10:19Z</time>
      </trkpt>
      <trkpt lat="62.633259001411" lon="18.006220203264">
        <ele>77.6</ele>
        <time>2018-01-03T13:10:20Z</time>
      </trkpt>
      <trkpt lat="62.633255229556" lon="18.006184831646">
        <ele>77.8</ele>
        <time>2018-01-03T13:10:21Z</time>
      </trkpt>
      <trkpt lat="62.633252714986" lon="18.00615432153">
        <ele>78</ele>
        <time>2018-01-03T13:10:22Z</time>
      </trkpt>
      <trkpt lat="62.633252295891" lon="18.006132360952">
        <ele>78</ele>
        <time>2018-01-03T13:10:23Z</time>
      </trkpt>
      <trkpt lat="62.633251122425" lon="18.006104616863">
        <ele>78</ele>
        <time>2018-01-03T13:10:24Z</time>
      </trkpt>
      <trkpt lat="62.633252631167" lon="18.006079554982">
        <ele>78.2</ele>
        <time>2018-01-03T13:10:25Z</time>
      </trkpt>
      <trkpt lat="62.633254978099" lon="18.006058935508">
        <ele>78.2</ele>
        <time>2018-01-03T13:10:26Z</time>
      </trkpt>
      <trkpt lat="62.63325154152" lon="18.006032867799">
        <ele>78.4</ele>
        <time>2018-01-03T13:10:27Z</time>
      </trkpt>
      <trkpt lat="62.63325154152" lon="18.006005375167">
        <ele>78.6</ele>
        <time>2018-01-03T13:10:28Z</time>
      </trkpt>
      <trkpt lat="62.633250200416" lon="18.005977547259">
        <ele>78.8</ele>
        <time>2018-01-03T13:10:29Z</time>
      </trkpt>
      <trkpt lat="62.6332532179" lon="18.00594645041">
        <ele>79</ele>
        <time>2018-01-03T13:10:30Z</time>
      </trkpt>
      <trkpt lat="62.633252463529" lon="18.005927088221">
        <ele>79.2</ele>
        <time>2018-01-03T13:10:31Z</time>
      </trkpt>
      <trkpt lat="62.633253469357" lon="18.00590873186">
        <ele>79.4</ele>
        <time>2018-01-03T13:10:32Z</time>
      </trkpt>
      <trkpt lat="62.633254391366" lon="18.005892638612">
        <ele>79.4</ele>
        <time>2018-01-03T13:10:33Z</time>
      </trkpt>
      <trkpt lat="62.633253972271" lon="18.005876629183">
        <ele>79.6</ele>
        <time>2018-01-03T13:10:34Z</time>
      </trkpt>
      <trkpt lat="62.633253050262" lon="18.005859111012">
        <ele>79.6</ele>
        <time>2018-01-03T13:10:35Z</time>
      </trkpt>
      <trkpt lat="62.633251373882" lon="18.005838659176">
        <ele>79.8</ele>
        <time>2018-01-03T13:10:36Z</time>
      </trkpt>
      <trkpt lat="62.633249362226" lon="18.005823404118">
        <ele>80</ele>
        <time>2018-01-03T13:10:37Z</time>
      </trkpt>
      <trkpt lat="62.633247937303" lon="18.005808316698">
        <ele>80.2</ele>
        <time>2018-01-03T13:10:38Z</time>
      </trkpt>
      <trkpt lat="62.633251290063" lon="18.005810747449">
        <ele>80.6</ele>
        <time>2018-01-03T13:10:39Z</time>
      </trkpt>
      <trkpt lat="62.633007879687" lon="18.004884128404">
        <ele>93.4</ele>
        <time>2018-01-03T13:11:43Z</time>
      </trkpt>
      <trkpt lat="62.632995809751" lon="18.004900137833">
        <ele>93.4</ele>
        <time>2018-01-03T13:11:44Z</time>
      </trkpt>
      <trkpt lat="62.632968484757" lon="18.004939700401">
        <ele>93.6</ele>
        <time>2018-01-03T13:11:45Z</time>
      </trkpt>
      <trkpt lat="62.632952810604" lon="18.004967947404">
        <ele>93.2</ele>
        <time>2018-01-03T13:11:46Z</time>
      </trkpt>
      <trkpt lat="62.632938980469" lon="18.004992254914">
        <ele>93.2</ele>
        <time>2018-01-03T13:11:47Z</time>
      </trkpt>
      <trkpt lat="62.632924395963" lon="18.005023435582">
        <ele>93.2</ele>
        <time>2018-01-03T13:11:48Z</time>
      </trkpt>
      <trkpt lat="62.63291375095" lon="18.005048581282">
        <ele>93.2</ele>
        <time>2018-01-03T13:11:49Z</time>
      </trkpt>
      <trkpt lat="62.632898328254" lon="18.005093256809">
        <ele>93.4</ele>
        <time>2018-01-03T13:11:50Z</time>
      </trkpt>
      <trkpt lat="62.632876283857" lon="18.005138519069">
        <ele>93.6</ele>
        <time>2018-01-03T13:11:51Z</time>
      </trkpt>
      <trkpt lat="62.632856502573" lon="18.005188810469">
        <ele>93.6</ele>
        <time>2018-01-03T13:11:52Z</time>
      </trkpt>
      <trkpt lat="62.632842001886" lon="18.005242706086">
        <ele>93.8</ele>
        <time>2018-01-03T13:11:53Z</time>
      </trkpt>
      <trkpt lat="62.632808558105" lon="18.005288890355">
        <ele>93.8</ele>
        <time>2018-01-03T13:11:54Z</time>
      </trkpt>
      <trkpt lat="62.632779305274" lon="18.005337170099">
        <ele>93.6</ele>
        <time>2018-01-03T13:11:55Z</time>
      </trkpt>
      <trkpt lat="62.632750722995" lon="18.00534462999">
        <ele>93.4</ele>
        <time>2018-01-03T13:11:56Z</time>
      </trkpt>
      <trkpt lat="62.632720464336" lon="18.005362651075">
        <ele>93.2</ele>
        <time>2018-01-03T13:11:57Z</time>
      </trkpt>
      <trkpt lat="62.632704622545" lon="18.005370781518">
        <ele>93.2</ele>
        <time>2018-01-03T13:11:58Z</time>
      </trkpt>
      <trkpt lat="62.632692133514" lon="18.005361309971">
        <ele>93.4</ele>
        <time>2018-01-03T13:11:59Z</time>
      </trkpt>
      <trkpt lat="62.63267235223" lon="18.00536307017">
        <ele>93.6</ele>
        <time>2018-01-03T13:12:00Z</time>
      </trkpt>
      <trkpt lat="62.632648463815" lon="18.005357789573">
        <ele>93.8</ele>
        <time>2018-01-03T13:12:01Z</time>
      </trkpt>
      <trkpt lat="62.632628598712" lon="18.005360639419">
        <ele>94.2</ele>
        <time>2018-01-03T13:12:02Z</time>
      </trkpt>
      <trkpt lat="62.632613930387" lon="18.00535971741">
        <ele>94.6</ele>
        <time>2018-01-03T13:12:03Z</time>
      </trkpt>
      <trkpt lat="62.632596747492" lon="18.005364998007">
        <ele>94.6</ele>
        <time>2018-01-03T13:12:04Z</time>
      </trkpt>
      <trkpt lat="62.632577888217" lon="18.005364327455">
        <ele>94.8</ele>
        <time>2018-01-03T13:12:05Z</time>
      </trkpt>
      <trkpt lat="62.632556179096" lon="18.005364159817">
        <ele>95</ele>
        <time>2018-01-03T13:12:06Z</time>
      </trkpt>
      <trkpt lat="62.632539750572" lon="18.005366590568">
        <ele>95.4</ele>
        <time>2018-01-03T13:12:07Z</time>
      </trkpt>
      <trkpt lat="62.632517789994" lon="18.005366171473">
        <ele>95.4</ele>
        <time>2018-01-03T13:12:08Z</time>
      </trkpt>
      <trkpt lat="62.632503373126" lon="18.005359968867">
        <ele>95.4</ele>
        <time>2018-01-03T13:12:09Z</time>
      </trkpt>
      <trkpt lat="62.632485938774" lon="18.005350078225">
        <ele>95.4</ele>
        <time>2018-01-03T13:12:10Z</time>
      </trkpt>
      <trkpt lat="62.632470013164" lon="18.005344043257">
        <ele>95.6</ele>
        <time>2018-01-03T13:12:11Z</time>
      </trkpt>
      <trkpt lat="62.632452327355" lon="18.005347898931">
        <ele>95.4</ele>
        <time>2018-01-03T13:12:12Z</time>
      </trkpt>
      <trkpt lat="62.632427014017" lon="18.005346222551">
        <ele>95.4</ele>
        <time>2018-01-03T13:12:13Z</time>
      </trkpt>
      <trkpt lat="62.632403796154" lon="18.005351251691">
        <ele>95.4</ele>
        <time>2018-01-03T13:12:14Z</time>
      </trkpt>
      <trkpt lat="62.632377057893" lon="18.005370362423">
        <ele>95.6</ele>
        <time>2018-01-03T13:12:15Z</time>
      </trkpt>
      <trkpt lat="62.63235048727" lon="18.005380001608">
        <ele>95.6</ele>
        <time>2018-01-03T13:12:16Z</time>
      </trkpt>
      <trkpt lat="62.632330789805" lon="18.005390395164">
        <ele>95.6</ele>
        <time>2018-01-03T13:12:17Z</time>
      </trkpt>
      <trkpt lat="62.632316205299" lon="18.005400034349">
        <ele>95.6</ele>
        <time>2018-01-03T13:12:18Z</time>
      </trkpt>
      <trkpt lat="62.632290472866" lon="18.005408751525">
        <ele>95.8</ele>
        <time>2018-01-03T13:12:19Z</time>
      </trkpt>
      <trkpt lat="62.632266500632" lon="18.005415205588">
        <ele>95.8</ele>
        <time>2018-01-03T13:12:20Z</time>
      </trkpt>
      <trkpt lat="62.632248060452" lon="18.005431382655">
        <ele>95.8</ele>
        <time>2018-01-03T13:12:21Z</time>
      </trkpt>
      <trkpt lat="62.632221825105" lon="18.005438842546">
        <ele>95.8</ele>
        <time>2018-01-03T13:12:22Z</time>
      </trkpt>
      <trkpt lat="62.632203971658" lon="18.005446972989">
        <ele>96</ele>
        <time>2018-01-03T13:12:23Z</time>
      </trkpt>
      <trkpt lat="62.632175221741" lon="18.005459210563">
        <ele>96</ele>
        <time>2018-01-03T13:12:24Z</time>
      </trkpt>
      <trkpt lat="62.63215937995" lon="18.005471029042">
        <ele>96</ele>
        <time>2018-01-03T13:12:25Z</time>
      </trkpt>
      <trkpt lat="62.632128199282" lon="18.005485529729">
        <ele>96</ele>
        <time>2018-01-03T13:12:26Z</time>
      </trkpt>
      <trkpt lat="62.632102550668" lon="18.005492319068">
        <ele>96.2</ele>
        <time>2018-01-03T13:12:27Z</time>
      </trkpt>
      <trkpt lat="62.632083607574" lon="18.005502964081">
        <ele>96.4</ele>
        <time>2018-01-03T13:12:28Z</time>
      </trkpt>
      <trkpt lat="62.632054270924" lon="18.005508496135">
        <ele>96.4</ele>
        <time>2018-01-03T13:12:29Z</time>
      </trkpt>
      <trkpt lat="62.632025437188" lon="18.005518638234">
        <ele>96.4</ele>
        <time>2018-01-03T13:12:30Z</time>
      </trkpt>
      <trkpt lat="62.632004650076" lon="18.005539173889">
        <ele>96.6</ele>
        <time>2018-01-03T13:12:31Z</time>
      </trkpt>
      <trkpt lat="62.631975564883" lon="18.005539173889">
        <ele>96.6</ele>
        <time>2018-01-03T13:12:32Z</time>
      </trkpt>
      <trkpt lat="62.631946563509" lon="18.005542945744">
        <ele>96.6</ele>
        <time>2018-01-03T13:12:33Z</time>
      </trkpt>
      <trkpt lat="62.631929883528" lon="18.00555250111">
        <ele>96.6</ele>
        <time>2018-01-03T13:12:34Z</time>
      </trkpt>
      <trkpt lat="62.631901385068" lon="18.005554764223">
        <ele>96.6</ele>
        <time>2018-01-03T13:12:35Z</time>
      </trkpt>
      <trkpt lat="62.631869701486" lon="18.005552668748">
        <ele>96.6</ele>
        <time>2018-01-03T13:12:36Z</time>
      </trkpt>
      <trkpt lat="62.631846651261" lon="18.005541185545">
        <ele>96.6</ele>
        <time>2018-01-03T13:12:37Z</time>
      </trkpt>
      <trkpt lat="62.631820667371" lon="18.005530372894">
        <ele>96.8</ele>
        <time>2018-01-03T13:12:38Z</time>
      </trkpt>
      <trkpt lat="62.631801556639" lon="18.005519392605">
        <ele>97</ele>
        <time>2018-01-03T13:12:39Z</time>
      </trkpt>
      <trkpt lat="62.631778506414" lon="18.005492738163">
        <ele>97</ele>
        <time>2018-01-03T13:12:40Z</time>
      </trkpt>
      <trkpt lat="62.631759060406" lon="18.005465413169">
        <ele>97</ele>
        <time>2018-01-03T13:12:41Z</time>
      </trkpt>
      <trkpt lat="62.631741458416" lon="18.005428951904">
        <ele>97.2</ele>
        <time>2018-01-03T13:12:42Z</time>
      </trkpt>
      <trkpt lat="62.63172268296" lon="18.00538486311">
        <ele>97.2</ele>
        <time>2018-01-03T13:12:43Z</time>
      </trkpt>
      <trkpt lat="62.631704494237" lon="18.005356280831">
        <ele>97.2</ele>
        <time>2018-01-03T13:12:44Z</time>
      </trkpt>
      <trkpt lat="62.631688652446" lon="18.005308084906">
        <ele>97.4</ele>
        <time>2018-01-03T13:12:45Z</time>
      </trkpt>
      <trkpt lat="62.631669122619" lon="18.005265923949">
        <ele>97.6</ele>
        <time>2018-01-03T13:12:46Z</time>
      </trkpt>
      <trkpt lat="62.631656633588" lon="18.005228708313">
        <ele>97.6</ele>
        <time>2018-01-03T13:12:47Z</time>
      </trkpt>
      <trkpt lat="62.631635092105" lon="18.005173555411">
        <ele>97.6</ele>
        <time>2018-01-03T13:12:48Z</time>
      </trkpt>
      <trkpt lat="62.631617993029" lon="18.005131981187">
        <ele>97.6</ele>
        <time>2018-01-03T13:12:49Z</time>
      </trkpt>
      <trkpt lat="62.631598295564" lon="18.005079845769">
        <ele>97.6</ele>
        <time>2018-01-03T13:12:50Z</time>
      </trkpt>
      <trkpt lat="62.631580525936" lon="18.005040869934">
        <ele>97.8</ele>
        <time>2018-01-03T13:12:51Z</time>
      </trkpt>
      <trkpt lat="62.631560241738" lon="18.00501186856">
        <ele>97.6</ele>
        <time>2018-01-03T13:12:52Z</time>
      </trkpt>
      <trkpt lat="62.631543477938" lon="18.004987058136">
        <ele>97.8</ele>
        <time>2018-01-03T13:12:53Z</time>
      </trkpt>
      <trkpt lat="62.631523445197" lon="18.004952943803">
        <ele>97.8</ele>
        <time>2018-01-03T13:12:54Z</time>
      </trkpt>
      <trkpt lat="62.631502741904" lon="18.004932491967">
        <ele>98</ele>
        <time>2018-01-03T13:12:55Z</time>
      </trkpt>
      <trkpt lat="62.631482373887" lon="18.004890833924">
        <ele>98.2</ele>
        <time>2018-01-03T13:12:56Z</time>
      </trkpt>
      <trkpt lat="62.631456222359" lon="18.004872896658">
        <ele>98.2</ele>
        <time>2018-01-03T13:12:57Z</time>
      </trkpt>
      <trkpt lat="62.631439039464" lon="18.004841967447">
        <ele>98.4</ele>
        <time>2018-01-03T13:12:58Z</time>
      </trkpt>
      <trkpt lat="62.631422862397" lon="18.004813133711">
        <ele>98.6</ele>
        <time>2018-01-03T13:12:59Z</time>
      </trkpt>
      <trkpt lat="62.631402242923" lon="18.004777594455">
        <ele>98.8</ele>
        <time>2018-01-03T13:13:00Z</time>
      </trkpt>
      <trkpt lat="62.631380198526" lon="18.004745910873">
        <ele>98.8</ele>
        <time>2018-01-03T13:13:01Z</time>
      </trkpt>
      <trkpt lat="62.631355639559" lon="18.004726716322">
        <ele>99</ele>
        <time>2018-01-03T13:13:02Z</time>
      </trkpt>
      <trkpt lat="62.631330326221" lon="18.004743563941">
        <ele>99.2</ele>
        <time>2018-01-03T13:13:03Z</time>
      </trkpt>
      <trkpt lat="62.631310628756" lon="18.004728057426">
        <ele>99.2</ele>
        <time>2018-01-03T13:13:04Z</time>
      </trkpt>
      <trkpt lat="62.631290596015" lon="18.004717244775">
        <ele>99.4</ele>
        <time>2018-01-03T13:13:05Z</time>
      </trkpt>
      <trkpt lat="62.63127173674" lon="18.004691847618">
        <ele>99.6</ele>
        <time>2018-01-03T13:13:06Z</time>
      </trkpt>
      <trkpt lat="62.631257236053" lon="18.004682376071">
        <ele>99.6</ele>
        <time>2018-01-03T13:13:07Z</time>
      </trkpt>
      <trkpt lat="62.63123653276" lon="18.004672150153">
        <ele>99.6</ele>
        <time>2018-01-03T13:13:08Z</time>
      </trkpt>
      <trkpt lat="62.631202502246" lon="18.004652704145">
        <ele>99.6</ele>
        <time>2018-01-03T13:13:09Z</time>
      </trkpt>
      <trkpt lat="62.631177691822" lon="18.004627726083">
        <ele>99.8</ele>
        <time>2018-01-03T13:13:10Z</time>
      </trkpt>
      <trkpt lat="62.631151540294" lon="18.004614147405">
        <ele>99.8</ele>
        <time>2018-01-03T13:13:11Z</time>
      </trkpt>
      <trkpt lat="62.631132848657" lon="18.004590426628">
        <ele>99.8</ele>
        <time>2018-01-03T13:13:12Z</time>
      </trkpt>
      <trkpt lat="62.631109714613" lon="18.004562431082">
        <ele>100</ele>
        <time>2018-01-03T13:13:13Z</time>
      </trkpt>
      <trkpt lat="62.631088424587" lon="18.004544242359">
        <ele>100</ele>
        <time>2018-01-03T13:13:14Z</time>
      </trkpt>
      <trkpt lat="62.631065542" lon="18.004523706704">
        <ele>100.2</ele>
        <time>2018-01-03T13:13:15Z</time>
      </trkpt>
      <trkpt lat="62.631045928354" lon="18.0045056018">
        <ele>100.2</ele>
        <time>2018-01-03T13:13:16Z</time>
      </trkpt>
      <trkpt lat="62.63100183956" lon="18.004446006491">
        <ele>100.6</ele>
        <time>2018-01-03T13:13:18Z</time>
      </trkpt>
      <trkpt lat="62.630977280593" lon="18.004411473063">
        <ele>100.8</ele>
        <time>2018-01-03T13:13:19Z</time>
      </trkpt>
      <trkpt lat="62.630955906748" lon="18.004391775598">
        <ele>101</ele>
        <time>2018-01-03T13:13:20Z</time>
      </trkpt>
      <trkpt lat="62.630936376921" lon="18.004338466714">
        <ele>101.2</ele>
        <time>2018-01-03T13:13:21Z</time>
      </trkpt>
      <trkpt lat="62.630914919257" lon="18.004318266335">
        <ele>101.2</ele>
        <time>2018-01-03T13:13:22Z</time>
      </trkpt>
      <trkpt lat="62.630903436054" lon="18.004275015731">
        <ele>101.4</ele>
        <time>2018-01-03T13:13:23Z</time>
      </trkpt>
      <trkpt lat="62.630887594263" lon="18.004226819806">
        <ele>101.4</ele>
        <time>2018-01-03T13:13:24Z</time>
      </trkpt>
      <trkpt lat="62.630876194879" lon="18.00419463331">
        <ele>101.6</ele>
        <time>2018-01-03T13:13:25Z</time>
      </trkpt>
      <trkpt lat="62.63086689097" lon="18.00416110571">
        <ele>101.6</ele>
        <time>2018-01-03T13:13:26Z</time>
      </trkpt>
      <trkpt lat="62.630855575405" lon="18.004123051884">
        <ele>102</ele>
        <time>2018-01-03T13:13:27Z</time>
      </trkpt>
      <trkpt lat="62.630844595116" lon="18.004087847904">
        <ele>102.2</ele>
        <time>2018-01-03T13:13:28Z</time>
      </trkpt>
      <trkpt lat="62.630838057234" lon="18.004065384412">
        <ele>102.4</ele>
        <time>2018-01-03T13:13:29Z</time>
      </trkpt>
      <trkpt lat="62.630827663678" lon="18.004024648378">
        <ele>102.6</ele>
        <time>2018-01-03T13:13:30Z</time>
      </trkpt>
      <trkpt lat="62.630821209615" lon="18.003987851837">
        <ele>102.6</ele>
        <time>2018-01-03T13:13:31Z</time>
      </trkpt>
      <trkpt lat="62.630819784692" lon="18.003947199622">
        <ele>102.6</ele>
        <time>2018-01-03T13:13:32Z</time>
      </trkpt>
      <trkpt lat="62.63081157043" lon="18.003894142195">
        <ele>102.8</ele>
        <time>2018-01-03T13:13:33Z</time>
      </trkpt>
      <trkpt lat="62.630806122195" lon="18.003845275718">
        <ele>102.8</ele>
        <time>2018-01-03T13:13:34Z</time>
      </trkpt>
      <trkpt lat="62.630807798575" lon="18.003785680409">
        <ele>103</ele>
        <time>2018-01-03T13:13:35Z</time>
      </trkpt>
      <trkpt lat="62.63080905586" lon="18.003721642693">
        <ele>103</ele>
        <time>2018-01-03T13:13:36Z</time>
      </trkpt>
      <trkpt lat="62.630812157163" lon="18.003670345465">
        <ele>103.2</ele>
        <time>2018-01-03T13:13:37Z</time>
      </trkpt>
      <trkpt lat="62.63081743776" lon="18.003613348545">
        <ele>103.4</ele>
        <time>2018-01-03T13:13:38Z</time>
      </trkpt>
      <trkpt lat="62.63081659957" lon="18.003573031606">
        <ele>103.4</ele>
        <time>2018-01-03T13:13:39Z</time>
      </trkpt>
      <trkpt lat="62.630827831316" lon="18.003527517889">
        <ele>103.6</ele>
        <time>2018-01-03T13:13:40Z</time>
      </trkpt>
      <trkpt lat="62.630832944275" lon="18.003478399955">
        <ele>103.6</ele>
        <time>2018-01-03T13:13:41Z</time>
      </trkpt>
      <trkpt lat="62.63083420156" lon="18.003429784935">
        <ele>104</ele>
        <time>2018-01-03T13:13:42Z</time>
      </trkpt>
      <trkpt lat="62.630841829089" lon="18.003382259562">
        <ele>104</ele>
        <time>2018-01-03T13:13:43Z</time>
      </trkpt>
      <trkpt lat="62.630839565976" lon="18.003331800524">
        <ele>104.2</ele>
        <time>2018-01-03T13:13:44Z</time>
      </trkpt>
      <trkpt lat="62.630848702247" lon="18.003278659278">
        <ele>104.4</ele>
        <time>2018-01-03T13:13:45Z</time>
      </trkpt>
      <trkpt lat="62.630853815206" lon="18.003221746177">
        <ele>104.4</ele>
        <time>2018-01-03T13:13:46Z</time>
      </trkpt>
      <trkpt lat="62.630853228473" lon="18.00317874703">
        <ele>104.6</ele>
        <time>2018-01-03T13:13:47Z</time>
      </trkpt>
      <trkpt lat="62.630855491586" lon="18.003116469513">
        <ele>104.6</ele>
        <time>2018-01-03T13:13:48Z</time>
      </trkpt>
      <trkpt lat="62.630851887369" lon="18.003061819525">
        <ele>104.8</ele>
        <time>2018-01-03T13:13:49Z</time>
      </trkpt>
      <trkpt lat="62.630849121342" lon="18.003011025211">
        <ele>104.8</ele>
        <time>2018-01-03T13:13:50Z</time>
      </trkpt>
      <trkpt lat="62.630847947876" lon="18.002951932816">
        <ele>105</ele>
        <time>2018-01-03T13:13:51Z</time>
      </trkpt>
      <trkpt lat="62.630842080546" lon="18.002911615877">
        <ele>105.2</ele>
        <time>2018-01-03T13:13:52Z</time>
      </trkpt>
      <trkpt lat="62.630839985071" lon="18.002857049708">
        <ele>105.2</ele>
        <time>2018-01-03T13:13:53Z</time>
      </trkpt>
      <trkpt lat="62.630832692818" lon="18.002813212371">
        <ele>105.4</ele>
        <time>2018-01-03T13:13:54Z</time>
      </trkpt>
      <trkpt lat="62.630830262067" lon="18.002751940682">
        <ele>105.4</ele>
        <time>2018-01-03T13:13:55Z</time>
      </trkpt>
      <trkpt lat="62.630821712529" lon="18.002696703961">
        <ele>105.4</ele>
        <time>2018-01-03T13:13:56Z</time>
      </trkpt>
      <trkpt lat="62.630824646194" lon="18.00264649638">
        <ele>105.6</ele>
        <time>2018-01-03T13:13:57Z</time>
      </trkpt>
      <trkpt lat="62.630822131624" lon="18.002582458664">
        <ele>105.8</ele>
        <time>2018-01-03T13:13:58Z</time>
      </trkpt>
      <trkpt lat="62.630818192131" lon="18.002539794793">
        <ele>106</ele>
        <time>2018-01-03T13:13:59Z</time>
      </trkpt>
      <trkpt lat="62.630812660077" lon="18.002469554471">
        <ele>106</ele>
        <time>2018-01-03T13:14:00Z</time>
      </trkpt>
      <trkpt lat="62.630800087227" lon="18.002415491216">
        <ele>106.2</ele>
        <time>2018-01-03T13:14:01Z</time>
      </trkpt>
      <trkpt lat="62.630800841598" lon="18.00235648264">
        <ele>106.4</ele>
        <time>2018-01-03T13:14:02Z</time>
      </trkpt>
      <trkpt lat="62.630797488838" lon="18.002296049141">
        <ele>106.4</ele>
        <time>2018-01-03T13:14:03Z</time>
      </trkpt>
      <trkpt lat="62.630786592368" lon="18.002253133813">
        <ele>106.6</ele>
        <time>2018-01-03T13:14:04Z</time>
      </trkpt>
      <trkpt lat="62.630783993979" lon="18.002199154377">
        <ele>106.8</ele>
        <time>2018-01-03T13:14:05Z</time>
      </trkpt>
      <trkpt lat="62.630783155789" lon="18.002133440281">
        <ele>106.8</ele>
        <time>2018-01-03T13:14:06Z</time>
      </trkpt>
      <trkpt lat="62.630779048658" lon="18.002076024266">
        <ele>107</ele>
        <time>2018-01-03T13:14:07Z</time>
      </trkpt>
      <trkpt lat="62.630779803029" lon="18.002009304342">
        <ele>107.2</ele>
        <time>2018-01-03T13:14:08Z</time>
      </trkpt>
      <trkpt lat="62.63077385188" lon="18.00195498963">
        <ele>107.2</ele>
        <time>2018-01-03T13:14:09Z</time>
      </trkpt>
      <trkpt lat="62.630765637618" lon="18.001876367408">
        <ele>107.4</ele>
        <time>2018-01-03T13:14:10Z</time>
      </trkpt>
      <trkpt lat="62.630761781944" lon="18.001826159827">
        <ele>107.4</ele>
        <time>2018-01-03T13:14:11Z</time>
      </trkpt>
      <trkpt lat="62.630751136931" lon="18.001772096572">
        <ele>107.4</ele>
        <time>2018-01-03T13:14:12Z</time>
      </trkpt>
      <trkpt lat="62.630750969293" lon="18.001719877335">
        <ele>107.4</ele>
        <time>2018-01-03T13:14:13Z</time>
      </trkpt>
      <trkpt lat="62.630744766687" lon="18.001659360017">
        <ele>107.6</ele>
        <time>2018-01-03T13:14:14Z</time>
      </trkpt>
      <trkpt lat="62.630745269601" lon="18.001605212943">
        <ele>107.6</ele>
        <time>2018-01-03T13:14:15Z</time>
      </trkpt>
      <trkpt lat="62.630742503574" lon="18.001544025073">
        <ele>107.6</ele>
        <time>2018-01-03T13:14:16Z</time>
      </trkpt>
      <trkpt lat="62.630741665384" lon="18.001485770868">
        <ele>107.6</ele>
        <time>2018-01-03T13:14:17Z</time>
      </trkpt>
      <trkpt lat="62.630742168298" lon="18.001435730925">
        <ele>107.6</ele>
        <time>2018-01-03T13:14:18Z</time>
      </trkpt>
      <trkpt lat="62.630736384787" lon="18.001387199724">
        <ele>107.6</ele>
        <time>2018-01-03T13:14:19Z</time>
      </trkpt>
      <trkpt lat="62.630726410326" lon="18.001323245827">
        <ele>107.6</ele>
        <time>2018-01-03T13:14:20Z</time>
      </trkpt>
      <trkpt lat="62.630717776969" lon="18.001282258336">
        <ele>107.8</ele>
        <time>2018-01-03T13:14:21Z</time>
      </trkpt>
      <trkpt lat="62.630706712861" lon="18.001227105434">
        <ele>108</ele>
        <time>2018-01-03T13:14:22Z</time>
      </trkpt>
      <trkpt lat="62.630699588246" lon="18.001185112115">
        <ele>108</ele>
        <time>2018-01-03T13:14:23Z</time>
      </trkpt>
      <trkpt lat="62.630696403124" lon="18.001141190959">
        <ele>108</ele>
        <time>2018-01-03T13:14:24Z</time>
      </trkpt>
      <trkpt lat="62.630688440319" lon="18.001082350021">
        <ele>108.2</ele>
        <time>2018-01-03T13:14:25Z</time>
      </trkpt>
      <trkpt lat="62.63068165098" lon="18.00102962787">
        <ele>108.4</ele>
        <time>2018-01-03T13:14:26Z</time>
      </trkpt>
      <trkpt lat="62.630673352899" lon="18.000978917375">
        <ele>108.2</ele>
        <time>2018-01-03T13:14:27Z</time>
      </trkpt>
      <trkpt lat="62.63065818166" lon="18.000931308183">
        <ele>108.4</ele>
        <time>2018-01-03T13:14:28Z</time>
      </trkpt>
      <trkpt lat="62.630655164176" lon="18.000886465018">
        <ele>108.6</ele>
        <time>2018-01-03T13:14:29Z</time>
      </trkpt>
      <trkpt lat="62.630647369009" lon="18.000822678759">
        <ele>108.6</ele>
        <time>2018-01-03T13:14:30Z</time>
      </trkpt>
      <trkpt lat="62.630637813643" lon="18.000785463123">
        <ele>108.6</ele>
        <time>2018-01-03T13:14:31Z</time>
      </trkpt>
      <trkpt lat="62.630624486422" lon="18.000726119271">
        <ele>108.8</ele>
        <time>2018-01-03T13:14:32Z</time>
      </trkpt>
      <trkpt lat="62.630616607436" lon="18.000684377409">
        <ele>108.8</ele>
        <time>2018-01-03T13:14:33Z</time>
      </trkpt>
      <trkpt lat="62.630608812269" lon="18.000634086009">
        <ele>108.8</ele>
        <time>2018-01-03T13:14:34Z</time>
      </trkpt>
      <trkpt lat="62.630593892487" lon="18.000581280039">
        <ele>109</ele>
        <time>2018-01-03T13:14:35Z</time>
      </trkpt>
      <trkpt lat="62.630583750388" lon="18.000535850141">
        <ele>109</ele>
        <time>2018-01-03T13:14:36Z</time>
      </trkpt>
      <trkpt lat="62.630575871402" lon="18.000475332823">
        <ele>109.2</ele>
        <time>2018-01-03T13:14:37Z</time>
      </trkpt>
      <trkpt lat="62.630558185593" lon="18.000442978689">
        <ele>109.2</ele>
        <time>2018-01-03T13:14:38Z</time>
      </trkpt>
      <trkpt lat="62.630547792037" lon="18.000387155235">
        <ele>109.2</ele>
        <time>2018-01-03T13:14:39Z</time>
      </trkpt>
      <trkpt lat="62.630535386825" lon="18.000336696197">
        <ele>109.4</ele>
        <time>2018-01-03T13:14:40Z</time>
      </trkpt>
      <trkpt lat="62.63052658583" lon="18.00027609506">
        <ele>109.4</ele>
        <time>2018-01-03T13:14:41Z</time>
      </trkpt>
      <trkpt lat="62.630509319116" lon="18.000213733724">
        <ele>109.4</ele>
        <time>2018-01-03T13:14:42Z</time>
      </trkpt>
      <trkpt lat="62.630503367967" lon="18.000167717093">
        <ele>109.8</ele>
        <time>2018-01-03T13:14:43Z</time>
      </trkpt>
      <trkpt lat="62.630491465669" lon="18.000121197548">
        <ele>109.8</ele>
        <time>2018-01-03T13:14:44Z</time>
      </trkpt>
      <trkpt lat="62.63048467633" lon="18.000062524248">
        <ele>109.8</ele>
        <time>2018-01-03T13:14:45Z</time>
      </trkpt>
      <trkpt lat="62.630471935842" lon="18.000005694966">
        <ele>109.8</ele>
        <time>2018-01-03T13:14:46Z</time>
      </trkpt>
      <trkpt lat="62.630460955553" lon="17.999969485158">
        <ele>110</ele>
        <time>2018-01-03T13:14:47Z</time>
      </trkpt>
      <trkpt lat="62.630449639988" lon="17.999912404419">
        <ele>110</ele>
        <time>2018-01-03T13:14:48Z</time>
      </trkpt>
      <trkpt lat="62.630435977491" lon="17.999862448295">
        <ele>110</ele>
        <time>2018-01-03T13:14:49Z</time>
      </trkpt>
      <trkpt lat="62.630429271971" lon="17.99981006142">
        <ele>110.2</ele>
        <time>2018-01-03T13:14:50Z</time>
      </trkpt>
      <trkpt lat="62.630417118216" lon="17.999762955142">
        <ele>110.4</ele>
        <time>2018-01-03T13:14:51Z</time>
      </trkpt>
      <trkpt lat="62.630402617529" lon="17.999712412285">
        <ele>110.4</ele>
        <time>2018-01-03T13:14:52Z</time>
      </trkpt>
      <trkpt lat="62.630391469602" lon="17.999674023183">
        <ele>110.8</ele>
        <time>2018-01-03T13:14:53Z</time>
      </trkpt>
      <trkpt lat="62.630376214544" lon="17.999624486154">
        <ele>110.8</ele>
        <time>2018-01-03T13:14:54Z</time>
      </trkpt>
      <trkpt lat="62.630362468228" lon="17.999581067912">
        <ele>111</ele>
        <time>2018-01-03T13:14:55Z</time>
      </trkpt>
      <trkpt lat="62.630348805731" lon="17.99952004768">
        <ele>111.2</ele>
        <time>2018-01-03T13:14:56Z</time>
      </trkpt>
      <trkpt lat="62.630333299216" lon="17.999475372153">
        <ele>111.2</ele>
        <time>2018-01-03T13:14:57Z</time>
      </trkpt>
      <trkpt lat="62.630317960339" lon="17.999416028301">
        <ele>111.4</ele>
        <time>2018-01-03T13:14:58Z</time>
      </trkpt>
      <trkpt lat="62.630303878747" lon="17.999373029154">
        <ele>111.4</ele>
        <time>2018-01-03T13:14:59Z</time>
      </trkpt>
      <trkpt lat="62.630291222078" lon="17.999314942587">
        <ele>111.4</ele>
        <time>2018-01-03T13:15:00Z</time>
      </trkpt>
      <trkpt lat="62.630285438567" lon="17.999246211007">
        <ele>111.4</ele>
        <time>2018-01-03T13:15:01Z</time>
      </trkpt>
      <trkpt lat="62.630273703907" lon="17.999187621526">
        <ele>111.4</ele>
        <time>2018-01-03T13:15:02Z</time>
      </trkpt>
      <trkpt lat="62.630266244016" lon="17.999129283502">
        <ele>111.6</ele>
        <time>2018-01-03T13:15:03Z</time>
      </trkpt>
      <trkpt lat="62.630261550152" lon="17.999060049008">
        <ele>111.6</ele>
        <time>2018-01-03T13:15:04Z</time>
      </trkpt>
      <trkpt lat="62.630251910967" lon="17.999022330458">
        <ele>111.6</ele>
        <time>2018-01-03T13:15:05Z</time>
      </trkpt>
      <trkpt lat="62.630248222931" lon="17.99894588753">
        <ele>111.8</ele>
        <time>2018-01-03T13:15:06Z</time>
      </trkpt>
      <trkpt lat="62.63023824847" lon="17.998887717144">
        <ele>112</ele>
        <time>2018-01-03T13:15:07Z</time>
      </trkpt>
      <trkpt lat="62.63023908666" lon="17.998818901745">
        <ele>112.2</ele>
        <time>2018-01-03T13:15:08Z</time>
      </trkpt>
      <trkpt lat="62.630224334516" lon="17.998770622001">
        <ele>112.2</ele>
        <time>2018-01-03T13:15:09Z</time>
      </trkpt>
      <trkpt lat="62.630222239041" lon="17.998690910132">
        <ele>112.2</ele>
        <time>2018-01-03T13:15:10Z</time>
      </trkpt>
      <trkpt lat="62.6302189701" lon="17.99864330094">
        <ele>112.2</ele>
        <time>2018-01-03T13:15:11Z</time>
      </trkpt>
      <trkpt lat="62.630223077231" lon="17.998575910464">
        <ele>112.2</ele>
        <time>2018-01-03T13:15:12Z</time>
      </trkpt>
      <trkpt lat="62.63021394096" lon="17.998508687626">
        <ele>112.2</ele>
        <time>2018-01-03T13:15:13Z</time>
      </trkpt>
      <trkpt lat="62.630215114426" lon="17.998464012099">
        <ele>112.4</ele>
        <time>2018-01-03T13:15:14Z</time>
      </trkpt>
      <trkpt lat="62.630212013123" lon="17.998391760121">
        <ele>112.4</ele>
        <time>2018-01-03T13:15:15Z</time>
      </trkpt>
      <trkpt lat="62.630212348399" lon="17.998335517572">
        <ele>112.6</ele>
        <time>2018-01-03T13:15:16Z</time>
      </trkpt>
      <trkpt lat="62.630214527693" lon="17.998272737141">
        <ele>112.4</ele>
        <time>2018-01-03T13:15:17Z</time>
      </trkpt>
      <trkpt lat="62.630219556833" lon="17.998214063841">
        <ele>112.6</ele>
        <time>2018-01-03T13:15:18Z</time>
      </trkpt>
      <trkpt lat="62.630227268181" lon="17.998135273981">
        <ele>112.6</ele>
        <time>2018-01-03T13:15:19Z</time>
      </trkpt>
      <trkpt lat="62.630237745556" lon="17.998061345623">
        <ele>112.6</ele>
        <time>2018-01-03T13:15:20Z</time>
      </trkpt>
      <trkpt lat="62.630250318406" lon="17.99801465844">
        <ele>112.4</ele>
        <time>2018-01-03T13:15:21Z</time>
      </trkpt>
      <trkpt lat="62.63025752684" lon="17.997951961828">
        <ele>112.4</ele>
        <time>2018-01-03T13:15:22Z</time>
      </trkpt>
      <trkpt lat="62.630266411654" lon="17.997900580781">
        <ele>112.6</ele>
        <time>2018-01-03T13:15:23Z</time>
      </trkpt>
      <trkpt lat="62.630279235961" lon="17.997845008784">
        <ele>112.6</ele>
        <time>2018-01-03T13:15:24Z</time>
      </trkpt>
      <trkpt lat="62.630292898458" lon="17.997773678815">
        <ele>112.8</ele>
        <time>2018-01-03T13:15:25Z</time>
      </trkpt>
      <trkpt lat="62.630294993933" lon="17.99771039547">
        <ele>112.8</ele>
        <time>2018-01-03T13:15:26Z</time>
      </trkpt>
      <trkpt lat="62.630308404973" lon="17.997643256451">
        <ele>113.2</ele>
        <time>2018-01-03T13:15:27Z</time>
      </trkpt>
      <trkpt lat="62.630308404973" lon="17.997573602862">
        <ele>113.2</ele>
        <time>2018-01-03T13:15:28Z</time>
      </trkpt>
      <trkpt lat="62.630319888176" lon="17.997513253182">
        <ele>113.2</ele>
        <time>2018-01-03T13:15:29Z</time>
      </trkpt>
      <trkpt lat="62.63033715489" lon="17.99743714553">
        <ele>113.2</ele>
        <time>2018-01-03T13:15:30Z</time>
      </trkpt>
      <trkpt lat="62.630351152663" lon="17.99737176671">
        <ele>113.2</ele>
        <time>2018-01-03T13:15:31Z</time>
      </trkpt>
      <trkpt lat="62.630371101585" lon="17.997302616035">
        <ele>113</ele>
        <time>2018-01-03T13:15:32Z</time>
      </trkpt>
      <trkpt lat="62.630379232028" lon="17.997234806464">
        <ele>113</ele>
        <time>2018-01-03T13:15:33Z</time>
      </trkpt>
      <trkpt lat="62.630392391611" lon="17.997182587227">
        <ele>113</ele>
        <time>2018-01-03T13:15:34Z</time>
      </trkpt>
      <trkpt lat="62.630412424352" lon="17.997118381873">
        <ele>113.2</ele>
        <time>2018-01-03T13:15:35Z</time>
      </trkpt>
      <trkpt lat="62.63042348846" lon="17.997054344157">
        <ele>113.2</ele>
        <time>2018-01-03T13:15:36Z</time>
      </trkpt>
      <trkpt lat="62.630444107934" lon="17.996996592866">
        <ele>113.2</ele>
        <time>2018-01-03T13:15:37Z</time>
      </trkpt>
      <trkpt lat="62.630461290829" lon="17.996939763584">
        <ele>113.2</ele>
        <time>2018-01-03T13:15:38Z</time>
      </trkpt>
      <trkpt lat="62.630478138448" lon="17.996897015894">
        <ele>113.2</ele>
        <time>2018-01-03T13:15:39Z</time>
      </trkpt>
      <trkpt lat="62.630500350483" lon="17.996832223807">
        <ele>113.4</ele>
        <time>2018-01-03T13:15:40Z</time>
      </trkpt>
      <trkpt lat="62.630522478699" lon="17.996779920751">
        <ele>113.4</ele>
        <time>2018-01-03T13:15:41Z</time>
      </trkpt>
      <trkpt lat="62.630536811748" lon="17.99671965489">
        <ele>113.4</ele>
        <time>2018-01-03T13:15:42Z</time>
      </trkpt>
      <trkpt lat="62.630560448706" lon="17.996650504215">
        <ele>113.4</ele>
        <time>2018-01-03T13:15:43Z</time>
      </trkpt>
      <trkpt lat="62.630573859746" lon="17.9965847063">
        <ele>113.6</ele>
        <time>2018-01-03T13:15:44Z</time>
      </trkpt>
      <trkpt lat="62.630591042641" lon="17.996526033">
        <ele>113.4</ele>
        <time>2018-01-03T13:15:45Z</time>
      </trkpt>
      <trkpt lat="62.630609734278" lon="17.996460989456">
        <ele>113.2</ele>
        <time>2018-01-03T13:15:46Z</time>
      </trkpt>
      <trkpt lat="62.630615685427" lon="17.996407345296">
        <ele>113.2</ele>
        <time>2018-01-03T13:15:47Z</time>
      </trkpt>
      <trkpt lat="62.630626917173" lon="17.996357472991">
        <ele>113.4</ele>
        <time>2018-01-03T13:15:48Z</time>
      </trkpt>
      <trkpt lat="62.63064225605" lon="17.99629720713">
        <ele>113.4</ele>
        <time>2018-01-03T13:15:49Z</time>
      </trkpt>
      <trkpt lat="62.630656589099" lon="17.996228894645">
        <ele>113.6</ele>
        <time>2018-01-03T13:15:50Z</time>
      </trkpt>
      <trkpt lat="62.630668072302" lon="17.99617566958">
        <ele>113.6</ele>
        <time>2018-01-03T13:15:51Z</time>
      </trkpt>
      <trkpt lat="62.630695648753" lon="17.99610526162">
        <ele>113.6</ele>
        <time>2018-01-03T13:15:52Z</time>
      </trkpt>
      <trkpt lat="62.630709143612" lon="17.996051030727">
        <ele>113.6</ele>
        <time>2018-01-03T13:15:53Z</time>
      </trkpt>
      <trkpt lat="62.630743090307" lon="17.995991519237">
        <ele>113.6</ele>
        <time>2018-01-03T13:15:54Z</time>
      </trkpt>
      <trkpt lat="62.630771672586" lon="17.995936701611">
        <ele>113.6</ele>
        <time>2018-01-03T13:15:55Z</time>
      </trkpt>
      <trkpt lat="62.630790699499" lon="17.995893534826">
        <ele>113.6</ele>
        <time>2018-01-03T13:15:56Z</time>
      </trkpt>
      <trkpt lat="62.630826154936" lon="17.995862605615">
        <ele>113.6</ele>
        <time>2018-01-03T13:15:57Z</time>
      </trkpt>
      <trkpt lat="62.630849708075" lon="17.995829161834">
        <ele>113.6</ele>
        <time>2018-01-03T13:15:58Z</time>
      </trkpt>
      <trkpt lat="62.630875859603" lon="17.995793203483">
        <ele>113.8</ele>
        <time>2018-01-03T13:15:59Z</time>
      </trkpt>
      <trkpt lat="62.630912237049" lon="17.995750623431">
        <ele>113.8</ele>
        <time>2018-01-03T13:16:00Z</time>
      </trkpt>
      <trkpt lat="62.630933024161" lon="17.995712569605">
        <ele>113.8</ele>
        <time>2018-01-03T13:16:01Z</time>
      </trkpt>
      <trkpt lat="62.63096915015" lon="17.995688597371">
        <ele>113.8</ele>
        <time>2018-01-03T13:16:02Z</time>
      </trkpt>
      <trkpt lat="62.631004018854" lon="17.995648112794">
        <ele>113.8</ele>
        <time>2018-01-03T13:16:03Z</time>
      </trkpt>
      <trkpt lat="62.631028074907" lon="17.995623134732">
        <ele>114</ele>
        <time>2018-01-03T13:16:04Z</time>
      </trkpt>
      <trkpt lat="62.631057495376" lon="17.995592205521">
        <ele>114</ele>
        <time>2018-01-03T13:16:05Z</time>
      </trkpt>
      <trkpt lat="62.631078617764" lon="17.995555073704">
        <ele>113.8</ele>
        <time>2018-01-03T13:16:06Z</time>
      </trkpt>
      <trkpt lat="62.631105272206" lon="17.99552774871">
        <ele>114</ele>
        <time>2018-01-03T13:16:07Z</time>
      </trkpt>
      <trkpt lat="62.631137793978" lon="17.995491874178">
        <ele>114</ele>
        <time>2018-01-03T13:16:08Z</time>
      </trkpt>
      <trkpt lat="62.631157407624" lon="17.995453904171">
        <ele>114</ele>
        <time>2018-01-03T13:16:09Z</time>
      </trkpt>
      <trkpt lat="62.631188923568" lon="17.995423980788">
        <ele>114</ele>
        <time>2018-01-03T13:16:10Z</time>
      </trkpt>
      <trkpt lat="62.631208788671" lon="17.995397577803">
        <ele>114</ele>
        <time>2018-01-03T13:16:11Z</time>
      </trkpt>
      <trkpt lat="62.631224630462" lon="17.995352315543">
        <ele>114</ele>
        <time>2018-01-03T13:16:12Z</time>
      </trkpt>
      <trkpt lat="62.631250614352" lon="17.995322308341">
        <ele>114.2</ele>
        <time>2018-01-03T13:16:13Z</time>
      </trkpt>
      <trkpt lat="62.631268300161" lon="17.995282578135">
        <ele>114.2</ele>
        <time>2018-01-03T13:16:14Z</time>
      </trkpt>
      <trkpt lat="62.631289925463" lon="17.995241339187">
        <ele>114.4</ele>
        <time>2018-01-03T13:16:15Z</time>
      </trkpt>
      <trkpt lat="62.631316831362" lon="17.995192891805">
        <ele>114.4</ele>
        <time>2018-01-03T13:16:16Z</time>
      </trkpt>
      <trkpt lat="62.631331499687" lon="17.995145114975">
        <ele>114.6</ele>
        <time>2018-01-03T13:16:17Z</time>
      </trkpt>
      <trkpt lat="62.63136309945" lon="17.995091135539">
        <ele>114.4</ele>
        <time>2018-01-03T13:16:18Z</time>
      </trkpt>
      <trkpt lat="62.631373493006" lon="17.99503824575">
        <ele>114.6</ele>
        <time>2018-01-03T13:16:19Z</time>
      </trkpt>
      <trkpt lat="62.631382545458" lon="17.99499298349">
        <ele>114.6</ele>
        <time>2018-01-03T13:16:20Z</time>
      </trkpt>
      <trkpt lat="62.631399560715" lon="17.994943614099">
        <ele>114.6</ele>
        <time>2018-01-03T13:16:21Z</time>
      </trkpt>
      <trkpt lat="62.631412385022" lon="17.994887539188">
        <ele>114.6</ele>
        <time>2018-01-03T13:16:22Z</time>
      </trkpt>
      <trkpt lat="62.631421856569" lon="17.994841774014">
        <ele>114.6</ele>
        <time>2018-01-03T13:16:23Z</time>
      </trkpt>
      <trkpt lat="62.631434010324" lon="17.994776479013">
        <ele>114.6</ele>
        <time>2018-01-03T13:16:24Z</time>
      </trkpt>
      <trkpt lat="62.631441637853" lon="17.994696431868">
        <ele>114.8</ele>
        <time>2018-01-03T13:16:25Z</time>
      </trkpt>
      <trkpt lat="62.631451696133" lon="17.994613953972">
        <ele>114.8</ele>
        <time>2018-01-03T13:16:26Z</time>
      </trkpt>
      <trkpt lat="62.631450606486" lon="17.994535918483">
        <ele>114.8</ele>
        <time>2018-01-03T13:16:27Z</time>
      </trkpt>
      <trkpt lat="62.631462760241" lon="17.994447657076">
        <ele>114.8</ele>
        <time>2018-01-03T13:16:28Z</time>
      </trkpt>
      <trkpt lat="62.631462173508" lon="17.99437020832">
        <ele>114.8</ele>
        <time>2018-01-03T13:16:29Z</time>
      </trkpt>
      <trkpt lat="62.631459910395" lon="17.994263255276">
        <ele>114.6</ele>
        <time>2018-01-03T13:16:30Z</time>
      </trkpt>
      <trkpt lat="62.631453037237" lon="17.994175161507">
        <ele>114.4</ele>
        <time>2018-01-03T13:16:31Z</time>
      </trkpt>
      <trkpt lat="62.631437782179" lon="17.994072567051">
        <ele>114.2</ele>
        <time>2018-01-03T13:16:32Z</time>
      </trkpt>
      <trkpt lat="62.631432082487" lon="17.993986736395">
        <ele>114</ele>
        <time>2018-01-03T13:16:33Z</time>
      </trkpt>
      <trkpt lat="62.631423616768" lon="17.993914735874">
        <ele>113.8</ele>
        <time>2018-01-03T13:16:34Z</time>
      </trkpt>
      <trkpt lat="62.631415151049" lon="17.993824798087">
        <ele>113.4</ele>
        <time>2018-01-03T13:16:35Z</time>
      </trkpt>
      <trkpt lat="62.63140333257" lon="17.993752127014">
        <ele>113.4</ele>
        <time>2018-01-03T13:16:36Z</time>
      </trkpt>
      <trkpt lat="62.63140752352" lon="17.993675013534">
        <ele>113.4</ele>
        <time>2018-01-03T13:16:37Z</time>
      </trkpt>
      <trkpt lat="62.631411463013" lon="17.993584656652">
        <ele>113.4</ele>
        <time>2018-01-03T13:16:38Z</time>
      </trkpt>
      <trkpt lat="62.631418503809" lon="17.993523217325">
        <ele>113.4</ele>
        <time>2018-01-03T13:16:39Z</time>
      </trkpt>
      <trkpt lat="62.631423365311" lon="17.99342556819">
        <ele>113.6</ele>
        <time>2018-01-03T13:16:40Z</time>
      </trkpt>
      <trkpt lat="62.631427556261" lon="17.993361698112">
        <ele>113.4</ele>
        <time>2018-01-03T13:16:41Z</time>
      </trkpt>
      <trkpt lat="62.631443314233" lon="17.993264887167">
        <ele>113.4</ele>
        <time>2018-01-03T13:16:42Z</time>
      </trkpt>
      <trkpt lat="62.631458820748" lon="17.993175703751">
        <ele>113</ele>
        <time>2018-01-03T13:16:43Z</time>
      </trkpt>
      <trkpt lat="62.631473321435" lon="17.993099093185">
        <ele>112.8</ele>
        <time>2018-01-03T13:16:44Z</time>
      </trkpt>
      <trkpt lat="62.631489163226" lon="17.993019297497">
        <ele>112.4</ele>
        <time>2018-01-03T13:16:45Z</time>
      </trkpt>
      <trkpt lat="62.631503663913" lon="17.992938915076">
        <ele>112</ele>
        <time>2018-01-03T13:16:46Z</time>
      </trkpt>
      <trkpt lat="62.631514392745" lon="17.992873033342">
        <ele>111.8</ele>
        <time>2018-01-03T13:16:47Z</time>
      </trkpt>
      <trkpt lat="62.631532497649" lon="17.992784101383">
        <ele>111.6</ele>
        <time>2018-01-03T13:16:48Z</time>
      </trkpt>
      <trkpt lat="62.631543561757" lon="17.992736911286">
        <ele>111.6</ele>
        <time>2018-01-03T13:16:49Z</time>
      </trkpt>
      <trkpt lat="62.63155420677" lon="17.992689385913">
        <ele>111.4</ele>
        <time>2018-01-03T13:16:50Z</time>
      </trkpt>
      <trkpt lat="62.631561666661" lon="17.992652086458">
        <ele>111.8</ele>
        <time>2018-01-03T13:16:51Z</time>
      </trkpt>
      <trkpt lat="62.631577256995" lon="17.992582265231">
        <ele>112</ele>
        <time>2018-01-03T13:16:52Z</time>
      </trkpt>
      <trkpt lat="62.631588907836" lon="17.99252199937">
        <ele>112.4</ele>
        <time>2018-01-03T13:16:53Z</time>
      </trkpt>
      <trkpt lat="62.631623022169" lon="17.992456704369">
        <ele>112.6</ele>
        <time>2018-01-03T13:16:54Z</time>
      </trkpt>
      <trkpt lat="62.63165395138" lon="17.992402054381">
        <ele>112.8</ele>
        <time>2018-01-03T13:16:55Z</time>
      </trkpt>
      <trkpt lat="62.631695441785" lon="17.992373220645">
        <ele>112.8</ele>
        <time>2018-01-03T13:16:56Z</time>
      </trkpt>
      <trkpt lat="62.631733495611" lon="17.992333993353">
        <ele>112.6</ele>
        <time>2018-01-03T13:16:57Z</time>
      </trkpt>
      <trkpt lat="62.63176207789" lon="17.992299962839">
        <ele>112.6</ele>
        <time>2018-01-03T13:16:58Z</time>
      </trkpt>
      <trkpt lat="62.631789319065" lon="17.992275990605">
        <ele>112.4</ele>
        <time>2018-01-03T13:16:59Z</time>
      </trkpt>
      <trkpt lat="62.631818990991" lon="17.99224455848">
        <ele>112.4</ele>
        <time>2018-01-03T13:17:00Z</time>
      </trkpt>
      <trkpt lat="62.63184589689" lon="17.992180688402">
        <ele>112.4</ele>
        <time>2018-01-03T13:17:01Z</time>
      </trkpt>
      <trkpt lat="62.631878167205" lon="17.992118913799">
        <ele>112.4</ele>
        <time>2018-01-03T13:17:02Z</time>
      </trkpt>
      <trkpt lat="62.631898199946" lon="17.992057139196">
        <ele>112.4</ele>
        <time>2018-01-03T13:17:03Z</time>
      </trkpt>
      <trkpt lat="62.631917562135" lon="17.992007183072">
        <ele>112.2</ele>
        <time>2018-01-03T13:17:04Z</time>
      </trkpt>
      <trkpt lat="62.631936672867" lon="17.991942223347">
        <ele>112.4</ele>
        <time>2018-01-03T13:17:05Z</time>
      </trkpt>
      <trkpt lat="62.631941199093" lon="17.991891261395">
        <ele>112.2</ele>
        <time>2018-01-03T13:17:06Z</time>
      </trkpt>
      <trkpt lat="62.631950754459" lon="17.991819260874">
        <ele>112.4</ele>
        <time>2018-01-03T13:17:07Z</time>
      </trkpt>
      <trkpt lat="62.631961986205" lon="17.991741393023">
        <ele>112.2</ele>
        <time>2018-01-03T13:17:08Z</time>
      </trkpt>
      <trkpt lat="62.631966177155" lon="17.991685821026">
        <ele>112.2</ele>
        <time>2018-01-03T13:17:09Z</time>
      </trkpt>
      <trkpt lat="62.63196743444" lon="17.991622705319">
        <ele>112.2</ele>
        <time>2018-01-03T13:17:10Z</time>
      </trkpt>
      <trkpt lat="62.631972631218" lon="17.991565289304">
        <ele>112.2</ele>
        <time>2018-01-03T13:17:11Z</time>
      </trkpt>
      <trkpt lat="62.631983527688" lon="17.9914801292">
        <ele>112.2</ele>
        <time>2018-01-03T13:17:12Z</time>
      </trkpt>
      <trkpt lat="62.631985371706" lon="17.991399243865">
        <ele>112.2</ele>
        <time>2018-01-03T13:17:13Z</time>
      </trkpt>
      <trkpt lat="62.631992412502" lon="17.991338978004">
        <ele>112.2</ele>
        <time>2018-01-03T13:17:14Z</time>
      </trkpt>
      <trkpt lat="62.631990736122" lon="17.99127393446">
        <ele>112.2</ele>
        <time>2018-01-03T13:17:15Z</time>
      </trkpt>
      <trkpt lat="62.631993334511" lon="17.991209896744">
        <ele>112</ele>
        <time>2018-01-03T13:17:16Z</time>
      </trkpt>
      <trkpt lat="62.63200682937" lon="17.991126496839">
        <ele>112</ele>
        <time>2018-01-03T13:17:17Z</time>
      </trkpt>
      <trkpt lat="62.632005488266" lon="17.991058100535">
        <ele>112</ele>
        <time>2018-01-03T13:17:18Z</time>
      </trkpt>
      <trkpt lat="62.632022084428" lon="17.990992805534">
        <ele>112</ele>
        <time>2018-01-03T13:17:19Z</time>
      </trkpt>
      <trkpt lat="62.632045302291" lon="17.990911165828">
        <ele>112</ele>
        <time>2018-01-03T13:17:20Z</time>
      </trkpt>
      <trkpt lat="62.632060892625" lon="17.990832459787">
        <ele>112</ele>
        <time>2018-01-03T13:17:21Z</time>
      </trkpt>
      <trkpt lat="62.632077656425" lon="17.990785856423">
        <ele>112</ele>
        <time>2018-01-03T13:17:22Z</time>
      </trkpt>
      <trkpt lat="62.632097940623" lon="17.990742689638">
        <ele>112.2</ele>
        <time>2018-01-03T13:17:23Z</time>
      </trkpt>
      <trkpt lat="62.632114872061" lon="17.990697175921">
        <ele>112.2</ele>
        <time>2018-01-03T13:17:24Z</time>
      </trkpt>
      <trkpt lat="62.632131216766" lon="17.99066205576">
        <ele>112.2</ele>
        <time>2018-01-03T13:17:25Z</time>
      </trkpt>
      <trkpt lat="62.632160301959" lon="17.99062182264">
        <ele>112.4</ele>
        <time>2018-01-03T13:17:26Z</time>
      </trkpt>
      <trkpt lat="62.632189051876" lon="17.990568262299">
        <ele>112.6</ele>
        <time>2018-01-03T13:17:27Z</time>
      </trkpt>
      <trkpt lat="62.632208665522" lon="17.99051453432">
        <ele>112.6</ele>
        <time>2018-01-03T13:17:28Z</time>
      </trkpt>
      <trkpt lat="62.632227105702" lon="17.990447814396">
        <ele>112.6</ele>
        <time>2018-01-03T13:17:29Z</time>
      </trkpt>
      <trkpt lat="62.632235487602" lon="17.990385788336">
        <ele>112.6</ele>
        <time>2018-01-03T13:17:30Z</time>
      </trkpt>
      <trkpt lat="62.632252838135" lon="17.99031923605">
        <ele>112.8</ele>
        <time>2018-01-03T13:17:31Z</time>
      </trkpt>
      <trkpt lat="62.632268763745" lon="17.990249833918">
        <ele>112.6</ele>
        <time>2018-01-03T13:17:32Z</time>
      </trkpt>
      <trkpt lat="62.632286617192" lon="17.990195267749">
        <ele>112.6</ele>
        <time>2018-01-03T13:17:33Z</time>
      </trkpt>
      <trkpt lat="62.632309164503" lon="17.990134079879">
        <ele>112.6</ele>
        <time>2018-01-03T13:17:34Z</time>
      </trkpt>
      <trkpt lat="62.632329113425" lon="17.990071299448">
        <ele>112.6</ele>
        <time>2018-01-03T13:17:35Z</time>
      </trkpt>
      <trkpt lat="62.632343278836" lon="17.990022349152">
        <ele>112.6</ele>
        <time>2018-01-03T13:17:36Z</time>
      </trkpt>
      <trkpt lat="62.632354259125" lon="17.989968621173">
        <ele>112.6</ele>
        <time>2018-01-03T13:17:37Z</time>
      </trkpt>
      <trkpt lat="62.632374543323" lon="17.989907517122">
        <ele>112.6</ele>
        <time>2018-01-03T13:17:38Z</time>
      </trkpt>
      <trkpt lat="62.632390888028" lon="17.989852028944">
        <ele>112.6</ele>
        <time>2018-01-03T13:17:39Z</time>
      </trkpt>
      <trkpt lat="62.632396755358" lon="17.989778519681">
        <ele>112.6</ele>
        <time>2018-01-03T13:17:40Z</time>
      </trkpt>
      <trkpt lat="62.63242089523" lon="17.989714398146">
        <ele>112.8</ele>
        <time>2018-01-03T13:17:41Z</time>
      </trkpt>
      <trkpt lat="62.632433048985" lon="17.989651785353">
        <ele>112.8</ele>
        <time>2018-01-03T13:17:42Z</time>
      </trkpt>
      <trkpt lat="62.632456350667" lon="17.989592944415">
        <ele>112.8</ele>
        <time>2018-01-03T13:17:43Z</time>
      </trkpt>
      <trkpt lat="62.632487279878" lon="17.98953720478">
        <ele>112.8</ele>
        <time>2018-01-03T13:17:44Z</time>
      </trkpt>
      <trkpt lat="62.632500942375" lon="17.989472412693">
        <ele>112.8</ele>
        <time>2018-01-03T13:17:45Z</time>
      </trkpt>
      <trkpt lat="62.632529440835" lon="17.9894181818">
        <ele>112.8</ele>
        <time>2018-01-03T13:17:46Z</time>
      </trkpt>
      <trkpt lat="62.632551485232" lon="17.989372248988">
        <ele>112.8</ele>
        <time>2018-01-03T13:17:47Z</time>
      </trkpt>
      <trkpt lat="62.632577050027" lon="17.98933352461">
        <ele>112.8</ele>
        <time>2018-01-03T13:17:48Z</time>
      </trkpt>
      <trkpt lat="62.63260445884" lon="17.989286250694">
        <ele>112.8</ele>
        <time>2018-01-03T13:17:49Z</time>
      </trkpt>
      <trkpt lat="62.632619210984" lon="17.989235791656">
        <ele>113</ele>
        <time>2018-01-03T13:17:50Z</time>
      </trkpt>
      <trkpt lat="62.632659192647" lon="17.98919103231">
        <ele>113</ele>
        <time>2018-01-03T13:17:51Z</time>
      </trkpt>
      <trkpt lat="62.632685008899" lon="17.989143590756">
        <ele>113</ele>
        <time>2018-01-03T13:17:52Z</time>
      </trkpt>
      <trkpt lat="62.63270168888" lon="17.989096987392">
        <ele>113.2</ele>
        <time>2018-01-03T13:17:53Z</time>
      </trkpt>
      <trkpt lat="62.632740580896" lon="17.989066142">
        <ele>113.2</ele>
        <time>2018-01-03T13:17:54Z</time>
      </trkpt>
      <trkpt lat="62.632771593926" lon="17.989018448989">
        <ele>113.2</ele>
        <time>2018-01-03T13:17:55Z</time>
      </trkpt>
      <trkpt lat="62.632809647752" lon="17.988999338257">
        <ele>113.2</ele>
        <time>2018-01-03T13:17:56Z</time>
      </trkpt>
      <trkpt lat="62.632841415153" lon="17.988965726838">
        <ele>113.2</ele>
        <time>2018-01-03T13:17:57Z</time>
      </trkpt>
      <trkpt lat="62.632876954409" lon="17.988973605824">
        <ele>113</ele>
        <time>2018-01-03T13:17:58Z</time>
      </trkpt>
      <trkpt lat="62.632916097882" lon="17.988952231979">
        <ele>112.8</ele>
        <time>2018-01-03T13:17:59Z</time>
      </trkpt>
      <trkpt lat="62.632954570803" lon="17.988898839276">
        <ele>112.6</ele>
        <time>2018-01-03T13:18:00Z</time>
      </trkpt>
      <trkpt lat="62.63298080615" lon="17.988859192889">
        <ele>112.6</ele>
        <time>2018-01-03T13:18:01Z</time>
      </trkpt>
      <trkpt lat="62.633004778384" lon="17.988793059698">
        <ele>112.4</ele>
        <time>2018-01-03T13:18:02Z</time>
      </trkpt>
      <trkpt lat="62.633007795868" lon="17.988731201276">
        <ele>112.6</ele>
        <time>2018-01-03T13:18:03Z</time>
      </trkpt>
      <trkpt lat="62.633021123089" lon="17.988662302058">
        <ele>112.6</ele>
        <time>2018-01-03T13:18:04Z</time>
      </trkpt>
      <trkpt lat="62.633025984591" lon="17.988600024541">
        <ele>112.6</ele>
        <time>2018-01-03T13:18:05Z</time>
      </trkpt>
      <trkpt lat="62.633037216337" lon="17.988538585214">
        <ele>112.6</ele>
        <time>2018-01-03T13:18:06Z</time>
      </trkpt>
      <trkpt lat="62.633059344553" lon="17.988463986304">
        <ele>112.6</ele>
        <time>2018-01-03T13:18:07Z</time>
      </trkpt>
      <trkpt lat="62.633076108353" lon="17.988393997439">
        <ele>112.6</ele>
        <time>2018-01-03T13:18:08Z</time>
      </trkpt>
      <trkpt lat="62.633094297076" lon="17.988345382419">
        <ele>112.4</ele>
        <time>2018-01-03T13:18:09Z</time>
      </trkpt>
      <trkpt lat="62.633122627898" lon="17.988291570621">
        <ele>112.4</ele>
        <time>2018-01-03T13:18:10Z</time>
      </trkpt>
      <trkpt lat="62.633142241544" lon="17.988245134895">
        <ele>112.4</ele>
        <time>2018-01-03T13:18:11Z</time>
      </trkpt>
      <trkpt lat="62.633162190466" lon="17.988195849323">
        <ele>112.6</ele>
        <time>2018-01-03T13:18:12Z</time>
      </trkpt>
      <trkpt lat="62.6331777808" lon="17.988153604547">
        <ele>112.6</ele>
        <time>2018-01-03T13:18:13Z</time>
      </trkpt>
      <trkpt lat="62.633188341994" lon="17.988108593744">
        <ele>112.6</ele>
        <time>2018-01-03T13:18:14Z</time>
      </trkpt>
      <trkpt lat="62.633198148817" lon="17.988054279032">
        <ele>112.8</ele>
        <time>2018-01-03T13:18:15Z</time>
      </trkpt>
      <trkpt lat="62.633214493522" lon="17.988019997061">
        <ele>112.8</ele>
        <time>2018-01-03T13:18:16Z</time>
      </trkpt>
      <trkpt lat="62.633229161847" lon="17.987958306277">
        <ele>113.2</ele>
        <time>2018-01-03T13:18:17Z</time>
      </trkpt>
      <trkpt lat="62.633240896507" lon="17.987877923856">
        <ele>113.4</ele>
        <time>2018-01-03T13:18:18Z</time>
      </trkpt>
      <trkpt lat="62.633248021122" lon="17.987811706846">
        <ele>113.4</ele>
        <time>2018-01-03T13:18:19Z</time>
      </trkpt>
      <trkpt lat="62.633262018895" lon="17.987724618905">
        <ele>113.4</ele>
        <time>2018-01-03T13:18:20Z</time>
      </trkpt>
      <trkpt lat="62.633265120198" lon="17.987646834873">
        <ele>113.2</ele>
        <time>2018-01-03T13:18:21Z</time>
      </trkpt>
      <trkpt lat="62.633276603401" lon="17.987583300071">
        <ele>113</ele>
        <time>2018-01-03T13:18:22Z</time>
      </trkpt>
      <trkpt lat="62.633289762984" lon="17.987521944563">
        <ele>112.8</ele>
        <time>2018-01-03T13:18:23Z</time>
      </trkpt>
      <trkpt lat="62.633285404396" lon="17.987464612367">
        <ele>112.8</ele>
        <time>2018-01-03T13:18:24Z</time>
      </trkpt>
      <trkpt lat="62.633292109916" lon="17.987405184696">
        <ele>112.8</ele>
        <time>2018-01-03T13:18:25Z</time>
      </trkpt>
      <trkpt lat="62.633292948106" lon="17.987355647667">
        <ele>113</ele>
        <time>2018-01-03T13:18:26Z</time>
      </trkpt>
      <trkpt lat="62.633291271726" lon="17.987316588013">
        <ele>113.2</ele>
        <time>2018-01-03T13:18:27Z</time>
      </trkpt>
      <trkpt lat="62.633285572034" lon="17.987276690169">
        <ele>113.2</ele>
        <time>2018-01-03T13:18:28Z</time>
      </trkpt>
      <trkpt lat="62.63327417265" lon="17.987247437338">
        <ele>113.4</ele>
        <time>2018-01-03T13:18:29Z</time>
      </trkpt>
      <trkpt lat="62.633256738298" lon="17.987200666336">
        <ele>113.6</ele>
        <time>2018-01-03T13:18:30Z</time>
      </trkpt>
      <trkpt lat="62.633247937303" lon="17.987133694955">
        <ele>113.8</ele>
        <time>2018-01-03T13:18:31Z</time>
      </trkpt>
      <trkpt lat="62.633226898734" lon="17.987060772425">
        <ele>114</ele>
        <time>2018-01-03T13:18:32Z</time>
      </trkpt>
      <trkpt lat="62.633208961468" lon="17.986958177969">
        <ele>114</ele>
        <time>2018-01-03T13:18:33Z</time>
      </trkpt>
      <trkpt lat="62.633192700582" lon="17.986853739495">
        <ele>113.6</ele>
        <time>2018-01-03T13:18:34Z</time>
      </trkpt>
      <trkpt lat="62.633177361705" lon="17.986749468659">
        <ele>113.4</ele>
        <time>2018-01-03T13:18:35Z</time>
      </trkpt>
      <trkpt lat="62.633162190466" lon="17.986639162855">
        <ele>113</ele>
        <time>2018-01-03T13:18:36Z</time>
      </trkpt>
      <trkpt lat="62.633150874901" lon="17.9865348082">
        <ele>112</ele>
        <time>2018-01-03T13:18:37Z</time>
      </trkpt>
      <trkpt lat="62.633142073906" lon="17.9864342254">
        <ele>111.2</ele>
        <time>2018-01-03T13:18:38Z</time>
      </trkpt>
      <trkpt lat="62.633136374214" lon="17.986349735848">
        <ele>110.4</ele>
        <time>2018-01-03T13:18:39Z</time>
      </trkpt>
      <trkpt lat="62.633130506884" lon="17.986247141392">
        <ele>110</ele>
        <time>2018-01-03T13:18:40Z</time>
      </trkpt>
      <trkpt lat="62.633131093617" lon="17.986146642411">
        <ele>109.8</ele>
        <time>2018-01-03T13:18:41Z</time>
      </trkpt>
      <trkpt lat="62.633132099445" lon="17.986035833693">
        <ele>109.6</ele>
        <time>2018-01-03T13:18:42Z</time>
      </trkpt>
      <trkpt lat="62.633134614015" lon="17.98593047321">
        <ele>109.2</ele>
        <time>2018-01-03T13:18:43Z</time>
      </trkpt>
      <trkpt lat="62.633136541852" lon="17.98582067032">
        <ele>109</ele>
        <time>2018-01-03T13:18:44Z</time>
      </trkpt>
      <trkpt lat="62.633138637327" lon="17.985702234073">
        <ele>108.8</ele>
        <time>2018-01-03T13:18:45Z</time>
      </trkpt>
      <trkpt lat="62.633141570992" lon="17.98559771178">
        <ele>108.8</ele>
        <time>2018-01-03T13:18:46Z</time>
      </trkpt>
      <trkpt lat="62.63314090044" lon="17.985493273306">
        <ele>109</ele>
        <time>2018-01-03T13:18:47Z</time>
      </trkpt>
      <trkpt lat="62.633143750286" lon="17.985389337746">
        <ele>108.8</ele>
        <time>2018-01-03T13:18:48Z</time>
      </trkpt>
      <trkpt lat="62.633145175209" lon="17.98529931614">
        <ele>108.8</ele>
        <time>2018-01-03T13:18:49Z</time>
      </trkpt>
      <trkpt lat="62.633155233489" lon="17.985147017017">
        <ele>108.6</ele>
        <time>2018-01-03T13:18:50Z</time>
      </trkpt>
      <trkpt lat="62.633171829651" lon="17.985027994037">
        <ele>108.4</ele>
        <time>2018-01-03T13:18:51Z</time>
      </trkpt>
      <trkpt lat="62.633187336166" lon="17.984896230569">
        <ele>107.6</ele>
        <time>2018-01-03T13:18:52Z</time>
      </trkpt>
      <trkpt lat="62.633208542373" lon="17.984776201761">
        <ele>107.2</ele>
        <time>2018-01-03T13:18:53Z</time>
      </trkpt>
      <trkpt lat="62.633234693901" lon="17.984654664211">
        <ele>106.8</ele>
        <time>2018-01-03T13:18:54Z</time>
      </trkpt>
      <trkpt lat="62.633264030551" lon="17.984538491077">
        <ele>106.4</ele>
        <time>2018-01-03T13:18:55Z</time>
      </trkpt>
      <trkpt lat="62.633289679165" lon="17.984437908277">
        <ele>105.8</ele>
        <time>2018-01-03T13:18:56Z</time>
      </trkpt>
      <trkpt lat="62.633311220648" lon="17.984335481459">
        <ele>105</ele>
        <time>2018-01-03T13:18:57Z</time>
      </trkpt>
      <trkpt lat="62.633327565353" lon="17.98425409321">
        <ele>104.4</ele>
        <time>2018-01-03T13:18:58Z</time>
      </trkpt>
      <trkpt lat="62.633338629461" lon="17.984169100744">
        <ele>104.4</ele>
        <time>2018-01-03T13:18:59Z</time>
      </trkpt>
      <trkpt lat="62.633351956682" lon="17.984074301455">
        <ele>104.8</ele>
        <time>2018-01-03T13:19:00Z</time>
      </trkpt>
      <trkpt lat="62.63336385898" lon="17.98397665232">
        <ele>105.2</ele>
        <time>2018-01-03T13:19:01Z</time>
      </trkpt>
      <trkpt lat="62.633375677459" lon="17.983885708705">
        <ele>105.6</ele>
        <time>2018-01-03T13:19:02Z</time>
      </trkpt>
      <trkpt lat="62.633388669404" lon="17.983811696528">
        <ele>105.8</ele>
        <time>2018-01-03T13:19:03Z</time>
      </trkpt>
      <trkpt lat="62.633390932517" lon="17.983736007971">
        <ele>106</ele>
        <time>2018-01-03T13:19:04Z</time>
      </trkpt>
      <trkpt lat="62.633399314417" lon="17.983674736282">
        <ele>105.8</ele>
        <time>2018-01-03T13:19:05Z</time>
      </trkpt>
      <trkpt lat="62.633416497312" lon="17.983603071037">
        <ele>105.8</ele>
        <time>2018-01-03T13:19:06Z</time>
      </trkpt>
      <trkpt lat="62.633433009655" lon="17.983539033321">
        <ele>105.8</ele>
        <time>2018-01-03T13:19:07Z</time>
      </trkpt>
      <trkpt lat="62.633443738487" lon="17.983458231805">
        <ele>106</ele>
        <time>2018-01-03T13:19:08Z</time>
      </trkpt>
      <trkpt lat="62.633461675753" lon="17.983386398922">
        <ele>106</ele>
        <time>2018-01-03T13:19:09Z</time>
      </trkpt>
      <trkpt lat="62.633469890015" lon="17.983321355378">
        <ele>106</ele>
        <time>2018-01-03T13:19:10Z</time>
      </trkpt>
      <trkpt lat="62.633473997146" lon="17.983263017354">
        <ele>106</ele>
        <time>2018-01-03T13:19:11Z</time>
      </trkpt>
      <trkpt lat="62.633489922756" lon="17.9831904301">
        <ele>106</ele>
        <time>2018-01-03T13:19:12Z</time>
      </trkpt>
      <trkpt lat="62.633500735407" lon="17.983122955805">
        <ele>105.8</ele>
        <time>2018-01-03T13:19:13Z</time>
      </trkpt>
      <trkpt lat="62.633516074284" lon="17.983060845926">
        <ele>105.8</ele>
        <time>2018-01-03T13:19:14Z</time>
      </trkpt>
      <trkpt lat="62.633532167532" lon="17.982989180681">
        <ele>105.8</ele>
        <time>2018-01-03T13:19:15Z</time>
      </trkpt>
      <trkpt lat="62.633539543604" lon="17.982926651707">
        <ele>105.8</ele>
        <time>2018-01-03T13:19:16Z</time>
      </trkpt>
      <trkpt lat="62.633563096743" lon="17.982849538227">
        <ele>106</ele>
        <time>2018-01-03T13:19:17Z</time>
      </trkpt>
      <trkpt lat="62.633571478643" lon="17.982768317616">
        <ele>106</ele>
        <time>2018-01-03T13:19:18Z</time>
      </trkpt>
      <trkpt lat="62.633580363457" lon="17.982706710651">
        <ele>106.2</ele>
        <time>2018-01-03T13:19:19Z</time>
      </trkpt>
      <trkpt lat="62.633598468361" lon="17.982632111741">
        <ele>106.4</ele>
        <time>2018-01-03T13:19:20Z</time>
      </trkpt>
      <trkpt lat="62.633613304324" lon="17.98256011122">
        <ele>106.4</ele>
        <time>2018-01-03T13:19:21Z</time>
      </trkpt>
      <trkpt lat="62.633639036757" lon="17.982469335243">
        <ele>106.4</ele>
        <time>2018-01-03T13:19:22Z</time>
      </trkpt>
      <trkpt lat="62.633640294042" lon="17.982407895916">
        <ele>106.4</ele>
        <time>2018-01-03T13:19:23Z</time>
      </trkpt>
      <trkpt lat="62.633658650403" lon="17.982329776608">
        <ele>106.4</ele>
        <time>2018-01-03T13:19:24Z</time>
      </trkpt>
      <trkpt lat="62.633663595724" lon="17.982260961209">
        <ele>106.2</ele>
        <time>2018-01-03T13:19:25Z</time>
      </trkpt>
      <trkpt lat="62.6336723129" lon="17.982208658153">
        <ele>106.2</ele>
        <time>2018-01-03T13:19:26Z</time>
      </trkpt>
      <trkpt lat="62.633685304845" lon="17.982125006791">
        <ele>106</ele>
        <time>2018-01-03T13:19:27Z</time>
      </trkpt>
      <trkpt lat="62.633687735596" lon="17.982057029582">
        <ele>106</ele>
        <time>2018-01-03T13:19:28Z</time>
      </trkpt>
      <trkpt lat="62.633695698401" lon="17.982007660191">
        <ele>106</ele>
        <time>2018-01-03T13:19:29Z</time>
      </trkpt>
      <trkpt lat="62.633697626238" lon="17.981937419869">
        <ele>106.2</ele>
        <time>2018-01-03T13:19:30Z</time>
      </trkpt>
      <trkpt lat="62.633699554075" lon="17.981886457917">
        <ele>106.2</ele>
        <time>2018-01-03T13:19:31Z</time>
      </trkpt>
      <trkpt lat="62.63370500231" lon="17.981810853179">
        <ele>106.4</ele>
        <time>2018-01-03T13:19:32Z</time>
      </trkpt>
      <trkpt lat="62.633697626238" lon="17.98176047796">
        <ele>106.4</ele>
        <time>2018-01-03T13:19:33Z</time>
      </trkpt>
      <trkpt lat="62.63371086964" lon="17.981693003665">
        <ele>106.4</ele>
        <time>2018-01-03T13:19:34Z</time>
      </trkpt>
      <trkpt lat="62.633716234056" lon="17.981624020628">
        <ele>106.4</ele>
        <time>2018-01-03T13:19:35Z</time>
      </trkpt>
      <trkpt lat="62.633720341187" lon="17.981569454459">
        <ele>106.4</ele>
        <time>2018-01-03T13:19:36Z</time>
      </trkpt>
      <trkpt lat="62.633729812734" lon="17.981494352635">
        <ele>106.4</ele>
        <time>2018-01-03T13:19:37Z</time>
      </trkpt>
      <trkpt lat="62.633737607901" lon="17.981439199733">
        <ele>106.4</ele>
        <time>2018-01-03T13:19:38Z</time>
      </trkpt>
      <trkpt lat="62.633747498543" lon="17.981382621908">
        <ele>106.4</ele>
        <time>2018-01-03T13:19:39Z</time>
      </trkpt>
      <trkpt lat="62.63376032285" lon="17.981301568935">
        <ele>106.4</ele>
        <time>2018-01-03T13:19:40Z</time>
      </trkpt>
      <trkpt lat="62.633771051682" lon="17.98123828559">
        <ele>106.4</ele>
        <time>2018-01-03T13:19:41Z</time>
      </trkpt>
      <trkpt lat="62.633791922613" lon="17.981178941738">
        <ele>106.6</ele>
        <time>2018-01-03T13:19:42Z</time>
      </trkpt>
      <trkpt lat="62.633806255662" lon="17.981122950646">
        <ele>106.6</ele>
        <time>2018-01-03T13:19:43Z</time>
      </trkpt>
      <trkpt lat="62.633816900675" lon="17.981080789689">
        <ele>106.8</ele>
        <time>2018-01-03T13:19:44Z</time>
      </trkpt>
      <trkpt lat="62.633836514321" lon="17.981033012859">
        <ele>106.8</ele>
        <time>2018-01-03T13:19:45Z</time>
      </trkpt>
      <trkpt lat="62.633855289777" lon="17.980991103359">
        <ele>107</ele>
        <time>2018-01-03T13:19:46Z</time>
      </trkpt>
      <trkpt lat="62.633871634482" lon="17.980943661805">
        <ele>106.8</ele>
        <time>2018-01-03T13:19:47Z</time>
      </trkpt>
      <trkpt lat="62.633892924508" lon="17.980899489192">
        <ele>107</ele>
        <time>2018-01-03T13:19:48Z</time>
      </trkpt>
      <trkpt lat="62.633914801267" lon="17.980846515584">
        <ele>107</ele>
        <time>2018-01-03T13:19:49Z</time>
      </trkpt>
      <trkpt lat="62.633924775728" lon="17.980793793433">
        <ele>107</ele>
        <time>2018-01-03T13:19:50Z</time>
      </trkpt>
      <trkpt lat="62.633940701338" lon="17.98073201883">
        <ele>107.2</ele>
        <time>2018-01-03T13:19:51Z</time>
      </trkpt>
      <trkpt lat="62.633950759618" lon="17.980673094073">
        <ele>107.4</ele>
        <time>2018-01-03T13:19:52Z</time>
      </trkpt>
      <trkpt lat="62.633964170658" lon="17.980631184573">
        <ele>107.4</ele>
        <time>2018-01-03T13:19:53Z</time>
      </trkpt>
      <trkpt lat="62.633985879779" lon="17.980569158513">
        <ele>107.6</ele>
        <time>2018-01-03T13:19:54Z</time>
      </trkpt>
      <trkpt lat="62.633996357154" lon="17.98049900201">
        <ele>107.4</ele>
        <time>2018-01-03T13:19:55Z</time>
      </trkpt>
      <trkpt lat="62.634016222257" lon="17.98044535785">
        <ele>107.6</ele>
        <time>2018-01-03T13:19:56Z</time>
      </trkpt>
      <trkpt lat="62.634031309677" lon="17.980392384242">
        <ele>107.6</ele>
        <time>2018-01-03T13:19:57Z</time>
      </trkpt>
      <trkpt lat="62.634051258599" lon="17.980334465313">
        <ele>107.8</ele>
        <time>2018-01-03T13:19:58Z</time>
      </trkpt>
      <trkpt lat="62.634077829222" lon="17.980292974908">
        <ele>107.8</ele>
        <time>2018-01-03T13:19:59Z</time>
      </trkpt>
      <trkpt lat="62.63410649532" lon="17.980250394856">
        <ele>107.8</ele>
        <time>2018-01-03T13:20:00Z</time>
      </trkpt>
      <trkpt lat="62.634116888876" lon="17.980204881139">
        <ele>107.8</ele>
        <time>2018-01-03T13:20:01Z</time>
      </trkpt>
      <trkpt lat="62.63414756663" lon="17.980169760978">
        <ele>107.8</ele>
        <time>2018-01-03T13:20:02Z</time>
      </trkpt>
      <trkpt lat="62.634166845" lon="17.980124582537">
        <ele>107.8</ele>
        <time>2018-01-03T13:20:03Z</time>
      </trkpt>
      <trkpt lat="62.634186710103" lon="17.980081918666">
        <ele>107.6</ele>
        <time>2018-01-03T13:20:04Z</time>
      </trkpt>
      <trkpt lat="62.634212526355" lon="17.980041685546">
        <ele>107.8</ele>
        <time>2018-01-03T13:20:05Z</time>
      </trkpt>
      <trkpt lat="62.634225183024" lon="17.979987957567">
        <ele>107.8</ele>
        <time>2018-01-03T13:20:06Z</time>
      </trkpt>
      <trkpt lat="62.634248903801" lon="17.979932972303">
        <ele>107.6</ele>
        <time>2018-01-03T13:20:07Z</time>
      </trkpt>
      <trkpt lat="62.634258626805" lon="17.979866839112">
        <ele>107.8</ele>
        <time>2018-01-03T13:20:08Z</time>
      </trkpt>
      <trkpt lat="62.63427161875" lon="17.979810931839">
        <ele>107.8</ele>
        <time>2018-01-03T13:20:09Z</time>
      </trkpt>
      <trkpt lat="62.634296680631" lon="17.979732644893">
        <ele>107.8</ele>
        <time>2018-01-03T13:20:10Z</time>
      </trkpt>
      <trkpt lat="62.634305481626" lon="17.979670702652">
        <ele>107.6</ele>
        <time>2018-01-03T13:20:11Z</time>
      </trkpt>
      <trkpt lat="62.634320066132" lon="17.979606078203">
        <ele>107.8</ele>
        <time>2018-01-03T13:20:12Z</time>
      </trkpt>
      <trkpt lat="62.634339763597" lon="17.979532149845">
        <ele>107.6</ele>
        <time>2018-01-03T13:20:13Z</time>
      </trkpt>
      <trkpt lat="62.634349486601" lon="17.979481355531">
        <ele>107.6</ele>
        <time>2018-01-03T13:20:14Z</time>
      </trkpt>
      <trkpt lat="62.634360131614" lon="17.979417569272">
        <ele>107.6</ele>
        <time>2018-01-03T13:20:15Z</time>
      </trkpt>
      <trkpt lat="62.634376057224" lon="17.979342215991">
        <ele>107.8</ele>
        <time>2018-01-03T13:20:16Z</time>
      </trkpt>
      <trkpt lat="62.634386199323" lon="17.979274322601">
        <ele>107.8</ele>
        <time>2018-01-03T13:20:17Z</time>
      </trkpt>
      <trkpt lat="62.634397850164" lon="17.979219672613">
        <ele>107.8</ele>
        <time>2018-01-03T13:20:18Z</time>
      </trkpt>
      <trkpt lat="62.634410506833" lon="17.979157646553">
        <ele>107.6</ele>
        <time>2018-01-03T13:20:19Z</time>
      </trkpt>
      <trkpt lat="62.634425175158" lon="17.979096877778">
        <ele>107.6</ele>
        <time>2018-01-03T13:20:20Z</time>
      </trkpt>
      <trkpt lat="62.634449817944" lon="17.978979195902">
        <ele>107.8</ele>
        <time>2018-01-03T13:20:22Z</time>
      </trkpt>
      <trkpt lat="62.634461468785" lon="17.978933766004">
        <ele>107.6</ele>
        <time>2018-01-03T13:20:23Z</time>
      </trkpt>
      <trkpt lat="62.634471359427" lon="17.978881211491">
        <ele>107.8</ele>
        <time>2018-01-03T13:20:24Z</time>
      </trkpt>
      <trkpt lat="62.634483429363" lon="17.978826142408">
        <ele>107.8</ele>
        <time>2018-01-03T13:20:25Z</time>
      </trkpt>
      <trkpt lat="62.634489967245" lon="17.978780293415">
        <ele>107.8</ele>
        <time>2018-01-03T13:20:26Z</time>
      </trkpt>
      <trkpt lat="62.634499941706" lon="17.978729080006">
        <ele>107.6</ele>
        <time>2018-01-03T13:20:27Z</time>
      </trkpt>
      <trkpt lat="62.634513520384" lon="17.978696222958">
        <ele>107.6</ele>
        <time>2018-01-03T13:20:28Z</time>
      </trkpt>
      <trkpt lat="62.634526344691" lon="17.978683901565">
        <ele>107.6</ele>
        <time>2018-01-03T13:20:29Z</time>
      </trkpt>
      <trkpt lat="62.634545874518" lon="17.978678620968">
        <ele>107.8</ele>
        <time>2018-01-03T13:20:30Z</time>
      </trkpt>
      <trkpt lat="62.63456833801" lon="17.978700833003">
        <ele>107.8</ele>
        <time>2018-01-03T13:20:31Z</time>
      </trkpt>
      <trkpt lat="62.634584095982" lon="17.9787228774">
        <ele>107.8</ele>
        <time>2018-01-03T13:20:32Z</time>
      </trkpt>
      <trkpt lat="62.634597507022" lon="17.978742658684">
        <ele>108</ele>
        <time>2018-01-03T13:20:33Z</time>
      </trkpt>
      <trkpt lat="62.634614187003" lon="17.978764870719">
        <ele>107.8</ele>
        <time>2018-01-03T13:20:34Z</time>
      </trkpt>
      <trkpt lat="62.634628352414" lon="17.978778784673">
        <ele>107.8</ele>
        <time>2018-01-03T13:20:35Z</time>
      </trkpt>
      <trkpt lat="62.634655090675" lon="17.978802253993">
        <ele>107.6</ele>
        <time>2018-01-03T13:20:36Z</time>
      </trkpt>
      <trkpt lat="62.634679565823" lon="17.978815832671">
        <ele>107.4</ele>
        <time>2018-01-03T13:20:37Z</time>
      </trkpt>
      <trkpt lat="62.634706890817" lon="17.978832764109">
        <ele>107.4</ele>
        <time>2018-01-03T13:20:38Z</time>
      </trkpt>
      <trkpt lat="62.634733126164" lon="17.978847348615">
        <ele>107.2</ele>
        <time>2018-01-03T13:20:39Z</time>
      </trkpt>
      <trkpt lat="62.634763720099" lon="17.97886369332">
        <ele>107</ele>
        <time>2018-01-03T13:20:40Z</time>
      </trkpt>
      <trkpt lat="62.634792805292" lon="17.978879116016">
        <ele>107</ele>
        <time>2018-01-03T13:20:41Z</time>
      </trkpt>
      <trkpt lat="62.63482482415" lon="17.978895125445">
        <ele>107</ele>
        <time>2018-01-03T13:20:42Z</time>
      </trkpt>
      <trkpt lat="62.634856759189" lon="17.978912392159">
        <ele>106.8</ele>
        <time>2018-01-03T13:20:43Z</time>
      </trkpt>
      <trkpt lat="62.634882323984" lon="17.978923120991">
        <ele>106.8</ele>
        <time>2018-01-03T13:20:44Z</time>
      </trkpt>
      <trkpt lat="62.634901183259" lon="17.978927479579">
        <ele>106.6</ele>
        <time>2018-01-03T13:20:45Z</time>
      </trkpt>
      <trkpt lat="62.634932028651" lon="17.978937202583">
        <ele>106.6</ele>
        <time>2018-01-03T13:20:46Z</time>
      </trkpt>
      <trkpt lat="62.634960946206" lon="17.978957067686">
        <ele>106.4</ele>
        <time>2018-01-03T13:20:47Z</time>
      </trkpt>
      <trkpt lat="62.634979805481" lon="17.978981794291">
        <ele>106.4</ele>
        <time>2018-01-03T13:20:48Z</time>
      </trkpt>
      <trkpt lat="62.634998832394" lon="17.978995037693">
        <ele>106.4</ele>
        <time>2018-01-03T13:20:49Z</time>
      </trkpt>
      <trkpt lat="62.635017021117" lon="17.979012723502">
        <ele>106.6</ele>
        <time>2018-01-03T13:20:50Z</time>
      </trkpt>
      <trkpt lat="62.635034706926" lon="17.9790246258">
        <ele>106.6</ele>
        <time>2018-01-03T13:20:51Z</time>
      </trkpt>
      <trkpt lat="62.635050632536" lon="17.979027559465">
        <ele>106.6</ele>
        <time>2018-01-03T13:20:52Z</time>
      </trkpt>
      <trkpt lat="62.635068150707" lon="17.979027559465">
        <ele>106.6</ele>
        <time>2018-01-03T13:20:53Z</time>
      </trkpt>
      <trkpt lat="62.63508717762" lon="17.979030828406">
        <ele>106.6</ele>
        <time>2018-01-03T13:20:54Z</time>
      </trkpt>
      <trkpt lat="62.635109473474" lon="17.979034516442">
        <ele>106.4</ele>
        <time>2018-01-03T13:20:55Z</time>
      </trkpt>
      <trkpt lat="62.635132775156" lon="17.979046586378">
        <ele>106.2</ele>
        <time>2018-01-03T13:20:56Z</time>
      </trkpt>
      <trkpt lat="62.635155490105" lon="17.979053794812">
        <ele>106.2</ele>
        <time>2018-01-03T13:20:57Z</time>
      </trkpt>
      <trkpt lat="62.635182144547" lon="17.979063433997">
        <ele>106</ele>
        <time>2018-01-03T13:20:58Z</time>
      </trkpt>
      <trkpt lat="62.635204188944" lon="17.979065780929">
        <ele>105.8</ele>
        <time>2018-01-03T13:20:59Z</time>
      </trkpt>
      <trkpt lat="62.63523050811" lon="17.97907156444">
        <ele>105.8</ele>
        <time>2018-01-03T13:21:00Z</time>
      </trkpt>
      <trkpt lat="62.635250959946" lon="17.979070474793">
        <ele>105.8</ele>
        <time>2018-01-03T13:21:01Z</time>
      </trkpt>
      <trkpt lat="62.63526403571" lon="17.979064523644">
        <ele>105.6</ele>
        <time>2018-01-03T13:21:02Z</time>
      </trkpt>
      <trkpt lat="62.635277362931" lon="17.979057818124">
        <ele>105.4</ele>
        <time>2018-01-03T13:21:03Z</time>
      </trkpt>
      <trkpt lat="62.635289432867" lon="17.97905144788">
        <ele>105.4</ele>
        <time>2018-01-03T13:21:04Z</time>
      </trkpt>
      <trkpt lat="62.635308711237" lon="17.979055387373">
        <ele>105.2</ele>
        <time>2018-01-03T13:21:05Z</time>
      </trkpt>
      <trkpt lat="62.6353319291" lon="17.979058740133">
        <ele>105.2</ele>
        <time>2018-01-03T13:21:06Z</time>
      </trkpt>
      <trkpt lat="62.635354057316" lon="17.979060165056">
        <ele>105.4</ele>
        <time>2018-01-03T13:21:07Z</time>
      </trkpt>
      <trkpt lat="62.635379286835" lon="17.97906150616">
        <ele>105.4</ele>
        <time>2018-01-03T13:21:08Z</time>
      </trkpt>
      <trkpt lat="62.635404432535" lon="17.979064942739">
        <ele>105.4</ele>
        <time>2018-01-03T13:21:09Z</time>
      </trkpt>
      <trkpt lat="62.635435445565" lon="17.979065780929">
        <ele>105.4</ele>
        <time>2018-01-03T13:21:10Z</time>
      </trkpt>
      <trkpt lat="62.635463608749" lon="17.979058656314">
        <ele>105.2</ele>
        <time>2018-01-03T13:21:11Z</time>
      </trkpt>
      <trkpt lat="62.635490849924" lon="17.979047592206">
        <ele>105</ele>
        <time>2018-01-03T13:21:12Z</time>
      </trkpt>
      <trkpt lat="62.635523287877" lon="17.979040970505">
        <ele>104.6</ele>
        <time>2018-01-03T13:21:13Z</time>
      </trkpt>
      <trkpt lat="62.635552121613" lon="17.979037282469">
        <ele>104.6</ele>
        <time>2018-01-03T13:21:14Z</time>
      </trkpt>
      <trkpt lat="62.635586571222" lon="17.979029822578">
        <ele>104.4</ele>
        <time>2018-01-03T13:21:15Z</time>
      </trkpt>
      <trkpt lat="62.635618841537" lon="17.979023368515">
        <ele>104.2</ele>
        <time>2018-01-03T13:21:16Z</time>
      </trkpt>
      <trkpt lat="62.635650022205" lon="17.979024961076">
        <ele>104</ele>
        <time>2018-01-03T13:21:17Z</time>
      </trkpt>
      <trkpt lat="62.63568061614" lon="17.979025799266">
        <ele>103.8</ele>
        <time>2018-01-03T13:21:18Z</time>
      </trkpt>
      <trkpt lat="62.635708611686" lon="17.979019931936">
        <ele>103.8</ele>
        <time>2018-01-03T13:21:19Z</time>
      </trkpt>
      <trkpt lat="62.635737110146" lon="17.979021859773">
        <ele>103.6</ele>
        <time>2018-01-03T13:21:20Z</time>
      </trkpt>
      <trkpt lat="62.635770051013" lon="17.979017836461">
        <ele>103.4</ele>
        <time>2018-01-03T13:21:21Z</time>
      </trkpt>
      <trkpt lat="62.635793687971" lon="17.979016411538">
        <ele>103.2</ele>
        <time>2018-01-03T13:21:22Z</time>
      </trkpt>
      <trkpt lat="62.63581891749" lon="17.979018507013">
        <ele>103.2</ele>
        <time>2018-01-03T13:21:23Z</time>
      </trkpt>
      <trkpt lat="62.635847164493" lon="17.979026218361">
        <ele>103</ele>
        <time>2018-01-03T13:21:24Z</time>
      </trkpt>
      <trkpt lat="62.635867616329" lon="17.979021524497">
        <ele>102.8</ele>
        <time>2018-01-03T13:21:25Z</time>
      </trkpt>
      <trkpt lat="62.63589016364" lon="17.979025799266">
        <ele>102.8</ele>
        <time>2018-01-03T13:21:26Z</time>
      </trkpt>
      <trkpt lat="62.635909190553" lon="17.979042311609">
        <ele>102.8</ele>
        <time>2018-01-03T13:21:27Z</time>
      </trkpt>
      <trkpt lat="62.635925619077" lon="17.979041557238">
        <ele>102.8</ele>
        <time>2018-01-03T13:21:28Z</time>
      </trkpt>
      <trkpt lat="62.635941209411" lon="17.979041473419">
        <ele>102.8</ele>
        <time>2018-01-03T13:21:29Z</time>
      </trkpt>
      <trkpt lat="62.635959901048" lon="17.97904893331">
        <ele>103</ele>
        <time>2018-01-03T13:21:30Z</time>
      </trkpt>
      <trkpt lat="62.635975407563" lon="17.97905312426">
        <ele>103.2</ele>
        <time>2018-01-03T13:21:31Z</time>
      </trkpt>
      <trkpt lat="62.635989740612" lon="17.979052956622">
        <ele>103.2</ele>
        <time>2018-01-03T13:21:32Z</time>
      </trkpt>
      <trkpt lat="62.636004408937" lon="17.9790581534">
        <ele>103.4</ele>
        <time>2018-01-03T13:21:33Z</time>
      </trkpt>
      <trkpt lat="62.636015221588" lon="17.979067122033">
        <ele>103.4</ele>
        <time>2018-01-03T13:21:34Z</time>
      </trkpt>
      <trkpt lat="62.636020250728" lon="17.979092183914">
        <ele>103.4</ele>
        <time>2018-01-03T13:21:35Z</time>
      </trkpt>
      <trkpt lat="62.636020753642" lon="17.979111713741">
        <ele>103.4</ele>
        <time>2018-01-03T13:21:36Z</time>
      </trkpt>
      <trkpt lat="62.636022932936" lon="17.979121436745">
        <ele>103.4</ele>
        <time>2018-01-03T13:21:37Z</time>
      </trkpt>
      <trkpt lat="62.63602259766" lon="17.979144403151">
        <ele>103.6</ele>
        <time>2018-01-03T13:21:38Z</time>
      </trkpt>
      <trkpt lat="62.636021508013" lon="17.979163597702">
        <ele>103.6</ele>
        <time>2018-01-03T13:21:39Z</time>
      </trkpt>
      <trkpt lat="62.636016981787" lon="17.979183965719">
        <ele>103.4</ele>
        <time>2018-01-03T13:21:40Z</time>
      </trkpt>
      <trkpt lat="62.636013964303" lon="17.979195029827">
        <ele>103.4</ele>
        <time>2018-01-03T13:21:41Z</time>
      </trkpt>
      <trkpt lat="62.636013126113" lon="17.979202741175">
        <ele>103.4</ele>
        <time>2018-01-03T13:21:42Z</time>
      </trkpt>
      <trkpt lat="62.636014299579" lon="17.979198047311">
        <ele>103.4</ele>
        <time>2018-01-03T13:21:44Z</time>
      </trkpt>
      <trkpt lat="62.636015389226" lon="17.979213050912">
        <ele>103.4</ele>
        <time>2018-01-03T13:21:45Z</time>
      </trkpt>
      <trkpt lat="62.635999463616" lon="17.979553607509">
        <ele>103.2</ele>
        <time>2018-01-03T13:21:51Z</time>
      </trkpt>
      <trkpt lat="62.635994015381" lon="17.979669110091">
        <ele>103</ele>
        <time>2018-01-03T13:21:52Z</time>
      </trkpt>
      <trkpt lat="62.635989740612" lon="17.97981839173">
        <ele>102.6</ele>
        <time>2018-01-03T13:21:53Z</time>
      </trkpt>
      <trkpt lat="62.63599074644" lon="17.97994831118">
        <ele>102</ele>
        <time>2018-01-03T13:21:54Z</time>
      </trkpt>
      <trkpt lat="62.635999798892" lon="17.980117709379">
        <ele>101</ele>
        <time>2018-01-03T13:21:55Z</time>
      </trkpt>
      <trkpt lat="62.636016646511" lon="17.980275121461">
        <ele>99.8</ele>
        <time>2018-01-03T13:21:56Z</time>
      </trkpt>
      <trkpt lat="62.636026118058" lon="17.98040847749">
        <ele>100.8</ele>
        <time>2018-01-03T13:21:57Z</time>
      </trkpt>
      <trkpt lat="62.636050928482" lon="17.980557926767">
        <ele>100.6</ele>
        <time>2018-01-03T13:21:58Z</time>
      </trkpt>
      <trkpt lat="62.636073559612" lon="17.980679631955">
        <ele>100.6</ele>
        <time>2018-01-03T13:21:59Z</time>
      </trkpt>
      <trkpt lat="62.636102560986" lon="17.980832853087">
        <ele>100.4</ele>
        <time>2018-01-03T13:22:00Z</time>
      </trkpt>
      <trkpt lat="62.636125946487" lon="17.980953049533">
        <ele>100.4</ele>
        <time>2018-01-03T13:22:01Z</time>
      </trkpt>
      <trkpt lat="62.636147320332" lon="17.981060086396">
        <ele>100.4</ele>
        <time>2018-01-03T13:22:02Z</time>
      </trkpt>
      <trkpt lat="62.63616760453" lon="17.981177684453">
        <ele>100.4</ele>
        <time>2018-01-03T13:22:03Z</time>
      </trkpt>
      <trkpt lat="62.636177411353" lon="17.981264185661">
        <ele>100.4</ele>
        <time>2018-01-03T13:22:04Z</time>
      </trkpt>
      <trkpt lat="62.636186128529" lon="17.981368791773">
        <ele>100.4</ele>
        <time>2018-01-03T13:22:05Z</time>
      </trkpt>
      <trkpt lat="62.636195683895" lon="17.981478259387">
        <ele>100.4</ele>
        <time>2018-01-03T13:22:06Z</time>
      </trkpt>
      <trkpt lat="62.636206915641" lon="17.981574148323">
        <ele>100.6</ele>
        <time>2018-01-03T13:22:07Z</time>
      </trkpt>
      <trkpt lat="62.636216554826" lon="17.981660314255">
        <ele>101</ele>
        <time>2018-01-03T13:22:08Z</time>
      </trkpt>
      <trkpt lat="62.636224852907" lon="17.981754442992">
        <ele>101.2</ele>
        <time>2018-01-03T13:22:09Z</time>
      </trkpt>
      <trkpt lat="62.636236084653" lon="17.981854187602">
        <ele>101.4</ele>
        <time>2018-01-03T13:22:10Z</time>
      </trkpt>
      <trkpt lat="62.636246142933" lon="17.981935911127">
        <ele>101.4</ele>
        <time>2018-01-03T13:22:11Z</time>
      </trkpt>
      <trkpt lat="62.636254860109" lon="17.98212089966">
        <ele>101.2</ele>
        <time>2018-01-03T13:22:13Z</time>
      </trkpt>
      <trkpt lat="62.636259218697" lon="17.982220728089">
        <ele>100.8</ele>
        <time>2018-01-03T13:22:14Z</time>
      </trkpt>
      <trkpt lat="62.636257793774" lon="17.982311504066">
        <ele>100.6</ele>
        <time>2018-01-03T13:22:15Z</time>
      </trkpt>
      <trkpt lat="62.636254943928" lon="17.982412673599">
        <ele>100.4</ele>
        <time>2018-01-03T13:22:16Z</time>
      </trkpt>
      <trkpt lat="62.636254189557" lon="17.982505209775">
        <ele>100.2</ele>
        <time>2018-01-03T13:22:17Z</time>
      </trkpt>
      <trkpt lat="62.636258548145" lon="17.982575785373">
        <ele>100.2</ele>
        <time>2018-01-03T13:22:18Z</time>
      </trkpt>
      <trkpt lat="62.636255279204" lon="17.982655078147">
        <ele>100.2</ele>
        <time>2018-01-03T13:22:19Z</time>
      </trkpt>
      <trkpt lat="62.636261146534" lon="17.982745435029">
        <ele>100.2</ele>
        <time>2018-01-03T13:22:20Z</time>
      </trkpt>
      <trkpt lat="62.636260308344" lon="17.982822883785">
        <ele>100.2</ele>
        <time>2018-01-03T13:22:21Z</time>
      </trkpt>
      <trkpt lat="62.636258883421" lon="17.982912402477">
        <ele>100.6</ele>
        <time>2018-01-03T13:22:22Z</time>
      </trkpt>
      <trkpt lat="62.636271372452" lon="17.982969483216">
        <ele>100.6</ele>
        <time>2018-01-03T13:22:23Z</time>
      </trkpt>
      <trkpt lat="62.63626315819" lon="17.983041316099">
        <ele>100.8</ele>
        <time>2018-01-03T13:22:24Z</time>
      </trkpt>
      <trkpt lat="62.636260140706" lon="17.983126308565">
        <ele>100.8</ele>
        <time>2018-01-03T13:22:25Z</time>
      </trkpt>
      <trkpt lat="62.636272545918" lon="17.983188586082">
        <ele>100.8</ele>
        <time>2018-01-03T13:22:26Z</time>
      </trkpt>
      <trkpt lat="62.636277826515" lon="17.983273327091">
        <ele>101.2</ele>
        <time>2018-01-03T13:22:27Z</time>
      </trkpt>
      <trkpt lat="62.636279167619" lon="17.983362007593">
        <ele>101.2</ele>
        <time>2018-01-03T13:22:28Z</time>
      </trkpt>
      <trkpt lat="62.63627740742" lon="17.983433337562">
        <ele>100.8</ele>
        <time>2018-01-03T13:22:29Z</time>
      </trkpt>
      <trkpt lat="62.6362707019" lon="17.983508858481">
        <ele>100.4</ele>
        <time>2018-01-03T13:22:30Z</time>
      </trkpt>
      <trkpt lat="62.636265924217" lon="17.983574656396">
        <ele>100</ele>
        <time>2018-01-03T13:22:31Z</time>
      </trkpt>
      <trkpt lat="62.636266259493" lon="17.983641292501">
        <ele>100.2</ele>
        <time>2018-01-03T13:22:32Z</time>
      </trkpt>
      <trkpt lat="62.636259134878" lon="17.983696361584">
        <ele>100.4</ele>
        <time>2018-01-03T13:22:33Z</time>
      </trkpt>
      <trkpt lat="62.636256704127" lon="17.983763835879">
        <ele>100.8</ele>
        <time>2018-01-03T13:22:34Z</time>
      </trkpt>
      <trkpt lat="62.636249914788" lon="17.983826700129">
        <ele>100.8</ele>
        <time>2018-01-03T13:22:35Z</time>
      </trkpt>
      <trkpt lat="62.636241029974" lon="17.983883110316">
        <ele>100.8</ele>
        <time>2018-01-03T13:22:36Z</time>
      </trkpt>
      <trkpt lat="62.636236755205" lon="17.983945471652">
        <ele>101.2</ele>
        <time>2018-01-03T13:22:37Z</time>
      </trkpt>
      <trkpt lat="62.63623130697" lon="17.983997271794">
        <ele>101.4</ele>
        <time>2018-01-03T13:22:38Z</time>
      </trkpt>
      <trkpt lat="62.636221500147" lon="17.984062399157">
        <ele>101.4</ele>
        <time>2018-01-03T13:22:39Z</time>
      </trkpt>
      <trkpt lat="62.636219069396" lon="17.984130627823">
        <ele>101.6</ele>
        <time>2018-01-03T13:22:40Z</time>
      </trkpt>
      <trkpt lat="62.636214124075" lon="17.984178488472">
        <ele>101.4</ele>
        <time>2018-01-03T13:22:41Z</time>
      </trkpt>
      <trkpt lat="62.636205071623" lon="17.984245543672">
        <ele>101.8</ele>
        <time>2018-01-03T13:22:42Z</time>
      </trkpt>
      <trkpt lat="62.636202305596" lon="17.984298349642">
        <ele>102</ele>
        <time>2018-01-03T13:22:43Z</time>
      </trkpt>
      <trkpt lat="62.636195180981" lon="17.984356771485">
        <ele>101.6</ele>
        <time>2018-01-03T13:22:44Z</time>
      </trkpt>
      <trkpt lat="62.636190990031" lon="17.984415612423">
        <ele>101.4</ele>
        <time>2018-01-03T13:22:45Z</time>
      </trkpt>
      <trkpt lat="62.63618604471" lon="17.984473363714">
        <ele>101.4</ele>
        <time>2018-01-03T13:22:46Z</time>
      </trkpt>
      <trkpt lat="62.636178417181" lon="17.984543771674">
        <ele>101.4</ele>
        <time>2018-01-03T13:22:47Z</time>
      </trkpt>
      <trkpt lat="62.63617179548" lon="17.984603702259">
        <ele>101.2</ele>
        <time>2018-01-03T13:22:48Z</time>
      </trkpt>
      <trkpt lat="62.636167688349" lon="17.984661118274">
        <ele>101.2</ele>
        <time>2018-01-03T13:22:49Z</time>
      </trkpt>
      <trkpt lat="62.636164000313" lon="17.984728424931">
        <ele>101</ele>
        <time>2018-01-03T13:22:50Z</time>
      </trkpt>
      <trkpt lat="62.63617095729" lon="17.98478047653">
        <ele>101.2</ele>
        <time>2018-01-03T13:22:51Z</time>
      </trkpt>
      <trkpt lat="62.636169951462" lon="17.98483998802">
        <ele>101</ele>
        <time>2018-01-03T13:22:52Z</time>
      </trkpt>
      <trkpt lat="62.636165592874" lon="17.984895224741">
        <ele>101.2</ele>
        <time>2018-01-03T13:22:53Z</time>
      </trkpt>
      <trkpt lat="62.636162659209" lon="17.984939397354">
        <ele>101.2</ele>
        <time>2018-01-03T13:22:54Z</time>
      </trkpt>
      <trkpt lat="62.636160144639" lon="17.985003351251">
        <ele>101.2</ele>
        <time>2018-01-03T13:22:55Z</time>
      </trkpt>
      <trkpt lat="62.636161569562" lon="17.985058839429">
        <ele>101.2</ele>
        <time>2018-01-03T13:22:56Z</time>
      </trkpt>
      <trkpt lat="62.636152433291" lon="17.985111896856">
        <ele>101.2</ele>
        <time>2018-01-03T13:22:57Z</time>
      </trkpt>
      <trkpt lat="62.63614413521" lon="17.985166127749">
        <ele>101.2</ele>
        <time>2018-01-03T13:22:58Z</time>
      </trkpt>
      <trkpt lat="62.6361449734" lon="17.985201834643">
        <ele>101.2</ele>
        <time>2018-01-03T13:22:59Z</time>
      </trkpt>
      <trkpt lat="62.63614078245" lon="17.985236368071">
        <ele>101</ele>
        <time>2018-01-03T13:23:00Z</time>
      </trkpt>
      <trkpt lat="62.636140698631" lon="17.985311302257">
        <ele>101</ele>
        <time>2018-01-03T13:23:01Z</time>
      </trkpt>
      <trkpt lat="62.636136256224" lon="17.985361509838">
        <ele>100.8</ele>
        <time>2018-01-03T13:23:02Z</time>
      </trkpt>
      <trkpt lat="62.63612569503" lon="17.985424709364">
        <ele>100.8</ele>
        <time>2018-01-03T13:23:03Z</time>
      </trkpt>
      <trkpt lat="62.636120749709" lon="17.985478353524">
        <ele>100.8</ele>
        <time>2018-01-03T13:23:04Z</time>
      </trkpt>
      <trkpt lat="62.636117480768" lon="17.985516239712">
        <ele>100.8</ele>
        <time>2018-01-03T13:23:05Z</time>
      </trkpt>
      <trkpt lat="62.636110942886" lon="17.985578601048">
        <ele>100.8</ele>
        <time>2018-01-03T13:23:06Z</time>
      </trkpt>
      <trkpt lat="62.63610390209" lon="17.985639872737">
        <ele>100.6</ele>
        <time>2018-01-03T13:23:07Z</time>
      </trkpt>
      <trkpt lat="62.636103566814" lon="17.985681614599">
        <ele>100.6</ele>
        <time>2018-01-03T13:23:08Z</time>
      </trkpt>
      <trkpt lat="62.636097028932" lon="17.985721009529">
        <ele>100.6</ele>
        <time>2018-01-03T13:23:09Z</time>
      </trkpt>
      <trkpt lat="62.636083953168" lon="17.985775994793">
        <ele>100.4</ele>
        <time>2018-01-03T13:23:10Z</time>
      </trkpt>
      <trkpt lat="62.636071799413" lon="17.985812372239">
        <ele>100.4</ele>
        <time>2018-01-03T13:23:11Z</time>
      </trkpt>
      <trkpt lat="62.63605863983" lon="17.985846067477">
        <ele>100.2</ele>
        <time>2018-01-03T13:23:12Z</time>
      </trkpt>
      <trkpt lat="62.636036679252" lon="17.985882528742">
        <ele>100</ele>
        <time>2018-01-03T13:23:13Z</time>
      </trkpt>
      <trkpt lat="62.636020250728" lon="17.985906584795">
        <ele>100</ele>
        <time>2018-01-03T13:23:14Z</time>
      </trkpt>
      <trkpt lat="62.636004241299" lon="17.985933406875">
        <ele>100</ele>
        <time>2018-01-03T13:23:15Z</time>
      </trkpt>
      <trkpt lat="62.63598236454" lon="17.985957211471">
        <ele>100</ele>
        <time>2018-01-03T13:23:16Z</time>
      </trkpt>
      <trkpt lat="62.635960655419" lon="17.985996271125">
        <ele>100</ele>
        <time>2018-01-03T13:23:17Z</time>
      </trkpt>
      <trkpt lat="62.635943472524" lon="17.986007251414">
        <ele>100.2</ele>
        <time>2018-01-03T13:23:18Z</time>
      </trkpt>
      <trkpt lat="62.635932827511" lon="17.986031307467">
        <ele>100.2</ele>
        <time>2018-01-03T13:23:19Z</time>
      </trkpt>
      <trkpt lat="62.635907597992" lon="17.986052262217">
        <ele>100.2</ele>
        <time>2018-01-03T13:23:20Z</time>
      </trkpt>
      <trkpt lat="62.635879686265" lon="17.986066595266">
        <ele>100.4</ele>
        <time>2018-01-03T13:23:21Z</time>
      </trkpt>
      <trkpt lat="62.635868873614" lon="17.986073636062">
        <ele>100.2</ele>
        <time>2018-01-03T13:23:22Z</time>
      </trkpt>
      <trkpt lat="62.635853450918" lon="17.986082856152">
        <ele>100.2</ele>
        <time>2018-01-03T13:23:23Z</time>
      </trkpt>
      <trkpt lat="62.63582897577" lon="17.986096853925">
        <ele>100.4</ele>
        <time>2018-01-03T13:23:24Z</time>
      </trkpt>
      <trkpt lat="62.635810032676" lon="17.986116970485">
        <ele>100.4</ele>
        <time>2018-01-03T13:23:25Z</time>
      </trkpt>
      <trkpt lat="62.635794693799" lon="17.986137254683">
        <ele>100.4</ele>
        <time>2018-01-03T13:23:26Z</time>
      </trkpt>
      <trkpt lat="62.63577952256" lon="17.986167932437">
        <ele>100.6</ele>
        <time>2018-01-03T13:23:27Z</time>
      </trkpt>
      <trkpt lat="62.635765943882" lon="17.986205734806">
        <ele>100.6</ele>
        <time>2018-01-03T13:23:28Z</time>
      </trkpt>
      <trkpt lat="62.635752365204" lon="17.986227779203">
        <ele>100.8</ele>
        <time>2018-01-03T13:23:29Z</time>
      </trkpt>
      <trkpt lat="62.635740546725" lon="17.98624898541">
        <ele>100.8</ele>
        <time>2018-01-03T13:23:30Z</time>
      </trkpt>
      <trkpt lat="62.635734930852" lon="17.98626994016">
        <ele>100.8</ele>
        <time>2018-01-03T13:23:31Z</time>
      </trkpt>
      <trkpt lat="62.635726548952" lon="17.986289805263">
        <ele>100.8</ele>
        <time>2018-01-03T13:23:32Z</time>
      </trkpt>
      <trkpt lat="62.635717831776" lon="17.986312436393">
        <ele>101</ele>
        <time>2018-01-03T13:23:33Z</time>
      </trkpt>
      <trkpt lat="62.635709533695" lon="17.986342359776">
        <ele>101.4</ele>
        <time>2018-01-03T13:23:34Z</time>
      </trkpt>
      <trkpt lat="62.635688746583" lon="17.986381251792">
        <ele>101.6</ele>
        <time>2018-01-03T13:23:35Z</time>
      </trkpt>
      <trkpt lat="62.635677933932" lon="17.986408409148">
        <ele>101.8</ele>
        <time>2018-01-03T13:23:36Z</time>
      </trkpt>
      <trkpt lat="62.635656811544" lon="17.986443613128">
        <ele>102</ele>
        <time>2018-01-03T13:23:37Z</time>
      </trkpt>
      <trkpt lat="62.635637449355" lon="17.986484768257">
        <ele>102.2</ele>
        <time>2018-01-03T13:23:38Z</time>
      </trkpt>
      <trkpt lat="62.635629821826" lon="17.986521480979">
        <ele>102.2</ele>
        <time>2018-01-03T13:23:39Z</time>
      </trkpt>
      <trkpt lat="62.635619512089" lon="17.986548303059">
        <ele>102.2</ele>
        <time>2018-01-03T13:23:40Z</time>
      </trkpt>
      <trkpt lat="62.635596210407" lon="17.986616280268">
        <ele>102.2</ele>
        <time>2018-01-03T13:23:41Z</time>
      </trkpt>
      <trkpt lat="62.635585146299" lon="17.986649137316">
        <ele>102.2</ele>
        <time>2018-01-03T13:23:42Z</time>
      </trkpt>
      <trkpt lat="62.635567292852" lon="17.986706218055">
        <ele>102.2</ele>
        <time>2018-01-03T13:23:43Z</time>
      </trkpt>
      <trkpt lat="62.635549607043" lon="17.98674100294">
        <ele>102.2</ele>
        <time>2018-01-03T13:23:44Z</time>
      </trkpt>
      <trkpt lat="62.635538375297" lon="17.986788109218">
        <ele>102.4</ele>
        <time>2018-01-03T13:23:45Z</time>
      </trkpt>
      <trkpt lat="62.635526975913" lon="17.986819122248">
        <ele>102.4</ele>
        <time>2018-01-03T13:23:46Z</time>
      </trkpt>
      <trkpt lat="62.635505769706" lon="17.986854493866">
        <ele>102.6</ele>
        <time>2018-01-03T13:23:47Z</time>
      </trkpt>
      <trkpt lat="62.635493196856" lon="17.986894475529">
        <ele>102.6</ele>
        <time>2018-01-03T13:23:48Z</time>
      </trkpt>
      <trkpt lat="62.635485569327" lon="17.986931439708">
        <ele>102.8</ele>
        <time>2018-01-03T13:23:49Z</time>
      </trkpt>
      <trkpt lat="62.635472493563" lon="17.98698407804">
        <ele>102.8</ele>
        <time>2018-01-03T13:23:50Z</time>
      </trkpt>
      <trkpt lat="62.635460004532" lon="17.98703353125">
        <ele>103</ele>
        <time>2018-01-03T13:23:51Z</time>
      </trkpt>
      <trkpt lat="62.635448688967" lon="17.98705783876">
        <ele>103.2</ele>
        <time>2018-01-03T13:23:52Z</time>
      </trkpt>
      <trkpt lat="62.635429326778" lon="17.987098490975">
        <ele>103.2</ele>
        <time>2018-01-03T13:23:53Z</time>
      </trkpt>
      <trkpt lat="62.63541407172" lon="17.987132605308">
        <ele>103.2</ele>
        <time>2018-01-03T13:23:54Z</time>
      </trkpt>
      <trkpt lat="62.63540652801" lon="17.987164456528">
        <ele>103.4</ele>
        <time>2018-01-03T13:23:55Z</time>
      </trkpt>
      <trkpt lat="62.635387920192" lon="17.987205695476">
        <ele>103.4</ele>
        <time>2018-01-03T13:23:56Z</time>
      </trkpt>
      <trkpt lat="62.6353822205" lon="17.987238552524">
        <ele>103.4</ele>
        <time>2018-01-03T13:23:57Z</time>
      </trkpt>
      <trkpt lat="62.635360762836" lon="17.987277193083">
        <ele>103.6</ele>
        <time>2018-01-03T13:23:58Z</time>
      </trkpt>
      <trkpt lat="62.635352213298" lon="17.987308625208">
        <ele>103.8</ele>
        <time>2018-01-03T13:23:59Z</time>
      </trkpt>
      <trkpt lat="62.635330587996" lon="17.987349277423">
        <ele>104.2</ele>
        <time>2018-01-03T13:24:00Z</time>
      </trkpt>
      <trkpt lat="62.63531348892" lon="17.987393869131">
        <ele>104.2</ele>
        <time>2018-01-03T13:24:01Z</time>
      </trkpt>
      <trkpt lat="62.635296473663" lon="17.987434102251">
        <ele>104.6</ele>
        <time>2018-01-03T13:24:02Z</time>
      </trkpt>
      <trkpt lat="62.63527744675" lon="17.987472994267">
        <ele>104.6</ele>
        <time>2018-01-03T13:24:03Z</time>
      </trkpt>
      <trkpt lat="62.635259760941" lon="17.987509706989">
        <ele>104.6</ele>
        <time>2018-01-03T13:24:04Z</time>
      </trkpt>
      <trkpt lat="62.635242829503" lon="17.987546587349">
        <ele>104.6</ele>
        <time>2018-01-03T13:24:05Z</time>
      </trkpt>
      <trkpt lat="62.63523469906" lon="17.987576007818">
        <ele>104.8</ele>
        <time>2018-01-03T13:24:06Z</time>
      </trkpt>
      <trkpt lat="62.635215672147" lon="17.987607356124">
        <ele>104.6</ele>
        <time>2018-01-03T13:24:07Z</time>
      </trkpt>
      <trkpt lat="62.635197399605" lon="17.987644236484">
        <ele>104.6</ele>
        <time>2018-01-03T13:24:08Z</time>
      </trkpt>
      <trkpt lat="62.635178624149" lon="17.987670471831">
        <ele>104.8</ele>
        <time>2018-01-03T13:24:09Z</time>
      </trkpt>
      <trkpt lat="62.635161105978" lon="17.98769486316">
        <ele>104.8</ele>
        <time>2018-01-03T13:24:10Z</time>
      </trkpt>
      <trkpt lat="62.635149036042" lon="17.98771833248">
        <ele>105</ele>
        <time>2018-01-03T13:24:11Z</time>
      </trkpt>
      <trkpt lat="62.635129003301" lon="17.987746663302">
        <ele>105</ele>
        <time>2018-01-03T13:24:12Z</time>
      </trkpt>
      <trkpt lat="62.635107545637" lon="17.987771054631">
        <ele>105</ele>
        <time>2018-01-03T13:24:13Z</time>
      </trkpt>
      <trkpt lat="62.635095894796" lon="17.987782202558">
        <ele>105</ele>
        <time>2018-01-03T13:24:14Z</time>
      </trkpt>
      <trkpt lat="62.63507795753" lon="17.987809108457">
        <ele>105.2</ele>
        <time>2018-01-03T13:24:15Z</time>
      </trkpt>
      <trkpt lat="62.635063289205" lon="17.987829308836">
        <ele>105.4</ele>
        <time>2018-01-03T13:24:16Z</time>
      </trkpt>
      <trkpt lat="62.635043843197" lon="17.987848419568">
        <ele>105.6</ele>
        <time>2018-01-03T13:24:17Z</time>
      </trkpt>
      <trkpt lat="62.63502850432" lon="17.987874152001">
        <ele>105.8</ele>
        <time>2018-01-03T13:24:18Z</time>
      </trkpt>
      <trkpt lat="62.635010483235" lon="17.987900387348">
        <ele>106</ele>
        <time>2018-01-03T13:24:19Z</time>
      </trkpt>
      <trkpt lat="62.634981900956" lon="17.987935675147">
        <ele>106</ele>
        <time>2018-01-03T13:24:20Z</time>
      </trkpt>
      <trkpt lat="62.634964718061" lon="17.987955288793">
        <ele>106.2</ele>
        <time>2018-01-03T13:24:21Z</time>
      </trkpt>
      <trkpt lat="62.634950720288" lon="17.987981440321">
        <ele>106.2</ele>
        <time>2018-01-03T13:24:22Z</time>
      </trkpt>
      <trkpt lat="62.634929849357" lon="17.988006921297">
        <ele>106.2</ele>
        <time>2018-01-03T13:24:23Z</time>
      </trkpt>
      <trkpt lat="62.634911660634" lon="17.98803852106">
        <ele>106.2</ele>
        <time>2018-01-03T13:24:24Z</time>
      </trkpt>
      <trkpt lat="62.634891460255" lon="17.988059811086">
        <ele>106.4</ele>
        <time>2018-01-03T13:24:25Z</time>
      </trkpt>
      <trkpt lat="62.634877127206" lon="17.988082442216">
        <ele>106.4</ele>
        <time>2018-01-03T13:24:26Z</time>
      </trkpt>
      <trkpt lat="62.634863045614" lon="17.988095769437">
        <ele>106.4</ele>
        <time>2018-01-03T13:24:27Z</time>
      </trkpt>
      <trkpt lat="62.634837564638" lon="17.988109515753">
        <ele>106.6</ele>
        <time>2018-01-03T13:24:28Z</time>
      </trkpt>
      <trkpt lat="62.634821052295" lon="17.988117813834">
        <ele>106.6</ele>
        <time>2018-01-03T13:24:29Z</time>
      </trkpt>
      <trkpt lat="62.634805461961" lon="17.988128877942">
        <ele>106.8</ele>
        <time>2018-01-03T13:24:30Z</time>
      </trkpt>
      <trkpt lat="62.634776712044" lon="17.988138098032">
        <ele>107</ele>
        <time>2018-01-03T13:24:31Z</time>
      </trkpt>
      <trkpt lat="62.634755338199" lon="17.988148743045">
        <ele>107</ele>
        <time>2018-01-03T13:24:32Z</time>
      </trkpt>
      <trkpt lat="62.634740837512" lon="17.988168943424">
        <ele>107.2</ele>
        <time>2018-01-03T13:24:33Z</time>
      </trkpt>
      <trkpt lat="62.634724408988" lon="17.988173553469">
        <ele>107.2</ele>
        <time>2018-01-03T13:24:34Z</time>
      </trkpt>
      <trkpt lat="62.63470077203" lon="17.988152598719">
        <ele>107.4</ele>
        <time>2018-01-03T13:24:35Z</time>
      </trkpt>
      <trkpt lat="62.634681828936" lon="17.988143965362">
        <ele>107.4</ele>
        <time>2018-01-03T13:24:36Z</time>
      </trkpt>
      <trkpt lat="62.634666490059" lon="17.988148659226">
        <ele>107.4</ele>
        <time>2018-01-03T13:24:37Z</time>
      </trkpt>
      <trkpt lat="62.634639165065" lon="17.988148407769">
        <ele>107.6</ele>
        <time>2018-01-03T13:24:38Z</time>
      </trkpt>
      <trkpt lat="62.6346278495" lon="17.988160980619">
        <ele>107.6</ele>
        <time>2018-01-03T13:24:39Z</time>
      </trkpt>
      <trkpt lat="62.634610498967" lon="17.988159807153">
        <ele>107.8</ele>
        <time>2018-01-03T13:24:40Z</time>
      </trkpt>
      <trkpt lat="62.634583760706" lon="17.988157041126">
        <ele>108</ele>
        <time>2018-01-03T13:24:41Z</time>
      </trkpt>
      <trkpt lat="62.634568924743" lon="17.988152263443">
        <ele>108</ele>
        <time>2018-01-03T13:24:42Z</time>
      </trkpt>
      <trkpt lat="62.634554675513" lon="17.988163998103">
        <ele>108</ele>
        <time>2018-01-03T13:24:43Z</time>
      </trkpt>
      <trkpt lat="62.634532798754" lon="17.988167015587">
        <ele>108</ele>
        <time>2018-01-03T13:24:44Z</time>
      </trkpt>
      <trkpt lat="62.634512682194" lon="17.9881692787">
        <ele>108</ele>
        <time>2018-01-03T13:24:45Z</time>
      </trkpt>
      <trkpt lat="62.634492984729" lon="17.988175648944">
        <ele>108</ele>
        <time>2018-01-03T13:24:46Z</time>
      </trkpt>
      <trkpt lat="62.634464737726" lon="17.988174224021">
        <ele>108.2</ele>
        <time>2018-01-03T13:24:47Z</time>
      </trkpt>
      <trkpt lat="62.634448560659" lon="17.988183360292">
        <ele>108.2</ele>
        <time>2018-01-03T13:24:48Z</time>
      </trkpt>
      <trkpt lat="62.634427186814" lon="17.98818352793">
        <ele>108.2</ele>
        <time>2018-01-03T13:24:49Z</time>
      </trkpt>
      <trkpt lat="62.634404220408" lon="17.988192245106">
        <ele>108.4</ele>
        <time>2018-01-03T13:24:50Z</time>
      </trkpt>
      <trkpt lat="62.634391899015" lon="17.988194592038">
        <ele>108.4</ele>
        <time>2018-01-03T13:24:51Z</time>
      </trkpt>
      <trkpt lat="62.634377733604" lon="17.988200207911">
        <ele>108.6</ele>
        <time>2018-01-03T13:24:52Z</time>
      </trkpt>
      <trkpt lat="62.634347726402" lon="17.988200878463">
        <ele>108.6</ele>
        <time>2018-01-03T13:24:53Z</time>
      </trkpt>
      <trkpt lat="62.63432945386" lon="17.988199621178">
        <ele>108.6</ele>
        <time>2018-01-03T13:24:54Z</time>
      </trkpt>
      <trkpt lat="62.634304894893" lon="17.988207751621">
        <ele>108.8</ele>
        <time>2018-01-03T13:24:55Z</time>
      </trkpt>
      <trkpt lat="62.634274636234" lon="17.988203393033">
        <ele>108.8</ele>
        <time>2018-01-03T13:24:56Z</time>
      </trkpt>
      <trkpt lat="62.634256196054" lon="17.988208254535">
        <ele>109</ele>
        <time>2018-01-03T13:24:57Z</time>
      </trkpt>
      <trkpt lat="62.634230631259" lon="17.988205237051">
        <ele>109</ele>
        <time>2018-01-03T13:24:58Z</time>
      </trkpt>
      <trkpt lat="62.63421043088" lon="17.988201465196">
        <ele>109</ele>
        <time>2018-01-03T13:24:59Z</time>
      </trkpt>
      <trkpt lat="62.634182854429" lon="17.988189730536">
        <ele>109.2</ele>
        <time>2018-01-03T13:25:00Z</time>
      </trkpt>
      <trkpt lat="62.634156619082" lon="17.988189059984">
        <ele>109.2</ele>
        <time>2018-01-03T13:25:01Z</time>
      </trkpt>
      <trkpt lat="62.634118900532" lon="17.988180426627">
        <ele>109.4</ele>
        <time>2018-01-03T13:25:02Z</time>
      </trkpt>
      <trkpt lat="62.634100208895" lon="17.988157460221">
        <ele>109.2</ele>
        <time>2018-01-03T13:25:03Z</time>
      </trkpt>
      <trkpt lat="62.634072883901" lon="17.988154610375">
        <ele>109.2</ele>
        <time>2018-01-03T13:25:04Z</time>
      </trkpt>
      <trkpt lat="62.634036757912" lon="17.988152347262">
        <ele>109.2</ele>
        <time>2018-01-03T13:25:05Z</time>
      </trkpt>
      <trkpt lat="62.634018569189" lon="17.988154694194">
        <ele>109.2</ele>
        <time>2018-01-03T13:25:06Z</time>
      </trkpt>
      <trkpt lat="62.633986382693" lon="17.988137762756">
        <ele>109.2</ele>
        <time>2018-01-03T13:25:07Z</time>
      </trkpt>
      <trkpt lat="62.633970959997" lon="17.988117478558">
        <ele>109.2</ele>
        <time>2018-01-03T13:25:08Z</time>
      </trkpt>
      <trkpt lat="62.633951681627" lon="17.988111611228">
        <ele>109.4</ele>
        <time>2018-01-03T13:25:09Z</time>
      </trkpt>
      <trkpt lat="62.633919243674" lon="17.988093506324">
        <ele>109.6</ele>
        <time>2018-01-03T13:25:10Z</time>
      </trkpt>
      <trkpt lat="62.633897618372" lon="17.988064085855">
        <ele>109.6</ele>
        <time>2018-01-03T13:25:11Z</time>
      </trkpt>
      <trkpt lat="62.633876747441" lon="17.988054362851">
        <ele>109.8</ele>
        <time>2018-01-03T13:25:12Z</time>
      </trkpt>
      <trkpt lat="62.633842381651" lon="17.988031061169">
        <ele>110</ele>
        <time>2018-01-03T13:25:13Z</time>
      </trkpt>
      <trkpt lat="62.63382737805" lon="17.988008513858">
        <ele>110</ele>
        <time>2018-01-03T13:25:14Z</time>
      </trkpt>
      <trkpt lat="62.633798460495" lon="17.987985295995">
        <ele>110.2</ele>
        <time>2018-01-03T13:25:15Z</time>
      </trkpt>
      <trkpt lat="62.63377624846" lon="17.98796140758">
        <ele>110.2</ele>
        <time>2018-01-03T13:25:16Z</time>
      </trkpt>
      <trkpt lat="62.633760239031" lon="17.987940369011">
        <ele>110.4</ele>
        <time>2018-01-03T13:25:17Z</time>
      </trkpt>
      <trkpt lat="62.633732159666" lon="17.987904159203">
        <ele>110.4</ele>
        <time>2018-01-03T13:25:18Z</time>
      </trkpt>
      <trkpt lat="62.633701481912" lon="17.987900052072">
        <ele>110.4</ele>
        <time>2018-01-03T13:25:19Z</time>
      </trkpt>
      <trkpt lat="62.63368237118" lon="17.987885635204">
        <ele>110.4</ele>
        <time>2018-01-03T13:25:20Z</time>
      </trkpt>
      <trkpt lat="62.63365051996" lon="17.987871972707">
        <ele>110.4</ele>
        <time>2018-01-03T13:25:21Z</time>
      </trkpt>
      <trkpt lat="62.633629062296" lon="17.987857891115">
        <ele>110.6</ele>
        <time>2018-01-03T13:25:22Z</time>
      </trkpt>
      <trkpt lat="62.633611041211" lon="17.987831823406">
        <ele>110.6</ele>
        <time>2018-01-03T13:25:23Z</time>
      </trkpt>
      <trkpt lat="62.633585727873" lon="17.987809359914">
        <ele>110.8</ele>
        <time>2018-01-03T13:25:24Z</time>
      </trkpt>
      <trkpt lat="62.633564605485" lon="17.987775497038">
        <ele>111.2</ele>
        <time>2018-01-03T13:25:25Z</time>
      </trkpt>
      <trkpt lat="62.633548596056" lon="17.987765103482">
        <ele>111.4</ele>
        <time>2018-01-03T13:25:26Z</time>
      </trkpt>
      <trkpt lat="62.633527222211" lon="17.987723110163">
        <ele>111.6</ele>
        <time>2018-01-03T13:25:27Z</time>
      </trkpt>
      <trkpt lat="62.633504758719" lon="17.987698048282">
        <ele>111.8</ele>
        <time>2018-01-03T13:25:28Z</time>
      </trkpt>
      <trkpt lat="62.633484642159" lon="17.987670890926">
        <ele>112</ele>
        <time>2018-01-03T13:25:29Z</time>
      </trkpt>
      <trkpt lat="62.633458993545" lon="17.987630993082">
        <ele>112</ele>
        <time>2018-01-03T13:25:30Z</time>
      </trkpt>
      <trkpt lat="62.633435272768" lon="17.98760433864">
        <ele>112.2</ele>
        <time>2018-01-03T13:25:31Z</time>
      </trkpt>
      <trkpt lat="62.633417000226" lon="17.987578606207">
        <ele>112.2</ele>
        <time>2018-01-03T13:25:32Z</time>
      </trkpt>
      <trkpt lat="62.633401074616" lon="17.987550107747">
        <ele>112.4</ele>
        <time>2018-01-03T13:25:33Z</time>
      </trkpt>
      <trkpt lat="62.633388585585" lon="17.987527728074">
        <ele>112.4</ele>
        <time>2018-01-03T13:25:34Z</time>
      </trkpt>
      <trkpt lat="62.633370815957" lon="17.987495625397">
        <ele>112.6</ele>
        <time>2018-01-03T13:25:35Z</time>
      </trkpt>
      <trkpt lat="62.633357488736" lon="17.987463606539">
        <ele>112.6</ele>
        <time>2018-01-03T13:25:36Z</time>
      </trkpt>
      <trkpt lat="62.633340222022" lon="17.987411638759">
        <ele>112.8</ele>
        <time>2018-01-03T13:25:37Z</time>
      </trkpt>
      <trkpt lat="62.633327649172" lon="17.987354390382">
        <ele>113</ele>
        <time>2018-01-03T13:25:38Z</time>
      </trkpt>
      <trkpt lat="62.63331021482" lon="17.987288005734">
        <ele>113.2</ele>
        <time>2018-01-03T13:25:39Z</time>
      </trkpt>
      <trkpt lat="62.633290852631" lon="17.987233942479">
        <ele>113.4</ele>
        <time>2018-01-03T13:25:40Z</time>
      </trkpt>
      <trkpt lat="62.633272412451" lon="17.987132605308">
        <ele>113.2</ele>
        <time>2018-01-03T13:25:41Z</time>
      </trkpt>
      <trkpt lat="62.633250116597" lon="17.987012827957">
        <ele>112.8</ele>
        <time>2018-01-03T13:25:42Z</time>
      </trkpt>
      <trkpt lat="62.633230167675" lon="17.986899588488">
        <ele>112.2</ele>
        <time>2018-01-03T13:25:43Z</time>
      </trkpt>
      <trkpt lat="62.633213655332" lon="17.986798251317">
        <ele>111.4</ele>
        <time>2018-01-03T13:25:44Z</time>
      </trkpt>
      <trkpt lat="62.633200998663" lon="17.986685430943">
        <ele>110.6</ele>
        <time>2018-01-03T13:25:45Z</time>
      </trkpt>
      <trkpt lat="62.633195131333" lon="17.986585351057">
        <ele>109.8</ele>
        <time>2018-01-03T13:25:46Z</time>
      </trkpt>
      <trkpt lat="62.633198232636" lon="17.986463729688">
        <ele>109.4</ele>
        <time>2018-01-03T13:25:47Z</time>
      </trkpt>
      <trkpt lat="62.633189180184" lon="17.986341102491">
        <ele>109.4</ele>
        <time>2018-01-03T13:25:48Z</time>
      </trkpt>
      <trkpt lat="62.63318280994" lon="17.986261977355">
        <ele>109.6</ele>
        <time>2018-01-03T13:25:49Z</time>
      </trkpt>
      <trkpt lat="62.633183229035" lon="17.986123340729">
        <ele>109.8</ele>
        <time>2018-01-03T13:25:50Z</time>
      </trkpt>
      <trkpt lat="62.633184067225" lon="17.986004988301">
        <ele>109.6</ele>
        <time>2018-01-03T13:25:51Z</time>
      </trkpt>
      <trkpt lat="62.633184989234" lon="17.98588269638">
        <ele>109.4</ele>
        <time>2018-01-03T13:25:52Z</time>
      </trkpt>
      <trkpt lat="62.633183983406" lon="17.985770714196">
        <ele>108.8</ele>
        <time>2018-01-03T13:25:53Z</time>
      </trkpt>
      <trkpt lat="62.633185743605" lon="17.98564800318">
        <ele>108.4</ele>
        <time>2018-01-03T13:25:54Z</time>
      </trkpt>
      <trkpt lat="62.633187503804" lon="17.985536775367">
        <ele>107.6</ele>
        <time>2018-01-03T13:25:55Z</time>
      </trkpt>
      <trkpt lat="62.633190102193" lon="17.985421105147">
        <ele>107.2</ele>
        <time>2018-01-03T13:25:56Z</time>
      </trkpt>
      <trkpt lat="62.633197142989" lon="17.985292023887">
        <ele>107</ele>
        <time>2018-01-03T13:25:57Z</time>
      </trkpt>
      <trkpt lat="62.633209967296" lon="17.985160344238">
        <ele>106.8</ele>
        <time>2018-01-03T13:25:58Z</time>
      </trkpt>
      <trkpt lat="62.633229664761" lon="17.98504366819">
        <ele>106.6</ele>
        <time>2018-01-03T13:25:59Z</time>
      </trkpt>
      <trkpt lat="62.633254307547" lon="17.984892542533">
        <ele>106.2</ele>
        <time>2018-01-03T13:26:00Z</time>
      </trkpt>
      <trkpt lat="62.633278950333" lon="17.984769747698">
        <ele>105.6</ele>
        <time>2018-01-03T13:26:01Z</time>
      </trkpt>
      <trkpt lat="62.633305688594" lon="17.984653993659">
        <ele>105</ele>
        <time>2018-01-03T13:26:02Z</time>
      </trkpt>
      <trkpt lat="62.633331504846" lon="17.98454326876">
        <ele>104.4</ele>
        <time>2018-01-03T13:26:03Z</time>
      </trkpt>
      <trkpt lat="62.633351956682" lon="17.984454839715">
        <ele>103.8</ele>
        <time>2018-01-03T13:26:04Z</time>
      </trkpt>
      <trkpt lat="62.633388585585" lon="17.98435719058">
        <ele>103.6</ele>
        <time>2018-01-03T13:26:05Z</time>
      </trkpt>
      <trkpt lat="62.633406858127" lon="17.984240346894">
        <ele>103.6</ele>
        <time>2018-01-03T13:26:06Z</time>
      </trkpt>
      <trkpt lat="62.633413144552" lon="17.984153761867">
        <ele>104</ele>
        <time>2018-01-03T13:26:07Z</time>
      </trkpt>
      <trkpt lat="62.633414569475" lon="17.984062231519">
        <ele>104.4</ele>
        <time>2018-01-03T13:26:08Z</time>
      </trkpt>
      <trkpt lat="62.633413060733" lon="17.983987464971">
        <ele>105</ele>
        <time>2018-01-03T13:26:09Z</time>
      </trkpt>
      <trkpt lat="62.633413396009" lon="17.983898868288">
        <ele>105.2</ele>
        <time>2018-01-03T13:26:10Z</time>
      </trkpt>
      <trkpt lat="62.633417586959" lon="17.98382410174">
        <ele>105.4</ele>
        <time>2018-01-03T13:26:11Z</time>
      </trkpt>
      <trkpt lat="62.633424795393" lon="17.983738187265">
        <ele>105.4</ele>
        <time>2018-01-03T13:26:12Z</time>
      </trkpt>
      <trkpt lat="62.63342839961" lon="17.983660067957">
        <ele>105.4</ele>
        <time>2018-01-03T13:26:13Z</time>
      </trkpt>
      <trkpt lat="62.633445498686" lon="17.983590162911">
        <ele>105.4</ele>
        <time>2018-01-03T13:26:14Z</time>
      </trkpt>
      <trkpt lat="62.633458155355" lon="17.983514725811">
        <ele>105.4</ele>
        <time>2018-01-03T13:26:15Z</time>
      </trkpt>
      <trkpt lat="62.633472656042" lon="17.983443814937">
        <ele>105.4</ele>
        <time>2018-01-03T13:26:16Z</time>
      </trkpt>
      <trkpt lat="62.633486067082" lon="17.983377849384">
        <ele>105.4</ele>
        <time>2018-01-03T13:26:17Z</time>
      </trkpt>
      <trkpt lat="62.633499310484" lon="17.983310458908">
        <ele>105.4</ele>
        <time>2018-01-03T13:26:18Z</time>
      </trkpt>
      <trkpt lat="62.633505932185" lon="17.983244241898">
        <ele>105.4</ele>
        <time>2018-01-03T13:26:19Z</time>
      </trkpt>
      <trkpt lat="62.633533257179" lon="17.983143910555">
        <ele>105.4</ele>
        <time>2018-01-03T13:26:20Z</time>
      </trkpt>
      <trkpt lat="62.633547674047" lon="17.983069060188">
        <ele>105.4</ele>
        <time>2018-01-03T13:26:21Z</time>
      </trkpt>
      <trkpt lat="62.63355580449" lon="17.983007620861">
        <ele>105.6</ele>
        <time>2018-01-03T13:26:22Z</time>
      </trkpt>
      <trkpt lat="62.633570137539" lon="17.982934446874">
        <ele>105.4</ele>
        <time>2018-01-03T13:26:23Z</time>
      </trkpt>
      <trkpt lat="62.633585727873" lon="17.982874348651">
        <ele>105.6</ele>
        <time>2018-01-03T13:26:24Z</time>
      </trkpt>
      <trkpt lat="62.633605676795" lon="17.982800001198">
        <ele>105.6</ele>
        <time>2018-01-03T13:26:25Z</time>
      </trkpt>
      <trkpt lat="62.633622692052" lon="17.982735460568">
        <ele>105.6</ele>
        <time>2018-01-03T13:26:26Z</time>
      </trkpt>
      <trkpt lat="62.633631325409" lon="17.982661699848">
        <ele>105.6</ele>
        <time>2018-01-03T13:26:27Z</time>
      </trkpt>
      <trkpt lat="62.633647753933" lon="17.982585759834">
        <ele>105.6</ele>
        <time>2018-01-03T13:26:28Z</time>
      </trkpt>
      <trkpt lat="62.63364800539" lon="17.982522895584">
        <ele>105.6</ele>
        <time>2018-01-03T13:26:29Z</time>
      </trkpt>
      <trkpt lat="62.633657728394" lon="17.982447961398">
        <ele>105.6</ele>
        <time>2018-01-03T13:26:30Z</time>
      </trkpt>
      <trkpt lat="62.633669546873" lon="17.98236229838">
        <ele>105.8</ele>
        <time>2018-01-03T13:26:31Z</time>
      </trkpt>
      <trkpt lat="62.633685053388" lon="17.982288286203">
        <ele>105.6</ele>
        <time>2018-01-03T13:26:32Z</time>
      </trkpt>
      <trkpt lat="62.633694776392" lon="17.982216704777">
        <ele>105.6</ele>
        <time>2018-01-03T13:26:33Z</time>
      </trkpt>
      <trkpt lat="62.633703409749" lon="17.982148224654">
        <ele>105.6</ele>
        <time>2018-01-03T13:26:34Z</time>
      </trkpt>
      <trkpt lat="62.633705924319" lon="17.982090054268">
        <ele>105.8</ele>
        <time>2018-01-03T13:26:35Z</time>
      </trkpt>
      <trkpt lat="62.633700056989" lon="17.982019059575">
        <ele>105.8</ele>
        <time>2018-01-03T13:26:36Z</time>
      </trkpt>
      <trkpt lat="62.633702152464" lon="17.981967175614">
        <ele>105.8</ele>
        <time>2018-01-03T13:26:37Z</time>
      </trkpt>
      <trkpt lat="62.633711624011" lon="17.981910262513">
        <ele>106</ele>
        <time>2018-01-03T13:26:38Z</time>
      </trkpt>
      <trkpt lat="62.633712713658" lon="17.981843207313">
        <ele>106</ele>
        <time>2018-01-03T13:26:39Z</time>
      </trkpt>
      <trkpt lat="62.633713300391" lon="17.981787467678">
        <ele>106</ele>
        <time>2018-01-03T13:26:40Z</time>
      </trkpt>
      <trkpt lat="62.633721011739" lon="17.981716221528">
        <ele>106</ele>
        <time>2018-01-03T13:26:41Z</time>
      </trkpt>
      <trkpt lat="62.633727381983" lon="17.981640197695">
        <ele>106</ele>
        <time>2018-01-03T13:26:42Z</time>
      </trkpt>
      <trkpt lat="62.633732746399" lon="17.981586804992">
        <ele>106.2</ele>
        <time>2018-01-03T13:26:43Z</time>
      </trkpt>
      <trkpt lat="62.633739619557" lon="17.98152075562">
        <ele>106.2</ele>
        <time>2018-01-03T13:26:44Z</time>
      </trkpt>
      <trkpt lat="62.633755377529" lon="17.981456131171">
        <ele>106.2</ele>
        <time>2018-01-03T13:26:45Z</time>
      </trkpt>
      <trkpt lat="62.633766022542" lon="17.981395697672">
        <ele>106</ele>
        <time>2018-01-03T13:26:46Z</time>
      </trkpt>
      <trkpt lat="62.633783121618" lon="17.981333923069">
        <ele>106</ele>
        <time>2018-01-03T13:26:47Z</time>
      </trkpt>
      <trkpt lat="62.633790330052" lon="17.981270723543">
        <ele>106</ele>
        <time>2018-01-03T13:26:48Z</time>
      </trkpt>
      <trkpt lat="62.633806842395" lon="17.981220180686">
        <ele>105.8</ele>
        <time>2018-01-03T13:26:49Z</time>
      </trkpt>
      <trkpt lat="62.63381731977" lon="17.981169470191">
        <ele>106</ele>
        <time>2018-01-03T13:26:50Z</time>
      </trkpt>
      <trkpt lat="62.633828300059" lon="17.981117250954">
        <ele>106</ele>
        <time>2018-01-03T13:26:51Z</time>
      </trkpt>
      <trkpt lat="62.633847746067" lon="17.98107148578">
        <ele>106.2</ele>
        <time>2018-01-03T13:26:52Z</time>
      </trkpt>
      <trkpt lat="62.633861408564" lon="17.981018009258">
        <ele>106.4</ele>
        <time>2018-01-03T13:26:53Z</time>
      </trkpt>
      <trkpt lat="62.633877250355" lon="17.980967382582">
        <ele>106.4</ele>
        <time>2018-01-03T13:26:54Z</time>
      </trkpt>
      <trkpt lat="62.633898875657" lon="17.980912984051">
        <ele>106.6</ele>
        <time>2018-01-03T13:26:55Z</time>
      </trkpt>
      <trkpt lat="62.633910275041" lon="17.980865626316">
        <ele>106.8</ele>
        <time>2018-01-03T13:26:56Z</time>
      </trkpt>
      <trkpt lat="62.633922428796" lon="17.980811479242">
        <ele>106.8</ele>
        <time>2018-01-03T13:26:57Z</time>
      </trkpt>
      <trkpt lat="62.633942880632" lon="17.980757918901">
        <ele>106.8</ele>
        <time>2018-01-03T13:26:58Z</time>
      </trkpt>
      <trkpt lat="62.63395813569" lon="17.980705112931">
        <ele>106.8</ele>
        <time>2018-01-03T13:26:59Z</time>
      </trkpt>
      <trkpt lat="62.633976911146" lon="17.980642248681">
        <ele>106.8</ele>
        <time>2018-01-03T13:27:00Z</time>
      </trkpt>
      <trkpt lat="62.633990657462" lon="17.98059371748">
        <ele>107</ele>
        <time>2018-01-03T13:27:01Z</time>
      </trkpt>
      <trkpt lat="62.634000631923" lon="17.980551221247">
        <ele>107</ele>
        <time>2018-01-03T13:27:02Z</time>
      </trkpt>
      <trkpt lat="62.634019658836" lon="17.980499672562">
        <ele>107.2</ele>
        <time>2018-01-03T13:27:03Z</time>
      </trkpt>
      <trkpt lat="62.634024101243" lon="17.980445441669">
        <ele>107.2</ele>
        <time>2018-01-03T13:27:04Z</time>
      </trkpt>
      <trkpt lat="62.634044553079" lon="17.980392216604">
        <ele>107.2</ele>
        <time>2018-01-03T13:27:05Z</time>
      </trkpt>
      <trkpt lat="62.634060981603" lon="17.980332286019">
        <ele>107.2</ele>
        <time>2018-01-03T13:27:06Z</time>
      </trkpt>
      <trkpt lat="62.634078583593" lon="17.980287107578">
        <ele>107.2</ele>
        <time>2018-01-03T13:27:07Z</time>
      </trkpt>
      <trkpt lat="62.634103394017" lon="17.980241258585">
        <ele>107.2</ele>
        <time>2018-01-03T13:27:08Z</time>
      </trkpt>
      <trkpt lat="62.634122756206" lon="17.980210580831">
        <ele>107.4</ele>
        <time>2018-01-03T13:27:09Z</time>
      </trkpt>
      <trkpt lat="62.634146812259" lon="17.980159115965">
        <ele>107.2</ele>
        <time>2018-01-03T13:27:10Z</time>
      </trkpt>
      <trkpt lat="62.634172209416" lon="17.980115027171">
        <ele>107.2</ele>
        <time>2018-01-03T13:27:11Z</time>
      </trkpt>
      <trkpt lat="62.634195427279" lon="17.98006146683">
        <ele>107.2</ele>
        <time>2018-01-03T13:27:12Z</time>
      </trkpt>
      <trkpt lat="62.634227278499" lon="17.980006397747">
        <ele>107.2</ele>
        <time>2018-01-03T13:27:13Z</time>
      </trkpt>
      <trkpt lat="62.634233816381" lon="17.979954932881">
        <ele>107</ele>
        <time>2018-01-03T13:27:14Z</time>
      </trkpt>
      <trkpt lat="62.634257285701" lon="17.979888129138">
        <ele>107</ele>
        <time>2018-01-03T13:27:15Z</time>
      </trkpt>
      <trkpt lat="62.634270948198" lon="17.979817050626">
        <ele>107.2</ele>
        <time>2018-01-03T13:27:16Z</time>
      </trkpt>
      <trkpt lat="62.634277318442" lon="17.979768267968">
        <ele>107.2</ele>
        <time>2018-01-03T13:27:17Z</time>
      </trkpt>
      <trkpt lat="62.634296177717" lon="17.979691908859">
        <ele>107.2</ele>
        <time>2018-01-03T13:27:18Z</time>
      </trkpt>
      <trkpt lat="62.634306906549" lon="17.979626949134">
        <ele>107.2</ele>
        <time>2018-01-03T13:27:19Z</time>
      </trkpt>
      <trkpt lat="62.634322245426" lon="17.979555870622">
        <ele>107.4</ele>
        <time>2018-01-03T13:27:20Z</time>
      </trkpt>
      <trkpt lat="62.634337584303" lon="17.979485295024">
        <ele>107.4</ele>
        <time>2018-01-03T13:27:21Z</time>
      </trkpt>
      <trkpt lat="62.634344038366" lon="17.979430142122">
        <ele>107.4</ele>
        <time>2018-01-03T13:27:22Z</time>
      </trkpt>
      <trkpt lat="62.634356862673" lon="17.979366020587">
        <ele>107.4</ele>
        <time>2018-01-03T13:27:23Z</time>
      </trkpt>
      <trkpt lat="62.63437220155" lon="17.979300557948">
        <ele>107.2</ele>
        <time>2018-01-03T13:27:24Z</time>
      </trkpt>
      <trkpt lat="62.634384690581" lon="17.979249763634">
        <ele>107.4</ele>
        <time>2018-01-03T13:27:25Z</time>
      </trkpt>
      <trkpt lat="62.634398101621" lon="17.979182876072">
        <ele>107.4</ele>
        <time>2018-01-03T13:27:26Z</time>
      </trkpt>
      <trkpt lat="62.634413021403" lon="17.97913023774">
        <ele>107.2</ele>
        <time>2018-01-03T13:27:27Z</time>
      </trkpt>
      <trkpt lat="62.634426264805" lon="17.979059913599">
        <ele>107.2</ele>
        <time>2018-01-03T13:27:28Z</time>
      </trkpt>
      <trkpt lat="62.634441938958" lon="17.979011130941">
        <ele>107.2</ele>
        <time>2018-01-03T13:27:29Z</time>
      </trkpt>
      <trkpt lat="62.63446440245" lon="17.978911637788">
        <ele>107</ele>
        <time>2018-01-03T13:27:31Z</time>
      </trkpt>
      <trkpt lat="62.634476891481" lon="17.978841648923">
        <ele>107</ele>
        <time>2018-01-03T13:27:32Z</time>
      </trkpt>
      <trkpt lat="62.634482758811" lon="17.978781383062">
        <ele>107</ele>
        <time>2018-01-03T13:27:33Z</time>
      </trkpt>
      <trkpt lat="62.634497762412" lon="17.978721703934">
        <ele>107.2</ele>
        <time>2018-01-03T13:27:34Z</time>
      </trkpt>
      <trkpt lat="62.634519471533" lon="17.978679542977">
        <ele>107.2</ele>
        <time>2018-01-03T13:27:35Z</time>
      </trkpt>
      <trkpt lat="62.634545036328" lon="17.978667305403">
        <ele>107</ele>
        <time>2018-01-03T13:27:36Z</time>
      </trkpt>
      <trkpt lat="62.634565320526" lon="17.978676693131">
        <ele>107.2</ele>
        <time>2018-01-03T13:27:37Z</time>
      </trkpt>
      <trkpt lat="62.634587867837" lon="17.978706448876">
        <ele>107.2</ele>
        <time>2018-01-03T13:27:38Z</time>
      </trkpt>
      <trkpt lat="62.634601446515" lon="17.978724469961">
        <ele>107.2</ele>
        <time>2018-01-03T13:27:39Z</time>
      </trkpt>
      <trkpt lat="62.63462030579" lon="17.978748358376">
        <ele>107.2</ele>
        <time>2018-01-03T13:27:40Z</time>
      </trkpt>
      <trkpt lat="62.634632794821" lon="17.978760344493">
        <ele>107.2</ele>
        <time>2018-01-03T13:27:41Z</time>
      </trkpt>
      <trkpt lat="62.634654252485" lon="17.978783729994">
        <ele>107.2</ele>
        <time>2018-01-03T13:27:42Z</time>
      </trkpt>
      <trkpt lat="62.63468233185" lon="17.97880334364">
        <ele>107.2</ele>
        <time>2018-01-03T13:27:43Z</time>
      </trkpt>
      <trkpt lat="62.634707896645" lon="17.97881926925">
        <ele>107</ele>
        <time>2018-01-03T13:27:44Z</time>
      </trkpt>
      <trkpt lat="62.634737233295" lon="17.978836116869">
        <ele>106.8</ele>
        <time>2018-01-03T13:27:45Z</time>
      </trkpt>
      <trkpt lat="62.634768078687" lon="17.978850701375">
        <ele>106.8</ele>
        <time>2018-01-03T13:27:46Z</time>
      </trkpt>
      <trkpt lat="62.634798421165" lon="17.978866459347">
        <ele>106.6</ele>
        <time>2018-01-03T13:27:47Z</time>
      </trkpt>
      <trkpt lat="62.634831781127" lon="17.978884815708">
        <ele>106.4</ele>
        <time>2018-01-03T13:27:48Z</time>
      </trkpt>
      <trkpt lat="62.634862291243" lon="17.978899819309">
        <ele>106.2</ele>
        <time>2018-01-03T13:27:49Z</time>
      </trkpt>
      <trkpt lat="62.634893807187" lon="17.978916750747">
        <ele>106</ele>
        <time>2018-01-03T13:27:50Z</time>
      </trkpt>
      <trkpt lat="62.634922724742" lon="17.978935274746">
        <ele>105.8</ele>
        <time>2018-01-03T13:27:51Z</time>
      </trkpt>
      <trkpt lat="62.634943344216" lon="17.978940639162">
        <ele>105.6</ele>
        <time>2018-01-03T13:27:52Z</time>
      </trkpt>
      <trkpt lat="62.63496564007" lon="17.978950194528">
        <ele>105.6</ele>
        <time>2018-01-03T13:27:53Z</time>
      </trkpt>
      <trkpt lat="62.634988606476" lon="17.978957989695">
        <ele>105.6</ele>
        <time>2018-01-03T13:27:54Z</time>
      </trkpt>
      <trkpt lat="62.635012327253" lon="17.978970227269">
        <ele>105.8</ele>
        <time>2018-01-03T13:27:55Z</time>
      </trkpt>
      <trkpt lat="62.635027917587" lon="17.978975926961">
        <ele>105.8</ele>
        <time>2018-01-03T13:27:56Z</time>
      </trkpt>
      <trkpt lat="62.635048117966" lon="17.978984727956">
        <ele>105.8</ele>
        <time>2018-01-03T13:27:57Z</time>
      </trkpt>
      <trkpt lat="62.635066558146" lon="17.979001910851">
        <ele>105.8</ele>
        <time>2018-01-03T13:27:58Z</time>
      </trkpt>
      <trkpt lat="62.635086926163" lon="17.97901708209">
        <ele>105.8</ele>
        <time>2018-01-03T13:27:59Z</time>
      </trkpt>
      <trkpt lat="62.635113748243" lon="17.979035941365">
        <ele>105.6</ele>
        <time>2018-01-03T13:28:00Z</time>
      </trkpt>
      <trkpt lat="62.635141492332" lon="17.97905144788">
        <ele>105.6</ele>
        <time>2018-01-03T13:28:01Z</time>
      </trkpt>
      <trkpt lat="62.635168901145" lon="17.979057985762">
        <ele>105.4</ele>
        <time>2018-01-03T13:28:02Z</time>
      </trkpt>
      <trkpt lat="62.635196226139" lon="17.979056560839">
        <ele>105.4</ele>
        <time>2018-01-03T13:28:03Z</time>
      </trkpt>
      <trkpt lat="62.635221958572" lon="17.979057482848">
        <ele>105.4</ele>
        <time>2018-01-03T13:28:04Z</time>
      </trkpt>
      <trkpt lat="62.635248864471" lon="17.979052872803">
        <ele>105.2</ele>
        <time>2018-01-03T13:28:05Z</time>
      </trkpt>
      <trkpt lat="62.63527828494" lon="17.979054046269">
        <ele>105</ele>
        <time>2018-01-03T13:28:06Z</time>
      </trkpt>
      <trkpt lat="62.635304771744" lon="17.979056979934">
        <ele>105</ele>
        <time>2018-01-03T13:28:07Z</time>
      </trkpt>
      <trkpt lat="62.635332096738" lon="17.979053794812">
        <ele>104.8</ele>
        <time>2018-01-03T13:28:08Z</time>
      </trkpt>
      <trkpt lat="62.635357996809" lon="17.979057901943">
        <ele>104.6</ele>
        <time>2018-01-03T13:28:09Z</time>
      </trkpt>
      <trkpt lat="62.63538892602" lon="17.97905731521">
        <ele>104.6</ele>
        <time>2018-01-03T13:28:10Z</time>
      </trkpt>
      <trkpt lat="62.635416334833" lon="17.979055806468">
        <ele>104.6</ele>
        <time>2018-01-03T13:28:11Z</time>
      </trkpt>
      <trkpt lat="62.635453215193" lon="17.979046837835">
        <ele>104.6</ele>
        <time>2018-01-03T13:28:12Z</time>
      </trkpt>
      <trkpt lat="62.635487329526" lon="17.979040467591">
        <ele>104.4</ele>
        <time>2018-01-03T13:28:13Z</time>
      </trkpt>
      <trkpt lat="62.635521527678" lon="17.979033259157">
        <ele>104.2</ele>
        <time>2018-01-03T13:28:14Z</time>
      </trkpt>
      <trkpt lat="62.635557569848" lon="17.979027056551">
        <ele>104</ele>
        <time>2018-01-03T13:28:15Z</time>
      </trkpt>
      <trkpt lat="62.635594031113" lon="17.979018674651">
        <ele>103.6</ele>
        <time>2018-01-03T13:28:16Z</time>
      </trkpt>
      <trkpt lat="62.635629654188" lon="17.979010879484">
        <ele>103.6</ele>
        <time>2018-01-03T13:28:17Z</time>
      </trkpt>
      <trkpt lat="62.635666953643" lon="17.979011047122">
        <ele>103.4</ele>
        <time>2018-01-03T13:28:18Z</time>
      </trkpt>
      <trkpt lat="62.635701403252" lon="17.979007862">
        <ele>103.4</ele>
        <time>2018-01-03T13:28:19Z</time>
      </trkpt>
      <trkpt lat="62.635738199793" lon="17.979002916679">
        <ele>103</ele>
        <time>2018-01-03T13:28:20Z</time>
      </trkpt>
      <trkpt lat="62.635772397945" lon="17.979007778181">
        <ele>103</ele>
        <time>2018-01-03T13:28:21Z</time>
      </trkpt>
      <trkpt lat="62.635798465654" lon="17.978998893367">
        <ele>102.8</ele>
        <time>2018-01-03T13:28:22Z</time>
      </trkpt>
      <trkpt lat="62.635832077073" lon="17.979007191448">
        <ele>102.6</ele>
        <time>2018-01-03T13:28:23Z</time>
      </trkpt>
      <trkpt lat="62.635862754827" lon="17.979016076262">
        <ele>102.4</ele>
        <time>2018-01-03T13:28:24Z</time>
      </trkpt>
      <trkpt lat="62.635887146156" lon="17.979014064606">
        <ele>102.4</ele>
        <time>2018-01-03T13:28:25Z</time>
      </trkpt>
      <trkpt lat="62.635908436182" lon="17.979016746814">
        <ele>102.2</ele>
        <time>2018-01-03T13:28:26Z</time>
      </trkpt>
      <trkpt lat="62.635932240778" lon="17.979026805094">
        <ele>102.2</ele>
        <time>2018-01-03T13:28:27Z</time>
      </trkpt>
      <trkpt lat="62.635949758949" lon="17.979036025184">
        <ele>102.2</ele>
        <time>2018-01-03T13:28:28Z</time>
      </trkpt>
      <trkpt lat="62.635964091998" lon="17.979038372116">
        <ele>102.4</ele>
        <time>2018-01-03T13:28:29Z</time>
      </trkpt>
      <trkpt lat="62.635984208558" lon="17.979041808695">
        <ele>102.4</ele>
        <time>2018-01-03T13:28:30Z</time>
      </trkpt>
      <trkpt lat="62.635996194675" lon="17.979047005473">
        <ele>102.6</ele>
        <time>2018-01-03T13:28:31Z</time>
      </trkpt>
      <trkpt lat="62.636009605715" lon="17.979049100948">
        <ele>102.6</ele>
        <time>2018-01-03T13:28:32Z</time>
      </trkpt>
      <trkpt lat="62.636023771126" lon="17.979053543355">
        <ele>102.8</ele>
        <time>2018-01-03T13:28:33Z</time>
      </trkpt>
      <trkpt lat="62.636038271813" lon="17.979065948567">
        <ele>102.8</ele>
        <time>2018-01-03T13:28:34Z</time>
      </trkpt>
      <trkpt lat="62.636043384772" lon="17.979088160602">
        <ele>102.8</ele>
        <time>2018-01-03T13:28:35Z</time>
      </trkpt>
      <trkpt lat="62.636043971505" lon="17.979118083985">
        <ele>102.8</ele>
        <time>2018-01-03T13:28:36Z</time>
      </trkpt>
      <trkpt lat="62.636042127487" lon="17.979137949088">
        <ele>102.8</ele>
        <time>2018-01-03T13:28:37Z</time>
      </trkpt>
      <trkpt lat="62.636038271813" lon="17.979157143639">
        <ele>102.8</ele>
        <time>2018-01-03T13:28:38Z</time>
      </trkpt>
      <trkpt lat="62.63603265594" lon="17.979175248543">
        <ele>102.6</ele>
        <time>2018-01-03T13:28:39Z</time>
      </trkpt>
      <trkpt lat="62.636030225189" lon="17.979186647927">
        <ele>102.6</ele>
        <time>2018-01-03T13:28:40Z</time>
      </trkpt>
      <trkpt lat="62.636032320664" lon="17.979189665411">
        <ele>102.8</ele>
        <time>2018-01-03T13:28:42Z</time>
      </trkpt>
      <trkpt lat="62.636033075035" lon="17.979206177754">
        <ele>102.8</ele>
        <time>2018-01-03T13:28:43Z</time>
      </trkpt>
      <trkpt lat="62.63601421576" lon="17.979500969177">
        <ele>102.2</ele>
        <time>2018-01-03T13:28:49Z</time>
      </trkpt>
      <trkpt lat="62.636015808321" lon="17.979630050437">
        <ele>102</ele>
        <time>2018-01-03T13:28:50Z</time>
      </trkpt>
      <trkpt lat="62.636011533552" lon="17.979774135298">
        <ele>101.8</ele>
        <time>2018-01-03T13:28:51Z</time>
      </trkpt>
      <trkpt lat="62.636012455561" lon="17.979911933734">
        <ele>101.4</ele>
        <time>2018-01-03T13:28:52Z</time>
      </trkpt>
      <trkpt lat="62.636020166909" lon="17.980059036079">
        <ele>100.8</ele>
        <time>2018-01-03T13:28:53Z</time>
      </trkpt>
      <trkpt lat="62.636031985388" lon="17.9802232375">
        <ele>100</ele>
        <time>2018-01-03T13:28:54Z</time>
      </trkpt>
      <trkpt lat="62.636053275414" lon="17.980382912695">
        <ele>99</ele>
        <time>2018-01-03T13:28:55Z</time>
      </trkpt>
      <trkpt lat="62.636072805241" lon="17.980519370027">
        <ele>98.2</ele>
        <time>2018-01-03T13:28:56Z</time>
      </trkpt>
      <trkpt lat="62.636091413059" lon="17.980668400209">
        <ele>96.8</ele>
        <time>2018-01-03T13:28:57Z</time>
      </trkpt>
      <trkpt lat="62.636113541275" lon="17.980799325487">
        <ele>96</ele>
        <time>2018-01-03T13:28:58Z</time>
      </trkpt>
      <trkpt lat="62.636126784677" lon="17.98090971511">
        <ele>95.6</ele>
        <time>2018-01-03T13:28:59Z</time>
      </trkpt>
      <trkpt lat="62.636149667264" lon="17.981054051428">
        <ele>95.2</ele>
        <time>2018-01-03T13:29:00Z</time>
      </trkpt>
      <trkpt lat="62.636164084132" lon="17.981183216507">
        <ele>94.8</ele>
        <time>2018-01-03T13:29:01Z</time>
      </trkpt>
      <trkpt lat="62.636175902611" lon="17.981308777369">
        <ele>94.6</ele>
        <time>2018-01-03T13:29:02Z</time>
      </trkpt>
      <trkpt lat="62.636186296167" lon="17.981412880567">
        <ele>94.6</ele>
        <time>2018-01-03T13:29:03Z</time>
      </trkpt>
      <trkpt lat="62.636189816565" lon="17.98152159381">
        <ele>94.2</ele>
        <time>2018-01-03T13:29:04Z</time>
      </trkpt>
      <trkpt lat="62.636198366103" lon="17.981618572393">
        <ele>94.2</ele>
        <time>2018-01-03T13:29:05Z</time>
      </trkpt>
      <trkpt lat="62.636204652528" lon="17.981736589545">
        <ele>94</ele>
        <time>2018-01-03T13:29:06Z</time>
      </trkpt>
      <trkpt lat="62.636222254518" lon="17.981873465972">
        <ele>94</ele>
        <time>2018-01-03T13:29:07Z</time>
      </trkpt>
      <trkpt lat="62.636245304743" lon="17.981949992719">
        <ele>94.2</ele>
        <time>2018-01-03T13:29:08Z</time>
      </trkpt>
      <trkpt lat="62.63625226172" lon="17.982038673221">
        <ele>94.4</ele>
        <time>2018-01-03T13:29:09Z</time>
      </trkpt>
      <trkpt lat="62.636269612253" lon="17.982132047587">
        <ele>94.6</ele>
        <time>2018-01-03T13:29:10Z</time>
      </trkpt>
      <trkpt lat="62.636276317773" lon="17.982198935149">
        <ele>95</ele>
        <time>2018-01-03T13:29:11Z</time>
      </trkpt>
      <trkpt lat="62.636284867311" lon="17.982299853225">
        <ele>94.8</ele>
        <time>2018-01-03T13:29:12Z</time>
      </trkpt>
      <trkpt lat="62.636285034949" lon="17.982386102976">
        <ele>94.8</ele>
        <time>2018-01-03T13:29:13Z</time>
      </trkpt>
      <trkpt lat="62.636283358569" lon="17.982461288619">
        <ele>94.8</ele>
        <time>2018-01-03T13:29:14Z</time>
      </trkpt>
      <trkpt lat="62.636275982497" lon="17.982560195039">
        <ele>94.8</ele>
        <time>2018-01-03T13:29:15Z</time>
      </trkpt>
      <trkpt lat="62.63627321647" lon="17.982637979071">
        <ele>94.8</ele>
        <time>2018-01-03T13:29:16Z</time>
      </trkpt>
      <trkpt lat="62.636271959185" lon="17.982712577981">
        <ele>94.6</ele>
        <time>2018-01-03T13:29:17Z</time>
      </trkpt>
      <trkpt lat="62.636272462099" lon="17.982786590158">
        <ele>94.6</ele>
        <time>2018-01-03T13:29:18Z</time>
      </trkpt>
      <trkpt lat="62.636273803203" lon="17.982857249575">
        <ele>94.6</ele>
        <time>2018-01-03T13:29:19Z</time>
      </trkpt>
      <trkpt lat="62.636270869538" lon="17.982945427163">
        <ele>94.8</ele>
        <time>2018-01-03T13:29:20Z</time>
      </trkpt>
      <trkpt lat="62.636270450443" lon="17.983028994706">
        <ele>95</ele>
        <time>2018-01-03T13:29:21Z</time>
      </trkpt>
      <trkpt lat="62.636269696072" lon="17.983097139553">
        <ele>95</ele>
        <time>2018-01-03T13:29:22Z</time>
      </trkpt>
      <trkpt lat="62.636266930045" lon="17.983176599965">
        <ele>95.2</ele>
        <time>2018-01-03T13:29:23Z</time>
      </trkpt>
      <trkpt lat="62.636266930045" lon="17.983247510839">
        <ele>95.2</ele>
        <time>2018-01-03T13:29:24Z</time>
      </trkpt>
      <trkpt lat="62.636268438787" lon="17.9833161586">
        <ele>95.4</ele>
        <time>2018-01-03T13:29:25Z</time>
      </trkpt>
      <trkpt lat="62.636264080199" lon="17.983394026451">
        <ele>95.4</ele>
        <time>2018-01-03T13:29:26Z</time>
      </trkpt>
      <trkpt lat="62.636265169846" lon="17.983461500746">
        <ele>95.6</ele>
        <time>2018-01-03T13:29:27Z</time>
      </trkpt>
      <trkpt lat="62.63626064362" lon="17.983513887621">
        <ele>95.6</ele>
        <time>2018-01-03T13:29:28Z</time>
      </trkpt>
      <trkpt lat="62.636252429358" lon="17.983560407166">
        <ele>95.8</ele>
        <time>2018-01-03T13:29:29Z</time>
      </trkpt>
      <trkpt lat="62.636251004435" lon="17.983622181769">
        <ele>95.6</ele>
        <time>2018-01-03T13:29:30Z</time>
      </trkpt>
      <trkpt lat="62.63624471801" lon="17.983676077386">
        <ele>95.8</ele>
        <time>2018-01-03T13:29:31Z</time>
      </trkpt>
      <trkpt lat="62.636235665558" lon="17.98373441541">
        <ele>95.8</ele>
        <time>2018-01-03T13:29:32Z</time>
      </trkpt>
      <trkpt lat="62.636242706354" lon="17.983780180584">
        <ele>95.8</ele>
        <time>2018-01-03T13:29:33Z</time>
      </trkpt>
      <trkpt lat="62.636236922843" lon="17.983829214699">
        <ele>96</ele>
        <time>2018-01-03T13:29:34Z</time>
      </trkpt>
      <trkpt lat="62.636222338337" lon="17.983898784469">
        <ele>96.2</ele>
        <time>2018-01-03T13:29:35Z</time>
      </trkpt>
      <trkpt lat="62.636217141559" lon="17.983953266819">
        <ele>96.2</ele>
        <time>2018-01-03T13:29:36Z</time>
      </trkpt>
      <trkpt lat="62.636205825994" lon="17.984022417494">
        <ele>96.4</ele>
        <time>2018-01-03T13:29:37Z</time>
      </trkpt>
      <trkpt lat="62.6362036467" lon="17.984093328368">
        <ele>96.4</ele>
        <time>2018-01-03T13:29:38Z</time>
      </trkpt>
      <trkpt lat="62.636202221777" lon="17.984143033035">
        <ele>96.6</ele>
        <time>2018-01-03T13:29:39Z</time>
      </trkpt>
      <trkpt lat="62.636198952836" lon="17.984212686624">
        <ele>96.6</ele>
        <time>2018-01-03T13:29:40Z</time>
      </trkpt>
      <trkpt lat="62.636195767714" lon="17.984269012992">
        <ele>96.8</ele>
        <time>2018-01-03T13:29:41Z</time>
      </trkpt>
      <trkpt lat="62.636184619787" lon="17.984330787595">
        <ele>96.8</ele>
        <time>2018-01-03T13:29:42Z</time>
      </trkpt>
      <trkpt lat="62.636184116873" lon="17.984392646017">
        <ele>96.8</ele>
        <time>2018-01-03T13:29:43Z</time>
      </trkpt>
      <trkpt lat="62.636184452149" lon="17.984441680132">
        <ele>97</ele>
        <time>2018-01-03T13:29:44Z</time>
      </trkpt>
      <trkpt lat="62.636188978375" lon="17.984511752816">
        <ele>97.2</ele>
        <time>2018-01-03T13:29:45Z</time>
      </trkpt>
      <trkpt lat="62.636184116873" lon="17.984574533247">
        <ele>97.2</ele>
        <time>2018-01-03T13:29:46Z</time>
      </trkpt>
      <trkpt lat="62.636177830448" lon="17.984640079705">
        <ele>97.2</ele>
        <time>2018-01-03T13:29:47Z</time>
      </trkpt>
      <trkpt lat="62.636179087733" lon="17.984696070797">
        <ele>97.4</ele>
        <time>2018-01-03T13:29:48Z</time>
      </trkpt>
      <trkpt lat="62.636170286738" lon="17.98474443436">
        <ele>97.4</ele>
        <time>2018-01-03T13:29:49Z</time>
      </trkpt>
      <trkpt lat="62.636164335589" lon="17.984810399913">
        <ele>97.6</ele>
        <time>2018-01-03T13:29:50Z</time>
      </trkpt>
      <trkpt lat="62.636157965345" lon="17.984863960254">
        <ele>97.6</ele>
        <time>2018-01-03T13:29:51Z</time>
      </trkpt>
      <trkpt lat="62.636152600929" lon="17.984919867527">
        <ele>97.6</ele>
        <time>2018-01-03T13:29:52Z</time>
      </trkpt>
      <trkpt lat="62.636155283137" lon="17.984984240519">
        <ele>97.6</ele>
        <time>2018-01-03T13:29:53Z</time>
      </trkpt>
      <trkpt lat="62.63615503168" lon="17.985032184987">
        <ele>97.8</ele>
        <time>2018-01-03T13:29:54Z</time>
      </trkpt>
      <trkpt lat="62.636149583445" lon="17.985101000386">
        <ele>97.8</ele>
        <time>2018-01-03T13:29:55Z</time>
      </trkpt>
      <trkpt lat="62.636148661436" lon="17.985165708654">
        <ele>98</ele>
        <time>2018-01-03T13:29:56Z</time>
      </trkpt>
      <trkpt lat="62.636144051391" lon="17.985210384181">
        <ele>98</ele>
        <time>2018-01-03T13:29:57Z</time>
      </trkpt>
      <trkpt lat="62.636141453002" lon="17.985269895671">
        <ele>98.2</ele>
        <time>2018-01-03T13:29:58Z</time>
      </trkpt>
      <trkpt lat="62.636141117726" lon="17.985308703868">
        <ele>98.4</ele>
        <time>2018-01-03T13:29:59Z</time>
      </trkpt>
      <trkpt lat="62.636133657835" lon="17.985376764896">
        <ele>98.4</ele>
        <time>2018-01-03T13:30:00Z</time>
      </trkpt>
      <trkpt lat="62.636138016423" lon="17.985436527843">
        <ele>98.4</ele>
        <time>2018-01-03T13:30:01Z</time>
      </trkpt>
      <trkpt lat="62.636127287591" lon="17.985493608582">
        <ele>98.6</ele>
        <time>2018-01-03T13:30:02Z</time>
      </trkpt>
      <trkpt lat="62.636130388894" lon="17.985557981574">
        <ele>98.6</ele>
        <time>2018-01-03T13:30:03Z</time>
      </trkpt>
      <trkpt lat="62.636117061673" lon="17.985606596594">
        <ele>98.8</ele>
        <time>2018-01-03T13:30:04Z</time>
      </trkpt>
      <trkpt lat="62.636104824099" lon="17.985672897423">
        <ele>98.8</ele>
        <time>2018-01-03T13:30:05Z</time>
      </trkpt>
      <trkpt lat="62.636097867122" lon="17.985728385601">
        <ele>99</ele>
        <time>2018-01-03T13:30:06Z</time>
      </trkpt>
      <trkpt lat="62.63607959458" lon="17.985779263734">
        <ele>99.2</ele>
        <time>2018-01-03T13:30:07Z</time>
      </trkpt>
      <trkpt lat="62.63606618354" lon="17.985832656437">
        <ele>99.2</ele>
        <time>2018-01-03T13:30:08Z</time>
      </trkpt>
      <trkpt lat="62.636049838835" lon="17.985870207349">
        <ele>99.2</ele>
        <time>2018-01-03T13:30:09Z</time>
      </trkpt>
      <trkpt lat="62.636024860773" lon="17.985907674442">
        <ele>99.2</ele>
        <time>2018-01-03T13:30:10Z</time>
      </trkpt>
      <trkpt lat="62.636016143597" lon="17.98594053149">
        <ele>99.4</ele>
        <time>2018-01-03T13:30:11Z</time>
      </trkpt>
      <trkpt lat="62.635986304033" lon="17.985972969443">
        <ele>99.6</ele>
        <time>2018-01-03T13:30:12Z</time>
      </trkpt>
      <trkpt lat="62.635968199129" lon="17.986002389912">
        <ele>99.6</ele>
        <time>2018-01-03T13:30:13Z</time>
      </trkpt>
      <trkpt lat="62.635948082569" lon="17.986012783468">
        <ele>99.8</ele>
        <time>2018-01-03T13:30:14Z</time>
      </trkpt>
      <trkpt lat="62.635925870534" lon="17.986032564752">
        <ele>99.8</ele>
        <time>2018-01-03T13:30:15Z</time>
      </trkpt>
      <trkpt lat="62.635906173069" lon="17.98604446705">
        <ele>99.8</ele>
        <time>2018-01-03T13:30:16Z</time>
      </trkpt>
      <trkpt lat="62.635885721233" lon="17.986069528931">
        <ele>100</ele>
        <time>2018-01-03T13:30:17Z</time>
      </trkpt>
      <trkpt lat="62.63586920889" lon="17.986076653546">
        <ele>100.2</ele>
        <time>2018-01-03T13:30:18Z</time>
      </trkpt>
      <trkpt lat="62.635848673235" lon="17.986101296332">
        <ele>100</ele>
        <time>2018-01-03T13:30:19Z</time>
      </trkpt>
      <trkpt lat="62.635831155064" lon="17.986119820331">
        <ele>100.2</ele>
        <time>2018-01-03T13:30:20Z</time>
      </trkpt>
      <trkpt lat="62.635804165346" lon="17.986162148926">
        <ele>100.2</ele>
        <time>2018-01-03T13:30:21Z</time>
      </trkpt>
      <trkpt lat="62.63578706627" lon="17.98619785582">
        <ele>100.4</ele>
        <time>2018-01-03T13:30:22Z</time>
      </trkpt>
      <trkpt lat="62.635767704081" lon="17.986222917701">
        <ele>100.4</ele>
        <time>2018-01-03T13:30:23Z</time>
      </trkpt>
      <trkpt lat="62.635751778471" lon="17.986253511636">
        <ele>100.4</ele>
        <time>2018-01-03T13:30:24Z</time>
      </trkpt>
      <trkpt lat="62.635739373259" lon="17.986292906566">
        <ele>100.6</ele>
        <time>2018-01-03T13:30:25Z</time>
      </trkpt>
      <trkpt lat="62.635728057694" lon="17.986319812465">
        <ele>100.6</ele>
        <time>2018-01-03T13:30:26Z</time>
      </trkpt>
      <trkpt lat="62.635709282238" lon="17.986360548499">
        <ele>100.8</ele>
        <time>2018-01-03T13:30:27Z</time>
      </trkpt>
      <trkpt lat="62.63569654175" lon="17.986394998108">
        <ele>101</ele>
        <time>2018-01-03T13:30:28Z</time>
      </trkpt>
      <trkpt lat="62.635677011923" lon="17.986434057762">
        <ele>101.2</ele>
        <time>2018-01-03T13:30:29Z</time>
      </trkpt>
      <trkpt lat="62.635670809317" lon="17.986482924239">
        <ele>101.4</ele>
        <time>2018-01-03T13:30:30Z</time>
      </trkpt>
      <trkpt lat="62.635651363309" lon="17.986511422699">
        <ele>101.6</ele>
        <time>2018-01-03T13:30:31Z</time>
      </trkpt>
      <trkpt lat="62.635640047744" lon="17.986573113483">
        <ele>101.6</ele>
        <time>2018-01-03T13:30:32Z</time>
      </trkpt>
      <trkpt lat="62.635619260632" lon="17.986606641083">
        <ele>101.8</ele>
        <time>2018-01-03T13:30:33Z</time>
      </trkpt>
      <trkpt lat="62.635615488777" lon="17.986655339922">
        <ele>101.6</ele>
        <time>2018-01-03T13:30:34Z</time>
      </trkpt>
      <trkpt lat="62.63559595895" lon="17.986698506707">
        <ele>101.8</ele>
        <time>2018-01-03T13:30:35Z</time>
      </trkpt>
      <trkpt lat="62.635581793539" lon="17.986751564134">
        <ele>101.8</ele>
        <time>2018-01-03T13:30:36Z</time>
      </trkpt>
      <trkpt lat="62.635570897069" lon="17.98678375063">
        <ele>102</ele>
        <time>2018-01-03T13:30:37Z</time>
      </trkpt>
      <trkpt lat="62.635559246228" lon="17.986827168872">
        <ele>102</ele>
        <time>2018-01-03T13:30:38Z</time>
      </trkpt>
      <trkpt lat="62.63554902031" lon="17.986861031748">
        <ele>102.2</ele>
        <time>2018-01-03T13:30:39Z</time>
      </trkpt>
      <trkpt lat="62.635525886266" lon="17.986902270696">
        <ele>102.2</ele>
        <time>2018-01-03T13:30:40Z</time>
      </trkpt>
      <trkpt lat="62.63551716909" lon="17.986952478277">
        <ele>102.4</ele>
        <time>2018-01-03T13:30:41Z</time>
      </trkpt>
      <trkpt lat="62.635491771933" lon="17.986992543759">
        <ele>102.6</ele>
        <time>2018-01-03T13:30:42Z</time>
      </trkpt>
      <trkpt lat="62.635485066413" lon="17.987036967829">
        <ele>102.6</ele>
        <time>2018-01-03T13:30:43Z</time>
      </trkpt>
      <trkpt lat="62.6354660395" lon="17.98707208799">
        <ele>102.8</ele>
        <time>2018-01-03T13:30:44Z</time>
      </trkpt>
      <trkpt lat="62.63546352493" lon="17.987107459608">
        <ele>102.8</ele>
        <time>2018-01-03T13:30:45Z</time>
      </trkpt>
      <trkpt lat="62.635445671483" lon="17.987143417959">
        <ele>102.8</ele>
        <time>2018-01-03T13:30:46Z</time>
      </trkpt>
      <trkpt lat="62.635432763357" lon="17.987191865341">
        <ele>103</ele>
        <time>2018-01-03T13:30:47Z</time>
      </trkpt>
      <trkpt lat="62.63541658629" lon="17.987217513955">
        <ele>103</ele>
        <time>2018-01-03T13:30:48Z</time>
      </trkpt>
      <trkpt lat="62.635398649024" lon="17.987272666857">
        <ele>103</ele>
        <time>2018-01-03T13:30:49Z</time>
      </trkpt>
      <trkpt lat="62.635383477785" lon="17.987297980195">
        <ele>103.2</ele>
        <time>2018-01-03T13:30:50Z</time>
      </trkpt>
      <trkpt lat="62.635368306546" lon="17.987339302962">
        <ele>103.6</ele>
        <time>2018-01-03T13:30:51Z</time>
      </trkpt>
      <trkpt lat="62.635355314601" lon="17.98738892381">
        <ele>103.8</ele>
        <time>2018-01-03T13:30:52Z</time>
      </trkpt>
      <trkpt lat="62.635328324883" lon="17.9874232896">
        <ele>103.8</ele>
        <time>2018-01-03T13:30:53Z</time>
      </trkpt>
      <trkpt lat="62.635320864992" lon="17.987470898792">
        <ele>103.8</ele>
        <time>2018-01-03T13:30:54Z</time>
      </trkpt>
      <trkpt lat="62.635299491147" lon="17.987504677849">
        <ele>104</ele>
        <time>2018-01-03T13:30:55Z</time>
      </trkpt>
      <trkpt lat="62.635283984632" lon="17.9875406362">
        <ele>103.8</ele>
        <time>2018-01-03T13:30:56Z</time>
      </trkpt>
      <trkpt lat="62.635267639927" lon="17.987578773845">
        <ele>104</ele>
        <time>2018-01-03T13:30:57Z</time>
      </trkpt>
      <trkpt lat="62.635247523367" lon="17.987620180431">
        <ele>104</ele>
        <time>2018-01-03T13:30:58Z</time>
      </trkpt>
      <trkpt lat="62.635240901666" lon="17.987660162094">
        <ele>104.2</ele>
        <time>2018-01-03T13:30:59Z</time>
      </trkpt>
      <trkpt lat="62.635228915549" lon="17.987710537313">
        <ele>104.4</ele>
        <time>2018-01-03T13:31:00Z</time>
      </trkpt>
      <trkpt lat="62.635222712943" lon="17.98775772741">
        <ele>104.4</ele>
        <time>2018-01-03T13:31:01Z</time>
      </trkpt>
      <trkpt lat="62.63521877345" lon="17.987813215588">
        <ele>104.6</ele>
        <time>2018-01-03T13:31:02Z</time>
      </trkpt>
      <trkpt lat="62.635213157577" lon="17.987852526699">
        <ele>104.8</ele>
        <time>2018-01-03T13:31:03Z</time>
      </trkpt>
      <trkpt lat="62.635205697686" lon="17.987900135891">
        <ele>104.8</ele>
        <time>2018-01-03T13:31:04Z</time>
      </trkpt>
      <trkpt lat="62.635211313559" lon="17.987955121155">
        <ele>105</ele>
        <time>2018-01-03T13:31:05Z</time>
      </trkpt>
      <trkpt lat="62.635199159804" lon="17.988013542998">
        <ele>105.2</ele>
        <time>2018-01-03T13:31:06Z</time>
      </trkpt>
      <trkpt lat="62.635199411261" lon="17.988063918217">
        <ele>105.4</ele>
        <time>2018-01-03T13:31:07Z</time>
      </trkpt>
      <trkpt lat="62.63518021671" lon="17.988109934848">
        <ele>105.4</ele>
        <time>2018-01-03T13:31:08Z</time>
      </trkpt>
      <trkpt lat="62.635173092095" lon="17.988150251787">
        <ele>105.6</ele>
        <time>2018-01-03T13:31:09Z</time>
      </trkpt>
      <trkpt lat="62.635152388802" lon="17.988195430228">
        <ele>105.6</ele>
        <time>2018-01-03T13:31:10Z</time>
      </trkpt>
      <trkpt lat="62.635138977762" lon="17.988238261737">
        <ele>105.6</ele>
        <time>2018-01-03T13:31:11Z</time>
      </trkpt>
      <trkpt lat="62.635120537582" lon="17.988263826532">
        <ele>105.8</ele>
        <time>2018-01-03T13:31:12Z</time>
      </trkpt>
      <trkpt lat="62.635103606144" lon="17.988303892014">
        <ele>105.8</ele>
        <time>2018-01-03T13:31:13Z</time>
      </trkpt>
      <trkpt lat="62.63508801581" lon="17.988324679126">
        <ele>105.8</ele>
        <time>2018-01-03T13:31:14Z</time>
      </trkpt>
      <trkpt lat="62.635068066888" lon="17.988358206726">
        <ele>106</ele>
        <time>2018-01-03T13:31:15Z</time>
      </trkpt>
      <trkpt lat="62.635041747722" lon="17.98838217896">
        <ele>106.2</ele>
        <time>2018-01-03T13:31:16Z</time>
      </trkpt>
      <trkpt lat="62.635023978094" lon="17.988406737927">
        <ele>106.2</ele>
        <time>2018-01-03T13:31:17Z</time>
      </trkpt>
      <trkpt lat="62.634995563453" lon="17.988415455103">
        <ele>106.4</ele>
        <time>2018-01-03T13:31:18Z</time>
      </trkpt>
      <trkpt lat="62.63497905111" lon="17.988437750957">
        <ele>106.6</ele>
        <time>2018-01-03T13:31:19Z</time>
      </trkpt>
      <trkpt lat="62.634951307021" lon="17.988440433165">
        <ele>106.6</ele>
        <time>2018-01-03T13:31:20Z</time>
      </trkpt>
      <trkpt lat="62.634938398895" lon="17.988462309924">
        <ele>106.6</ele>
        <time>2018-01-03T13:31:21Z</time>
      </trkpt>
      <trkpt lat="62.634907972598" lon="17.988464405399">
        <ele>106.6</ele>
        <time>2018-01-03T13:31:22Z</time>
      </trkpt>
      <trkpt lat="62.634886263477" lon="17.988478822267">
        <ele>106.8</ele>
        <time>2018-01-03T13:31:23Z</time>
      </trkpt>
      <trkpt lat="62.634867990935" lon="17.988490640746">
        <ele>106.8</ele>
        <time>2018-01-03T13:31:24Z</time>
      </trkpt>
      <trkpt lat="62.634837732276" lon="17.98852048031">
        <ele>107</ele>
        <time>2018-01-03T13:31:25Z</time>
      </trkpt>
      <trkpt lat="62.634824069779" lon="17.98852802402">
        <ele>107</ele>
        <time>2018-01-03T13:31:26Z</time>
      </trkpt>
      <trkpt lat="62.634792470016" lon="17.98853975868">
        <ele>107</ele>
        <time>2018-01-03T13:31:27Z</time>
      </trkpt>
      <trkpt lat="62.634778807519" lon="17.988563395638">
        <ele>107.4</ele>
        <time>2018-01-03T13:31:28Z</time>
      </trkpt>
      <trkpt lat="62.63475190162" lon="17.988567502769">
        <ele>107.4</ele>
        <time>2018-01-03T13:31:29Z</time>
      </trkpt>
      <trkpt lat="62.634726839739" lon="17.988607903527">
        <ele>107.4</ele>
        <time>2018-01-03T13:31:30Z</time>
      </trkpt>
      <trkpt lat="62.634700185297" lon="17.988612010658">
        <ele>107.6</ele>
        <time>2018-01-03T13:31:31Z</time>
      </trkpt>
      <trkpt lat="62.634674201407" lon="17.988628020087">
        <ele>107.8</ele>
        <time>2018-01-03T13:31:32Z</time>
      </trkpt>
      <trkpt lat="62.634654839218" lon="17.988644448611">
        <ele>108</ele>
        <time>2018-01-03T13:31:33Z</time>
      </trkpt>
      <trkpt lat="62.634631286079" lon="17.988665319542">
        <ele>108.2</ele>
        <time>2018-01-03T13:31:34Z</time>
      </trkpt>
      <trkpt lat="62.634612175347" lon="17.988681580428">
        <ele>108.4</ele>
        <time>2018-01-03T13:31:35Z</time>
      </trkpt>
      <trkpt lat="62.634593818986" lon="17.988717622598">
        <ele>108.6</ele>
        <time>2018-01-03T13:31:36Z</time>
      </trkpt>
      <trkpt lat="62.634573953883" lon="17.988746037239">
        <ele>108.8</ele>
        <time>2018-01-03T13:31:37Z</time>
      </trkpt>
      <trkpt lat="62.634550316925" lon="17.988775206251">
        <ele>108.8</ele>
        <time>2018-01-03T13:31:38Z</time>
      </trkpt>
      <trkpt lat="62.634532798754" lon="17.988832873723">
        <ele>109</ele>
        <time>2018-01-03T13:31:39Z</time>
      </trkpt>
      <trkpt lat="62.634502540095" lon="17.988871933377">
        <ele>109.2</ele>
        <time>2018-01-03T13:31:40Z</time>
      </trkpt>
      <trkpt lat="62.634486446847" lon="17.988903449321">
        <ele>109.2</ele>
        <time>2018-01-03T13:31:41Z</time>
      </trkpt>
      <trkpt lat="62.634470018323" lon="17.988938318025">
        <ele>109.4</ele>
        <time>2018-01-03T13:31:42Z</time>
      </trkpt>
      <trkpt lat="62.634446884279" lon="17.988975868937">
        <ele>109.6</ele>
        <time>2018-01-03T13:31:43Z</time>
      </trkpt>
      <trkpt lat="62.634427689728" lon="17.989025573604">
        <ele>109.6</ele>
        <time>2018-01-03T13:31:44Z</time>
      </trkpt>
      <trkpt lat="62.634411764118" lon="17.989058933566">
        <ele>109.8</ele>
        <time>2018-01-03T13:31:45Z</time>
      </trkpt>
      <trkpt lat="62.63438896535" lon="17.9890996696">
        <ele>110</ele>
        <time>2018-01-03T13:31:46Z</time>
      </trkpt>
      <trkpt lat="62.634373626473" lon="17.989134789761">
        <ele>110.2</ele>
        <time>2018-01-03T13:31:47Z</time>
      </trkpt>
      <trkpt lat="62.634349654239" lon="17.989177369813">
        <ele>110.2</ele>
        <time>2018-01-03T13:31:48Z</time>
      </trkpt>
      <trkpt lat="62.634331214059" lon="17.989219279313">
        <ele>110.2</ele>
        <time>2018-01-03T13:31:49Z</time>
      </trkpt>
      <trkpt lat="62.634303218513" lon="17.989256662587">
        <ele>110.4</ele>
        <time>2018-01-03T13:31:50Z</time>
      </trkpt>
      <trkpt lat="62.634281928487" lon="17.989294045861">
        <ele>110.4</ele>
        <time>2018-01-03T13:31:51Z</time>
      </trkpt>
      <trkpt lat="62.634268768904" lon="17.989306534892">
        <ele>110.2</ele>
        <time>2018-01-03T13:31:52Z</time>
      </trkpt>
      <trkpt lat="62.63423892934" lon="17.989328746927">
        <ele>110.2</ele>
        <time>2018-01-03T13:31:53Z</time>
      </trkpt>
      <trkpt lat="62.634213280726" lon="17.989362274527">
        <ele>110.2</ele>
        <time>2018-01-03T13:31:54Z</time>
      </trkpt>
      <trkpt lat="62.63419366708" lon="17.989384486562">
        <ele>110.2</ele>
        <time>2018-01-03T13:31:55Z</time>
      </trkpt>
      <trkpt lat="62.634175981271" lon="17.989408458796">
        <ele>110.2</ele>
        <time>2018-01-03T13:31:56Z</time>
      </trkpt>
      <trkpt lat="62.634149829743" lon="17.989428407718">
        <ele>110.4</ele>
        <time>2018-01-03T13:31:57Z</time>
      </trkpt>
      <trkpt lat="62.634129042631" lon="17.989461180947">
        <ele>110.4</ele>
        <time>2018-01-03T13:31:58Z</time>
      </trkpt>
      <trkpt lat="62.634110183356" lon="17.989481800421">
        <ele>110.4</ele>
        <time>2018-01-03T13:31:59Z</time>
      </trkpt>
      <trkpt lat="62.634089144787" lon="17.989505018284">
        <ele>110.4</ele>
        <time>2018-01-03T13:32:00Z</time>
      </trkpt>
      <trkpt lat="62.634074225005" lon="17.989520943894">
        <ele>110.6</ele>
        <time>2018-01-03T13:32:01Z</time>
      </trkpt>
      <trkpt lat="62.634059724318" lon="17.98953301383">
        <ele>110.6</ele>
        <time>2018-01-03T13:32:02Z</time>
      </trkpt>
      <trkpt lat="62.634039356301" lon="17.989547765974">
        <ele>110.8</ele>
        <time>2018-01-03T13:32:03Z</time>
      </trkpt>
      <trkpt lat="62.634015551705" lon="17.989561093195">
        <ele>111</ele>
        <time>2018-01-03T13:32:04Z</time>
      </trkpt>
      <trkpt lat="62.633993255851" lon="17.98957659971">
        <ele>111</ele>
        <time>2018-01-03T13:32:05Z</time>
      </trkpt>
      <trkpt lat="62.633979509535" lon="17.989591770949">
        <ele>111.2</ele>
        <time>2018-01-03T13:32:06Z</time>
      </trkpt>
      <trkpt lat="62.633953274188" lon="17.989608031835">
        <ele>111.4</ele>
        <time>2018-01-03T13:32:07Z</time>
      </trkpt>
      <trkpt lat="62.633938102949" lon="17.98962856749">
        <ele>111.6</ele>
        <time>2018-01-03T13:32:08Z</time>
      </trkpt>
      <trkpt lat="62.633915471819" lon="17.989652204448">
        <ele>111.8</ele>
        <time>2018-01-03T13:32:09Z</time>
      </trkpt>
      <trkpt lat="62.633897618372" lon="17.989686151143">
        <ele>111.8</ele>
        <time>2018-01-03T13:32:10Z</time>
      </trkpt>
      <trkpt lat="62.633877920907" lon="17.989710207196">
        <ele>111.8</ele>
        <time>2018-01-03T13:32:11Z</time>
      </trkpt>
      <trkpt lat="62.63385839108" lon="17.989739124751">
        <ele>112</ele>
        <time>2018-01-03T13:32:12Z</time>
      </trkpt>
      <trkpt lat="62.633842633108" lon="17.989779022595">
        <ele>112</ele>
        <time>2018-01-03T13:32:13Z</time>
      </trkpt>
      <trkpt lat="62.633828970611" lon="17.989812382557">
        <ele>112</ele>
        <time>2018-01-03T13:32:14Z</time>
      </trkpt>
      <trkpt lat="62.633814134648" lon="17.989853956781">
        <ele>112</ele>
        <time>2018-01-03T13:32:15Z</time>
      </trkpt>
      <trkpt lat="62.633788737491" lon="17.989919000325">
        <ele>112</ele>
        <time>2018-01-03T13:32:16Z</time>
      </trkpt>
      <trkpt lat="62.63376954294" lon="17.989973734132">
        <ele>112</ele>
        <time>2018-01-03T13:32:17Z</time>
      </trkpt>
      <trkpt lat="62.633757975918" lon="17.990014805442">
        <ele>112</ele>
        <time>2018-01-03T13:32:18Z</time>
      </trkpt>
      <trkpt lat="62.633741379756" lon="17.990051434345">
        <ele>112</ele>
        <time>2018-01-03T13:32:19Z</time>
      </trkpt>
      <trkpt lat="62.633723191033" lon="17.990085129583">
        <ele>111.8</ele>
        <time>2018-01-03T13:32:20Z</time>
      </trkpt>
      <trkpt lat="62.633708941803" lon="17.990112789853">
        <ele>112</ele>
        <time>2018-01-03T13:32:21Z</time>
      </trkpt>
      <trkpt lat="62.633688070872" lon="17.990154783172">
        <ele>112</ele>
        <time>2018-01-03T13:32:22Z</time>
      </trkpt>
      <trkpt lat="62.633665104466" lon="17.990184538917">
        <ele>112.2</ele>
        <time>2018-01-03T13:32:23Z</time>
      </trkpt>
      <trkpt lat="62.633648592123" lon="17.990212953558">
        <ele>112.2</ele>
        <time>2018-01-03T13:32:24Z</time>
      </trkpt>
      <trkpt lat="62.633628307925" lon="17.990236171421">
        <ele>112.4</ele>
        <time>2018-01-03T13:32:25Z</time>
      </trkpt>
      <trkpt lat="62.633608861917" lon="17.990258467275">
        <ele>112.6</ele>
        <time>2018-01-03T13:32:26Z</time>
      </trkpt>
      <trkpt lat="62.633594528868" lon="17.990286630459">
        <ele>112.6</ele>
        <time>2018-01-03T13:32:27Z</time>
      </trkpt>
      <trkpt lat="62.633571143367" lon="17.990305741191">
        <ele>112.6</ele>
        <time>2018-01-03T13:32:28Z</time>
      </trkpt>
      <trkpt lat="62.633548763694" lon="17.990325606294">
        <ele>112.8</ele>
        <time>2018-01-03T13:32:29Z</time>
      </trkpt>
      <trkpt lat="62.633525797288" lon="17.990351506365">
        <ele>112.8</ele>
        <time>2018-01-03T13:32:30Z</time>
      </trkpt>
      <trkpt lat="62.63350216033" lon="17.990364582129">
        <ele>113</ele>
        <time>2018-01-03T13:32:31Z</time>
      </trkpt>
      <trkpt lat="62.63346779454" lon="17.990393248227">
        <ele>113</ele>
        <time>2018-01-03T13:32:32Z</time>
      </trkpt>
      <trkpt lat="62.633453629129" lon="17.990411185493">
        <ele>113.2</ele>
        <time>2018-01-03T13:32:33Z</time>
      </trkpt>
      <trkpt lat="62.633423957203" lon="17.990424596533">
        <ele>113.2</ele>
        <time>2018-01-03T13:32:34Z</time>
      </trkpt>
      <trkpt lat="62.633398140951" lon="17.990447898215">
        <ele>113.2</ele>
        <time>2018-01-03T13:32:35Z</time>
      </trkpt>
      <trkpt lat="62.633356482908" lon="17.99046843387">
        <ele>113.2</ele>
        <time>2018-01-03T13:32:36Z</time>
      </trkpt>
      <trkpt lat="62.63332949319" lon="17.990493411932">
        <ele>113.2</ele>
        <time>2018-01-03T13:32:37Z</time>
      </trkpt>
      <trkpt lat="62.633302503472" lon="17.990513947587">
        <ele>113</ele>
        <time>2018-01-03T13:32:38Z</time>
      </trkpt>
      <trkpt lat="62.633279956161" lon="17.990533477414">
        <ele>113</ele>
        <time>2018-01-03T13:32:39Z</time>
      </trkpt>
      <trkpt lat="62.633254475185" lon="17.990569771041">
        <ele>112.8</ele>
        <time>2018-01-03T13:32:40Z</time>
      </trkpt>
      <trkpt lat="62.633220947585" lon="17.990615284758">
        <ele>112.8</ele>
        <time>2018-01-03T13:32:41Z</time>
      </trkpt>
      <trkpt lat="62.633200831025" lon="17.990662474855">
        <ele>112.8</ele>
        <time>2018-01-03T13:32:42Z</time>
      </trkpt>
      <trkpt lat="62.633184905415" lon="17.990708072391">
        <ele>112.8</ele>
        <time>2018-01-03T13:32:43Z</time>
      </trkpt>
      <trkpt lat="62.633174176583" lon="17.990785185871">
        <ele>112.8</ele>
        <time>2018-01-03T13:32:44Z</time>
      </trkpt>
      <trkpt lat="62.633175182411" lon="17.990859784781">
        <ele>112.8</ele>
        <time>2018-01-03T13:32:45Z</time>
      </trkpt>
      <trkpt lat="62.633154143842" lon="17.990933713139">
        <ele>112.8</ele>
        <time>2018-01-03T13:32:46Z</time>
      </trkpt>
      <trkpt lat="62.633132099445" lon="17.991009820791">
        <ele>112.8</ele>
        <time>2018-01-03T13:32:47Z</time>
      </trkpt>
      <trkpt lat="62.633109552134" lon="17.991065644245">
        <ele>113</ele>
        <time>2018-01-03T13:32:48Z</time>
      </trkpt>
      <trkpt lat="62.633084825529" lon="17.991148038322">
        <ele>112.8</ele>
        <time>2018-01-03T13:32:49Z</time>
      </trkpt>
      <trkpt lat="62.633068229367" lon="17.991191959478">
        <ele>112.8</ele>
        <time>2018-01-03T13:32:50Z</time>
      </trkpt>
      <trkpt lat="62.63304534678" lon="17.991271587528">
        <ele>113</ele>
        <time>2018-01-03T13:32:51Z</time>
      </trkpt>
      <trkpt lat="62.633021626003" lon="17.991330596104">
        <ele>113</ele>
        <time>2018-01-03T13:32:52Z</time>
      </trkpt>
      <trkpt lat="62.633011483904" lon="17.991377953839">
        <ele>113</ele>
        <time>2018-01-03T13:32:53Z</time>
      </trkpt>
      <trkpt lat="62.632979548865" lon="17.991438974071">
        <ele>112.8</ele>
        <time>2018-01-03T13:32:54Z</time>
      </trkpt>
      <trkpt lat="62.632966892196" lon="17.991464035952">
        <ele>113</ele>
        <time>2018-01-03T13:32:55Z</time>
      </trkpt>
      <trkpt lat="62.63294644036" lon="17.991509633488">
        <ele>112.8</ele>
        <time>2018-01-03T13:32:56Z</time>
      </trkpt>
      <trkpt lat="62.632918277176" lon="17.991581717828">
        <ele>112.8</ele>
        <time>2018-01-03T13:32:57Z</time>
      </trkpt>
      <trkpt lat="62.632894640218" lon="17.991643073336">
        <ele>112.8</ele>
        <time>2018-01-03T13:32:58Z</time>
      </trkpt>
      <trkpt lat="62.632871170898" lon="17.991690347252">
        <ele>113</ele>
        <time>2018-01-03T13:32:59Z</time>
      </trkpt>
      <trkpt lat="62.632844600275" lon="17.991761258126">
        <ele>113</ele>
        <time>2018-01-03T13:33:00Z</time>
      </trkpt>
      <trkpt lat="62.632822220602" lon="17.991810459879">
        <ele>113</ele>
        <time>2018-01-03T13:33:01Z</time>
      </trkpt>
      <trkpt lat="62.632802606956" lon="17.9918740785">
        <ele>113.2</ele>
        <time>2018-01-03T13:33:02Z</time>
      </trkpt>
      <trkpt lat="62.632787435717" lon="17.991932584162">
        <ele>113</ele>
        <time>2018-01-03T13:33:03Z</time>
      </trkpt>
      <trkpt lat="62.632779472912" lon="17.992000812828">
        <ele>113.2</ele>
        <time>2018-01-03T13:33:04Z</time>
      </trkpt>
      <trkpt lat="62.632762373836" lon="17.992057725929">
        <ele>113</ele>
        <time>2018-01-03T13:33:05Z</time>
      </trkpt>
      <trkpt lat="62.632744352751" lon="17.992087649312">
        <ele>113.2</ele>
        <time>2018-01-03T13:33:06Z</time>
      </trkpt>
      <trkpt lat="62.632707472391" lon="17.99207356772">
        <ele>113.2</ele>
        <time>2018-01-03T13:33:07Z</time>
      </trkpt>
      <trkpt lat="62.632687774926" lon="17.992082536353">
        <ele>113.2</ele>
        <time>2018-01-03T13:33:08Z</time>
      </trkpt>
      <trkpt lat="62.632656510439" lon="17.992084883285">
        <ele>113.2</ele>
        <time>2018-01-03T13:33:09Z</time>
      </trkpt>
      <trkpt lat="62.632612924559" lon="17.99207859686">
        <ele>113.2</ele>
        <time>2018-01-03T13:33:10Z</time>
      </trkpt>
      <trkpt lat="62.632589874334" lon="17.992102569094">
        <ele>113.2</ele>
        <time>2018-01-03T13:33:11Z</time>
      </trkpt>
      <trkpt lat="62.632552658698" lon="17.992103323465">
        <ele>113</ele>
        <time>2018-01-03T13:33:12Z</time>
      </trkpt>
      <trkpt lat="62.632527093903" lon="17.992140790558">
        <ele>113</ele>
        <time>2018-01-03T13:33:13Z</time>
      </trkpt>
      <trkpt lat="62.632500104185" lon="17.992140455282">
        <ele>113</ele>
        <time>2018-01-03T13:33:14Z</time>
      </trkpt>
      <trkpt lat="62.632465486938" lon="17.99217247414">
        <ele>113</ele>
        <time>2018-01-03T13:33:15Z</time>
      </trkpt>
      <trkpt lat="62.632437910487" lon="17.992197033107">
        <ele>113.2</ele>
        <time>2018-01-03T13:33:16Z</time>
      </trkpt>
      <trkpt lat="62.632401700679" lon="17.992207342844">
        <ele>113.2</ele>
        <time>2018-01-03T13:33:17Z</time>
      </trkpt>
      <trkpt lat="62.632371861115" lon="17.992223184635">
        <ele>113.2</ele>
        <time>2018-01-03T13:33:18Z</time>
      </trkpt>
      <trkpt lat="62.632347805062" lon="17.992240451349">
        <ele>113.2</ele>
        <time>2018-01-03T13:33:19Z</time>
      </trkpt>
      <trkpt lat="62.632310673245" lon="17.992263417755">
        <ele>113.4</ele>
        <time>2018-01-03T13:33:20Z</time>
      </trkpt>
      <trkpt lat="62.632285862821" lon="17.992288731093">
        <ele>113.6</ele>
        <time>2018-01-03T13:33:21Z</time>
      </trkpt>
      <trkpt lat="62.632260968578" lon="17.992292670586">
        <ele>113.8</ele>
        <time>2018-01-03T13:33:22Z</time>
      </trkpt>
      <trkpt lat="62.63223565524" lon="17.992307758006">
        <ele>114</ele>
        <time>2018-01-03T13:33:23Z</time>
      </trkpt>
      <trkpt lat="62.632206737685" lon="17.992319744123">
        <ele>114</ele>
        <time>2018-01-03T13:33:24Z</time>
      </trkpt>
      <trkpt lat="62.632178909777" lon="17.992333741896">
        <ele>114</ele>
        <time>2018-01-03T13:33:25Z</time>
      </trkpt>
      <trkpt lat="62.632151417145" lon="17.992346063289">
        <ele>114</ele>
        <time>2018-01-03T13:33:26Z</time>
      </trkpt>
      <trkpt lat="62.63212585235" lon="17.992358468501">
        <ele>114</ele>
        <time>2018-01-03T13:33:27Z</time>
      </trkpt>
      <trkpt lat="62.632100371374" lon="17.99236693422">
        <ele>114</ele>
        <time>2018-01-03T13:33:28Z</time>
      </trkpt>
      <trkpt lat="62.632077740244" lon="17.992372466274">
        <ele>114</ele>
        <time>2018-01-03T13:33:29Z</time>
      </trkpt>
      <trkpt lat="62.632046140481" lon="17.992386883142">
        <ele>113.8</ele>
        <time>2018-01-03T13:33:30Z</time>
      </trkpt>
      <trkpt lat="62.632025688645" lon="17.99239962363">
        <ele>113.8</ele>
        <time>2018-01-03T13:33:31Z</time>
      </trkpt>
      <trkpt lat="62.631988137733" lon="17.992422590036">
        <ele>113.6</ele>
        <time>2018-01-03T13:33:32Z</time>
      </trkpt>
      <trkpt lat="62.631962908214" lon="17.992434659972">
        <ele>113.6</ele>
        <time>2018-01-03T13:33:33Z</time>
      </trkpt>
      <trkpt lat="62.631933320107" lon="17.992441030216">
        <ele>113.4</ele>
        <time>2018-01-03T13:33:34Z</time>
      </trkpt>
      <trkpt lat="62.631904402552" lon="17.992444215338">
        <ele>113.4</ele>
        <time>2018-01-03T13:33:35Z</time>
      </trkpt>
      <trkpt lat="62.631879340671" lon="17.992445640261">
        <ele>113</ele>
        <time>2018-01-03T13:33:36Z</time>
      </trkpt>
      <trkpt lat="62.631849165831" lon="17.992450082668">
        <ele>113</ele>
        <time>2018-01-03T13:33:37Z</time>
      </trkpt>
      <trkpt lat="62.631822343751" lon="17.992445807899">
        <ele>112.6</ele>
        <time>2018-01-03T13:33:38Z</time>
      </trkpt>
      <trkpt lat="62.631809267987" lon="17.992439605293">
        <ele>112.4</ele>
        <time>2018-01-03T13:33:39Z</time>
      </trkpt>
      <trkpt lat="62.631804909399" lon="17.992440192026">
        <ele>112.2</ele>
        <time>2018-01-03T13:33:40Z</time>
      </trkpt>
      <trkpt lat="62.631813458937" lon="17.992434492334">
        <ele>112.2</ele>
        <time>2018-01-03T13:33:41Z</time>
      </trkpt>
      <trkpt lat="62.631832904945" lon="17.992398617802">
        <ele>112.2</ele>
        <time>2018-01-03T13:33:43Z</time>
      </trkpt>
      <trkpt lat="62.631853356781" lon="17.992382608373">
        <ele>112.4</ele>
        <time>2018-01-03T13:33:44Z</time>
      </trkpt>
      <trkpt lat="62.631876574644" lon="17.992324270349">
        <ele>112.2</ele>
        <time>2018-01-03T13:33:45Z</time>
      </trkpt>
      <trkpt lat="62.631900127783" lon="17.99229401169">
        <ele>112</ele>
        <time>2018-01-03T13:33:46Z</time>
      </trkpt>
      <trkpt lat="62.631928207148" lon="17.99225880771">
        <ele>112</ele>
        <time>2018-01-03T13:33:47Z</time>
      </trkpt>
      <trkpt lat="62.631949413355" lon="17.992218323133">
        <ele>112</ele>
        <time>2018-01-03T13:33:48Z</time>
      </trkpt>
      <trkpt lat="62.631976486892" lon="17.992181358954">
        <ele>111.8</ele>
        <time>2018-01-03T13:33:49Z</time>
      </trkpt>
      <trkpt lat="62.63199760928" lon="17.992129474993">
        <ele>111.6</ele>
        <time>2018-01-03T13:33:50Z</time>
      </trkpt>
      <trkpt lat="62.632010098311" lon="17.992047835287">
        <ele>111.6</ele>
        <time>2018-01-03T13:33:51Z</time>
      </trkpt>
      <trkpt lat="62.632021413876" lon="17.991994274946">
        <ele>111.6</ele>
        <time>2018-01-03T13:33:52Z</time>
      </trkpt>
      <trkpt lat="62.632032477984" lon="17.991913221973">
        <ele>111.6</ele>
        <time>2018-01-03T13:33:53Z</time>
      </trkpt>
      <trkpt lat="62.6320462243" lon="17.991853878121">
        <ele>111.6</ele>
        <time>2018-01-03T13:33:54Z</time>
      </trkpt>
      <trkpt lat="62.632047649223" lon="17.991779698306">
        <ele>111.6</ele>
        <time>2018-01-03T13:33:55Z</time>
      </trkpt>
      <trkpt lat="62.632052846001" lon="17.991693448555">
        <ele>111.6</ele>
        <time>2018-01-03T13:33:56Z</time>
      </trkpt>
      <trkpt lat="62.632061814634" lon="17.99164692901">
        <ele>111.6</ele>
        <time>2018-01-03T13:33:57Z</time>
      </trkpt>
      <trkpt lat="62.632070783267" lon="17.991566546589">
        <ele>111.8</ele>
        <time>2018-01-03T13:33:58Z</time>
      </trkpt>
      <trkpt lat="62.632077153511" lon="17.991504352891">
        <ele>111.6</ele>
        <time>2018-01-03T13:33:59Z</time>
      </trkpt>
      <trkpt lat="62.632087463248" lon="17.991443165021">
        <ele>111.6</ele>
        <time>2018-01-03T13:34:00Z</time>
      </trkpt>
      <trkpt lat="62.632093749673" lon="17.991344426239">
        <ele>111.6</ele>
        <time>2018-01-03T13:34:01Z</time>
      </trkpt>
      <trkpt lat="62.632102215392" lon="17.991278460686">
        <ele>111.6</ele>
        <time>2018-01-03T13:34:02Z</time>
      </trkpt>
      <trkpt lat="62.632099533184" lon="17.991217105178">
        <ele>111.6</ele>
        <time>2018-01-03T13:34:03Z</time>
      </trkpt>
      <trkpt lat="62.632106993075" lon="17.991139991698">
        <ele>111.6</ele>
        <time>2018-01-03T13:34:04Z</time>
      </trkpt>
      <trkpt lat="62.632112022215" lon="17.991069080824">
        <ele>111.6</ele>
        <time>2018-01-03T13:34:05Z</time>
      </trkpt>
      <trkpt lat="62.632133647517" lon="17.991001774167">
        <ele>111.6</ele>
        <time>2018-01-03T13:34:06Z</time>
      </trkpt>
      <trkpt lat="62.632151249507" lon="17.990934635148">
        <ele>111.6</ele>
        <time>2018-01-03T13:34:07Z</time>
      </trkpt>
      <trkpt lat="62.632172036619" lon="17.99087411783">
        <ele>111.6</ele>
        <time>2018-01-03T13:34:08Z</time>
      </trkpt>
      <trkpt lat="62.632186285849" lon="17.990833968529">
        <ele>111.4</ele>
        <time>2018-01-03T13:34:09Z</time>
      </trkpt>
      <trkpt lat="62.632214951947" lon="17.990786862251">
        <ele>111.4</ele>
        <time>2018-01-03T13:34:10Z</time>
      </trkpt>
      <trkpt lat="62.632232889213" lon="17.990743863104">
        <ele>111.4</ele>
        <time>2018-01-03T13:34:11Z</time>
      </trkpt>
      <trkpt lat="62.63225493361" lon="17.990701199233">
        <ele>111.4</ele>
        <time>2018-01-03T13:34:12Z</time>
      </trkpt>
      <trkpt lat="62.632291730151" lon="17.99061092617">
        <ele>111.6</ele>
        <time>2018-01-03T13:34:13Z</time>
      </trkpt>
      <trkpt lat="62.632315367109" lon="17.990514199044">
        <ele>111.8</ele>
        <time>2018-01-03T13:34:14Z</time>
      </trkpt>
      <trkpt lat="62.632328526692" lon="17.990481677272">
        <ele>111.8</ele>
        <time>2018-01-03T13:34:15Z</time>
      </trkpt>
      <trkpt lat="62.632347805062" lon="17.990394421693">
        <ele>111.8</ele>
        <time>2018-01-03T13:34:16Z</time>
      </trkpt>
      <trkpt lat="62.632341183361" lon="17.990304651544">
        <ele>111.8</ele>
        <time>2018-01-03T13:34:17Z</time>
      </trkpt>
      <trkpt lat="62.632376638798" lon="17.990257712904">
        <ele>111.8</ele>
        <time>2018-01-03T13:34:18Z</time>
      </trkpt>
      <trkpt lat="62.632393989331" lon="17.990190657704">
        <ele>111.8</ele>
        <time>2018-01-03T13:34:19Z</time>
      </trkpt>
      <trkpt lat="62.632393570236" lon="17.99013231968">
        <ele>111.8</ele>
        <time>2018-01-03T13:34:20Z</time>
      </trkpt>
      <trkpt lat="62.632414944081" lon="17.990062246996">
        <ele>111.8</ele>
        <time>2018-01-03T13:34:21Z</time>
      </trkpt>
      <trkpt lat="62.63243682084" lon="17.989990581751">
        <ele>112</ele>
        <time>2018-01-03T13:34:22Z</time>
      </trkpt>
      <trkpt lat="62.632438916315" lon="17.989921431076">
        <ele>112</ele>
        <time>2018-01-03T13:34:23Z</time>
      </trkpt>
      <trkpt lat="62.632457021219" lon="17.989859572654">
        <ele>112</ele>
        <time>2018-01-03T13:34:24Z</time>
      </trkpt>
      <trkpt lat="62.632475629037" lon="17.989785225201">
        <ele>112</ele>
        <time>2018-01-03T13:34:25Z</time>
      </trkpt>
      <trkpt lat="62.632491219371" lon="17.989733676516">
        <ele>112</ele>
        <time>2018-01-03T13:34:26Z</time>
      </trkpt>
      <trkpt lat="62.63250387604" lon="17.989658993787">
        <ele>112</ele>
        <time>2018-01-03T13:34:27Z</time>
      </trkpt>
      <trkpt lat="62.632529524654" lon="17.989583053773">
        <ele>112</ele>
        <time>2018-01-03T13:34:28Z</time>
      </trkpt>
      <trkpt lat="62.632542768056" lon="17.989528571423">
        <ele>111.8</ele>
        <time>2018-01-03T13:34:29Z</time>
      </trkpt>
      <trkpt lat="62.632569590136" lon="17.989463946974">
        <ele>111.8</ele>
        <time>2018-01-03T13:34:30Z</time>
      </trkpt>
      <trkpt lat="62.632596496035" lon="17.989395802127">
        <ele>112</ele>
        <time>2018-01-03T13:34:31Z</time>
      </trkpt>
      <trkpt lat="62.632597669501" lon="17.98933687737">
        <ele>112.2</ele>
        <time>2018-01-03T13:34:32Z</time>
      </trkpt>
      <trkpt lat="62.632640417191" lon="17.989288513807">
        <ele>112</ele>
        <time>2018-01-03T13:34:33Z</time>
      </trkpt>
      <trkpt lat="62.632656845715" lon="17.989238725321">
        <ele>112.2</ele>
        <time>2018-01-03T13:34:34Z</time>
      </trkpt>
      <trkpt lat="62.632680482673" lon="17.989188685378">
        <ele>112.4</ele>
        <time>2018-01-03T13:34:35Z</time>
      </trkpt>
      <trkpt lat="62.632724236191" lon="17.989143171661">
        <ele>112.2</ele>
        <time>2018-01-03T13:34:36Z</time>
      </trkpt>
      <trkpt lat="62.632749130434" lon="17.98907955304">
        <ele>112.2</ele>
        <time>2018-01-03T13:34:37Z</time>
      </trkpt>
      <trkpt lat="62.632783244767" lon="17.989054574978">
        <ele>112</ele>
        <time>2018-01-03T13:34:38Z</time>
      </trkpt>
      <trkpt lat="62.632822723516" lon="17.98903512897">
        <ele>112.2</ele>
        <time>2018-01-03T13:34:39Z</time>
      </trkpt>
      <trkpt lat="62.632857424582" lon="17.989000176447">
        <ele>112</ele>
        <time>2018-01-03T13:34:40Z</time>
      </trkpt>
      <trkpt lat="62.632903525032" lon="17.988988525606">
        <ele>112</ele>
        <time>2018-01-03T13:34:41Z</time>
      </trkpt>
      <trkpt lat="62.632923306316" lon="17.988966816485">
        <ele>112</ele>
        <time>2018-01-03T13:34:42Z</time>
      </trkpt>
      <trkpt lat="62.632951385681" lon="17.988932702152">
        <ele>112.2</ele>
        <time>2018-01-03T13:34:43Z</time>
      </trkpt>
      <trkpt lat="62.632991283525" lon="17.988891714661">
        <ele>112.2</ele>
        <time>2018-01-03T13:34:44Z</time>
      </trkpt>
      <trkpt lat="62.632994468647" lon="17.988830694429">
        <ele>111.8</ele>
        <time>2018-01-03T13:34:45Z</time>
      </trkpt>
      <trkpt lat="62.633028331523" lon="17.988768165455">
        <ele>111.6</ele>
        <time>2018-01-03T13:34:46Z</time>
      </trkpt>
      <trkpt lat="62.633035959052" lon="17.988715191847">
        <ele>111.8</ele>
        <time>2018-01-03T13:34:47Z</time>
      </trkpt>
      <trkpt lat="62.633040150002" lon="17.988655764176">
        <ele>111.6</ele>
        <time>2018-01-03T13:34:48Z</time>
      </trkpt>
      <trkpt lat="62.633047274617" lon="17.988587451691">
        <ele>111.6</ele>
        <time>2018-01-03T13:34:49Z</time>
      </trkpt>
      <trkpt lat="62.633059512191" lon="17.988502626863">
        <ele>111.6</ele>
        <time>2018-01-03T13:34:50Z</time>
      </trkpt>
      <trkpt lat="62.633078287647" lon="17.988453844205">
        <ele>111.8</ele>
        <time>2018-01-03T13:34:51Z</time>
      </trkpt>
      <trkpt lat="62.633109635953" lon="17.98838888448">
        <ele>111.8</ele>
        <time>2018-01-03T13:34:52Z</time>
      </trkpt>
      <trkpt lat="62.633125645382" lon="17.988339682727">
        <ele>111.6</ele>
        <time>2018-01-03T13:34:53Z</time>
      </trkpt>
      <trkpt lat="62.633136290395" lon="17.988299952521">
        <ele>111.6</ele>
        <time>2018-01-03T13:34:54Z</time>
      </trkpt>
      <trkpt lat="62.633160011172" lon="17.988242787963">
        <ele>111.6</ele>
        <time>2018-01-03T13:34:55Z</time>
      </trkpt>
      <trkpt lat="62.633165459407" lon="17.988200878463">
        <ele>111.6</ele>
        <time>2018-01-03T13:34:56Z</time>
      </trkpt>
      <trkpt lat="62.633172500203" lon="17.988148072493">
        <ele>111.8</ele>
        <time>2018-01-03T13:34:57Z</time>
      </trkpt>
      <trkpt lat="62.633191694754" lon="17.988093673962">
        <ele>111.8</ele>
        <time>2018-01-03T13:34:58Z</time>
      </trkpt>
      <trkpt lat="62.633194879876" lon="17.988042963467">
        <ele>112</ele>
        <time>2018-01-03T13:34:59Z</time>
      </trkpt>
      <trkpt lat="62.633202339767" lon="17.987972052593">
        <ele>112.2</ele>
        <time>2018-01-03T13:35:00Z</time>
      </trkpt>
      <trkpt lat="62.633221534318" lon="17.987873732906">
        <ele>112.2</ele>
        <time>2018-01-03T13:35:01Z</time>
      </trkpt>
      <trkpt lat="62.633235029177" lon="17.987790165363">
        <ele>112.2</ele>
        <time>2018-01-03T13:35:02Z</time>
      </trkpt>
      <trkpt lat="62.633238884851" lon="17.987737527031">
        <ele>112.2</ele>
        <time>2018-01-03T13:35:03Z</time>
      </trkpt>
      <trkpt lat="62.633251038606" lon="17.987653205117">
        <ele>112.2</ele>
        <time>2018-01-03T13:35:04Z</time>
      </trkpt>
      <trkpt lat="62.633251038606" lon="17.987587993935">
        <ele>112.2</ele>
        <time>2018-01-03T13:35:05Z</time>
      </trkpt>
      <trkpt lat="62.633256822117" lon="17.987534349775">
        <ele>112</ele>
        <time>2018-01-03T13:35:06Z</time>
      </trkpt>
      <trkpt lat="62.6332532179" lon="17.987464277091">
        <ele>111.8</ele>
        <time>2018-01-03T13:35:07Z</time>
      </trkpt>
      <trkpt lat="62.633256486841" lon="17.987412057854">
        <ele>111.8</ele>
        <time>2018-01-03T13:35:08Z</time>
      </trkpt>
      <trkpt lat="62.633254978099" lon="17.987365203033">
        <ele>112</ele>
        <time>2018-01-03T13:35:09Z</time>
      </trkpt>
      <trkpt lat="62.633251876796" lon="17.987319605497">
        <ele>112</ele>
        <time>2018-01-03T13:35:10Z</time>
      </trkpt>
      <trkpt lat="62.633238046661" lon="17.987277695997">
        <ele>112.2</ele>
        <time>2018-01-03T13:35:11Z</time>
      </trkpt>
      <trkpt lat="62.633221115223" lon="17.987225979674">
        <ele>112.4</ele>
        <time>2018-01-03T13:35:12Z</time>
      </trkpt>
      <trkpt lat="62.633204854337" lon="17.987153140963">
        <ele>112.8</ele>
        <time>2018-01-03T13:35:13Z</time>
      </trkpt>
      <trkpt lat="62.633191108021" lon="17.987083571193">
        <ele>112.8</ele>
        <time>2018-01-03T13:35:14Z</time>
      </trkpt>
      <trkpt lat="62.633171159099" lon="17.986969074439">
        <ele>112.6</ele>
        <time>2018-01-03T13:35:15Z</time>
      </trkpt>
      <trkpt lat="62.633149449978" lon="17.98685583497">
        <ele>112.2</ele>
        <time>2018-01-03T13:35:16Z</time>
      </trkpt>
      <trkpt lat="62.633135703662" lon="17.98676195769">
        <ele>111.6</ele>
        <time>2018-01-03T13:35:17Z</time>
      </trkpt>
      <trkpt lat="62.633121286794" lon="17.986657100121">
        <ele>110.6</ele>
        <time>2018-01-03T13:35:18Z</time>
      </trkpt>
      <trkpt lat="62.633116341473" lon="17.986562887565">
        <ele>110.2</ele>
        <time>2018-01-03T13:35:19Z</time>
      </trkpt>
      <trkpt lat="62.633108713944" lon="17.986446295336">
        <ele>109.6</ele>
        <time>2018-01-03T13:35:20Z</time>
      </trkpt>
      <trkpt lat="62.633116509111" lon="17.986360883775">
        <ele>109</ele>
        <time>2018-01-03T13:35:21Z</time>
      </trkpt>
      <trkpt lat="62.633115000369" lon="17.986281088087">
        <ele>109</ele>
        <time>2018-01-03T13:35:22Z</time>
      </trkpt>
      <trkpt lat="62.63310318189" lon="17.986167178066">
        <ele>109.2</ele>
        <time>2018-01-03T13:35:23Z</time>
      </trkpt>
      <trkpt lat="62.633101170234" lon="17.98604195248">
        <ele>109.4</ele>
        <time>2018-01-03T13:35:24Z</time>
      </trkpt>
      <trkpt lat="62.633102427519" lon="17.985922426586">
        <ele>109.4</ele>
        <time>2018-01-03T13:35:25Z</time>
      </trkpt>
      <trkpt lat="62.633112318161" lon="17.985801894864">
        <ele>109</ele>
        <time>2018-01-03T13:35:26Z</time>
      </trkpt>
      <trkpt lat="62.633116173835" lon="17.985683123341">
        <ele>108.6</ele>
        <time>2018-01-03T13:35:27Z</time>
      </trkpt>
      <trkpt lat="62.63312078388" lon="17.985570219148">
        <ele>107.8</ele>
        <time>2018-01-03T13:35:28Z</time>
      </trkpt>
      <trkpt lat="62.633122627898" lon="17.985488914718">
        <ele>107</ele>
        <time>2018-01-03T13:35:29Z</time>
      </trkpt>
      <trkpt lat="62.633127908495" lon="17.985364862598">
        <ele>106.4</ele>
        <time>2018-01-03T13:35:30Z</time>
      </trkpt>
      <trkpt lat="62.633133440549" lon="17.985243492686">
        <ele>106.2</ele>
        <time>2018-01-03T13:35:31Z</time>
      </trkpt>
      <trkpt lat="62.633146097218" lon="17.985102257671">
        <ele>106</ele>
        <time>2018-01-03T13:35:32Z</time>
      </trkpt>
      <trkpt lat="62.633164453579" lon="17.98496990747">
        <ele>105.8</ele>
        <time>2018-01-03T13:35:33Z</time>
      </trkpt>
      <trkpt lat="62.633186330338" lon="17.9848416644">
        <ele>105.4</ele>
        <time>2018-01-03T13:35:34Z</time>
      </trkpt>
      <trkpt lat="62.63321214659" lon="17.984731777691">
        <ele>104.8</ele>
        <time>2018-01-03T13:35:35Z</time>
      </trkpt>
      <trkpt lat="62.633241147964" lon="17.984601355327">
        <ele>104.2</ele>
        <time>2018-01-03T13:35:36Z</time>
      </trkpt>
      <trkpt lat="62.633267718587" lon="17.984510998445">
        <ele>103.6</ele>
        <time>2018-01-03T13:35:37Z</time>
      </trkpt>
      <trkpt lat="62.633289176251" lon="17.984409074541">
        <ele>103.2</ele>
        <time>2018-01-03T13:35:38Z</time>
      </trkpt>
      <trkpt lat="62.633311639743" lon="17.98432869212">
        <ele>103</ele>
        <time>2018-01-03T13:35:39Z</time>
      </trkpt>
      <trkpt lat="62.633321278928" lon="17.984262558929">
        <ele>103</ele>
        <time>2018-01-03T13:35:40Z</time>
      </trkpt>
      <trkpt lat="62.633323458222" lon="17.984158455731">
        <ele>103.2</ele>
        <time>2018-01-03T13:35:41Z</time>
      </trkpt>
      <trkpt lat="62.633332426855" lon="17.984067763573">
        <ele>103.8</ele>
        <time>2018-01-03T13:35:42Z</time>
      </trkpt>
      <trkpt lat="62.633344161515" lon="17.984007581531">
        <ele>104.2</ele>
        <time>2018-01-03T13:35:43Z</time>
      </trkpt>
      <trkpt lat="62.633359081297" lon="17.983924013988">
        <ele>104.4</ele>
        <time>2018-01-03T13:35:44Z</time>
      </trkpt>
      <trkpt lat="62.633372576156" lon="17.983857126426">
        <ele>104.6</ele>
        <time>2018-01-03T13:35:45Z</time>
      </trkpt>
      <trkpt lat="62.633360254763" lon="17.983763500603">
        <ele>104.8</ele>
        <time>2018-01-03T13:35:46Z</time>
      </trkpt>
      <trkpt lat="62.633372576156" lon="17.983674820101">
        <ele>104.8</ele>
        <time>2018-01-03T13:35:47Z</time>
      </trkpt>
      <trkpt lat="62.633388753223" lon="17.983591420196">
        <ele>104.8</ele>
        <time>2018-01-03T13:35:48Z</time>
      </trkpt>
      <trkpt lat="62.633403086272" lon="17.983541296434">
        <ele>104.8</ele>
        <time>2018-01-03T13:35:49Z</time>
      </trkpt>
      <trkpt lat="62.633423621927" lon="17.983449263172">
        <ele>105</ele>
        <time>2018-01-03T13:35:50Z</time>
      </trkpt>
      <trkpt lat="62.633436865329" lon="17.983368294018">
        <ele>105</ele>
        <time>2018-01-03T13:35:51Z</time>
      </trkpt>
      <trkpt lat="62.633443235573" lon="17.983305681225">
        <ele>105</ele>
        <time>2018-01-03T13:35:52Z</time>
      </trkpt>
      <trkpt lat="62.633465699065" lon="17.983219599112">
        <ele>105</ele>
        <time>2018-01-03T13:35:53Z</time>
      </trkpt>
      <trkpt lat="62.633486653815" lon="17.983178611621">
        <ele>105</ele>
        <time>2018-01-03T13:35:54Z</time>
      </trkpt>
      <trkpt lat="62.633505010176" lon="17.983095463173">
        <ele>105</ele>
        <time>2018-01-03T13:35:55Z</time>
      </trkpt>
      <trkpt lat="62.633525126736" lon="17.983005693024">
        <ele>105</ele>
        <time>2018-01-03T13:35:56Z</time>
      </trkpt>
      <trkpt lat="62.633534933559" lon="17.982935201245">
        <ele>105</ele>
        <time>2018-01-03T13:35:57Z</time>
      </trkpt>
      <trkpt lat="62.633555553033" lon="17.982876444126">
        <ele>105</ele>
        <time>2018-01-03T13:35:58Z</time>
      </trkpt>
      <trkpt lat="62.633575669593" lon="17.982799079189">
        <ele>104.8</ele>
        <time>2018-01-03T13:35:59Z</time>
      </trkpt>
      <trkpt lat="62.63358514114" lon="17.982711488334">
        <ele>104.8</ele>
        <time>2018-01-03T13:36:00Z</time>
      </trkpt>
      <trkpt lat="62.633605676795" lon="17.982652060663">
        <ele>105</ele>
        <time>2018-01-03T13:36:01Z</time>
      </trkpt>
      <trkpt lat="62.633609867745" lon="17.982610570258">
        <ele>105</ele>
        <time>2018-01-03T13:36:02Z</time>
      </trkpt>
      <trkpt lat="62.633632415056" lon="17.982537312452">
        <ele>105</ele>
        <time>2018-01-03T13:36:03Z</time>
      </trkpt>
      <trkpt lat="62.633651609607" lon="17.98245533747">
        <ele>105</ele>
        <time>2018-01-03T13:36:04Z</time>
      </trkpt>
      <trkpt lat="62.633654375634" lon="17.982399094921">
        <ele>105.2</ele>
        <time>2018-01-03T13:36:05Z</time>
      </trkpt>
      <trkpt lat="62.63366560738" lon="17.982323322545">
        <ele>105.2</ele>
        <time>2018-01-03T13:36:06Z</time>
      </trkpt>
      <trkpt lat="62.633679353696" lon="17.982231205464">
        <ele>105.2</ele>
        <time>2018-01-03T13:36:07Z</time>
      </trkpt>
      <trkpt lat="62.633685053388" lon="17.982159121124">
        <ele>105.2</ele>
        <time>2018-01-03T13:36:08Z</time>
      </trkpt>
      <trkpt lat="62.633684215198" lon="17.982120564384">
        <ele>105.2</ele>
        <time>2018-01-03T13:36:09Z</time>
      </trkpt>
      <trkpt lat="62.633691088356" lon="17.982042025981">
        <ele>105.2</ele>
        <time>2018-01-03T13:36:10Z</time>
      </trkpt>
      <trkpt lat="62.633701481912" lon="17.981979832283">
        <ele>105.2</ele>
        <time>2018-01-03T13:36:11Z</time>
      </trkpt>
      <trkpt lat="62.633704331758" lon="17.98192727777">
        <ele>105.2</ele>
        <time>2018-01-03T13:36:12Z</time>
      </trkpt>
      <trkpt lat="62.633707600699" lon="17.981846392435">
        <ele>105.4</ele>
        <time>2018-01-03T13:36:13Z</time>
      </trkpt>
      <trkpt lat="62.633705756681" lon="17.981789730791">
        <ele>105.4</ele>
        <time>2018-01-03T13:36:14Z</time>
      </trkpt>
      <trkpt lat="62.63372092792" lon="17.981728962016">
        <ele>105.4</ele>
        <time>2018-01-03T13:36:15Z</time>
      </trkpt>
      <trkpt lat="62.633732075847" lon="17.981648244319">
        <ele>105.6</ele>
        <time>2018-01-03T13:36:16Z</time>
      </trkpt>
      <trkpt lat="62.63374272086" lon="17.981589403381">
        <ele>105.6</ele>
        <time>2018-01-03T13:36:17Z</time>
      </trkpt>
      <trkpt lat="62.63375361733" lon="17.981519414516">
        <ele>105.6</ele>
        <time>2018-01-03T13:36:18Z</time>
      </trkpt>
      <trkpt lat="62.63376199923" lon="17.981450682936">
        <ele>105.6</ele>
        <time>2018-01-03T13:36:19Z</time>
      </trkpt>
      <trkpt lat="62.633779852677" lon="17.981389495066">
        <ele>105.6</ele>
        <time>2018-01-03T13:36:20Z</time>
      </trkpt>
      <trkpt lat="62.633795862106" lon="17.981309615559">
        <ele>105.6</ele>
        <time>2018-01-03T13:36:21Z</time>
      </trkpt>
      <trkpt lat="62.633812877363" lon="17.981238956142">
        <ele>105.4</ele>
        <time>2018-01-03T13:36:22Z</time>
      </trkpt>
      <trkpt lat="62.633810027517" lon="17.981202997791">
        <ele>105.6</ele>
        <time>2018-01-03T13:36:23Z</time>
      </trkpt>
      <trkpt lat="62.633835340855" lon="17.981146839061">
        <ele>105.6</ele>
        <time>2018-01-03T13:36:24Z</time>
      </trkpt>
      <trkpt lat="62.63385336194" lon="17.98110166062">
        <ele>105.4</ele>
        <time>2018-01-03T13:36:25Z</time>
      </trkpt>
      <trkpt lat="62.633861408564" lon="17.981051788315">
        <ele>105.6</ele>
        <time>2018-01-03T13:36:26Z</time>
      </trkpt>
      <trkpt lat="62.633867778808" lon="17.981007531883">
        <ele>105.8</ele>
        <time>2018-01-03T13:36:27Z</time>
      </trkpt>
      <trkpt lat="62.63389778601" lon="17.980959000682">
        <ele>105.8</ele>
        <time>2018-01-03T13:36:28Z</time>
      </trkpt>
      <trkpt lat="62.633900384399" lon="17.980898064269">
        <ele>105.8</ele>
        <time>2018-01-03T13:36:29Z</time>
      </trkpt>
      <trkpt lat="62.633928296126" lon="17.98084433629">
        <ele>106.2</ele>
        <time>2018-01-03T13:36:30Z</time>
      </trkpt>
      <trkpt lat="62.633943467365" lon="17.980793625795">
        <ele>106.2</ele>
        <time>2018-01-03T13:36:31Z</time>
      </trkpt>
      <trkpt lat="62.633948496505" lon="17.980719697437">
        <ele>106.4</ele>
        <time>2018-01-03T13:36:32Z</time>
      </trkpt>
      <trkpt lat="62.633974564214" lon="17.980661107956">
        <ele>106.4</ele>
        <time>2018-01-03T13:36:33Z</time>
      </trkpt>
      <trkpt lat="62.633984203399" lon="17.980601428828">
        <ele>106.6</ele>
        <time>2018-01-03T13:36:34Z</time>
      </trkpt>
      <trkpt lat="62.633989232539" lon="17.980552059437">
        <ele>106.6</ele>
        <time>2018-01-03T13:36:35Z</time>
      </trkpt>
      <trkpt lat="62.634014629696" lon="17.980494475784">
        <ele>106.8</ele>
        <time>2018-01-03T13:36:36Z</time>
      </trkpt>
      <trkpt lat="62.634034578618" lon="17.980452566284">
        <ele>106.8</ele>
        <time>2018-01-03T13:36:37Z</time>
      </trkpt>
      <trkpt lat="62.634046648554" lon="17.980399927952">
        <ele>106.8</ele>
        <time>2018-01-03T13:36:38Z</time>
      </trkpt>
      <trkpt lat="62.63407296772" lon="17.980346367611">
        <ele>106.8</ele>
        <time>2018-01-03T13:36:39Z</time>
      </trkpt>
      <trkpt lat="62.634089647701" lon="17.980303452283">
        <ele>106.6</ele>
        <time>2018-01-03T13:36:40Z</time>
      </trkpt>
      <trkpt lat="62.634104064569" lon="17.980256513643">
        <ele>106.6</ele>
        <time>2018-01-03T13:36:41Z</time>
      </trkpt>
      <trkpt lat="62.634136251065" lon="17.980213011582">
        <ele>106.8</ele>
        <time>2018-01-03T13:36:42Z</time>
      </trkpt>
      <trkpt lat="62.634148488639" lon="17.980156769033">
        <ele>106.8</ele>
        <time>2018-01-03T13:36:43Z</time>
      </trkpt>
      <trkpt lat="62.634178244384" lon="17.980111506773">
        <ele>106.8</ele>
        <time>2018-01-03T13:36:44Z</time>
      </trkpt>
      <trkpt lat="62.634192242157" lon="17.980062388839">
        <ele>106.8</ele>
        <time>2018-01-03T13:36:45Z</time>
      </trkpt>
      <trkpt lat="62.634211520527" lon="17.980018216226">
        <ele>106.8</ele>
        <time>2018-01-03T13:36:46Z</time>
      </trkpt>
      <trkpt lat="62.634234570752" lon="17.97995082575">
        <ele>106.6</ele>
        <time>2018-01-03T13:36:47Z</time>
      </trkpt>
      <trkpt lat="62.634239516073" lon="17.979890559889">
        <ele>106.6</ele>
        <time>2018-01-03T13:36:48Z</time>
      </trkpt>
      <trkpt lat="62.634262063384" lon="17.979837586281">
        <ele>106.6</ele>
        <time>2018-01-03T13:36:49Z</time>
      </trkpt>
      <trkpt lat="62.634283688686" lon="17.979768267968">
        <ele>106.6</ele>
        <time>2018-01-03T13:36:50Z</time>
      </trkpt>
      <trkpt lat="62.634282263763" lon="17.979720407319">
        <ele>106.6</ele>
        <time>2018-01-03T13:36:51Z</time>
      </trkpt>
      <trkpt lat="62.634295674803" lon="17.979646059866">
        <ele>106.6</ele>
        <time>2018-01-03T13:36:52Z</time>
      </trkpt>
      <trkpt lat="62.634322580702" lon="17.979624266926">
        <ele>106.6</ele>
        <time>2018-01-03T13:36:53Z</time>
      </trkpt>
      <trkpt lat="62.634345882384" lon="17.979545896161">
        <ele>106.8</ele>
        <time>2018-01-03T13:36:54Z</time>
      </trkpt>
      <trkpt lat="62.634356862673" lon="17.979460819876">
        <ele>106.8</ele>
        <time>2018-01-03T13:36:55Z</time>
      </trkpt>
      <trkpt lat="62.634362394727" lon="17.979400554015">
        <ele>106.8</ele>
        <time>2018-01-03T13:36:56Z</time>
      </trkpt>
      <trkpt lat="62.634377901242" lon="17.979347915683">
        <ele>106.8</ele>
        <time>2018-01-03T13:36:57Z</time>
      </trkpt>
      <trkpt lat="62.634376727776" lon="17.979280106112">
        <ele>106.8</ele>
        <time>2018-01-03T13:36:58Z</time>
      </trkpt>
      <trkpt lat="62.634388881531" lon="17.979237693698">
        <ele>106.6</ele>
        <time>2018-01-03T13:36:59Z</time>
      </trkpt>
      <trkpt lat="62.634405645331" lon="17.979145408979">
        <ele>106.6</ele>
        <time>2018-01-03T13:37:00Z</time>
      </trkpt>
      <trkpt lat="62.634410339195" lon="17.979078437598">
        <ele>106.6</ele>
        <time>2018-01-03T13:37:01Z</time>
      </trkpt>
      <trkpt lat="62.634449063573" lon="17.978929407416">
        <ele>106.6</ele>
        <time>2018-01-03T13:37:03Z</time>
      </trkpt>
      <trkpt lat="62.634458954215" lon="17.978861346388">
        <ele>106.6</ele>
        <time>2018-01-03T13:37:04Z</time>
      </trkpt>
      <trkpt lat="62.634461804061" lon="17.978794542645">
        <ele>106.6</ele>
        <time>2018-01-03T13:37:05Z</time>
      </trkpt>
      <trkpt lat="62.634479322232" lon="17.978718434993">
        <ele>106.8</ele>
        <time>2018-01-03T13:37:06Z</time>
      </trkpt>
      <trkpt lat="62.634494242014" lon="17.97862145641">
        <ele>106.8</ele>
        <time>2018-01-03T13:37:07Z</time>
      </trkpt>
      <trkpt lat="62.634501953362" lon="17.978539900523">
        <ele>106.6</ele>
        <time>2018-01-03T13:37:08Z</time>
      </trkpt>
      <trkpt lat="62.634516873144" lon="17.978470917486">
        <ele>106.6</ele>
        <time>2018-01-03T13:37:09Z</time>
      </trkpt>
      <trkpt lat="62.634530284184" lon="17.978358600026">
        <ele>106.6</ele>
        <time>2018-01-03T13:37:10Z</time>
      </trkpt>
      <trkpt lat="62.634534558953" lon="17.978296993061">
        <ele>106.6</ele>
        <time>2018-01-03T13:37:11Z</time>
      </trkpt>
      <trkpt lat="62.634562386861" lon="17.978171432199">
        <ele>106</ele>
        <time>2018-01-03T13:37:12Z</time>
      </trkpt>
      <trkpt lat="62.634577893376" lon="17.978081494412">
        <ele>105.8</ele>
        <time>2018-01-03T13:37:13Z</time>
      </trkpt>
      <trkpt lat="62.634594070443" lon="17.978003626561">
        <ele>105.6</ele>
        <time>2018-01-03T13:37:14Z</time>
      </trkpt>
      <trkpt lat="62.634607062388" lon="17.977892566386">
        <ele>105.2</ele>
        <time>2018-01-03T13:37:15Z</time>
      </trkpt>
      <trkpt lat="62.634622065989" lon="17.977826684652">
        <ele>105.2</ele>
        <time>2018-01-03T13:37:16Z</time>
      </trkpt>
      <trkpt lat="62.634626843672" lon="17.977722329997">
        <ele>105</ele>
        <time>2018-01-03T13:37:17Z</time>
      </trkpt>
      <trkpt lat="62.634649474802" lon="17.977639852101">
        <ele>105</ele>
        <time>2018-01-03T13:37:18Z</time>
      </trkpt>
      <trkpt lat="62.634670932466" lon="17.977534156342">
        <ele>105</ele>
        <time>2018-01-03T13:37:19Z</time>
      </trkpt>
      <trkpt lat="62.6346865228" lon="17.977461485269">
        <ele>105</ele>
        <time>2018-01-03T13:37:20Z</time>
      </trkpt>
      <trkpt lat="62.63470663936" lon="17.977372050396">
        <ele>105</ele>
        <time>2018-01-03T13:37:21Z</time>
      </trkpt>
      <trkpt lat="62.634727091196" lon="17.977283286075">
        <ele>105</ele>
        <time>2018-01-03T13:37:22Z</time>
      </trkpt>
      <trkpt lat="62.634730611594" lon="17.97722084092">
        <ele>105</ele>
        <time>2018-01-03T13:37:23Z</time>
      </trkpt>
      <trkpt lat="62.634751314887" lon="17.977109445469">
        <ele>105</ele>
        <time>2018-01-03T13:37:24Z</time>
      </trkpt>
      <trkpt lat="62.634769000696" lon="17.977016154922">
        <ele>105</ele>
        <time>2018-01-03T13:37:25Z</time>
      </trkpt>
      <trkpt lat="62.634786015953" lon="17.976951362835">
        <ele>105</ele>
        <time>2018-01-03T13:37:26Z</time>
      </trkpt>
      <trkpt lat="62.634803450305" lon="17.976851618225">
        <ele>105</ele>
        <time>2018-01-03T13:37:27Z</time>
      </trkpt>
      <trkpt lat="62.634828596005" lon="17.97678414393">
        <ele>105</ele>
        <time>2018-01-03T13:37:28Z</time>
      </trkpt>
      <trkpt lat="62.63484242614" lon="17.976690853383">
        <ele>104.8</ele>
        <time>2018-01-03T13:37:29Z</time>
      </trkpt>
      <trkpt lat="62.6348625427" lon="17.976592366058">
        <ele>104.8</ele>
        <time>2018-01-03T13:37:30Z</time>
      </trkpt>
      <trkpt lat="62.634883665088" lon="17.976525059401">
        <ele>104.6</ele>
        <time>2018-01-03T13:37:31Z</time>
      </trkpt>
      <trkpt lat="62.634904033105" lon="17.976434451062">
        <ele>104.6</ele>
        <time>2018-01-03T13:37:32Z</time>
      </trkpt>
      <trkpt lat="62.63492289238" lon="17.976348368949">
        <ele>104.4</ele>
        <time>2018-01-03T13:37:33Z</time>
      </trkpt>
      <trkpt lat="62.634949379184" lon="17.976262454474">
        <ele>104.4</ele>
        <time>2018-01-03T13:37:34Z</time>
      </trkpt>
      <trkpt lat="62.634975279255" lon="17.976171091764">
        <ele>104.2</ele>
        <time>2018-01-03T13:37:35Z</time>
      </trkpt>
      <trkpt lat="62.634998497118" lon="17.976071933887">
        <ele>103.8</ele>
        <time>2018-01-03T13:37:36Z</time>
      </trkpt>
      <trkpt lat="62.635018278402" lon="17.975973027467">
        <ele>103.4</ele>
        <time>2018-01-03T13:37:37Z</time>
      </trkpt>
      <trkpt lat="62.635031102709" lon="17.975888370277">
        <ele>102.8</ele>
        <time>2018-01-03T13:37:38Z</time>
      </trkpt>
      <trkpt lat="62.635034120193" lon="17.975807149666">
        <ele>102.6</ele>
        <time>2018-01-03T13:37:39Z</time>
      </trkpt>
      <trkpt lat="62.635046860681" lon="17.97571293711">
        <ele>102.4</ele>
        <time>2018-01-03T13:37:40Z</time>
      </trkpt>
      <trkpt lat="62.635060858454" lon="17.975634063431">
        <ele>102.4</ele>
        <time>2018-01-03T13:37:41Z</time>
      </trkpt>
      <trkpt lat="62.635069994725" lon="17.97553691721">
        <ele>102.6</ele>
        <time>2018-01-03T13:37:42Z</time>
      </trkpt>
      <trkpt lat="62.635083573403" lon="17.975434071297">
        <ele>103</ele>
        <time>2018-01-03T13:37:43Z</time>
      </trkpt>
      <trkpt lat="62.635089943647" lon="17.975338601456">
        <ele>102.8</ele>
        <time>2018-01-03T13:37:44Z</time>
      </trkpt>
      <trkpt lat="62.635092122941" lon="17.975229636756">
        <ele>102.2</ele>
        <time>2018-01-03T13:37:45Z</time>
      </trkpt>
      <trkpt lat="62.635083070489" lon="17.97512033678">
        <ele>101.8</ele>
        <time>2018-01-03T13:37:46Z</time>
      </trkpt>
      <trkpt lat="62.635063792119" lon="17.975027381509">
        <ele>101.4</ele>
        <time>2018-01-03T13:37:47Z</time>
      </trkpt>
      <trkpt lat="62.635034287831" lon="17.974921601931">
        <ele>100.8</ele>
        <time>2018-01-03T13:37:48Z</time>
      </trkpt>
      <trkpt lat="62.635008723036" lon="17.974831915601">
        <ele>100.4</ele>
        <time>2018-01-03T13:37:49Z</time>
      </trkpt>
      <trkpt lat="62.634977793825" lon="17.974724459643">
        <ele>100.2</ele>
        <time>2018-01-03T13:37:50Z</time>
      </trkpt>
      <trkpt lat="62.63495306722" lon="17.974616836047">
        <ele>100</ele>
        <time>2018-01-03T13:37:51Z</time>
      </trkpt>
      <trkpt lat="62.634921886552" lon="17.974508877175">
        <ele>99.6</ele>
        <time>2018-01-03T13:37:52Z</time>
      </trkpt>
      <trkpt lat="62.634932447746" lon="17.974431428419">
        <ele>99.2</ele>
        <time>2018-01-03T13:37:53Z</time>
      </trkpt>
      <trkpt lat="62.634919204344" lon="17.974328414868">
        <ele>99</ele>
        <time>2018-01-03T13:37:54Z</time>
      </trkpt>
      <trkpt lat="62.634899674517" lon="17.974213331381">
        <ele>99</ele>
        <time>2018-01-03T13:37:55Z</time>
      </trkpt>
      <trkpt lat="62.634893639549" lon="17.974124064146">
        <ele>99</ele>
        <time>2018-01-03T13:37:56Z</time>
      </trkpt>
      <trkpt lat="62.6348709246" lon="17.974021637328">
        <ele>99.2</ele>
        <time>2018-01-03T13:37:57Z</time>
      </trkpt>
      <trkpt lat="62.63487343917" lon="17.973923233822">
        <ele>99.2</ele>
        <time>2018-01-03T13:37:58Z</time>
      </trkpt>
      <trkpt lat="62.634857094465" lon="17.973844443962">
        <ele>99.4</ele>
        <time>2018-01-03T13:37:59Z</time>
      </trkpt>
      <trkpt lat="62.634829098919" lon="17.973749644673">
        <ele>99.4</ele>
        <time>2018-01-03T13:38:00Z</time>
      </trkpt>
      <trkpt lat="62.634823231589" lon="17.973664819845">
        <ele>99.4</ele>
        <time>2018-01-03T13:38:01Z</time>
      </trkpt>
      <trkpt lat="62.634809149997" lon="17.973583180139">
        <ele>99.2</ele>
        <time>2018-01-03T13:38:02Z</time>
      </trkpt>
      <trkpt lat="62.634782327917" lon="17.973494331999">
        <ele>99.2</ele>
        <time>2018-01-03T13:38:03Z</time>
      </trkpt>
      <trkpt lat="62.634782830831" lon="17.973419313994">
        <ele>99.2</ele>
        <time>2018-01-03T13:38:04Z</time>
      </trkpt>
      <trkpt lat="62.634786518867" lon="17.973299620462">
        <ele>99.2</ele>
        <time>2018-01-03T13:38:05Z</time>
      </trkpt>
      <trkpt lat="62.634785177763" lon="17.973200714042">
        <ele>99</ele>
        <time>2018-01-03T13:38:06Z</time>
      </trkpt>
      <trkpt lat="62.634803785581" lon="17.973106501486">
        <ele>99</ele>
        <time>2018-01-03T13:38:07Z</time>
      </trkpt>
      <trkpt lat="62.634810826377" lon="17.973000638089">
        <ele>98.8</ele>
        <time>2018-01-03T13:38:08Z</time>
      </trkpt>
      <trkpt lat="62.63481728044" lon="17.972927128826">
        <ele>98.8</ele>
        <time>2018-01-03T13:38:09Z</time>
      </trkpt>
      <trkpt lat="62.634843096692" lon="17.97282621075">
        <ele>98.6</ele>
        <time>2018-01-03T13:38:10Z</time>
      </trkpt>
      <trkpt lat="62.634856926827" lon="17.972746917976">
        <ele>98.4</ele>
        <time>2018-01-03T13:38:11Z</time>
      </trkpt>
      <trkpt lat="62.634884084183" lon="17.972675252731">
        <ele>98.6</ele>
        <time>2018-01-03T13:38:12Z</time>
      </trkpt>
      <trkpt lat="62.634912498824" lon="17.972599396536">
        <ele>98.4</ele>
        <time>2018-01-03T13:38:13Z</time>
      </trkpt>
      <trkpt lat="62.634917108869" lon="17.972542231978">
        <ele>98.4</ele>
        <time>2018-01-03T13:38:14Z</time>
      </trkpt>
      <trkpt lat="62.63494300894" lon="17.972460256996">
        <ele>98.4</ele>
        <time>2018-01-03T13:38:15Z</time>
      </trkpt>
      <trkpt lat="62.634956168523" lon="17.972385155172">
        <ele>98.2</ele>
        <time>2018-01-03T13:38:16Z</time>
      </trkpt>
      <trkpt lat="62.634979637843" lon="17.972322290922">
        <ele>98.2</ele>
        <time>2018-01-03T13:38:17Z</time>
      </trkpt>
      <trkpt lat="62.635007884846" lon="17.97224534508">
        <ele>97.8</ele>
        <time>2018-01-03T13:38:18Z</time>
      </trkpt>
      <trkpt lat="62.635030935071" lon="17.972181977916">
        <ele>97.6</ele>
        <time>2018-01-03T13:38:19Z</time>
      </trkpt>
      <trkpt lat="62.635056080771" lon="17.972110815585">
        <ele>97.2</ele>
        <time>2018-01-03T13:38:20Z</time>
      </trkpt>
      <trkpt lat="62.635078376625" lon="17.972046777869">
        <ele>97.2</ele>
        <time>2018-01-03T13:38:21Z</time>
      </trkpt>
      <trkpt lat="62.635120369944" lon="17.971847372468">
        <ele>96.8</ele>
        <time>2018-01-03T13:38:23Z</time>
      </trkpt>
      <trkpt lat="62.635140067409" lon="17.971751315894">
        <ele>96.6</ele>
        <time>2018-01-03T13:38:24Z</time>
      </trkpt>
      <trkpt lat="62.635158088494" lon="17.971650649275">
        <ele>96.4</ele>
        <time>2018-01-03T13:38:25Z</time>
      </trkpt>
      <trkpt lat="62.63516764386" lon="17.971548306276">
        <ele>96</ele>
        <time>2018-01-03T13:38:26Z</time>
      </trkpt>
      <trkpt lat="62.635177785959" lon="17.971466331294">
        <ele>95.6</ele>
        <time>2018-01-03T13:38:27Z</time>
      </trkpt>
      <trkpt lat="62.635186167859" lon="17.971388631081">
        <ele>95.2</ele>
        <time>2018-01-03T13:38:28Z</time>
      </trkpt>
      <trkpt lat="62.635194298302" lon="17.971319564225">
        <ele>94.8</ele>
        <time>2018-01-03T13:38:29Z</time>
      </trkpt>
      <trkpt lat="62.6352062006" lon="17.971224597298">
        <ele>94.4</ele>
        <time>2018-01-03T13:38:30Z</time>
      </trkpt>
      <trkpt lat="62.635216342699" lon="17.971130300923">
        <ele>94.2</ele>
        <time>2018-01-03T13:38:31Z</time>
      </trkpt>
      <trkpt lat="62.635224473142" lon="17.971047320113">
        <ele>94</ele>
        <time>2018-01-03T13:38:32Z</time>
      </trkpt>
      <trkpt lat="62.635235621069" lon="17.970950090073">
        <ele>93.8</ele>
        <time>2018-01-03T13:38:33Z</time>
      </trkpt>
      <trkpt lat="62.635242494227" lon="17.970868450367">
        <ele>93.6</ele>
        <time>2018-01-03T13:38:34Z</time>
      </trkpt>
      <trkpt lat="62.635253223059" lon="17.97078857086">
        <ele>93.2</ele>
        <time>2018-01-03T13:38:35Z</time>
      </trkpt>
      <trkpt lat="62.635262778425" lon="17.97071145738">
        <ele>93</ele>
        <time>2018-01-03T13:38:36Z</time>
      </trkpt>
      <trkpt lat="62.635271830877" lon="17.970637277565">
        <ele>92.6</ele>
        <time>2018-01-03T13:38:37Z</time>
      </trkpt>
      <trkpt lat="62.635280548053" lon="17.970562594836">
        <ele>92.2</ele>
        <time>2018-01-03T13:38:38Z</time>
      </trkpt>
      <trkpt lat="62.635286163926" lon="17.970490007582">
        <ele>91.8</ele>
        <time>2018-01-03T13:38:39Z</time>
      </trkpt>
      <trkpt lat="62.63529588693" lon="17.970408116419">
        <ele>91.4</ele>
        <time>2018-01-03T13:38:40Z</time>
      </trkpt>
      <trkpt lat="62.63530510702" lon="17.970339971572">
        <ele>91</ele>
        <time>2018-01-03T13:38:41Z</time>
      </trkpt>
      <trkpt lat="62.635314578567" lon="17.970261516988">
        <ele>90.8</ele>
        <time>2018-01-03T13:38:42Z</time>
      </trkpt>
      <trkpt lat="62.635324804485" lon="17.970186163707">
        <ele>90.6</ele>
        <time>2018-01-03T13:38:43Z</time>
      </trkpt>
      <trkpt lat="62.635337377335" lon="17.97012220981">
        <ele>90.4</ele>
        <time>2018-01-03T13:38:44Z</time>
      </trkpt>
      <trkpt lat="62.635353219126" lon="17.970043084674">
        <ele>90.2</ele>
        <time>2018-01-03T13:38:45Z</time>
      </trkpt>
      <trkpt lat="62.635370318202" lon="17.969969323954">
        <ele>89.8</ele>
        <time>2018-01-03T13:38:46Z</time>
      </trkpt>
      <trkpt lat="62.635387333459" lon="17.969908974274">
        <ele>89.8</ele>
        <time>2018-01-03T13:38:47Z</time>
      </trkpt>
      <trkpt lat="62.635409126399" lon="17.969835213554">
        <ele>89.4</ele>
        <time>2018-01-03T13:38:48Z</time>
      </trkpt>
      <trkpt lat="62.635425135828" lon="17.969775869702">
        <ele>89.2</ele>
        <time>2018-01-03T13:38:49Z</time>
      </trkpt>
      <trkpt lat="62.635444917112" lon="17.969711077615">
        <ele>88.8</ele>
        <time>2018-01-03T13:38:50Z</time>
      </trkpt>
      <trkpt lat="62.635460339808" lon="17.969643435682">
        <ele>88.4</ele>
        <time>2018-01-03T13:38:51Z</time>
      </trkpt>
      <trkpt lat="62.635475427228" lon="17.969578308319">
        <ele>88.2</ele>
        <time>2018-01-03T13:38:52Z</time>
      </trkpt>
      <trkpt lat="62.635489760277" lon="17.969517120449">
        <ele>88</ele>
        <time>2018-01-03T13:38:53Z</time>
      </trkpt>
      <trkpt lat="62.635506607896" lon="17.96944579048">
        <ele>87.8</ele>
        <time>2018-01-03T13:38:54Z</time>
      </trkpt>
      <trkpt lat="62.635527730284" lon="17.969369766647">
        <ele>87.6</ele>
        <time>2018-01-03T13:38:55Z</time>
      </trkpt>
      <trkpt lat="62.635548517396" lon="17.96928988714">
        <ele>87.4</ele>
        <time>2018-01-03T13:38:56Z</time>
      </trkpt>
      <trkpt lat="62.635570058879" lon="17.969207073968">
        <ele>87.2</ele>
        <time>2018-01-03T13:38:57Z</time>
      </trkpt>
      <trkpt lat="62.63559344438" lon="17.969122332959">
        <ele>87</ele>
        <time>2018-01-03T13:38:58Z</time>
      </trkpt>
      <trkpt lat="62.635612052198" lon="17.96905184118">
        <ele>86.8</ele>
        <time>2018-01-03T13:38:59Z</time>
      </trkpt>
      <trkpt lat="62.635637700812" lon="17.968955700787">
        <ele>86.2</ele>
        <time>2018-01-03T13:39:00Z</time>
      </trkpt>
      <trkpt lat="62.63566049958" lon="17.968880096049">
        <ele>85.8</ele>
        <time>2018-01-03T13:39:01Z</time>
      </trkpt>
      <trkpt lat="62.635681957244" lon="17.968811029193">
        <ele>85.2</ele>
        <time>2018-01-03T13:39:02Z</time>
      </trkpt>
      <trkpt lat="62.635707689677" lon="17.968733161342">
        <ele>84.8</ele>
        <time>2018-01-03T13:39:03Z</time>
      </trkpt>
      <trkpt lat="62.63573342211" lon="17.968670045635">
        <ele>84.4</ele>
        <time>2018-01-03T13:39:04Z</time>
      </trkpt>
      <trkpt lat="62.635765943882" lon="17.968608857765">
        <ele>84.2</ele>
        <time>2018-01-03T13:39:05Z</time>
      </trkpt>
      <trkpt lat="62.635803243337" lon="17.968548759542">
        <ele>83.8</ele>
        <time>2018-01-03T13:39:06Z</time>
      </trkpt>
      <trkpt lat="62.635843560276" lon="17.96850450311">
        <ele>83.6</ele>
        <time>2018-01-03T13:39:07Z</time>
      </trkpt>
      <trkpt lat="62.635887062337" lon="17.968469382949">
        <ele>83.4</ele>
        <time>2018-01-03T13:39:08Z</time>
      </trkpt>
      <trkpt lat="62.635928468923" lon="17.968444488706">
        <ele>83.2</ele>
        <time>2018-01-03T13:39:09Z</time>
      </trkpt>
      <trkpt lat="62.635979430875" lon="17.968428646915">
        <ele>83</ele>
        <time>2018-01-03T13:39:10Z</time>
      </trkpt>
      <trkpt lat="62.636020502185" lon="17.968426132345">
        <ele>82.8</ele>
        <time>2018-01-03T13:39:11Z</time>
      </trkpt>
      <trkpt lat="62.636066937911" lon="17.968431496761">
        <ele>82.6</ele>
        <time>2018-01-03T13:39:12Z</time>
      </trkpt>
      <trkpt lat="62.636104488823" lon="17.96844080067">
        <ele>82.2</ele>
        <time>2018-01-03T13:39:13Z</time>
      </trkpt>
      <trkpt lat="62.636135669491" lon="17.968449434027">
        <ele>81.8</ele>
        <time>2018-01-03T13:39:14Z</time>
      </trkpt>
    </trkseg>
  </trk>
</gpx>